<?xml version='1.0' encoding='UTF-8'?><gpx version="1.1" creator="JPX - https://github.com/jenetics/jpx" xmlns="http://www.topografix.com/GPX/1/1"><trk><trkseg><trkpt lat="38.1699317" lon="15.6564167"><ele>37.0</ele><time>2026-04-26T06:29:25.797Z</time></trkpt><trkpt lat="38.1698717" lon="15.6562817"><ele>37.0</ele><time>2026-04-26T06:29:26.797Z</time></trkpt><trkpt lat="38.169745" lon="15.65601"><ele>37.0</ele><time>2026-04-26T06:29:28.797Z</time></trkpt><trkpt lat="38.16969" lon="15.6558617"><ele>35.5</ele><time>2026-04-26T06:29:29.796Z</time></trkpt><trkpt lat="38.169635" lon="15.655715"><ele>34.0</ele><time>2026-04-26T06:29:30.797Z</time></trkpt><trkpt lat="38.1696117" lon="15.65556"><ele>32.5</ele><time>2026-04-26T06:29:31.796Z</time></trkpt><trkpt lat="38.16956" lon="15.655425"><ele>31.0</ele><time>2026-04-26T06:29:32.797Z</time></trkpt><trkpt lat="38.1694883" lon="15.6552867"><ele>30.75</ele><time>2026-04-26T06:29:33.796Z</time></trkpt><trkpt lat="38.1694283" lon="15.6551167"><ele>30.5</ele><time>2026-04-26T06:29:34.797Z</time></trkpt><trkpt lat="38.1693717" lon="15.65495"><ele>30.25</ele><time>2026-04-26T06:29:35.796Z</time></trkpt><trkpt lat="38.1693033" lon="15.654785"><ele>30.0</ele><time>2026-04-26T06:29:36.797Z</time></trkpt><trkpt lat="38.1692433" lon="15.6546167"><ele>29.75</ele><time>2026-04-26T06:29:37.796Z</time></trkpt><trkpt lat="38.169185" lon="15.654445"><ele>29.5</ele><time>2026-04-26T06:29:38.796Z</time></trkpt><trkpt lat="38.16912" lon="15.6542817"><ele>29.25</ele><time>2026-04-26T06:29:39.797Z</time></trkpt><trkpt lat="38.1690467" lon="15.65412"><ele>29.0</ele><time>2026-04-26T06:29:40.797Z</time></trkpt><trkpt lat="38.1689733" lon="15.6539733"><ele>28.25</ele><time>2026-04-26T06:29:41.796Z</time></trkpt><trkpt lat="38.1689" lon="15.6538333"><ele>27.5</ele><time>2026-04-26T06:29:42.796Z</time></trkpt><trkpt lat="38.168835" lon="15.6537017"><ele>26.75</ele><time>2026-04-26T06:29:43.797Z</time></trkpt><trkpt lat="38.1687817" lon="15.6535683"><ele>26.0</ele><time>2026-04-26T06:29:44.796Z</time></trkpt><trkpt lat="38.168735" lon="15.6534383"><ele>26.0</ele><time>2026-04-26T06:29:45.796Z</time></trkpt><trkpt lat="38.1686867" lon="15.65332"><ele>26.0</ele><time>2026-04-26T06:29:46.796Z</time></trkpt><trkpt lat="38.1686467" lon="15.6532"><ele>26.0</ele><time>2026-04-26T06:29:47.797Z</time></trkpt><trkpt lat="38.1686083" lon="15.6530867"><ele>26.0</ele><time>2026-04-26T06:29:48.797Z</time></trkpt><trkpt lat="38.16858" lon="15.6529833"><ele>26.0</ele><time>2026-04-26T06:29:49.797Z</time></trkpt><trkpt lat="38.1685583" lon="15.6528967"><ele>25.999999999999996</ele><time>2026-04-26T06:29:50.797Z</time></trkpt><trkpt lat="38.1685417" lon="15.6528167"><ele>26.0</ele><time>2026-04-26T06:29:51.796Z</time></trkpt><trkpt lat="38.16849" lon="15.6527067"><ele>26.0</ele><time>2026-04-26T06:29:53.797Z</time></trkpt><trkpt lat="38.1684033" lon="15.6526767"><ele>26.0</ele><time>2026-04-26T06:29:55.797Z</time></trkpt><trkpt lat="38.1683417" lon="15.652695"><ele>25.999999999999996</ele><time>2026-04-26T06:29:56.796Z</time></trkpt><trkpt lat="38.1682683" lon="15.652725"><ele>26.0</ele><time>2026-04-26T06:29:57.796Z</time></trkpt><trkpt lat="38.1681833" lon="15.6527617"><ele>25.8</ele><time>2026-04-26T06:29:58.797Z</time></trkpt><trkpt lat="38.16808" lon="15.65281"><ele>25.6</ele><time>2026-04-26T06:29:59.796Z</time></trkpt><trkpt lat="38.16798" lon="15.6528533"><ele>25.4</ele><time>2026-04-26T06:30:00.796Z</time></trkpt><trkpt lat="38.167885" lon="15.6528883"><ele>25.2</ele><time>2026-04-26T06:30:01.796Z</time></trkpt><trkpt lat="38.1677933" lon="15.652925"><ele>25.0</ele><time>2026-04-26T06:30:02.797Z</time></trkpt><trkpt lat="38.1677067" lon="15.65296"><ele>25.0</ele><time>2026-04-26T06:30:03.797Z</time></trkpt><trkpt lat="38.1676183" lon="15.6529717"><ele>25.0</ele><time>2026-04-26T06:30:04.796Z</time></trkpt><trkpt lat="38.1675067" lon="15.6529917"><ele>25.0</ele><time>2026-04-26T06:30:05.796Z</time></trkpt><trkpt lat="38.1674067" lon="15.65302"><ele>25.0</ele><time>2026-04-26T06:30:06.797Z</time></trkpt><trkpt lat="38.1672983" lon="15.6530433"><ele>25.0</ele><time>2026-04-26T06:30:07.796Z</time></trkpt><trkpt lat="38.167205" lon="15.6530683"><ele>25.0</ele><time>2026-04-26T06:30:08.797Z</time></trkpt><trkpt lat="38.1671017" lon="15.653095"><ele>25.0</ele><time>2026-04-26T06:30:09.797Z</time></trkpt><trkpt lat="38.1669983" lon="15.65312"><ele>25.0</ele><time>2026-04-26T06:30:10.797Z</time></trkpt><trkpt lat="38.1668883" lon="15.6531517"><ele>25.0</ele><time>2026-04-26T06:30:11.797Z</time></trkpt><trkpt lat="38.1667817" lon="15.6531817"><ele>25.0</ele><time>2026-04-26T06:30:12.797Z</time></trkpt><trkpt lat="38.16667" lon="15.6532067"><ele>25.0</ele><time>2026-04-26T06:30:13.797Z</time></trkpt><trkpt lat="38.1665617" lon="15.65325"><ele>25.0</ele><time>2026-04-26T06:30:14.797Z</time></trkpt><trkpt lat="38.1664567" lon="15.653285"><ele>25.0</ele><time>2026-04-26T06:30:15.796Z</time></trkpt><trkpt lat="38.1663567" lon="15.6533333"><ele>25.0</ele><time>2026-04-26T06:30:16.797Z</time></trkpt><trkpt lat="38.1662483" lon="15.653375"><ele>25.0</ele><time>2026-04-26T06:30:17.796Z</time></trkpt><trkpt lat="38.1661433" lon="15.6534117"><ele>24.0</ele><time>2026-04-26T06:30:18.797Z</time></trkpt><trkpt lat="38.1660333" lon="15.6534617"><ele>23.0</ele><time>2026-04-26T06:30:19.796Z</time></trkpt><trkpt lat="38.1659317" lon="15.6535033"><ele>22.0</ele><time>2026-04-26T06:30:20.796Z</time></trkpt><trkpt lat="38.16583" lon="15.6535367"><ele>21.0</ele><time>2026-04-26T06:30:21.797Z</time></trkpt><trkpt lat="38.1657317" lon="15.6535733"><ele>20.0</ele><time>2026-04-26T06:30:22.797Z</time></trkpt><trkpt lat="38.1656367" lon="15.65361"><ele>20.2</ele><time>2026-04-26T06:30:23.796Z</time></trkpt><trkpt lat="38.1655383" lon="15.6536617"><ele>20.4</ele><time>2026-04-26T06:30:24.796Z</time></trkpt><trkpt lat="38.1654367" lon="15.653695"><ele>20.6</ele><time>2026-04-26T06:30:25.796Z</time></trkpt><trkpt lat="38.1653433" lon="15.653745"><ele>20.8</ele><time>2026-04-26T06:30:26.796Z</time></trkpt><trkpt lat="38.1652433" lon="15.653815"><ele>21.0</ele><time>2026-04-26T06:30:27.796Z</time></trkpt><trkpt lat="38.165135" lon="15.65385"><ele>21.0</ele><time>2026-04-26T06:30:28.796Z</time></trkpt><trkpt lat="38.1650217" lon="15.6538867"><ele>21.0</ele><time>2026-04-26T06:30:29.796Z</time></trkpt><trkpt lat="38.164915" lon="15.653925"><ele>21.0</ele><time>2026-04-26T06:30:30.797Z</time></trkpt><trkpt lat="38.164795" lon="15.6539433"><ele>21.0</ele><time>2026-04-26T06:30:31.797Z</time></trkpt><trkpt lat="38.1646883" lon="15.65398"><ele>20.400000000000002</ele><time>2026-04-26T06:30:32.796Z</time></trkpt><trkpt lat="38.1645767" lon="15.654015"><ele>19.8</ele><time>2026-04-26T06:30:33.796Z</time></trkpt><trkpt lat="38.1644833" lon="15.6540667"><ele>19.200000000000003</ele><time>2026-04-26T06:30:34.797Z</time></trkpt><trkpt lat="38.164385" lon="15.6541117"><ele>18.6</ele><time>2026-04-26T06:30:35.796Z</time></trkpt><trkpt lat="38.16428" lon="15.6541583"><ele>18.0</ele><time>2026-04-26T06:30:36.797Z</time></trkpt><trkpt lat="38.1641767" lon="15.6542133"><ele>18.0</ele><time>2026-04-26T06:30:37.797Z</time></trkpt><trkpt lat="38.1640617" lon="15.6542567"><ele>18.0</ele><time>2026-04-26T06:30:38.796Z</time></trkpt><trkpt lat="38.16394" lon="15.6543033"><ele>18.0</ele><time>2026-04-26T06:30:39.796Z</time></trkpt><trkpt lat="38.1638117" lon="15.6543567"><ele>18.0</ele><time>2026-04-26T06:30:40.797Z</time></trkpt><trkpt lat="38.1636817" lon="15.6544117"><ele>18.0</ele><time>2026-04-26T06:30:41.796Z</time></trkpt><trkpt lat="38.1635417" lon="15.6544533"><ele>18.0</ele><time>2026-04-26T06:30:42.796Z</time></trkpt><trkpt lat="38.1633967" lon="15.6545283"><ele>18.0</ele><time>2026-04-26T06:30:43.796Z</time></trkpt><trkpt lat="38.1632417" lon="15.6546033"><ele>17.333333333333332</ele><time>2026-04-26T06:30:44.797Z</time></trkpt><trkpt lat="38.1630817" lon="15.654675"><ele>16.666666666666664</ele><time>2026-04-26T06:30:45.796Z</time></trkpt><trkpt lat="38.1629217" lon="15.6547567"><ele>16.0</ele><time>2026-04-26T06:30:46.796Z</time></trkpt><trkpt lat="38.16276" lon="15.65482"><ele>16.0</ele><time>2026-04-26T06:30:47.797Z</time></trkpt><trkpt lat="38.1625833" lon="15.654895"><ele>16.0</ele><time>2026-04-26T06:30:48.796Z</time></trkpt><trkpt lat="38.1624067" lon="15.654965"><ele>16.0</ele><time>2026-04-26T06:30:49.797Z</time></trkpt><trkpt lat="38.1622333" lon="15.655025"><ele>16.0</ele><time>2026-04-26T06:30:50.797Z</time></trkpt><trkpt lat="38.1620433" lon="15.6550967"><ele>16.0</ele><time>2026-04-26T06:30:51.797Z</time></trkpt><trkpt lat="38.1618517" lon="15.6551667"><ele>16.0</ele><time>2026-04-26T06:30:52.796Z</time></trkpt><trkpt lat="38.1616617" lon="15.655235"><ele>17.0</ele><time>2026-04-26T06:30:53.797Z</time></trkpt><trkpt lat="38.1614617" lon="15.6552933"><ele>18.0</ele><time>2026-04-26T06:30:54.797Z</time></trkpt><trkpt lat="38.1612683" lon="15.6553483"><ele>19.0</ele><time>2026-04-26T06:30:55.796Z</time></trkpt><trkpt lat="38.1610667" lon="15.65541"><ele>19.0</ele><time>2026-04-26T06:30:56.797Z</time></trkpt><trkpt lat="38.1608617" lon="15.6554617"><ele>19.0</ele><time>2026-04-26T06:30:57.796Z</time></trkpt><trkpt lat="38.1606517" lon="15.6555017"><ele>19.0</ele><time>2026-04-26T06:30:58.796Z</time></trkpt><trkpt lat="38.160435" lon="15.6555383"><ele>19.0</ele><time>2026-04-26T06:30:59.796Z</time></trkpt><trkpt lat="38.1602567" lon="15.6555883"><ele>19.0</ele><time>2026-04-26T06:31:00.796Z</time></trkpt><trkpt lat="38.16011" lon="15.6556333"><ele>19.0</ele><time>2026-04-26T06:31:01.797Z</time></trkpt><trkpt lat="38.15999" lon="15.6556667"><ele>19.0</ele><time>2026-04-26T06:31:02.796Z</time></trkpt><trkpt lat="38.1599033" lon="15.65569"><ele>19.0</ele><time>2026-04-26T06:31:03.796Z</time></trkpt><trkpt lat="38.1598183" lon="15.655715"><ele>19.0</ele><time>2026-04-26T06:31:04.797Z</time></trkpt><trkpt lat="38.1597267" lon="15.6557517"><ele>19.0</ele><time>2026-04-26T06:31:05.797Z</time></trkpt><trkpt lat="38.1596317" lon="15.6557967"><ele>19.0</ele><time>2026-04-26T06:31:06.796Z</time></trkpt><trkpt lat="38.1595217" lon="15.6558517"><ele>19.0</ele><time>2026-04-26T06:31:07.797Z</time></trkpt><trkpt lat="38.159385" lon="15.655895"><ele>19.0</ele><time>2026-04-26T06:31:08.796Z</time></trkpt><trkpt lat="38.159265" lon="15.6559533"><ele>19.0</ele><time>2026-04-26T06:31:09.796Z</time></trkpt><trkpt lat="38.15913" lon="15.6560167"><ele>19.0</ele><time>2026-04-26T06:31:10.796Z</time></trkpt><trkpt lat="38.15899" lon="15.656075"><ele>20.0</ele><time>2026-04-26T06:31:11.797Z</time></trkpt><trkpt lat="38.1588367" lon="15.6561333"><ele>21.0</ele><time>2026-04-26T06:31:12.796Z</time></trkpt><trkpt lat="38.1586767" lon="15.6561967"><ele>22.0</ele><time>2026-04-26T06:31:13.797Z</time></trkpt><trkpt lat="38.1585117" lon="15.6562667"><ele>22.0</ele><time>2026-04-26T06:31:14.797Z</time></trkpt><trkpt lat="38.1583433" lon="15.656335"><ele>22.0</ele><time>2026-04-26T06:31:15.796Z</time></trkpt><trkpt lat="38.1581683" lon="15.6564033"><ele>22.0</ele><time>2026-04-26T06:31:16.796Z</time></trkpt><trkpt lat="38.158" lon="15.65648"><ele>23.0</ele><time>2026-04-26T06:31:17.797Z</time></trkpt><trkpt lat="38.1578267" lon="15.656555"><ele>24.0</ele><time>2026-04-26T06:31:18.796Z</time></trkpt><trkpt lat="38.1576517" lon="15.6566217"><ele>25.0</ele><time>2026-04-26T06:31:19.797Z</time></trkpt><trkpt lat="38.1574833" lon="15.656715"><ele>23.333333333333336</ele><time>2026-04-26T06:31:20.796Z</time></trkpt><trkpt lat="38.1573167" lon="15.6568033"><ele>21.666666666666668</ele><time>2026-04-26T06:31:21.797Z</time></trkpt><trkpt lat="38.1571417" lon="15.656875"><ele>20.0</ele><time>2026-04-26T06:31:22.797Z</time></trkpt><trkpt lat="38.1569717" lon="15.6569367"><ele>20.0</ele><time>2026-04-26T06:31:23.797Z</time></trkpt><trkpt lat="38.1568" lon="15.6570217"><ele>20.0</ele><time>2026-04-26T06:31:24.797Z</time></trkpt><trkpt lat="38.1566417" lon="15.6571067"><ele>20.0</ele><time>2026-04-26T06:31:25.796Z</time></trkpt><trkpt lat="38.1564717" lon="15.6571667"><ele>19.0</ele><time>2026-04-26T06:31:26.797Z</time></trkpt><trkpt lat="38.1563017" lon="15.657235"><ele>18.0</ele><time>2026-04-26T06:31:27.796Z</time></trkpt><trkpt lat="38.1561267" lon="15.6573083"><ele>17.0</ele><time>2026-04-26T06:31:28.797Z</time></trkpt><trkpt lat="38.155955" lon="15.657385"><ele>17.0</ele><time>2026-04-26T06:31:29.797Z</time></trkpt><trkpt lat="38.1558033" lon="15.657455"><ele>17.0</ele><time>2026-04-26T06:31:30.797Z</time></trkpt><trkpt lat="38.1556667" lon="15.657535"><ele>17.0</ele><time>2026-04-26T06:31:31.796Z</time></trkpt><trkpt lat="38.1555517" lon="15.65762"><ele>17.0</ele><time>2026-04-26T06:31:32.796Z</time></trkpt><trkpt lat="38.1554467" lon="15.6576833"><ele>17.0</ele><time>2026-04-26T06:31:33.797Z</time></trkpt><trkpt lat="38.1553683" lon="15.6577433"><ele>17.0</ele><time>2026-04-26T06:31:34.796Z</time></trkpt><trkpt lat="38.1553083" lon="15.65778"><ele>17.0</ele><time>2026-04-26T06:31:35.797Z</time></trkpt><trkpt lat="38.1551967" lon="15.6578233"><ele>17.0</ele><time>2026-04-26T06:31:37.796Z</time></trkpt><trkpt lat="38.155135" lon="15.6577983"><ele>17.0</ele><time>2026-04-26T06:31:38.796Z</time></trkpt><trkpt lat="38.1550683" lon="15.6576833"><ele>17.0</ele><time>2026-04-26T06:31:39.796Z</time></trkpt><trkpt lat="38.1549883" lon="15.6576"><ele>17.0</ele><time>2026-04-26T06:31:40.797Z</time></trkpt><trkpt lat="38.1548817" lon="15.6575017"><ele>17.0</ele><time>2026-04-26T06:31:41.797Z</time></trkpt><trkpt lat="38.1547633" lon="15.6574267"><ele>17.0</ele><time>2026-04-26T06:31:42.796Z</time></trkpt><trkpt lat="38.154645" lon="15.65739"><ele>16.0</ele><time>2026-04-26T06:31:43.797Z</time></trkpt><trkpt lat="38.1545117" lon="15.6573733"><ele>15.0</ele><time>2026-04-26T06:31:44.796Z</time></trkpt><trkpt lat="38.15437" lon="15.657405"><ele>14.0</ele><time>2026-04-26T06:31:45.796Z</time></trkpt><trkpt lat="38.1542533" lon="15.6574367"><ele>13.0</ele><time>2026-04-26T06:31:46.796Z</time></trkpt><trkpt lat="38.1541417" lon="15.6574633"><ele>12.999999999999998</ele><time>2026-04-26T06:31:47.796Z</time></trkpt><trkpt lat="38.154055" lon="15.6574833"><ele>13.0</ele><time>2026-04-26T06:31:48.796Z</time></trkpt><trkpt lat="38.1539783" lon="15.657505"><ele>13.0</ele><time>2026-04-26T06:31:49.797Z</time></trkpt><trkpt lat="38.1539133" lon="15.6575117"><ele>13.0</ele><time>2026-04-26T06:31:50.797Z</time></trkpt><trkpt lat="38.1538117" lon="15.65752"><ele>12.999999999999998</ele><time>2026-04-26T06:31:52.797Z</time></trkpt><trkpt lat="38.1537033" lon="15.6575317"><ele>13.0</ele><time>2026-04-26T06:31:54.796Z</time></trkpt><trkpt lat="38.1536317" lon="15.657545"><ele>13.25</ele><time>2026-04-26T06:31:55.797Z</time></trkpt><trkpt lat="38.1535433" lon="15.6575483"><ele>13.5</ele><time>2026-04-26T06:31:56.796Z</time></trkpt><trkpt lat="38.15345" lon="15.6575633"><ele>13.75</ele><time>2026-04-26T06:31:57.797Z</time></trkpt><trkpt lat="38.1533083" lon="15.65761"><ele>14.0</ele><time>2026-04-26T06:31:58.797Z</time></trkpt><trkpt lat="38.1531517" lon="15.6576633"><ele>14.0</ele><time>2026-04-26T06:31:59.797Z</time></trkpt><trkpt lat="38.1529883" lon="15.65771"><ele>14.0</ele><time>2026-04-26T06:32:00.797Z</time></trkpt><trkpt lat="38.1528283" lon="15.657755"><ele>14.0</ele><time>2026-04-26T06:32:01.796Z</time></trkpt><trkpt lat="38.15267" lon="15.6578033"><ele>14.0</ele><time>2026-04-26T06:32:02.796Z</time></trkpt><trkpt lat="38.1525233" lon="15.65784"><ele>14.0</ele><time>2026-04-26T06:32:03.796Z</time></trkpt><trkpt lat="38.1523917" lon="15.6578633"><ele>14.0</ele><time>2026-04-26T06:32:04.796Z</time></trkpt><trkpt lat="38.1522717" lon="15.6578817"><ele>14.0</ele><time>2026-04-26T06:32:05.796Z</time></trkpt><trkpt lat="38.152155" lon="15.6578833"><ele>14.25</ele><time>2026-04-26T06:32:06.797Z</time></trkpt><trkpt lat="38.152035" lon="15.6578767"><ele>14.5</ele><time>2026-04-26T06:32:07.796Z</time></trkpt><trkpt lat="38.151905" lon="15.6578533"><ele>14.75</ele><time>2026-04-26T06:32:08.796Z</time></trkpt><trkpt lat="38.1517717" lon="15.657825"><ele>15.0</ele><time>2026-04-26T06:32:09.797Z</time></trkpt><trkpt lat="38.1516433" lon="15.6577967"><ele>14.4</ele><time>2026-04-26T06:32:10.797Z</time></trkpt><trkpt lat="38.1515317" lon="15.6577667"><ele>13.8</ele><time>2026-04-26T06:32:11.796Z</time></trkpt><trkpt lat="38.1514217" lon="15.6577417"><ele>13.2</ele><time>2026-04-26T06:32:12.797Z</time></trkpt><trkpt lat="38.1513133" lon="15.657725"><ele>12.6</ele><time>2026-04-26T06:32:13.796Z</time></trkpt><trkpt lat="38.1512033" lon="15.6576983"><ele>12.0</ele><time>2026-04-26T06:32:14.797Z</time></trkpt><trkpt lat="38.1510883" lon="15.6576733"><ele>12.0</ele><time>2026-04-26T06:32:15.796Z</time></trkpt><trkpt lat="38.1509633" lon="15.657645"><ele>12.0</ele><time>2026-04-26T06:32:16.796Z</time></trkpt><trkpt lat="38.1508383" lon="15.6575983"><ele>12.0</ele><time>2026-04-26T06:32:17.797Z</time></trkpt><trkpt lat="38.1507033" lon="15.65754"><ele>12.0</ele><time>2026-04-26T06:32:18.796Z</time></trkpt><trkpt lat="38.1505617" lon="15.6575117"><ele>13.0</ele><time>2026-04-26T06:32:19.797Z</time></trkpt><trkpt lat="38.15042" lon="15.6574767"><ele>14.0</ele><time>2026-04-26T06:32:20.797Z</time></trkpt><trkpt lat="38.1502883" lon="15.657445"><ele>15.0</ele><time>2026-04-26T06:32:21.797Z</time></trkpt><trkpt lat="38.15016" lon="15.6574183"><ele>16.0</ele><time>2026-04-26T06:32:22.796Z</time></trkpt><trkpt lat="38.150055" lon="15.65739"><ele>15.999999999999998</ele><time>2026-04-26T06:32:23.797Z</time></trkpt><trkpt lat="38.14997" lon="15.657365"><ele>16.0</ele><time>2026-04-26T06:32:24.796Z</time></trkpt><trkpt lat="38.149875" lon="15.65732"><ele>16.0</ele><time>2026-04-26T06:32:26.796Z</time></trkpt><trkpt lat="38.149815" lon="15.6572833"><ele>16.0</ele><time>2026-04-26T06:32:29.797Z</time></trkpt><trkpt lat="38.1497167" lon="15.657265"><ele>15.999999999999998</ele><time>2026-04-26T06:32:32.797Z</time></trkpt><trkpt lat="38.1496767" lon="15.6571817"><ele>16.0</ele><time>2026-04-26T06:32:35.796Z</time></trkpt><trkpt lat="38.1497133" lon="15.6570967"><ele>16.333333333333332</ele><time>2026-04-26T06:32:37.797Z</time></trkpt><trkpt lat="38.1496883" lon="15.6570133"><ele>16.666666666666664</ele><time>2026-04-26T06:36:47.797Z</time></trkpt><trkpt lat="38.1496183" lon="15.6570233"><ele>17.0</ele><time>2026-04-26T06:36:49.796Z</time></trkpt><trkpt lat="38.1495983" lon="15.6569017"><ele>17.333333333333332</ele><time>2026-04-26T06:36:52.797Z</time></trkpt><trkpt lat="38.1496433" lon="15.6568017"><ele>17.666666666666668</ele><time>2026-04-26T06:36:53.796Z</time></trkpt><trkpt lat="38.1496833" lon="15.6566817"><ele>18.0</ele><time>2026-04-26T06:36:54.796Z</time></trkpt><trkpt lat="38.1497017" lon="15.6565617"><ele>16.25</ele><time>2026-04-26T06:36:55.797Z</time></trkpt><trkpt lat="38.149675" lon="15.6564517"><ele>14.5</ele><time>2026-04-26T06:36:56.796Z</time></trkpt><trkpt lat="38.1496083" lon="15.656355"><ele>12.75</ele><time>2026-04-26T06:36:57.796Z</time></trkpt><trkpt lat="38.149505" lon="15.6562683"><ele>11.0</ele><time>2026-04-26T06:36:58.796Z</time></trkpt><trkpt lat="38.1493567" lon="15.656205"><ele>11.0</ele><time>2026-04-26T06:36:59.797Z</time></trkpt><trkpt lat="38.1492067" lon="15.6561433"><ele>11.0</ele><time>2026-04-26T06:37:00.796Z</time></trkpt><trkpt lat="38.1490633" lon="15.6560667"><ele>11.0</ele><time>2026-04-26T06:37:01.796Z</time></trkpt><trkpt lat="38.1489233" lon="15.655975"><ele>10.0</ele><time>2026-04-26T06:37:02.796Z</time></trkpt><trkpt lat="38.1487817" lon="15.6558883"><ele>9.0</ele><time>2026-04-26T06:37:03.797Z</time></trkpt><trkpt lat="38.1486333" lon="15.6558083"><ele>8.0</ele><time>2026-04-26T06:37:04.796Z</time></trkpt><trkpt lat="38.1484867" lon="15.6557117"><ele>8.0</ele><time>2026-04-26T06:37:05.797Z</time></trkpt><trkpt lat="38.1483333" lon="15.65562"><ele>8.0</ele><time>2026-04-26T06:37:06.796Z</time></trkpt><trkpt lat="38.1481833" lon="15.6555183"><ele>8.0</ele><time>2026-04-26T06:37:07.796Z</time></trkpt><trkpt lat="38.1480317" lon="15.65541"><ele>8.333333333333332</ele><time>2026-04-26T06:37:08.796Z</time></trkpt><trkpt lat="38.1478733" lon="15.6553117"><ele>8.666666666666666</ele><time>2026-04-26T06:37:09.796Z</time></trkpt><trkpt lat="38.1477183" lon="15.6552017"><ele>9.0</ele><time>2026-04-26T06:37:10.796Z</time></trkpt><trkpt lat="38.1475617" lon="15.655105"><ele>9.0</ele><time>2026-04-26T06:37:11.796Z</time></trkpt><trkpt lat="38.1474033" lon="15.6550283"><ele>9.0</ele><time>2026-04-26T06:37:12.796Z</time></trkpt><trkpt lat="38.1472467" lon="15.65496"><ele>9.0</ele><time>2026-04-26T06:37:13.796Z</time></trkpt><trkpt lat="38.1470917" lon="15.6549117"><ele>10.0</ele><time>2026-04-26T06:37:14.797Z</time></trkpt><trkpt lat="38.146935" lon="15.6548617"><ele>11.0</ele><time>2026-04-26T06:37:15.797Z</time></trkpt><trkpt lat="38.1467883" lon="15.6548183"><ele>12.0</ele><time>2026-04-26T06:37:16.796Z</time></trkpt><trkpt lat="38.146635" lon="15.6547817"><ele>12.333333333333332</ele><time>2026-04-26T06:37:17.796Z</time></trkpt><trkpt lat="38.14648" lon="15.6547383"><ele>12.666666666666666</ele><time>2026-04-26T06:37:18.796Z</time></trkpt><trkpt lat="38.1463267" lon="15.6546883"><ele>13.0</ele><time>2026-04-26T06:37:19.797Z</time></trkpt><trkpt lat="38.1461633" lon="15.6546433"><ele>13.0</ele><time>2026-04-26T06:37:20.796Z</time></trkpt><trkpt lat="38.1459983" lon="15.6546317"><ele>13.0</ele><time>2026-04-26T06:37:21.796Z</time></trkpt><trkpt lat="38.1458233" lon="15.65464"><ele>13.0</ele><time>2026-04-26T06:37:22.797Z</time></trkpt><trkpt lat="38.1456533" lon="15.65465"><ele>13.0</ele><time>2026-04-26T06:37:23.796Z</time></trkpt><trkpt lat="38.1454883" lon="15.6546617"><ele>13.0</ele><time>2026-04-26T06:37:24.797Z</time></trkpt><trkpt lat="38.1453117" lon="15.65468"><ele>13.0</ele><time>2026-04-26T06:37:25.796Z</time></trkpt><trkpt lat="38.1451383" lon="15.6547083"><ele>13.0</ele><time>2026-04-26T06:37:26.797Z</time></trkpt><trkpt lat="38.1449717" lon="15.6547383"><ele>13.0</ele><time>2026-04-26T06:37:27.797Z</time></trkpt><trkpt lat="38.1448033" lon="15.654795"><ele>13.0</ele><time>2026-04-26T06:37:28.797Z</time></trkpt><trkpt lat="38.1446417" lon="15.6548633"><ele>12.333333333333332</ele><time>2026-04-26T06:37:29.796Z</time></trkpt><trkpt lat="38.14449" lon="15.654935"><ele>11.666666666666666</ele><time>2026-04-26T06:37:30.797Z</time></trkpt><trkpt lat="38.14435" lon="15.6550167"><ele>11.0</ele><time>2026-04-26T06:37:31.796Z</time></trkpt><trkpt lat="38.14421" lon="15.6551033"><ele>11.0</ele><time>2026-04-26T06:37:32.797Z</time></trkpt><trkpt lat="38.14409" lon="15.6551717"><ele>11.0</ele><time>2026-04-26T06:37:33.796Z</time></trkpt><trkpt lat="38.1439717" lon="15.6552417"><ele>11.0</ele><time>2026-04-26T06:37:34.796Z</time></trkpt><trkpt lat="38.143855" lon="15.6553233"><ele>11.0</ele><time>2026-04-26T06:37:35.797Z</time></trkpt><trkpt lat="38.1437367" lon="15.6553983"><ele>12.5</ele><time>2026-04-26T06:37:36.796Z</time></trkpt><trkpt lat="38.1436133" lon="15.655485"><ele>14.0</ele><time>2026-04-26T06:37:37.797Z</time></trkpt><trkpt lat="38.1434917" lon="15.65557"><ele>15.5</ele><time>2026-04-26T06:37:38.796Z</time></trkpt><trkpt lat="38.14336" lon="15.6556633"><ele>17.0</ele><time>2026-04-26T06:37:39.796Z</time></trkpt><trkpt lat="38.1432333" lon="15.6557433"><ele>16.25</ele><time>2026-04-26T06:37:40.797Z</time></trkpt><trkpt lat="38.1430983" lon="15.6558267"><ele>15.5</ele><time>2026-04-26T06:37:41.797Z</time></trkpt><trkpt lat="38.1429717" lon="15.6559233"><ele>14.75</ele><time>2026-04-26T06:37:42.796Z</time></trkpt><trkpt lat="38.1428533" lon="15.656"><ele>14.0</ele><time>2026-04-26T06:37:43.797Z</time></trkpt><trkpt lat="38.1427567" lon="15.6560583"><ele>14.0</ele><time>2026-04-26T06:37:44.796Z</time></trkpt><trkpt lat="38.1426867" lon="15.656105"><ele>13.999999999999998</ele><time>2026-04-26T06:37:45.796Z</time></trkpt><trkpt lat="38.1426233" lon="15.6561267"><ele>13.999999999999998</ele><time>2026-04-26T06:37:46.796Z</time></trkpt><trkpt lat="38.1425217" lon="15.6560517"><ele>14.0</ele><time>2026-04-26T06:37:48.796Z</time></trkpt><trkpt lat="38.142475" lon="15.6559383"><ele>14.0</ele><time>2026-04-26T06:37:49.796Z</time></trkpt><trkpt lat="38.1424267" lon="15.6557833"><ele>13.75</ele><time>2026-04-26T06:37:50.797Z</time></trkpt><trkpt lat="38.1423717" lon="15.6555983"><ele>13.5</ele><time>2026-04-26T06:37:51.796Z</time></trkpt><trkpt lat="38.1423133" lon="15.6554267"><ele>13.25</ele><time>2026-04-26T06:37:52.796Z</time></trkpt><trkpt lat="38.1422517" lon="15.6552683"><ele>13.0</ele><time>2026-04-26T06:37:53.796Z</time></trkpt><trkpt lat="38.1421917" lon="15.65513"><ele>12.4</ele><time>2026-04-26T06:37:54.797Z</time></trkpt><trkpt lat="38.14214" lon="15.65502"><ele>11.8</ele><time>2026-04-26T06:37:55.797Z</time></trkpt><trkpt lat="38.1420883" lon="15.6549267"><ele>11.2</ele><time>2026-04-26T06:37:56.797Z</time></trkpt><trkpt lat="38.1420517" lon="15.6548567"><ele>10.6</ele><time>2026-04-26T06:37:57.796Z</time></trkpt><trkpt lat="38.1419683" lon="15.6548"><ele>10.0</ele><time>2026-04-26T06:37:59.797Z</time></trkpt><trkpt lat="38.1418417" lon="15.6548633"><ele>10.0</ele><time>2026-04-26T06:38:01.796Z</time></trkpt><trkpt lat="38.14176" lon="15.6549433"><ele>10.0</ele><time>2026-04-26T06:38:02.797Z</time></trkpt><trkpt lat="38.1416583" lon="15.6550367"><ele>10.0</ele><time>2026-04-26T06:38:03.797Z</time></trkpt><trkpt lat="38.1415483" lon="15.6551433"><ele>10.0</ele><time>2026-04-26T06:38:04.796Z</time></trkpt><trkpt lat="38.141435" lon="15.655235"><ele>9.666666666666668</ele><time>2026-04-26T06:38:05.796Z</time></trkpt><trkpt lat="38.14131" lon="15.6553333"><ele>9.333333333333334</ele><time>2026-04-26T06:38:06.797Z</time></trkpt><trkpt lat="38.1411767" lon="15.6554383"><ele>9.0</ele><time>2026-04-26T06:38:07.796Z</time></trkpt><trkpt lat="38.1410383" lon="15.655545"><ele>9.0</ele><time>2026-04-26T06:38:08.797Z</time></trkpt><trkpt lat="38.1408867" lon="15.65565"><ele>9.0</ele><time>2026-04-26T06:38:09.797Z</time></trkpt><trkpt lat="38.1407367" lon="15.65575"><ele>9.0</ele><time>2026-04-26T06:38:10.796Z</time></trkpt><trkpt lat="38.1405833" lon="15.6558533"><ele>10.0</ele><time>2026-04-26T06:38:11.797Z</time></trkpt><trkpt lat="38.14043" lon="15.65597"><ele>11.0</ele><time>2026-04-26T06:38:12.796Z</time></trkpt><trkpt lat="38.1402667" lon="15.6560883"><ele>12.0</ele><time>2026-04-26T06:38:13.796Z</time></trkpt><trkpt lat="38.1401033" lon="15.6561917"><ele>12.0</ele><time>2026-04-26T06:38:14.796Z</time></trkpt><trkpt lat="38.1399417" lon="15.6562967"><ele>12.0</ele><time>2026-04-26T06:38:15.797Z</time></trkpt><trkpt lat="38.1397733" lon="15.6564117"><ele>12.0</ele><time>2026-04-26T06:38:16.797Z</time></trkpt><trkpt lat="38.1396033" lon="15.656505"><ele>10.666666666666666</ele><time>2026-04-26T06:38:17.797Z</time></trkpt><trkpt lat="38.139425" lon="15.6565817"><ele>9.333333333333332</ele><time>2026-04-26T06:38:18.796Z</time></trkpt><trkpt lat="38.1392417" lon="15.65665"><ele>8.0</ele><time>2026-04-26T06:38:19.796Z</time></trkpt><trkpt lat="38.13906" lon="15.6567167"><ele>7.0</ele><time>2026-04-26T06:38:20.797Z</time></trkpt><trkpt lat="38.1388733" lon="15.656775"><ele>6.0</ele><time>2026-04-26T06:38:21.796Z</time></trkpt><trkpt lat="38.1386783" lon="15.6568383"><ele>5.0</ele><time>2026-04-26T06:38:22.797Z</time></trkpt><trkpt lat="38.1384817" lon="15.656895"><ele>8.333333333333334</ele><time>2026-04-26T06:38:23.797Z</time></trkpt><trkpt lat="38.1382867" lon="15.656955"><ele>11.666666666666666</ele><time>2026-04-26T06:38:24.797Z</time></trkpt><trkpt lat="38.1380933" lon="15.657015"><ele>15.0</ele><time>2026-04-26T06:38:25.796Z</time></trkpt><trkpt lat="38.1379" lon="15.657075"><ele>15.0</ele><time>2026-04-26T06:38:26.797Z</time></trkpt><trkpt lat="38.1377083" lon="15.6571383"><ele>15.0</ele><time>2026-04-26T06:38:27.796Z</time></trkpt><trkpt lat="38.1375217" lon="15.6572033"><ele>15.0</ele><time>2026-04-26T06:38:28.796Z</time></trkpt><trkpt lat="38.1373317" lon="15.65726"><ele>16.333333333333332</ele><time>2026-04-26T06:38:29.797Z</time></trkpt><trkpt lat="38.13716" lon="15.6573117"><ele>17.666666666666664</ele><time>2026-04-26T06:38:30.797Z</time></trkpt><trkpt lat="38.1370033" lon="15.657345"><ele>19.0</ele><time>2026-04-26T06:38:31.796Z</time></trkpt><trkpt lat="38.136855" lon="15.6573683"><ele>19.0</ele><time>2026-04-26T06:38:32.796Z</time></trkpt><trkpt lat="38.1367283" lon="15.6573717"><ele>19.0</ele><time>2026-04-26T06:38:33.797Z</time></trkpt><trkpt lat="38.13659" lon="15.6573517"><ele>19.0</ele><time>2026-04-26T06:38:34.797Z</time></trkpt><trkpt lat="38.1364367" lon="15.657305"><ele>19.0</ele><time>2026-04-26T06:38:35.796Z</time></trkpt><trkpt lat="38.1362633" lon="15.6572617"><ele>18.0</ele><time>2026-04-26T06:38:36.796Z</time></trkpt><trkpt lat="38.1360817" lon="15.65721"><ele>17.0</ele><time>2026-04-26T06:38:37.796Z</time></trkpt><trkpt lat="38.13589" lon="15.6571533"><ele>16.0</ele><time>2026-04-26T06:38:38.796Z</time></trkpt><trkpt lat="38.1356933" lon="15.6570933"><ele>16.0</ele><time>2026-04-26T06:38:39.796Z</time></trkpt><trkpt lat="38.1354967" lon="15.6570233"><ele>16.0</ele><time>2026-04-26T06:38:40.797Z</time></trkpt><trkpt lat="38.1352967" lon="15.6569567"><ele>16.0</ele><time>2026-04-26T06:38:41.796Z</time></trkpt><trkpt lat="38.1350983" lon="15.6568783"><ele>14.666666666666666</ele><time>2026-04-26T06:38:42.796Z</time></trkpt><trkpt lat="38.1348883" lon="15.6567833"><ele>13.333333333333332</ele><time>2026-04-26T06:38:43.797Z</time></trkpt><trkpt lat="38.134685" lon="15.65667"><ele>12.0</ele><time>2026-04-26T06:38:44.797Z</time></trkpt><trkpt lat="38.1344933" lon="15.6565683"><ele>12.0</ele><time>2026-04-26T06:38:45.796Z</time></trkpt><trkpt lat="38.134295" lon="15.6564617"><ele>12.0</ele><time>2026-04-26T06:38:46.796Z</time></trkpt><trkpt lat="38.1340917" lon="15.6563567"><ele>12.0</ele><time>2026-04-26T06:38:47.796Z</time></trkpt><trkpt lat="38.133905" lon="15.6562533"><ele>11.666666666666666</ele><time>2026-04-26T06:38:48.797Z</time></trkpt><trkpt lat="38.1337367" lon="15.6561367"><ele>11.333333333333332</ele><time>2026-04-26T06:38:49.797Z</time></trkpt><trkpt lat="38.1335817" lon="15.6560483"><ele>11.0</ele><time>2026-04-26T06:38:50.796Z</time></trkpt><trkpt lat="38.1334533" lon="15.65595"><ele>11.0</ele><time>2026-04-26T06:38:51.796Z</time></trkpt><trkpt lat="38.133355" lon="15.6558617"><ele>11.0</ele><time>2026-04-26T06:38:52.796Z</time></trkpt><trkpt lat="38.1332917" lon="15.6557383"><ele>11.0</ele><time>2026-04-26T06:38:53.797Z</time></trkpt><trkpt lat="38.1332317" lon="15.6556183"><ele>11.0</ele><time>2026-04-26T06:38:54.797Z</time></trkpt><trkpt lat="38.133175" lon="15.65549"><ele>10.0</ele><time>2026-04-26T06:38:55.797Z</time></trkpt><trkpt lat="38.1330917" lon="15.6553783"><ele>9.0</ele><time>2026-04-26T06:38:56.796Z</time></trkpt><trkpt lat="38.13298" lon="15.6552867"><ele>8.0</ele><time>2026-04-26T06:38:57.796Z</time></trkpt><trkpt lat="38.13284" lon="15.6552033"><ele>7.0</ele><time>2026-04-26T06:38:58.797Z</time></trkpt><trkpt lat="38.1326883" lon="15.6551283"><ele>7.0</ele><time>2026-04-26T06:38:59.797Z</time></trkpt><trkpt lat="38.132525" lon="15.65507"><ele>7.0</ele><time>2026-04-26T06:39:00.796Z</time></trkpt><trkpt lat="38.13237" lon="15.6549817"><ele>7.0</ele><time>2026-04-26T06:39:01.797Z</time></trkpt><trkpt lat="38.132215" lon="15.6548767"><ele>8.666666666666668</ele><time>2026-04-26T06:39:02.796Z</time></trkpt><trkpt lat="38.1320633" lon="15.654725"><ele>10.333333333333334</ele><time>2026-04-26T06:39:03.797Z</time></trkpt><trkpt lat="38.1319067" lon="15.65459"><ele>12.0</ele><time>2026-04-26T06:39:04.797Z</time></trkpt><trkpt lat="38.1317417" lon="15.654465"><ele>12.0</ele><time>2026-04-26T06:39:05.796Z</time></trkpt><trkpt lat="38.1315617" lon="15.65439"><ele>12.0</ele><time>2026-04-26T06:39:06.797Z</time></trkpt><trkpt lat="38.1313717" lon="15.6543483"><ele>12.0</ele><time>2026-04-26T06:39:07.797Z</time></trkpt><trkpt lat="38.13118" lon="15.6542933"><ele>12.0</ele><time>2026-04-26T06:39:08.796Z</time></trkpt><trkpt lat="38.130985" lon="15.65423"><ele>12.0</ele><time>2026-04-26T06:39:09.796Z</time></trkpt><trkpt lat="38.1307933" lon="15.654135"><ele>12.0</ele><time>2026-04-26T06:39:10.796Z</time></trkpt><trkpt lat="38.1306033" lon="15.6540133"><ele>12.0</ele><time>2026-04-26T06:39:11.796Z</time></trkpt><trkpt lat="38.1304183" lon="15.6538633"><ele>12.0</ele><time>2026-04-26T06:39:12.797Z</time></trkpt><trkpt lat="38.13024" lon="15.6536983"><ele>12.0</ele><time>2026-04-26T06:39:13.797Z</time></trkpt><trkpt lat="38.130065" lon="15.6535267"><ele>13.0</ele><time>2026-04-26T06:39:14.796Z</time></trkpt><trkpt lat="38.12988" lon="15.6533467"><ele>14.0</ele><time>2026-04-26T06:39:15.797Z</time></trkpt><trkpt lat="38.1296817" lon="15.6531933"><ele>14.0</ele><time>2026-04-26T06:39:16.796Z</time></trkpt><trkpt lat="38.12947" lon="15.65306"><ele>14.0</ele><time>2026-04-26T06:39:17.796Z</time></trkpt><trkpt lat="38.1292533" lon="15.6529283"><ele>16.5</ele><time>2026-04-26T06:39:18.797Z</time></trkpt><trkpt lat="38.1290383" lon="15.6528183"><ele>19.0</ele><time>2026-04-26T06:39:19.796Z</time></trkpt><trkpt lat="38.1287967" lon="15.6527433"><ele>14.0</ele><time>2026-04-26T06:39:20.796Z</time></trkpt><trkpt lat="38.1285467" lon="15.6526883"><ele>9.0</ele><time>2026-04-26T06:39:21.796Z</time></trkpt><trkpt lat="38.1283033" lon="15.6526633"><ele>8.0</ele><time>2026-04-26T06:39:22.796Z</time></trkpt><trkpt lat="38.1280633" lon="15.652655"><ele>7.0</ele><time>2026-04-26T06:39:23.796Z</time></trkpt><trkpt lat="38.1278233" lon="15.65266"><ele>7.0</ele><time>2026-04-26T06:39:24.796Z</time></trkpt><trkpt lat="38.1275817" lon="15.652675"><ele>7.0</ele><time>2026-04-26T06:39:25.797Z</time></trkpt><trkpt lat="38.1273467" lon="15.6527133"><ele>7.5</ele><time>2026-04-26T06:39:26.797Z</time></trkpt><trkpt lat="38.1270983" lon="15.6527383"><ele>8.0</ele><time>2026-04-26T06:39:27.797Z</time></trkpt><trkpt lat="38.126845" lon="15.6527533"><ele>8.0</ele><time>2026-04-26T06:39:28.797Z</time></trkpt><trkpt lat="38.1265883" lon="15.6527883"><ele>8.0</ele><time>2026-04-26T06:39:29.796Z</time></trkpt><trkpt lat="38.12634" lon="15.6528217"><ele>14.0</ele><time>2026-04-26T06:39:30.796Z</time></trkpt><trkpt lat="38.1260867" lon="15.65285"><ele>20.0</ele><time>2026-04-26T06:39:31.796Z</time></trkpt><trkpt lat="38.1258317" lon="15.65287"><ele>19.5</ele><time>2026-04-26T06:39:32.796Z</time></trkpt><trkpt lat="38.12558" lon="15.65289"><ele>19.0</ele><time>2026-04-26T06:39:33.796Z</time></trkpt><trkpt lat="38.1253283" lon="15.65291"><ele>19.0</ele><time>2026-04-26T06:39:34.796Z</time></trkpt><trkpt lat="38.1250767" lon="15.6529233"><ele>19.0</ele><time>2026-04-26T06:39:35.797Z</time></trkpt><trkpt lat="38.12482" lon="15.652935"><ele>20.0</ele><time>2026-04-26T06:39:36.797Z</time></trkpt><trkpt lat="38.124565" lon="15.6529483"><ele>21.0</ele><time>2026-04-26T06:39:37.796Z</time></trkpt><trkpt lat="38.124315" lon="15.6529433"><ele>21.0</ele><time>2026-04-26T06:39:38.796Z</time></trkpt><trkpt lat="38.1240717" lon="15.6529517"><ele>21.0</ele><time>2026-04-26T06:39:39.796Z</time></trkpt><trkpt lat="38.1238233" lon="15.6529483"><ele>21.5</ele><time>2026-04-26T06:39:40.797Z</time></trkpt><trkpt lat="38.1235733" lon="15.65295"><ele>22.0</ele><time>2026-04-26T06:39:41.796Z</time></trkpt><trkpt lat="38.12333" lon="15.652945"><ele>23.0</ele><time>2026-04-26T06:39:42.797Z</time></trkpt><trkpt lat="38.123085" lon="15.6529283"><ele>24.0</ele><time>2026-04-26T06:39:43.796Z</time></trkpt><trkpt lat="38.1228367" lon="15.652895"><ele>24.0</ele><time>2026-04-26T06:39:44.797Z</time></trkpt><trkpt lat="38.122585" lon="15.652845"><ele>24.0</ele><time>2026-04-26T06:39:45.797Z</time></trkpt><trkpt lat="38.12235" lon="15.6527517"><ele>21.0</ele><time>2026-04-26T06:39:46.796Z</time></trkpt><trkpt lat="38.1221217" lon="15.6526383"><ele>18.0</ele><time>2026-04-26T06:39:47.796Z</time></trkpt><trkpt lat="38.1218967" lon="15.652495"><ele>18.0</ele><time>2026-04-26T06:39:48.797Z</time></trkpt><trkpt lat="38.1216867" lon="15.6523367"><ele>18.0</ele><time>2026-04-26T06:39:49.797Z</time></trkpt><trkpt lat="38.12148" lon="15.65216"><ele>19.0</ele><time>2026-04-26T06:39:50.796Z</time></trkpt><trkpt lat="38.1213" lon="15.6519633"><ele>20.0</ele><time>2026-04-26T06:39:51.796Z</time></trkpt><trkpt lat="38.1211433" lon="15.6517533"><ele>20.0</ele><time>2026-04-26T06:39:52.797Z</time></trkpt><trkpt lat="38.1209867" lon="15.6515433"><ele>20.0</ele><time>2026-04-26T06:39:53.796Z</time></trkpt><trkpt lat="38.1208317" lon="15.65134"><ele>22.0</ele><time>2026-04-26T06:39:54.796Z</time></trkpt><trkpt lat="38.120675" lon="15.6511383"><ele>24.0</ele><time>2026-04-26T06:39:55.796Z</time></trkpt><trkpt lat="38.1205267" lon="15.6509367"><ele>26.0</ele><time>2026-04-26T06:39:56.796Z</time></trkpt><trkpt lat="38.1203817" lon="15.65074"><ele>26.0</ele><time>2026-04-26T06:39:57.796Z</time></trkpt><trkpt lat="38.1202483" lon="15.6505467"><ele>26.0</ele><time>2026-04-26T06:39:58.796Z</time></trkpt><trkpt lat="38.12012" lon="15.650365"><ele>26.0</ele><time>2026-04-26T06:39:59.796Z</time></trkpt><trkpt lat="38.12" lon="15.65021"><ele>23.25</ele><time>2026-04-26T06:40:00.796Z</time></trkpt><trkpt lat="38.119885" lon="15.65007"><ele>20.5</ele><time>2026-04-26T06:40:01.796Z</time></trkpt><trkpt lat="38.1197733" lon="15.6499567"><ele>17.75</ele><time>2026-04-26T06:40:02.796Z</time></trkpt><trkpt lat="38.11965" lon="15.6498717"><ele>15.0</ele><time>2026-04-26T06:40:03.796Z</time></trkpt><trkpt lat="38.11953" lon="15.649805"><ele>15.0</ele><time>2026-04-26T06:40:04.796Z</time></trkpt><trkpt lat="38.1194083" lon="15.649755"><ele>15.0</ele><time>2026-04-26T06:40:05.797Z</time></trkpt><trkpt lat="38.119315" lon="15.6497417"><ele>15.0</ele><time>2026-04-26T06:40:06.796Z</time></trkpt><trkpt lat="38.1192067" lon="15.649725"><ele>15.0</ele><time>2026-04-26T06:40:07.796Z</time></trkpt><trkpt lat="38.119115" lon="15.649725"><ele>15.0</ele><time>2026-04-26T06:40:08.797Z</time></trkpt><trkpt lat="38.1190467" lon="15.649735"><ele>14.8</ele><time>2026-04-26T06:40:09.796Z</time></trkpt><trkpt lat="38.1189317" lon="15.6497567"><ele>14.6</ele><time>2026-04-26T06:40:11.797Z</time></trkpt><trkpt lat="38.1188683" lon="15.649765"><ele>14.399999999999999</ele><time>2026-04-26T06:40:12.797Z</time></trkpt><trkpt lat="38.1187917" lon="15.649765"><ele>14.2</ele><time>2026-04-26T06:40:13.796Z</time></trkpt><trkpt lat="38.118695" lon="15.6497683"><ele>14.0</ele><time>2026-04-26T06:40:14.796Z</time></trkpt><trkpt lat="38.118585" lon="15.6497667"><ele>14.0</ele><time>2026-04-26T06:40:15.797Z</time></trkpt><trkpt lat="38.1184667" lon="15.6497717"><ele>14.0</ele><time>2026-04-26T06:40:16.796Z</time></trkpt><trkpt lat="38.1183417" lon="15.6497833"><ele>14.0</ele><time>2026-04-26T06:40:17.796Z</time></trkpt><trkpt lat="38.1182067" lon="15.6497967"><ele>14.0</ele><time>2026-04-26T06:40:18.797Z</time></trkpt><trkpt lat="38.118075" lon="15.64981"><ele>14.0</ele><time>2026-04-26T06:40:19.796Z</time></trkpt><trkpt lat="38.1179317" lon="15.6498267"><ele>14.0</ele><time>2026-04-26T06:40:20.796Z</time></trkpt><trkpt lat="38.1177867" lon="15.6498417"><ele>14.0</ele><time>2026-04-26T06:40:21.796Z</time></trkpt><trkpt lat="38.11764" lon="15.6498617"><ele>14.0</ele><time>2026-04-26T06:40:22.797Z</time></trkpt><trkpt lat="38.1174967" lon="15.64989"><ele>13.75</ele><time>2026-04-26T06:40:23.797Z</time></trkpt><trkpt lat="38.1173667" lon="15.649915"><ele>13.5</ele><time>2026-04-26T06:40:24.797Z</time></trkpt><trkpt lat="38.1172467" lon="15.649935"><ele>13.25</ele><time>2026-04-26T06:40:25.797Z</time></trkpt><trkpt lat="38.1171267" lon="15.6499567"><ele>13.0</ele><time>2026-04-26T06:40:26.796Z</time></trkpt><trkpt lat="38.1170167" lon="15.6499667"><ele>13.0</ele><time>2026-04-26T06:40:27.796Z</time></trkpt><trkpt lat="38.1169167" lon="15.6499683"><ele>13.0</ele><time>2026-04-26T06:40:28.797Z</time></trkpt><trkpt lat="38.1168117" lon="15.64998"><ele>13.0</ele><time>2026-04-26T06:40:29.797Z</time></trkpt><trkpt lat="38.1167083" lon="15.649995"><ele>13.0</ele><time>2026-04-26T06:40:30.797Z</time></trkpt><trkpt lat="38.1165967" lon="15.65001"><ele>13.0</ele><time>2026-04-26T06:40:31.796Z</time></trkpt><trkpt lat="38.116465" lon="15.6500367"><ele>12.5</ele><time>2026-04-26T06:40:32.797Z</time></trkpt><trkpt lat="38.11633" lon="15.6500583"><ele>12.0</ele><time>2026-04-26T06:40:33.797Z</time></trkpt><trkpt lat="38.1161983" lon="15.6500783"><ele>11.5</ele><time>2026-04-26T06:40:34.797Z</time></trkpt><trkpt lat="38.1160667" lon="15.6500983"><ele>11.0</ele><time>2026-04-26T06:40:35.797Z</time></trkpt><trkpt lat="38.1159433" lon="15.6501167"><ele>11.0</ele><time>2026-04-26T06:40:36.796Z</time></trkpt><trkpt lat="38.1158317" lon="15.650135"><ele>11.0</ele><time>2026-04-26T06:40:37.796Z</time></trkpt><trkpt lat="38.1157333" lon="15.6501433"><ele>11.0</ele><time>2026-04-26T06:40:38.796Z</time></trkpt><trkpt lat="38.1156367" lon="15.6501483"><ele>11.0</ele><time>2026-04-26T06:40:39.796Z</time></trkpt><trkpt lat="38.1155333" lon="15.6501583"><ele>11.0</ele><time>2026-04-26T06:40:40.797Z</time></trkpt><trkpt lat="38.1154283" lon="15.6501717"><ele>11.25</ele><time>2026-04-26T06:40:41.797Z</time></trkpt><trkpt lat="38.1153133" lon="15.6501783"><ele>11.5</ele><time>2026-04-26T06:40:42.796Z</time></trkpt><trkpt lat="38.1152" lon="15.6501983"><ele>11.75</ele><time>2026-04-26T06:40:43.797Z</time></trkpt><trkpt lat="38.11509" lon="15.6502083"><ele>12.0</ele><time>2026-04-26T06:40:44.796Z</time></trkpt><trkpt lat="38.11498" lon="15.6502183"><ele>13.0</ele><time>2026-04-26T06:40:45.796Z</time></trkpt><trkpt lat="38.1148667" lon="15.6502267"><ele>14.0</ele><time>2026-04-26T06:40:46.796Z</time></trkpt><trkpt lat="38.114765" lon="15.6502217"><ele>15.0</ele><time>2026-04-26T06:40:47.797Z</time></trkpt><trkpt lat="38.1146833" lon="15.65021"><ele>16.0</ele><time>2026-04-26T06:40:48.797Z</time></trkpt><trkpt lat="38.114615" lon="15.6502083"><ele>17.0</ele><time>2026-04-26T06:40:49.797Z</time></trkpt><trkpt lat="38.1145383" lon="15.650225"><ele>18.0</ele><time>2026-04-26T06:40:50.797Z</time></trkpt><trkpt lat="38.11445" lon="15.65026"><ele>18.0</ele><time>2026-04-26T06:40:51.796Z</time></trkpt><trkpt lat="38.1143733" lon="15.650295"><ele>18.0</ele><time>2026-04-26T06:40:52.797Z</time></trkpt><trkpt lat="38.1143" lon="15.6503283"><ele>18.0</ele><time>2026-04-26T06:40:54.796Z</time></trkpt><trkpt lat="38.1143633" lon="15.65033"><ele>18.0</ele><time>2026-04-26T06:40:58.796Z</time></trkpt><trkpt lat="38.114385" lon="15.6501867"><ele>18.0</ele><time>2026-04-26T06:41:00.796Z</time></trkpt><trkpt lat="38.1143517" lon="15.6500967"><ele>18.0</ele><time>2026-04-26T06:41:01.797Z</time></trkpt><trkpt lat="38.1142883" lon="15.64999"><ele>18.0</ele><time>2026-04-26T06:41:02.796Z</time></trkpt><trkpt lat="38.1142" lon="15.6498683"><ele>18.0</ele><time>2026-04-26T06:41:03.796Z</time></trkpt><trkpt lat="38.1141" lon="15.6497367"><ele>18.0</ele><time>2026-04-26T06:41:04.797Z</time></trkpt><trkpt lat="38.1140033" lon="15.649615"><ele>18.0</ele><time>2026-04-26T06:41:05.796Z</time></trkpt><trkpt lat="38.1139017" lon="15.6494783"><ele>19.333333333333332</ele><time>2026-04-26T06:41:06.797Z</time></trkpt><trkpt lat="38.11379" lon="15.6493233"><ele>20.666666666666664</ele><time>2026-04-26T06:41:07.796Z</time></trkpt><trkpt lat="38.1136767" lon="15.6491683"><ele>22.0</ele><time>2026-04-26T06:41:08.797Z</time></trkpt><trkpt lat="38.113565" lon="15.649005"><ele>22.0</ele><time>2026-04-26T06:41:09.796Z</time></trkpt><trkpt lat="38.1134517" lon="15.64885"><ele>22.0</ele><time>2026-04-26T06:41:10.797Z</time></trkpt><trkpt lat="38.1133417" lon="15.648685"><ele>22.0</ele><time>2026-04-26T06:41:11.797Z</time></trkpt><trkpt lat="38.1132417" lon="15.64852"><ele>22.0</ele><time>2026-04-26T06:41:12.797Z</time></trkpt><trkpt lat="38.11315" lon="15.6483533"><ele>22.0</ele><time>2026-04-26T06:41:13.796Z</time></trkpt><trkpt lat="38.1130583" lon="15.6482017"><ele>22.0</ele><time>2026-04-26T06:41:14.796Z</time></trkpt><trkpt lat="38.112965" lon="15.648055"><ele>22.0</ele><time>2026-04-26T06:41:15.797Z</time></trkpt><trkpt lat="38.112875" lon="15.6479167"><ele>22.0</ele><time>2026-04-26T06:41:16.797Z</time></trkpt><trkpt lat="38.1127883" lon="15.6477933"><ele>22.0</ele><time>2026-04-26T06:41:17.797Z</time></trkpt><trkpt lat="38.1127017" lon="15.64766"><ele>22.0</ele><time>2026-04-26T06:41:18.797Z</time></trkpt><trkpt lat="38.1126217" lon="15.647535"><ele>21.6</ele><time>2026-04-26T06:41:19.796Z</time></trkpt><trkpt lat="38.11254" lon="15.647425"><ele>21.200000000000003</ele><time>2026-04-26T06:41:20.796Z</time></trkpt><trkpt lat="38.11247" lon="15.6473267"><ele>20.8</ele><time>2026-04-26T06:41:21.796Z</time></trkpt><trkpt lat="38.1124067" lon="15.6472317"><ele>20.4</ele><time>2026-04-26T06:41:22.797Z</time></trkpt><trkpt lat="38.11233" lon="15.6471217"><ele>20.0</ele><time>2026-04-26T06:41:23.796Z</time></trkpt><trkpt lat="38.1122633" lon="15.64698"><ele>18.666666666666668</ele><time>2026-04-26T06:41:24.796Z</time></trkpt><trkpt lat="38.1121717" lon="15.646845"><ele>17.333333333333332</ele><time>2026-04-26T06:41:25.797Z</time></trkpt><trkpt lat="38.1120683" lon="15.6466933"><ele>16.0</ele><time>2026-04-26T06:41:26.797Z</time></trkpt><trkpt lat="38.1119567" lon="15.6465433"><ele>16.0</ele><time>2026-04-26T06:41:27.796Z</time></trkpt><trkpt lat="38.11184" lon="15.64638"><ele>16.0</ele><time>2026-04-26T06:41:28.797Z</time></trkpt><trkpt lat="38.1117267" lon="15.64622"><ele>16.0</ele><time>2026-04-26T06:41:29.796Z</time></trkpt><trkpt lat="38.1116183" lon="15.6460383"><ele>16.666666666666664</ele><time>2026-04-26T06:41:30.797Z</time></trkpt><trkpt lat="38.1115117" lon="15.6458767"><ele>17.333333333333332</ele><time>2026-04-26T06:41:31.797Z</time></trkpt><trkpt lat="38.11142" lon="15.6457217"><ele>18.0</ele><time>2026-04-26T06:41:32.797Z</time></trkpt><trkpt lat="38.1113267" lon="15.64558"><ele>18.0</ele><time>2026-04-26T06:41:33.796Z</time></trkpt><trkpt lat="38.111235" lon="15.6454467"><ele>18.0</ele><time>2026-04-26T06:41:34.797Z</time></trkpt><trkpt lat="38.111145" lon="15.645315"><ele>18.0</ele><time>2026-04-26T06:41:35.796Z</time></trkpt><trkpt lat="38.1110567" lon="15.6451817"><ele>18.0</ele><time>2026-04-26T06:41:36.796Z</time></trkpt><trkpt lat="38.110965" lon="15.64504"><ele>18.25</ele><time>2026-04-26T06:41:37.796Z</time></trkpt><trkpt lat="38.1108833" lon="15.6449217"><ele>18.5</ele><time>2026-04-26T06:41:38.797Z</time></trkpt><trkpt lat="38.1108033" lon="15.64481"><ele>18.75</ele><time>2026-04-26T06:41:39.796Z</time></trkpt><trkpt lat="38.1107233" lon="15.6446967"><ele>19.0</ele><time>2026-04-26T06:41:40.796Z</time></trkpt><trkpt lat="38.1106483" lon="15.6445533"><ele>17.75</ele><time>2026-04-26T06:41:41.796Z</time></trkpt><trkpt lat="38.110565" lon="15.644415"><ele>16.5</ele><time>2026-04-26T06:41:42.796Z</time></trkpt><trkpt lat="38.1104617" lon="15.644285"><ele>15.25</ele><time>2026-04-26T06:41:43.796Z</time></trkpt><trkpt lat="38.1103667" lon="15.6441183"><ele>14.0</ele><time>2026-04-26T06:41:44.797Z</time></trkpt><trkpt lat="38.1102617" lon="15.643955"><ele>14.0</ele><time>2026-04-26T06:41:45.797Z</time></trkpt><trkpt lat="38.1101567" lon="15.64379"><ele>14.0</ele><time>2026-04-26T06:41:46.797Z</time></trkpt><trkpt lat="38.1100433" lon="15.64361"><ele>14.0</ele><time>2026-04-26T06:41:47.796Z</time></trkpt><trkpt lat="38.1099283" lon="15.64344"><ele>14.333333333333334</ele><time>2026-04-26T06:41:48.796Z</time></trkpt><trkpt lat="38.109825" lon="15.6432683"><ele>14.666666666666668</ele><time>2026-04-26T06:41:49.797Z</time></trkpt><trkpt lat="38.1097183" lon="15.6431283"><ele>15.0</ele><time>2026-04-26T06:41:50.796Z</time></trkpt><trkpt lat="38.1096183" lon="15.64299"><ele>15.0</ele><time>2026-04-26T06:41:51.797Z</time></trkpt><trkpt lat="38.1095233" lon="15.64285"><ele>15.0</ele><time>2026-04-26T06:41:52.797Z</time></trkpt><trkpt lat="38.109445" lon="15.642715"><ele>15.0</ele><time>2026-04-26T06:41:53.797Z</time></trkpt><trkpt lat="38.1093733" lon="15.6426083"><ele>15.0</ele><time>2026-04-26T06:41:54.796Z</time></trkpt><trkpt lat="38.1093183" lon="15.6425333"><ele>15.0</ele><time>2026-04-26T06:41:55.797Z</time></trkpt><trkpt lat="38.109265" lon="15.642455"><ele>15.0</ele><time>2026-04-26T06:41:56.796Z</time></trkpt><trkpt lat="38.109215" lon="15.6423717"><ele>15.0</ele><time>2026-04-26T06:41:57.797Z</time></trkpt><trkpt lat="38.1091483" lon="15.6422617"><ele>15.0</ele><time>2026-04-26T06:41:58.797Z</time></trkpt><trkpt lat="38.10906" lon="15.642125"><ele>15.0</ele><time>2026-04-26T06:41:59.796Z</time></trkpt><trkpt lat="38.108965" lon="15.6419683"><ele>13.333333333333334</ele><time>2026-04-26T06:42:00.797Z</time></trkpt><trkpt lat="38.1088583" lon="15.6418017"><ele>11.666666666666668</ele><time>2026-04-26T06:42:01.796Z</time></trkpt><trkpt lat="38.1087417" lon="15.6416383"><ele>10.0</ele><time>2026-04-26T06:42:02.797Z</time></trkpt><trkpt lat="38.1086133" lon="15.6414683"><ele>10.0</ele><time>2026-04-26T06:42:03.796Z</time></trkpt><trkpt lat="38.1084767" lon="15.6412717"><ele>10.0</ele><time>2026-04-26T06:42:04.797Z</time></trkpt><trkpt lat="38.1083433" lon="15.6410633"><ele>10.0</ele><time>2026-04-26T06:42:05.797Z</time></trkpt><trkpt lat="38.1082067" lon="15.640845"><ele>10.0</ele><time>2026-04-26T06:42:06.797Z</time></trkpt><trkpt lat="38.1080683" lon="15.640625"><ele>10.0</ele><time>2026-04-26T06:42:07.797Z</time></trkpt><trkpt lat="38.1079283" lon="15.6404167"><ele>10.0</ele><time>2026-04-26T06:42:08.796Z</time></trkpt><trkpt lat="38.1078017" lon="15.6402067"><ele>10.0</ele><time>2026-04-26T06:42:09.797Z</time></trkpt><trkpt lat="38.1076717" lon="15.64002"><ele>10.0</ele><time>2026-04-26T06:42:10.797Z</time></trkpt><trkpt lat="38.107535" lon="15.639835"><ele>10.0</ele><time>2026-04-26T06:42:11.796Z</time></trkpt><trkpt lat="38.10741" lon="15.6396517"><ele>10.333333333333334</ele><time>2026-04-26T06:42:12.797Z</time></trkpt><trkpt lat="38.1072867" lon="15.639475"><ele>10.666666666666666</ele><time>2026-04-26T06:42:13.796Z</time></trkpt><trkpt lat="38.1071633" lon="15.6393167"><ele>11.0</ele><time>2026-04-26T06:42:14.796Z</time></trkpt><trkpt lat="38.1070433" lon="15.6391717"><ele>11.0</ele><time>2026-04-26T06:42:15.796Z</time></trkpt><trkpt lat="38.1069317" lon="15.6390317"><ele>11.0</ele><time>2026-04-26T06:42:16.797Z</time></trkpt><trkpt lat="38.1068133" lon="15.6389217"><ele>11.0</ele><time>2026-04-26T06:42:17.796Z</time></trkpt><trkpt lat="38.1067017" lon="15.638835"><ele>11.0</ele><time>2026-04-26T06:42:18.796Z</time></trkpt><trkpt lat="38.1066017" lon="15.63877"><ele>11.0</ele><time>2026-04-26T06:42:19.796Z</time></trkpt><trkpt lat="38.1065217" lon="15.638725"><ele>11.0</ele><time>2026-04-26T06:42:20.797Z</time></trkpt><trkpt lat="38.1064483" lon="15.63871"><ele>11.0</ele><time>2026-04-26T06:42:21.796Z</time></trkpt><trkpt lat="38.106375" lon="15.638755"><ele>11.0</ele><time>2026-04-26T06:42:23.797Z</time></trkpt><trkpt lat="38.106405" lon="15.6388483"><ele>11.0</ele><time>2026-04-26T06:42:25.796Z</time></trkpt><trkpt lat="38.106495" lon="15.638925"><ele>11.0</ele><time>2026-04-26T06:42:26.797Z</time></trkpt><trkpt lat="38.1065867" lon="15.63901"><ele>11.0</ele><time>2026-04-26T06:42:27.797Z</time></trkpt><trkpt lat="38.1066517" lon="15.6390933"><ele>11.0</ele><time>2026-04-26T06:42:28.797Z</time></trkpt><trkpt lat="38.1066817" lon="15.63917"><ele>11.0</ele><time>2026-04-26T06:42:29.796Z</time></trkpt><trkpt lat="38.1066683" lon="15.6392483"><ele>11.0</ele><time>2026-04-26T06:42:30.796Z</time></trkpt><trkpt lat="38.1066367" lon="15.6393433"><ele>11.0</ele><time>2026-04-26T06:42:31.797Z</time></trkpt><trkpt lat="38.1065867" lon="15.6394583"><ele>11.0</ele><time>2026-04-26T06:42:32.797Z</time></trkpt><trkpt lat="38.1065167" lon="15.639595"><ele>12.200000000000001</ele><time>2026-04-26T06:42:33.796Z</time></trkpt><trkpt lat="38.10644" lon="15.6397217"><ele>13.4</ele><time>2026-04-26T06:42:34.796Z</time></trkpt><trkpt lat="38.10639" lon="15.639805"><ele>14.6</ele><time>2026-04-26T06:42:35.796Z</time></trkpt><trkpt lat="38.1063517" lon="15.63987"><ele>15.8</ele><time>2026-04-26T06:42:36.797Z</time></trkpt><trkpt lat="38.106285" lon="15.63998"><ele>17.0</ele><time>2026-04-26T06:42:38.797Z</time></trkpt><trkpt lat="38.1062433" lon="15.640055"><ele>17.0</ele><time>2026-04-26T06:42:39.796Z</time></trkpt><trkpt lat="38.1061883" lon="15.6401567"><ele>17.0</ele><time>2026-04-26T06:42:41.797Z</time></trkpt><trkpt lat="38.10623" lon="15.6402433"><ele>17.0</ele><time>2026-04-26T06:42:44.796Z</time></trkpt><trkpt lat="38.1062833" lon="15.6403033"><ele>17.0</ele><time>2026-04-26T06:42:45.796Z</time></trkpt><trkpt lat="38.1063567" lon="15.64038"><ele>17.0</ele><time>2026-04-26T06:42:46.796Z</time></trkpt><trkpt lat="38.1064183" lon="15.640455"><ele>17.0</ele><time>2026-04-26T06:42:47.796Z</time></trkpt><trkpt lat="38.1064867" lon="15.64052"><ele>17.4</ele><time>2026-04-26T06:42:48.796Z</time></trkpt><trkpt lat="38.10656" lon="15.6405967"><ele>17.799999999999997</ele><time>2026-04-26T06:42:49.797Z</time></trkpt><trkpt lat="38.10664" lon="15.6406767"><ele>18.2</ele><time>2026-04-26T06:42:50.797Z</time></trkpt><trkpt lat="38.1067133" lon="15.640765"><ele>18.599999999999998</ele><time>2026-04-26T06:42:51.796Z</time></trkpt><trkpt lat="38.106775" lon="15.6408367"><ele>19.0</ele><time>2026-04-26T06:42:52.796Z</time></trkpt><trkpt lat="38.10683" lon="15.64094"><ele>19.0</ele><time>2026-04-26T06:42:54.796Z</time></trkpt><trkpt lat="38.1068117" lon="15.64107"><ele>19.0</ele><time>2026-04-26T06:42:56.796Z</time></trkpt><trkpt lat="38.106765" lon="15.6411433"><ele>19.0</ele><time>2026-04-26T06:42:58.797Z</time></trkpt><trkpt lat="38.1068217" lon="15.6412317"><ele>19.0</ele><time>2026-04-26T06:43:00.797Z</time></trkpt><trkpt lat="38.1068733" lon="15.6413017"><ele>19.0</ele><time>2026-04-26T06:43:01.796Z</time></trkpt><trkpt lat="38.1069367" lon="15.64143"><ele>19.6</ele><time>2026-04-26T06:43:03.797Z</time></trkpt><trkpt lat="38.1069" lon="15.64156"><ele>20.2</ele><time>2026-04-26T06:43:05.796Z</time></trkpt><trkpt lat="38.10685" lon="15.641635"><ele>20.8</ele><time>2026-04-26T06:43:06.796Z</time></trkpt><trkpt lat="38.1067733" lon="15.6417317"><ele>21.400000000000002</ele><time>2026-04-26T06:43:07.796Z</time></trkpt><trkpt lat="38.1067083" lon="15.6418333"><ele>22.0</ele><time>2026-04-26T06:43:08.797Z</time></trkpt><trkpt lat="38.10665" lon="15.6418767"><ele>22.0</ele><time>2026-04-26T06:43:09.796Z</time></trkpt><trkpt lat="38.1066033" lon="15.6419533"><ele>22.0</ele><time>2026-04-26T06:43:11.797Z</time></trkpt><trkpt lat="38.1066683" lon="15.6420567"><ele>22.0</ele><time>2026-04-26T06:43:13.796Z</time></trkpt><trkpt lat="38.1067417" lon="15.642145"><ele>22.0</ele><time>2026-04-26T06:43:15.796Z</time></trkpt><trkpt lat="38.1066783" lon="15.6420517"><ele>22.0</ele><time>2026-04-26T06:46:18.796Z</time></trkpt><trkpt lat="38.1066433" lon="15.641985"><ele>22.0</ele><time>2026-04-26T06:46:19.796Z</time></trkpt><trkpt lat="38.1066017" lon="15.6418983"><ele>22.0</ele><time>2026-04-26T06:46:21.797Z</time></trkpt><trkpt lat="38.1066467" lon="15.6417867"><ele>22.0</ele><time>2026-04-26T06:46:23.797Z</time></trkpt><trkpt lat="38.1067017" lon="15.641715"><ele>22.0</ele><time>2026-04-26T06:46:24.797Z</time></trkpt><trkpt lat="38.1067767" lon="15.6416267"><ele>22.0</ele><time>2026-04-26T06:46:25.796Z</time></trkpt><trkpt lat="38.1068517" lon="15.6415483"><ele>22.0</ele><time>2026-04-26T06:46:26.796Z</time></trkpt><trkpt lat="38.1069183" lon="15.64148"><ele>22.0</ele><time>2026-04-26T06:46:27.797Z</time></trkpt><trkpt lat="38.1069583" lon="15.641375"><ele>22.0</ele><time>2026-04-26T06:46:29.797Z</time></trkpt><trkpt lat="38.106905" lon="15.6412883"><ele>22.0</ele><time>2026-04-26T06:46:31.797Z</time></trkpt><trkpt lat="38.1068283" lon="15.641205"><ele>22.0</ele><time>2026-04-26T06:46:33.796Z</time></trkpt><trkpt lat="38.1067517" lon="15.6411317"><ele>22.0</ele><time>2026-04-26T06:46:35.796Z</time></trkpt><trkpt lat="38.1066783" lon="15.641105"><ele>21.666666666666664</ele><time>2026-04-26T06:46:37.797Z</time></trkpt><trkpt lat="38.1065717" lon="15.6410817"><ele>21.333333333333332</ele><time>2026-04-26T06:46:39.796Z</time></trkpt><trkpt lat="38.1065133" lon="15.6410467"><ele>21.0</ele><time>2026-04-26T06:46:40.796Z</time></trkpt><trkpt lat="38.106445" lon="15.6409783"><ele>20.666666666666668</ele><time>2026-04-26T06:46:41.797Z</time></trkpt><trkpt lat="38.1063883" lon="15.6409033"><ele>20.333333333333336</ele><time>2026-04-26T06:46:42.797Z</time></trkpt><trkpt lat="38.10634" lon="15.64084"><ele>20.0</ele><time>2026-04-26T06:46:43.797Z</time></trkpt><trkpt lat="38.10628" lon="15.6407817"><ele>20.0</ele><time>2026-04-26T06:46:46.796Z</time></trkpt><trkpt lat="38.106195" lon="15.6406817"><ele>20.0</ele><time>2026-04-26T06:46:49.796Z</time></trkpt><trkpt lat="38.1061367" lon="15.6406233"><ele>20.0</ele><time>2026-04-26T06:46:50.797Z</time></trkpt><trkpt lat="38.1060767" lon="15.6405617"><ele>20.0</ele><time>2026-04-26T06:46:51.796Z</time></trkpt><trkpt lat="38.1059933" lon="15.6404967"><ele>20.0</ele><time>2026-04-26T06:46:53.796Z</time></trkpt><trkpt lat="38.1059083" lon="15.64054"><ele>20.0</ele><time>2026-04-26T06:46:55.797Z</time></trkpt><trkpt lat="38.105865" lon="15.6406217"><ele>20.0</ele><time>2026-04-26T06:46:56.796Z</time></trkpt><trkpt lat="38.1058117" lon="15.64072"><ele>20.0</ele><time>2026-04-26T06:46:57.796Z</time></trkpt><trkpt lat="38.1057683" lon="15.6408067"><ele>20.0</ele><time>2026-04-26T06:46:58.797Z</time></trkpt><trkpt lat="38.10575" lon="15.6409133"><ele>20.0</ele><time>2026-04-26T06:47:00.796Z</time></trkpt><trkpt lat="38.1057233" lon="15.6410233"><ele>20.0</ele><time>2026-04-26T06:47:04.797Z</time></trkpt><trkpt lat="38.10569" lon="15.641095"><ele>20.166666666666668</ele><time>2026-04-26T06:47:06.797Z</time></trkpt><trkpt lat="38.1056533" lon="15.6411633"><ele>20.333333333333336</ele><time>2026-04-26T06:47:08.796Z</time></trkpt><trkpt lat="38.1057167" lon="15.6412233"><ele>20.5</ele><time>2026-04-26T06:47:13.797Z</time></trkpt><trkpt lat="38.1057733" lon="15.6412867"><ele>20.666666666666668</ele><time>2026-04-26T06:47:15.796Z</time></trkpt><trkpt lat="38.10583" lon="15.641355"><ele>20.833333333333332</ele><time>2026-04-26T07:53:17.799Z</time></trkpt><trkpt lat="38.1058117" lon="15.6414333"><ele>21.0</ele><time>2026-04-26T07:53:20.8Z</time></trkpt><trkpt lat="38.1057217" lon="15.6415017"><ele>21.0</ele><time>2026-04-26T07:53:27.799Z</time></trkpt><trkpt lat="38.10573" lon="15.6416033"><ele>21.0</ele><time>2026-04-26T07:53:40.799Z</time></trkpt><trkpt lat="38.1056833" lon="15.64167"><ele>21.0</ele><time>2026-04-26T07:53:43.799Z</time></trkpt><trkpt lat="38.1057117" lon="15.64176"><ele>21.0</ele><time>2026-04-26T07:53:49.799Z</time></trkpt><trkpt lat="38.105755" lon="15.6418283"><ele>21.0</ele><time>2026-04-26T07:53:51.799Z</time></trkpt><trkpt lat="38.1058267" lon="15.6418967"><ele>21.0</ele><time>2026-04-26T07:54:43.799Z</time></trkpt><trkpt lat="38.1058817" lon="15.641955"><ele>21.5</ele><time>2026-04-26T07:54:45.799Z</time></trkpt><trkpt lat="38.10594" lon="15.642035"><ele>22.0</ele><time>2026-04-26T07:54:47.8Z</time></trkpt><trkpt lat="38.106025" lon="15.6421133"><ele>22.5</ele><time>2026-04-26T07:54:49.8Z</time></trkpt><trkpt lat="38.1061117" lon="15.6422067"><ele>23.0</ele><time>2026-04-26T07:54:51.799Z</time></trkpt><trkpt lat="38.1061567" lon="15.6422683"><ele>23.5</ele><time>2026-04-26T07:54:52.8Z</time></trkpt><trkpt lat="38.10621" lon="15.6423367"><ele>24.0</ele><time>2026-04-26T07:54:53.8Z</time></trkpt><trkpt lat="38.1062667" lon="15.6424067"><ele>24.0</ele><time>2026-04-26T07:54:54.8Z</time></trkpt><trkpt lat="38.1063217" lon="15.6424833"><ele>24.0</ele><time>2026-04-26T07:54:55.799Z</time></trkpt><trkpt lat="38.1063683" lon="15.6425567"><ele>24.0</ele><time>2026-04-26T07:54:56.799Z</time></trkpt><trkpt lat="38.106405" lon="15.6426233"><ele>24.0</ele><time>2026-04-26T07:54:57.8Z</time></trkpt><trkpt lat="38.106475" lon="15.6427067"><ele>24.0</ele><time>2026-04-26T07:54:59.799Z</time></trkpt><trkpt lat="38.1065067" lon="15.64279"><ele>24.0</ele><time>2026-04-26T07:55:01.8Z</time></trkpt><trkpt lat="38.1064917" lon="15.642875"><ele>25.2</ele><time>2026-04-26T07:55:03.8Z</time></trkpt><trkpt lat="38.106465" lon="15.64297"><ele>26.4</ele><time>2026-04-26T07:55:05.8Z</time></trkpt><trkpt lat="38.1064367" lon="15.6430433"><ele>27.6</ele><time>2026-04-26T07:55:07.799Z</time></trkpt><trkpt lat="38.1064083" lon="15.6431383"><ele>28.8</ele><time>2026-04-26T07:55:09.8Z</time></trkpt><trkpt lat="38.1063983" lon="15.6432867"><ele>30.0</ele><time>2026-04-26T07:55:11.8Z</time></trkpt><trkpt lat="38.1063333" lon="15.6434367"><ele>30.0</ele><time>2026-04-26T07:55:13.8Z</time></trkpt><trkpt lat="38.1062717" lon="15.6435117"><ele>30.0</ele><time>2026-04-26T07:55:14.799Z</time></trkpt><trkpt lat="38.1062017" lon="15.64359"><ele>30.0</ele><time>2026-04-26T07:55:15.799Z</time></trkpt><trkpt lat="38.1061417" lon="15.643665"><ele>30.0</ele><time>2026-04-26T07:55:16.799Z</time></trkpt><trkpt lat="38.1060933" lon="15.643725"><ele>30.0</ele><time>2026-04-26T07:55:17.8Z</time></trkpt><trkpt lat="38.1060133" lon="15.6437733"><ele>30.0</ele><time>2026-04-26T07:55:19.8Z</time></trkpt><trkpt lat="38.10594" lon="15.64375"><ele>31.0</ele><time>2026-04-26T07:55:21.8Z</time></trkpt><trkpt lat="38.1058633" lon="15.6437083"><ele>32.0</ele><time>2026-04-26T07:55:22.799Z</time></trkpt><trkpt lat="38.10578" lon="15.6436817"><ele>33.0</ele><time>2026-04-26T07:55:23.8Z</time></trkpt><trkpt lat="38.1057083" lon="15.6437117"><ele>34.0</ele><time>2026-04-26T07:55:24.8Z</time></trkpt><trkpt lat="38.1056417" lon="15.6437683"><ele>35.0</ele><time>2026-04-26T07:55:25.799Z</time></trkpt><trkpt lat="38.1055833" lon="15.643845"><ele>36.0</ele><time>2026-04-26T07:55:26.799Z</time></trkpt><trkpt lat="38.1055367" lon="15.6439383"><ele>36.166666666666664</ele><time>2026-04-26T07:55:27.799Z</time></trkpt><trkpt lat="38.1054883" lon="15.6440283"><ele>36.333333333333336</ele><time>2026-04-26T07:55:28.8Z</time></trkpt><trkpt lat="38.1054417" lon="15.6441133"><ele>36.5</ele><time>2026-04-26T07:55:29.8Z</time></trkpt><trkpt lat="38.105395" lon="15.6441983"><ele>36.66666666666667</ele><time>2026-04-26T07:55:30.799Z</time></trkpt><trkpt lat="38.1053417" lon="15.6442817"><ele>36.833333333333336</ele><time>2026-04-26T07:55:31.8Z</time></trkpt><trkpt lat="38.1052867" lon="15.6443533"><ele>37.0</ele><time>2026-04-26T07:55:32.799Z</time></trkpt><trkpt lat="38.105235" lon="15.6444067"><ele>37.0</ele><time>2026-04-26T07:55:33.8Z</time></trkpt><trkpt lat="38.1051567" lon="15.64445"><ele>37.0</ele><time>2026-04-26T07:55:35.8Z</time></trkpt><trkpt lat="38.10508" lon="15.6445133"><ele>37.0</ele><time>2026-04-26T07:55:37.799Z</time></trkpt><trkpt lat="38.1049967" lon="15.6446117"><ele>37.0</ele><time>2026-04-26T07:55:39.8Z</time></trkpt><trkpt lat="38.104955" lon="15.6446717"><ele>37.0</ele><time>2026-04-26T07:55:40.799Z</time></trkpt><trkpt lat="38.1049133" lon="15.6447333"><ele>37.0</ele><time>2026-04-26T07:55:41.8Z</time></trkpt><trkpt lat="38.10484" lon="15.6448167"><ele>37.833333333333336</ele><time>2026-04-26T07:55:43.8Z</time></trkpt><trkpt lat="38.1047667" lon="15.6449083"><ele>38.66666666666667</ele><time>2026-04-26T07:55:46.8Z</time></trkpt><trkpt lat="38.1046767" lon="15.6449817"><ele>39.5</ele><time>2026-04-26T07:55:48.8Z</time></trkpt><trkpt lat="38.10461" lon="15.6450283"><ele>40.333333333333336</ele><time>2026-04-26T07:55:49.799Z</time></trkpt><trkpt lat="38.104535" lon="15.64507"><ele>41.166666666666664</ele><time>2026-04-26T07:55:50.8Z</time></trkpt><trkpt lat="38.10446" lon="15.64511"><ele>42.0</ele><time>2026-04-26T07:55:51.799Z</time></trkpt><trkpt lat="38.1043817" lon="15.6451567"><ele>42.0</ele><time>2026-04-26T07:55:52.799Z</time></trkpt><trkpt lat="38.1043067" lon="15.64522"><ele>42.0</ele><time>2026-04-26T07:55:53.8Z</time></trkpt><trkpt lat="38.104225" lon="15.6452867"><ele>42.0</ele><time>2026-04-26T07:55:54.799Z</time></trkpt><trkpt lat="38.1041417" lon="15.6453383"><ele>42.0</ele><time>2026-04-26T07:55:55.8Z</time></trkpt><trkpt lat="38.1040667" lon="15.64539"><ele>42.0</ele><time>2026-04-26T07:55:56.799Z</time></trkpt><trkpt lat="38.1040033" lon="15.64545"><ele>42.0</ele><time>2026-04-26T07:55:57.8Z</time></trkpt><trkpt lat="38.1039283" lon="15.645495"><ele>42.0</ele><time>2026-04-26T07:55:58.8Z</time></trkpt><trkpt lat="38.1038583" lon="15.6455383"><ele>42.0</ele><time>2026-04-26T07:55:59.799Z</time></trkpt><trkpt lat="38.103795" lon="15.6455933"><ele>42.0</ele><time>2026-04-26T07:56:00.799Z</time></trkpt><trkpt lat="38.1037183" lon="15.6456433"><ele>42.0</ele><time>2026-04-26T07:56:01.799Z</time></trkpt><trkpt lat="38.1036417" lon="15.6457133"><ele>42.0</ele><time>2026-04-26T07:56:02.799Z</time></trkpt><trkpt lat="38.1035567" lon="15.6457767"><ele>42.0</ele><time>2026-04-26T07:56:03.799Z</time></trkpt><trkpt lat="38.1034833" lon="15.645835"><ele>42.0</ele><time>2026-04-26T07:56:04.799Z</time></trkpt><trkpt lat="38.1033967" lon="15.6458983"><ele>42.0</ele><time>2026-04-26T07:56:05.8Z</time></trkpt><trkpt lat="38.1033083" lon="15.64596"><ele>42.0</ele><time>2026-04-26T07:56:06.799Z</time></trkpt><trkpt lat="38.10322" lon="15.646015"><ele>42.0</ele><time>2026-04-26T07:56:07.799Z</time></trkpt><trkpt lat="38.1031417" lon="15.646075"><ele>42.0</ele><time>2026-04-26T07:56:08.8Z</time></trkpt><trkpt lat="38.10307" lon="15.6461333"><ele>41.666666666666664</ele><time>2026-04-26T07:56:09.8Z</time></trkpt><trkpt lat="38.10301" lon="15.6461983"><ele>41.333333333333336</ele><time>2026-04-26T07:56:10.799Z</time></trkpt><trkpt lat="38.10294" lon="15.646245"><ele>41.0</ele><time>2026-04-26T07:56:11.799Z</time></trkpt><trkpt lat="38.1028783" lon="15.6462833"><ele>40.66666666666667</ele><time>2026-04-26T07:56:12.8Z</time></trkpt><trkpt lat="38.1028233" lon="15.6463267"><ele>40.333333333333336</ele><time>2026-04-26T07:56:13.799Z</time></trkpt><trkpt lat="38.10277" lon="15.64637"><ele>40.0</ele><time>2026-04-26T07:56:14.8Z</time></trkpt><trkpt lat="38.1026733" lon="15.6464317"><ele>40.0</ele><time>2026-04-26T07:56:16.8Z</time></trkpt><trkpt lat="38.1025967" lon="15.64652"><ele>40.0</ele><time>2026-04-26T07:56:18.799Z</time></trkpt><trkpt lat="38.1025233" lon="15.6465733"><ele>40.0</ele><time>2026-04-26T07:56:20.8Z</time></trkpt><trkpt lat="38.1024417" lon="15.64662"><ele>40.0</ele><time>2026-04-26T07:56:26.8Z</time></trkpt><trkpt lat="38.1023783" lon="15.6466883"><ele>40.0</ele><time>2026-04-26T07:56:28.8Z</time></trkpt><trkpt lat="38.1023683" lon="15.64681"><ele>39.57142857142857</ele><time>2026-04-26T07:56:31.799Z</time></trkpt><trkpt lat="38.1024017" lon="15.6469383"><ele>39.142857142857146</ele><time>2026-04-26T07:56:33.799Z</time></trkpt><trkpt lat="38.102425" lon="15.64702"><ele>38.714285714285715</ele><time>2026-04-26T07:56:34.799Z</time></trkpt><trkpt lat="38.1024467" lon="15.6471033"><ele>38.285714285714285</ele><time>2026-04-26T07:56:35.799Z</time></trkpt><trkpt lat="38.1024633" lon="15.64719"><ele>37.857142857142854</ele><time>2026-04-26T07:56:36.799Z</time></trkpt><trkpt lat="38.1024767" lon="15.647275"><ele>37.42857142857143</ele><time>2026-04-26T07:56:37.799Z</time></trkpt><trkpt lat="38.1024917" lon="15.6473567"><ele>37.0</ele><time>2026-04-26T07:56:38.799Z</time></trkpt><trkpt lat="38.102525" lon="15.6475117"><ele>38.16666666666667</ele><time>2026-04-26T07:56:40.799Z</time></trkpt><trkpt lat="38.1025433" lon="15.6475883"><ele>39.333333333333336</ele><time>2026-04-26T07:56:41.799Z</time></trkpt><trkpt lat="38.1025583" lon="15.6476717"><ele>40.5</ele><time>2026-04-26T07:56:42.8Z</time></trkpt><trkpt lat="38.1025817" lon="15.6477567"><ele>41.666666666666664</ele><time>2026-04-26T07:56:43.8Z</time></trkpt><trkpt lat="38.102605" lon="15.6478567"><ele>42.83333333333333</ele><time>2026-04-26T07:56:44.8Z</time></trkpt><trkpt lat="38.1026267" lon="15.64796"><ele>44.0</ele><time>2026-04-26T07:56:45.8Z</time></trkpt><trkpt lat="38.1026567" lon="15.64807"><ele>44.400000000000006</ele><time>2026-04-26T07:56:46.799Z</time></trkpt><trkpt lat="38.1026833" lon="15.6481783"><ele>44.8</ele><time>2026-04-26T07:56:47.799Z</time></trkpt><trkpt lat="38.10271" lon="15.6482867"><ele>45.2</ele><time>2026-04-26T07:56:48.8Z</time></trkpt><trkpt lat="38.102735" lon="15.6484017"><ele>45.599999999999994</ele><time>2026-04-26T07:56:49.799Z</time></trkpt><trkpt lat="38.102765" lon="15.6485117"><ele>46.0</ele><time>2026-04-26T07:56:50.799Z</time></trkpt><trkpt lat="38.1027867" lon="15.648625"><ele>46.333333333333336</ele><time>2026-04-26T07:56:51.799Z</time></trkpt><trkpt lat="38.1028033" lon="15.6487383"><ele>46.66666666666667</ele><time>2026-04-26T07:56:52.8Z</time></trkpt><trkpt lat="38.1028283" lon="15.6488483"><ele>47.0</ele><time>2026-04-26T07:56:53.799Z</time></trkpt><trkpt lat="38.10286" lon="15.648955"><ele>47.333333333333336</ele><time>2026-04-26T07:56:54.799Z</time></trkpt><trkpt lat="38.1028983" lon="15.6490567"><ele>47.666666666666664</ele><time>2026-04-26T07:56:55.8Z</time></trkpt><trkpt lat="38.1029283" lon="15.6491533"><ele>48.0</ele><time>2026-04-26T07:56:56.799Z</time></trkpt><trkpt lat="38.1029517" lon="15.6492333"><ele>48.0</ele><time>2026-04-26T07:56:57.799Z</time></trkpt><trkpt lat="38.1029833" lon="15.649365"><ele>48.0</ele><time>2026-04-26T07:56:59.799Z</time></trkpt><trkpt lat="38.103005" lon="15.6494633"><ele>48.0</ele><time>2026-04-26T07:57:02.799Z</time></trkpt><trkpt lat="38.102995" lon="15.6495633"><ele>48.0</ele><time>2026-04-26T07:57:05.8Z</time></trkpt><trkpt lat="38.1029717" lon="15.6497033"><ele>48.0</ele><time>2026-04-26T07:57:07.8Z</time></trkpt><trkpt lat="38.10296" lon="15.6498083"><ele>48.8</ele><time>2026-04-26T07:57:08.8Z</time></trkpt><trkpt lat="38.1029617" lon="15.64992"><ele>49.599999999999994</ele><time>2026-04-26T07:57:09.799Z</time></trkpt><trkpt lat="38.1029617" lon="15.6500367"><ele>50.400000000000006</ele><time>2026-04-26T07:57:10.799Z</time></trkpt><trkpt lat="38.1029783" lon="15.6501883"><ele>51.2</ele><time>2026-04-26T07:57:11.8Z</time></trkpt><trkpt lat="38.102985" lon="15.650315"><ele>52.0</ele><time>2026-04-26T07:57:12.799Z</time></trkpt><trkpt lat="38.1029917" lon="15.6504467"><ele>52.0</ele><time>2026-04-26T07:57:13.8Z</time></trkpt><trkpt lat="38.1030033" lon="15.65057"><ele>52.0</ele><time>2026-04-26T07:57:14.799Z</time></trkpt><trkpt lat="38.1030167" lon="15.6506867"><ele>52.0</ele><time>2026-04-26T07:57:15.799Z</time></trkpt><trkpt lat="38.10303" lon="15.6508017"><ele>52.0</ele><time>2026-04-26T07:57:16.8Z</time></trkpt><trkpt lat="38.10305" lon="15.6509183"><ele>52.0</ele><time>2026-04-26T07:57:17.8Z</time></trkpt><trkpt lat="38.1030717" lon="15.6510417"><ele>52.0</ele><time>2026-04-26T07:57:18.8Z</time></trkpt><trkpt lat="38.1031067" lon="15.6511733"><ele>52.0</ele><time>2026-04-26T07:57:19.799Z</time></trkpt><trkpt lat="38.103125" lon="15.6513083"><ele>52.0</ele><time>2026-04-26T07:57:20.8Z</time></trkpt><trkpt lat="38.103135" lon="15.6514483"><ele>52.0</ele><time>2026-04-26T07:57:21.8Z</time></trkpt><trkpt lat="38.1031567" lon="15.651585"><ele>52.0</ele><time>2026-04-26T07:57:22.799Z</time></trkpt><trkpt lat="38.1031733" lon="15.6517183"><ele>52.0</ele><time>2026-04-26T07:57:23.8Z</time></trkpt><trkpt lat="38.1031883" lon="15.65186"><ele>52.0</ele><time>2026-04-26T07:57:24.799Z</time></trkpt><trkpt lat="38.1032033" lon="15.6520033"><ele>52.0</ele><time>2026-04-26T07:57:25.8Z</time></trkpt><trkpt lat="38.1032183" lon="15.65214"><ele>52.0</ele><time>2026-04-26T07:57:26.8Z</time></trkpt><trkpt lat="38.1032333" lon="15.6522767"><ele>52.0</ele><time>2026-04-26T07:57:27.799Z</time></trkpt><trkpt lat="38.1032533" lon="15.6524117"><ele>53.6</ele><time>2026-04-26T07:57:28.799Z</time></trkpt><trkpt lat="38.1032733" lon="15.6525483"><ele>55.2</ele><time>2026-04-26T07:57:29.8Z</time></trkpt><trkpt lat="38.1032933" lon="15.6526833"><ele>56.8</ele><time>2026-04-26T07:57:30.799Z</time></trkpt><trkpt lat="38.10331" lon="15.6528167"><ele>58.4</ele><time>2026-04-26T07:57:31.799Z</time></trkpt><trkpt lat="38.1033233" lon="15.6529433"><ele>60.0</ele><time>2026-04-26T07:57:32.799Z</time></trkpt><trkpt lat="38.1033333" lon="15.6530683"><ele>60.0</ele><time>2026-04-26T07:57:33.8Z</time></trkpt><trkpt lat="38.1033417" lon="15.653185"><ele>60.0</ele><time>2026-04-26T07:57:34.799Z</time></trkpt><trkpt lat="38.1033383" lon="15.653295"><ele>60.0</ele><time>2026-04-26T07:57:35.8Z</time></trkpt><trkpt lat="38.10336" lon="15.653425"><ele>60.0</ele><time>2026-04-26T07:57:36.8Z</time></trkpt><trkpt lat="38.10336" lon="15.6535517"><ele>60.0</ele><time>2026-04-26T07:57:37.799Z</time></trkpt><trkpt lat="38.1033633" lon="15.6536667"><ele>59.0</ele><time>2026-04-26T07:57:38.799Z</time></trkpt><trkpt lat="38.1033633" lon="15.653775"><ele>58.0</ele><time>2026-04-26T07:57:39.799Z</time></trkpt><trkpt lat="38.1033517" lon="15.6538733"><ele>57.0</ele><time>2026-04-26T07:57:40.8Z</time></trkpt><trkpt lat="38.1033483" lon="15.653985"><ele>56.0</ele><time>2026-04-26T07:57:41.799Z</time></trkpt><trkpt lat="38.1033467" lon="15.6541183"><ele>55.0</ele><time>2026-04-26T07:57:42.799Z</time></trkpt><trkpt lat="38.1033417" lon="15.6542733"><ele>55.0</ele><time>2026-04-26T07:57:43.8Z</time></trkpt><trkpt lat="38.1033333" lon="15.6544533"><ele>55.0</ele><time>2026-04-26T07:57:44.799Z</time></trkpt><trkpt lat="38.103325" lon="15.654645"><ele>55.0</ele><time>2026-04-26T07:57:45.799Z</time></trkpt><trkpt lat="38.1033183" lon="15.6548517"><ele>55.666666666666664</ele><time>2026-04-26T07:57:46.8Z</time></trkpt><trkpt lat="38.1033167" lon="15.6550617"><ele>56.33333333333333</ele><time>2026-04-26T07:57:47.8Z</time></trkpt><trkpt lat="38.1033033" lon="15.6552617"><ele>57.0</ele><time>2026-04-26T07:57:48.8Z</time></trkpt><trkpt lat="38.103295" lon="15.6554533"><ele>57.75</ele><time>2026-04-26T07:57:49.799Z</time></trkpt><trkpt lat="38.1032883" lon="15.6556433"><ele>58.5</ele><time>2026-04-26T07:57:50.799Z</time></trkpt><trkpt lat="38.10329" lon="15.6558317"><ele>59.25</ele><time>2026-04-26T07:57:51.799Z</time></trkpt><trkpt lat="38.103285" lon="15.656005"><ele>60.0</ele><time>2026-04-26T07:57:52.8Z</time></trkpt><trkpt lat="38.1032833" lon="15.6561633"><ele>60.5</ele><time>2026-04-26T07:57:53.8Z</time></trkpt><trkpt lat="38.1032933" lon="15.6563317"><ele>61.0</ele><time>2026-04-26T07:57:54.799Z</time></trkpt><trkpt lat="38.1033183" lon="15.6564767"><ele>61.5</ele><time>2026-04-26T07:57:55.799Z</time></trkpt><trkpt lat="38.1033467" lon="15.656615"><ele>62.0</ele><time>2026-04-26T07:57:56.8Z</time></trkpt><trkpt lat="38.1033883" lon="15.6567467"><ele>62.0</ele><time>2026-04-26T07:57:57.799Z</time></trkpt><trkpt lat="38.1034367" lon="15.65688"><ele>62.0</ele><time>2026-04-26T07:57:58.799Z</time></trkpt><trkpt lat="38.103475" lon="15.6570367"><ele>62.0</ele><time>2026-04-26T07:57:59.799Z</time></trkpt><trkpt lat="38.1034917" lon="15.6571983"><ele>62.0</ele><time>2026-04-26T07:58:00.799Z</time></trkpt><trkpt lat="38.1034983" lon="15.6573617"><ele>62.25</ele><time>2026-04-26T07:58:01.799Z</time></trkpt><trkpt lat="38.10351" lon="15.6575333"><ele>62.5</ele><time>2026-04-26T07:58:02.8Z</time></trkpt><trkpt lat="38.10351" lon="15.65771"><ele>62.75</ele><time>2026-04-26T07:58:03.8Z</time></trkpt><trkpt lat="38.1035133" lon="15.6578833"><ele>63.0</ele><time>2026-04-26T07:58:04.8Z</time></trkpt><trkpt lat="38.10353" lon="15.658045"><ele>63.0</ele><time>2026-04-26T07:58:05.8Z</time></trkpt><trkpt lat="38.1035217" lon="15.6581933"><ele>63.0</ele><time>2026-04-26T07:58:06.8Z</time></trkpt><trkpt lat="38.1035067" lon="15.6583267"><ele>63.0</ele><time>2026-04-26T07:58:07.799Z</time></trkpt><trkpt lat="38.1034867" lon="15.65845"><ele>63.0</ele><time>2026-04-26T07:58:08.8Z</time></trkpt><trkpt lat="38.1034567" lon="15.658575"><ele>63.0</ele><time>2026-04-26T07:58:09.8Z</time></trkpt><trkpt lat="38.1034167" lon="15.6586933"><ele>63.5</ele><time>2026-04-26T07:58:10.799Z</time></trkpt><trkpt lat="38.10339" lon="15.65882"><ele>64.0</ele><time>2026-04-26T07:58:11.799Z</time></trkpt><trkpt lat="38.1033667" lon="15.6589567"><ele>64.5</ele><time>2026-04-26T07:58:12.799Z</time></trkpt><trkpt lat="38.1033533" lon="15.6591117"><ele>65.0</ele><time>2026-04-26T07:58:13.8Z</time></trkpt><trkpt lat="38.1033483" lon="15.6592583"><ele>65.0</ele><time>2026-04-26T07:58:14.799Z</time></trkpt><trkpt lat="38.1033767" lon="15.6593983"><ele>65.0</ele><time>2026-04-26T07:58:15.8Z</time></trkpt><trkpt lat="38.1034017" lon="15.6595617"><ele>65.0</ele><time>2026-04-26T07:58:16.8Z</time></trkpt><trkpt lat="38.10344" lon="15.6596933"><ele>65.0</ele><time>2026-04-26T07:58:17.799Z</time></trkpt><trkpt lat="38.1034817" lon="15.6598317"><ele>65.25</ele><time>2026-04-26T07:58:18.799Z</time></trkpt><trkpt lat="38.1035467" lon="15.6599783"><ele>65.5</ele><time>2026-04-26T07:58:19.799Z</time></trkpt><trkpt lat="38.10361" lon="15.6601017"><ele>65.75</ele><time>2026-04-26T07:58:20.799Z</time></trkpt><trkpt lat="38.103665" lon="15.6602283"><ele>66.0</ele><time>2026-04-26T07:58:21.8Z</time></trkpt><trkpt lat="38.1037233" lon="15.66035"><ele>66.39999999999999</ele><time>2026-04-26T07:58:22.799Z</time></trkpt><trkpt lat="38.1037833" lon="15.6604733"><ele>66.8</ele><time>2026-04-26T07:58:23.799Z</time></trkpt><trkpt lat="38.10384" lon="15.6605933"><ele>67.19999999999999</ele><time>2026-04-26T07:58:24.8Z</time></trkpt><trkpt lat="38.103875" lon="15.6607117"><ele>67.6</ele><time>2026-04-26T07:58:25.8Z</time></trkpt><trkpt lat="38.1039067" lon="15.6608217"><ele>68.0</ele><time>2026-04-26T07:58:26.8Z</time></trkpt><trkpt lat="38.1039367" lon="15.6609383"><ele>68.0</ele><time>2026-04-26T07:58:27.799Z</time></trkpt><trkpt lat="38.1039583" lon="15.66106"><ele>68.0</ele><time>2026-04-26T07:58:28.8Z</time></trkpt><trkpt lat="38.103975" lon="15.66117"><ele>68.0</ele><time>2026-04-26T07:58:29.799Z</time></trkpt><trkpt lat="38.1039983" lon="15.6612833"><ele>68.0</ele><time>2026-04-26T07:58:30.8Z</time></trkpt><trkpt lat="38.104015" lon="15.6613933"><ele>68.0</ele><time>2026-04-26T07:58:31.8Z</time></trkpt><trkpt lat="38.1040333" lon="15.66151"><ele>68.66666666666667</ele><time>2026-04-26T07:58:32.799Z</time></trkpt><trkpt lat="38.1040533" lon="15.66163"><ele>69.33333333333334</ele><time>2026-04-26T07:58:33.799Z</time></trkpt><trkpt lat="38.1040733" lon="15.6617417"><ele>70.0</ele><time>2026-04-26T07:58:34.799Z</time></trkpt><trkpt lat="38.104085" lon="15.661845"><ele>70.66666666666667</ele><time>2026-04-26T07:58:35.799Z</time></trkpt><trkpt lat="38.1040917" lon="15.66195"><ele>71.33333333333333</ele><time>2026-04-26T07:58:36.799Z</time></trkpt><trkpt lat="38.1040967" lon="15.662065"><ele>72.0</ele><time>2026-04-26T07:58:37.799Z</time></trkpt><trkpt lat="38.1041" lon="15.6621717"><ele>74.0</ele><time>2026-04-26T07:58:38.8Z</time></trkpt><trkpt lat="38.1041133" lon="15.6622717"><ele>76.0</ele><time>2026-04-26T07:58:39.799Z</time></trkpt><trkpt lat="38.104115" lon="15.662365"><ele>78.0</ele><time>2026-04-26T07:58:40.799Z</time></trkpt><trkpt lat="38.104115" lon="15.6624867"><ele>80.0</ele><time>2026-04-26T07:58:42.799Z</time></trkpt><trkpt lat="38.1041083" lon="15.662575"><ele>82.0</ele><time>2026-04-26T07:58:44.799Z</time></trkpt><trkpt lat="38.10411" lon="15.6626833"><ele>84.0</ele><time>2026-04-26T07:58:46.799Z</time></trkpt><trkpt lat="38.1041017" lon="15.6628517"><ele>84.0</ele><time>2026-04-26T07:58:48.8Z</time></trkpt><trkpt lat="38.1041017" lon="15.6629567"><ele>84.0</ele><time>2026-04-26T07:58:49.799Z</time></trkpt><trkpt lat="38.1041117" lon="15.6630733"><ele>84.0</ele><time>2026-04-26T07:58:50.8Z</time></trkpt><trkpt lat="38.10413" lon="15.6632"><ele>84.0</ele><time>2026-04-26T07:58:51.8Z</time></trkpt><trkpt lat="38.1041467" lon="15.6633433"><ele>84.0</ele><time>2026-04-26T07:58:52.799Z</time></trkpt><trkpt lat="38.10415" lon="15.66351"><ele>85.25</ele><time>2026-04-26T07:58:53.8Z</time></trkpt><trkpt lat="38.1041567" lon="15.6636817"><ele>86.5</ele><time>2026-04-26T07:58:54.8Z</time></trkpt><trkpt lat="38.10417" lon="15.6638483"><ele>87.75</ele><time>2026-04-26T07:58:55.8Z</time></trkpt><trkpt lat="38.1041817" lon="15.6640117"><ele>89.0</ele><time>2026-04-26T07:58:56.799Z</time></trkpt><trkpt lat="38.10419" lon="15.664155"><ele>89.0</ele><time>2026-04-26T07:58:57.8Z</time></trkpt><trkpt lat="38.104205" lon="15.664305"><ele>89.0</ele><time>2026-04-26T07:58:58.799Z</time></trkpt><trkpt lat="38.1042267" lon="15.6644517"><ele>89.0</ele><time>2026-04-26T07:58:59.799Z</time></trkpt><trkpt lat="38.1042583" lon="15.6646017"><ele>89.0</ele><time>2026-04-26T07:59:00.8Z</time></trkpt><trkpt lat="38.1042867" lon="15.6647567"><ele>89.2</ele><time>2026-04-26T07:59:01.799Z</time></trkpt><trkpt lat="38.10431" lon="15.664895"><ele>89.4</ele><time>2026-04-26T07:59:02.8Z</time></trkpt><trkpt lat="38.10433" lon="15.6650183"><ele>89.6</ele><time>2026-04-26T07:59:03.8Z</time></trkpt><trkpt lat="38.1043317" lon="15.6651317"><ele>89.8</ele><time>2026-04-26T07:59:04.799Z</time></trkpt><trkpt lat="38.104345" lon="15.66523"><ele>90.0</ele><time>2026-04-26T07:59:05.799Z</time></trkpt><trkpt lat="38.10434" lon="15.665325"><ele>90.0</ele><time>2026-04-26T07:59:06.8Z</time></trkpt><trkpt lat="38.1043183" lon="15.6654183"><ele>90.0</ele><time>2026-04-26T07:59:07.799Z</time></trkpt><trkpt lat="38.1042917" lon="15.665505"><ele>90.0</ele><time>2026-04-26T07:59:08.799Z</time></trkpt><trkpt lat="38.1042617" lon="15.6655883"><ele>90.0</ele><time>2026-04-26T07:59:09.799Z</time></trkpt><trkpt lat="38.1042283" lon="15.66567"><ele>90.0</ele><time>2026-04-26T07:59:10.799Z</time></trkpt><trkpt lat="38.1041917" lon="15.665755"><ele>90.0</ele><time>2026-04-26T07:59:11.799Z</time></trkpt><trkpt lat="38.104155" lon="15.6658517"><ele>90.0</ele><time>2026-04-26T07:59:12.8Z</time></trkpt><trkpt lat="38.1041233" lon="15.66595"><ele>90.0</ele><time>2026-04-26T07:59:13.799Z</time></trkpt><trkpt lat="38.1040983" lon="15.666045"><ele>90.0</ele><time>2026-04-26T07:59:14.799Z</time></trkpt><trkpt lat="38.104075" lon="15.6661367"><ele>90.0</ele><time>2026-04-26T07:59:15.799Z</time></trkpt><trkpt lat="38.104055" lon="15.6662267"><ele>90.0</ele><time>2026-04-26T07:59:16.799Z</time></trkpt><trkpt lat="38.1040333" lon="15.66632"><ele>90.0</ele><time>2026-04-26T07:59:17.8Z</time></trkpt><trkpt lat="38.1040083" lon="15.66644"><ele>89.75</ele><time>2026-04-26T07:59:18.799Z</time></trkpt><trkpt lat="38.1039883" lon="15.6665983"><ele>89.5</ele><time>2026-04-26T07:59:19.8Z</time></trkpt><trkpt lat="38.10393" lon="15.6667883"><ele>89.25</ele><time>2026-04-26T07:59:20.8Z</time></trkpt><trkpt lat="38.103865" lon="15.6669683"><ele>89.0</ele><time>2026-04-26T07:59:21.8Z</time></trkpt><trkpt lat="38.1037733" lon="15.6671167"><ele>89.0</ele><time>2026-04-26T07:59:22.8Z</time></trkpt><trkpt lat="38.1036767" lon="15.6672917"><ele>89.0</ele><time>2026-04-26T07:59:23.799Z</time></trkpt><trkpt lat="38.10359" lon="15.6674917"><ele>89.0</ele><time>2026-04-26T07:59:24.799Z</time></trkpt><trkpt lat="38.1035167" lon="15.6677233"><ele>91.66666666666667</ele><time>2026-04-26T07:59:25.8Z</time></trkpt><trkpt lat="38.10347" lon="15.6679467"><ele>94.33333333333334</ele><time>2026-04-26T07:59:26.799Z</time></trkpt><trkpt lat="38.1034117" lon="15.6681367"><ele>97.0</ele><time>2026-04-26T07:59:27.8Z</time></trkpt><trkpt lat="38.1033633" lon="15.6682883"><ele>97.0</ele><time>2026-04-26T07:59:28.8Z</time></trkpt><trkpt lat="38.10328" lon="15.6684367"><ele>97.0</ele><time>2026-04-26T07:59:29.799Z</time></trkpt><trkpt lat="38.1032" lon="15.6685583"><ele>97.0</ele><time>2026-04-26T07:59:30.8Z</time></trkpt><trkpt lat="38.1031583" lon="15.66866"><ele>97.0</ele><time>2026-04-26T07:59:31.799Z</time></trkpt><trkpt lat="38.10315" lon="15.66878"><ele>98.00000000000001</ele><time>2026-04-26T07:59:32.799Z</time></trkpt><trkpt lat="38.10316" lon="15.6688917"><ele>99.0</ele><time>2026-04-26T07:59:33.799Z</time></trkpt><trkpt lat="38.1032067" lon="15.669"><ele>100.0</ele><time>2026-04-26T07:59:34.799Z</time></trkpt><trkpt lat="38.1032683" lon="15.6690817"><ele>101.0</ele><time>2026-04-26T07:59:35.799Z</time></trkpt><trkpt lat="38.1033317" lon="15.6691533"><ele>102.00000000000001</ele><time>2026-04-26T07:59:36.799Z</time></trkpt><trkpt lat="38.1033867" lon="15.6692183"><ele>103.0</ele><time>2026-04-26T07:59:37.799Z</time></trkpt><trkpt lat="38.1034333" lon="15.6692783"><ele>103.0</ele><time>2026-04-26T07:59:38.8Z</time></trkpt><trkpt lat="38.1035183" lon="15.66937"><ele>103.0</ele><time>2026-04-26T07:59:40.799Z</time></trkpt><trkpt lat="38.103605" lon="15.6694767"><ele>103.0</ele><time>2026-04-26T07:59:42.799Z</time></trkpt><trkpt lat="38.1037017" lon="15.6695833"><ele>103.0</ele><time>2026-04-26T07:59:44.8Z</time></trkpt><trkpt lat="38.1037667" lon="15.6697083"><ele>103.66666666666667</ele><time>2026-04-26T07:59:46.8Z</time></trkpt><trkpt lat="38.1037633" lon="15.6698367"><ele>104.33333333333334</ele><time>2026-04-26T07:59:48.799Z</time></trkpt><trkpt lat="38.103715" lon="15.669945"><ele>105.0</ele><time>2026-04-26T07:59:50.8Z</time></trkpt><trkpt lat="38.1036783" lon="15.6700183"><ele>105.66666666666666</ele><time>2026-04-26T07:59:52.799Z</time></trkpt><trkpt lat="38.1036467" lon="15.670125"><ele>106.33333333333333</ele><time>2026-04-26T07:59:55.8Z</time></trkpt><trkpt lat="38.103675" lon="15.6702183"><ele>107.0</ele><time>2026-04-26T07:59:58.799Z</time></trkpt><trkpt lat="38.103745" lon="15.6702633"><ele>107.33333333333333</ele><time>2026-04-26T08:00:02.8Z</time></trkpt><trkpt lat="38.1038217" lon="15.6702767"><ele>107.66666666666666</ele><time>2026-04-26T08:00:05.799Z</time></trkpt><trkpt lat="38.1038867" lon="15.670285"><ele>108.0</ele><time>2026-04-26T08:00:07.8Z</time></trkpt><trkpt lat="38.10398" lon="15.670305"><ele>108.33333333333334</ele><time>2026-04-26T08:00:10.8Z</time></trkpt><trkpt lat="38.1040533" lon="15.670305"><ele>108.66666666666667</ele><time>2026-04-26T08:00:12.8Z</time></trkpt><trkpt lat="38.10414" lon="15.6702983"><ele>109.0</ele><time>2026-04-26T08:00:14.799Z</time></trkpt><trkpt lat="38.1042617" lon="15.6702667"><ele>109.00000000000001</ele><time>2026-04-26T08:00:16.8Z</time></trkpt><trkpt lat="38.1043367" lon="15.6702483"><ele>109.0</ele><time>2026-04-26T08:00:17.799Z</time></trkpt><trkpt lat="38.1044183" lon="15.670225"><ele>109.0</ele><time>2026-04-26T08:00:18.8Z</time></trkpt><trkpt lat="38.1045" lon="15.670195"><ele>109.0</ele><time>2026-04-26T08:00:19.8Z</time></trkpt><trkpt lat="38.1045817" lon="15.6701617"><ele>109.00000000000001</ele><time>2026-04-26T08:00:20.8Z</time></trkpt><trkpt lat="38.104655" lon="15.67013"><ele>109.0</ele><time>2026-04-26T08:00:21.799Z</time></trkpt><trkpt lat="38.1047333" lon="15.6700967"><ele>109.0</ele><time>2026-04-26T08:00:22.799Z</time></trkpt><trkpt lat="38.1048117" lon="15.6700517"><ele>109.0</ele><time>2026-04-26T08:00:23.799Z</time></trkpt><trkpt lat="38.104895" lon="15.6700067"><ele>109.0</ele><time>2026-04-26T08:00:24.799Z</time></trkpt><trkpt lat="38.104975" lon="15.66994"><ele>109.0</ele><time>2026-04-26T08:00:25.799Z</time></trkpt><trkpt lat="38.1050533" lon="15.669855"><ele>109.0</ele><time>2026-04-26T08:00:26.799Z</time></trkpt><trkpt lat="38.1051183" lon="15.6697533"><ele>111.0</ele><time>2026-04-26T08:00:27.8Z</time></trkpt><trkpt lat="38.105175" lon="15.6696433"><ele>113.0</ele><time>2026-04-26T08:00:28.799Z</time></trkpt><trkpt lat="38.1052267" lon="15.669525"><ele>115.0</ele><time>2026-04-26T08:00:29.799Z</time></trkpt><trkpt lat="38.1052767" lon="15.669405"><ele>117.0</ele><time>2026-04-26T08:00:30.8Z</time></trkpt><trkpt lat="38.1053333" lon="15.6692933"><ele>119.0</ele><time>2026-04-26T08:00:31.8Z</time></trkpt><trkpt lat="38.1054017" lon="15.669175"><ele>120.25</ele><time>2026-04-26T08:00:32.8Z</time></trkpt><trkpt lat="38.1054817" lon="15.6690567"><ele>121.5</ele><time>2026-04-26T08:00:33.799Z</time></trkpt><trkpt lat="38.1055733" lon="15.6689483"><ele>122.75</ele><time>2026-04-26T08:00:34.8Z</time></trkpt><trkpt lat="38.1056733" lon="15.6688433"><ele>124.0</ele><time>2026-04-26T08:00:35.8Z</time></trkpt><trkpt lat="38.10577" lon="15.668735"><ele>126.5</ele><time>2026-04-26T08:00:36.799Z</time></trkpt><trkpt lat="38.105875" lon="15.6686317"><ele>129.0</ele><time>2026-04-26T08:00:37.799Z</time></trkpt><trkpt lat="38.10597" lon="15.66852"><ele>131.5</ele><time>2026-04-26T08:00:38.799Z</time></trkpt><trkpt lat="38.1060433" lon="15.6683917"><ele>134.0</ele><time>2026-04-26T08:00:39.799Z</time></trkpt><trkpt lat="38.106115" lon="15.6682617"><ele>134.25</ele><time>2026-04-26T08:00:40.8Z</time></trkpt><trkpt lat="38.1061717" lon="15.6681267"><ele>134.5</ele><time>2026-04-26T08:00:41.8Z</time></trkpt><trkpt lat="38.106235" lon="15.6679833"><ele>134.75</ele><time>2026-04-26T08:00:42.8Z</time></trkpt><trkpt lat="38.1062933" lon="15.667865"><ele>135.0</ele><time>2026-04-26T08:00:43.799Z</time></trkpt><trkpt lat="38.1063567" lon="15.66775"><ele>135.66666666666666</ele><time>2026-04-26T08:00:44.799Z</time></trkpt><trkpt lat="38.1064017" lon="15.667635"><ele>136.33333333333334</ele><time>2026-04-26T08:00:45.799Z</time></trkpt><trkpt lat="38.1064483" lon="15.6675383"><ele>137.0</ele><time>2026-04-26T08:00:46.8Z</time></trkpt><trkpt lat="38.1065017" lon="15.6674467"><ele>137.66666666666669</ele><time>2026-04-26T08:00:47.8Z</time></trkpt><trkpt lat="38.10656" lon="15.66737"><ele>138.33333333333334</ele><time>2026-04-26T08:00:48.799Z</time></trkpt><trkpt lat="38.1066083" lon="15.667305"><ele>139.0</ele><time>2026-04-26T08:00:49.8Z</time></trkpt><trkpt lat="38.1066583" lon="15.6672433"><ele>139.57142857142856</ele><time>2026-04-26T08:00:50.799Z</time></trkpt><trkpt lat="38.10671" lon="15.667185"><ele>140.14285714285714</ele><time>2026-04-26T08:00:51.799Z</time></trkpt><trkpt lat="38.1067767" lon="15.667135"><ele>140.71428571428572</ele><time>2026-04-26T08:00:52.799Z</time></trkpt><trkpt lat="38.1068417" lon="15.6670983"><ele>141.28571428571428</ele><time>2026-04-26T08:00:53.8Z</time></trkpt><trkpt lat="38.1069033" lon="15.6670517"><ele>141.85714285714286</ele><time>2026-04-26T08:00:54.8Z</time></trkpt><trkpt lat="38.1069783" lon="15.6670133"><ele>142.42857142857142</ele><time>2026-04-26T08:00:55.8Z</time></trkpt><trkpt lat="38.10705" lon="15.66698"><ele>143.0</ele><time>2026-04-26T08:00:56.799Z</time></trkpt><trkpt lat="38.1071217" lon="15.6669467"><ele>142.6</ele><time>2026-04-26T08:00:57.799Z</time></trkpt><trkpt lat="38.10718" lon="15.6669067"><ele>142.20000000000002</ele><time>2026-04-26T08:00:58.799Z</time></trkpt><trkpt lat="38.1072683" lon="15.6668417"><ele>141.8</ele><time>2026-04-26T08:01:00.8Z</time></trkpt><trkpt lat="38.1073383" lon="15.6667967"><ele>141.4</ele><time>2026-04-26T08:01:02.8Z</time></trkpt><trkpt lat="38.1074017" lon="15.6667183"><ele>141.0</ele><time>2026-04-26T08:01:05.799Z</time></trkpt><trkpt lat="38.1074367" lon="15.6665717"><ele>140.33333333333334</ele><time>2026-04-26T08:01:07.799Z</time></trkpt><trkpt lat="38.107375" lon="15.6664433"><ele>139.66666666666666</ele><time>2026-04-26T08:01:09.799Z</time></trkpt><trkpt lat="38.1073217" lon="15.6663983"><ele>139.0</ele><time>2026-04-26T08:01:10.799Z</time></trkpt><trkpt lat="38.1072667" lon="15.6663267"><ele>138.33333333333331</ele><time>2026-04-26T08:01:12.799Z</time></trkpt><trkpt lat="38.107325" lon="15.6662517"><ele>137.66666666666666</ele><time>2026-04-26T08:01:15.799Z</time></trkpt><trkpt lat="38.107375" lon="15.6663317"><ele>137.0</ele><time>2026-04-26T08:16:31.798Z</time></trkpt><trkpt lat="38.1073833" lon="15.66644"><ele>137.0</ele><time>2026-04-26T08:16:34.799Z</time></trkpt><trkpt lat="38.10739" lon="15.6665417"><ele>137.0</ele><time>2026-04-26T08:16:36.798Z</time></trkpt><trkpt lat="38.1073983" lon="15.6666417"><ele>137.0</ele><time>2026-04-26T08:16:38.799Z</time></trkpt><trkpt lat="38.1074033" lon="15.6667483"><ele>137.0</ele><time>2026-04-26T08:16:40.799Z</time></trkpt><trkpt lat="38.1074067" lon="15.6668767"><ele>137.0</ele><time>2026-04-26T08:16:42.799Z</time></trkpt><trkpt lat="38.1074183" lon="15.66701"><ele>138.2</ele><time>2026-04-26T08:16:44.798Z</time></trkpt><trkpt lat="38.1074217" lon="15.6671383"><ele>139.39999999999998</ele><time>2026-04-26T08:16:46.799Z</time></trkpt><trkpt lat="38.107405" lon="15.6672683"><ele>140.60000000000002</ele><time>2026-04-26T08:16:48.798Z</time></trkpt><trkpt lat="38.10739" lon="15.6674133"><ele>141.8</ele><time>2026-04-26T08:16:50.799Z</time></trkpt><trkpt lat="38.1073917" lon="15.6675017"><ele>143.0</ele><time>2026-04-26T08:16:51.799Z</time></trkpt><trkpt lat="38.1073817" lon="15.66761"><ele>143.0</ele><time>2026-04-26T08:16:52.798Z</time></trkpt><trkpt lat="38.10737" lon="15.6677367"><ele>143.0</ele><time>2026-04-26T08:16:53.798Z</time></trkpt><trkpt lat="38.1073567" lon="15.6678783"><ele>143.0</ele><time>2026-04-26T08:16:54.799Z</time></trkpt><trkpt lat="38.107335" lon="15.6680517"><ele>143.0</ele><time>2026-04-26T08:16:55.798Z</time></trkpt><trkpt lat="38.1073017" lon="15.6682433"><ele>143.6</ele><time>2026-04-26T08:16:56.798Z</time></trkpt><trkpt lat="38.1072933" lon="15.668405"><ele>144.20000000000002</ele><time>2026-04-26T08:16:57.798Z</time></trkpt><trkpt lat="38.1072817" lon="15.6685517"><ele>144.8</ele><time>2026-04-26T08:16:58.798Z</time></trkpt><trkpt lat="38.1072733" lon="15.6686783"><ele>145.4</ele><time>2026-04-26T08:16:59.799Z</time></trkpt><trkpt lat="38.1072617" lon="15.668795"><ele>146.0</ele><time>2026-04-26T08:17:00.798Z</time></trkpt><trkpt lat="38.1072433" lon="15.668895"><ele>146.83333333333331</ele><time>2026-04-26T08:17:01.798Z</time></trkpt><trkpt lat="38.107225" lon="15.6689817"><ele>147.66666666666666</ele><time>2026-04-26T08:17:02.799Z</time></trkpt><trkpt lat="38.1071917" lon="15.6691133"><ele>148.5</ele><time>2026-04-26T08:17:04.798Z</time></trkpt><trkpt lat="38.107185" lon="15.669195"><ele>149.33333333333334</ele><time>2026-04-26T08:17:05.798Z</time></trkpt><trkpt lat="38.1071683" lon="15.6693433"><ele>150.16666666666669</ele><time>2026-04-26T08:17:07.798Z</time></trkpt><trkpt lat="38.1071767" lon="15.6694283"><ele>151.0</ele><time>2026-04-26T08:17:08.799Z</time></trkpt><trkpt lat="38.107195" lon="15.6695133"><ele>152.0</ele><time>2026-04-26T08:17:09.798Z</time></trkpt><trkpt lat="38.1072267" lon="15.6695967"><ele>153.0</ele><time>2026-04-26T08:17:10.799Z</time></trkpt><trkpt lat="38.10727" lon="15.669675"><ele>154.0</ele><time>2026-04-26T08:17:11.798Z</time></trkpt><trkpt lat="38.1073167" lon="15.669735"><ele>155.0</ele><time>2026-04-26T08:17:12.798Z</time></trkpt><trkpt lat="38.10739" lon="15.6698083"><ele>156.0</ele><time>2026-04-26T08:17:14.799Z</time></trkpt><trkpt lat="38.10743" lon="15.669935"><ele>157.0</ele><time>2026-04-26T08:17:16.798Z</time></trkpt><trkpt lat="38.1074467" lon="15.67004"><ele>158.75</ele><time>2026-04-26T08:17:17.798Z</time></trkpt><trkpt lat="38.1074533" lon="15.6701767"><ele>160.5</ele><time>2026-04-26T08:17:18.798Z</time></trkpt><trkpt lat="38.1074867" lon="15.670345"><ele>162.25</ele><time>2026-04-26T08:17:19.799Z</time></trkpt><trkpt lat="38.1075367" lon="15.6705133"><ele>164.0</ele><time>2026-04-26T08:17:20.799Z</time></trkpt><trkpt lat="38.1076133" lon="15.670675"><ele>165.75</ele><time>2026-04-26T08:17:21.798Z</time></trkpt><trkpt lat="38.10771" lon="15.670825"><ele>167.5</ele><time>2026-04-26T08:17:22.798Z</time></trkpt><trkpt lat="38.1078117" lon="15.6709483"><ele>169.25</ele><time>2026-04-26T08:17:23.798Z</time></trkpt><trkpt lat="38.107905" lon="15.6710633"><ele>171.0</ele><time>2026-04-26T08:17:24.799Z</time></trkpt><trkpt lat="38.1079867" lon="15.6711767"><ele>172.25</ele><time>2026-04-26T08:17:25.798Z</time></trkpt><trkpt lat="38.1080633" lon="15.67131"><ele>173.5</ele><time>2026-04-26T08:17:26.798Z</time></trkpt><trkpt lat="38.1081383" lon="15.6714517"><ele>174.75</ele><time>2026-04-26T08:17:27.799Z</time></trkpt><trkpt lat="38.1082117" lon="15.6716067"><ele>176.0</ele><time>2026-04-26T08:17:28.798Z</time></trkpt><trkpt lat="38.1082833" lon="15.6717617"><ele>177.25</ele><time>2026-04-26T08:17:29.798Z</time></trkpt><trkpt lat="38.1083417" lon="15.67193"><ele>178.5</ele><time>2026-04-26T08:17:30.798Z</time></trkpt><trkpt lat="38.1084017" lon="15.6720883"><ele>179.75</ele><time>2026-04-26T08:17:31.799Z</time></trkpt><trkpt lat="38.1084633" lon="15.672245"><ele>181.0</ele><time>2026-04-26T08:17:32.798Z</time></trkpt><trkpt lat="38.1085233" lon="15.6724"><ele>182.0</ele><time>2026-04-26T08:17:33.798Z</time></trkpt><trkpt lat="38.1085733" lon="15.6725383"><ele>183.0</ele><time>2026-04-26T08:17:34.798Z</time></trkpt><trkpt lat="38.1086283" lon="15.672665"><ele>184.0</ele><time>2026-04-26T08:17:35.798Z</time></trkpt><trkpt lat="38.1086783" lon="15.6727733"><ele>185.0</ele><time>2026-04-26T08:17:36.798Z</time></trkpt><trkpt lat="38.1087" lon="15.6728533"><ele>186.0</ele><time>2026-04-26T08:17:37.799Z</time></trkpt><trkpt lat="38.1086983" lon="15.67294"><ele>187.0</ele><time>2026-04-26T08:17:38.798Z</time></trkpt><trkpt lat="38.1086633" lon="15.6730333"><ele>188.0</ele><time>2026-04-26T08:17:39.798Z</time></trkpt><trkpt lat="38.1085967" lon="15.673135"><ele>189.0</ele><time>2026-04-26T08:17:40.798Z</time></trkpt><trkpt lat="38.10849" lon="15.673255"><ele>190.0</ele><time>2026-04-26T08:17:41.798Z</time></trkpt><trkpt lat="38.108355" lon="15.6734"><ele>189.66666666666669</ele><time>2026-04-26T08:17:42.798Z</time></trkpt><trkpt lat="38.1082033" lon="15.673575"><ele>189.33333333333334</ele><time>2026-04-26T08:17:43.798Z</time></trkpt><trkpt lat="38.10805" lon="15.67376"><ele>189.0</ele><time>2026-04-26T08:17:44.799Z</time></trkpt><trkpt lat="38.1078717" lon="15.673945"><ele>189.0</ele><time>2026-04-26T08:17:45.798Z</time></trkpt><trkpt lat="38.1077617" lon="15.6740933"><ele>189.0</ele><time>2026-04-26T08:17:46.798Z</time></trkpt><trkpt lat="38.1076867" lon="15.67423"><ele>189.0</ele><time>2026-04-26T08:17:47.799Z</time></trkpt><trkpt lat="38.1076317" lon="15.6743467"><ele>189.0</ele><time>2026-04-26T08:17:48.798Z</time></trkpt><trkpt lat="38.1076167" lon="15.6744567"><ele>188.2</ele><time>2026-04-26T08:17:49.798Z</time></trkpt><trkpt lat="38.1076233" lon="15.6745633"><ele>187.39999999999998</ele><time>2026-04-26T08:17:50.798Z</time></trkpt><trkpt lat="38.107665" lon="15.6746667"><ele>186.6</ele><time>2026-04-26T08:17:51.799Z</time></trkpt><trkpt lat="38.107755" lon="15.6747533"><ele>185.8</ele><time>2026-04-26T08:17:52.798Z</time></trkpt><trkpt lat="38.1078667" lon="15.6747933"><ele>185.0</ele><time>2026-04-26T08:17:53.799Z</time></trkpt><trkpt lat="38.1080083" lon="15.6748"><ele>185.0</ele><time>2026-04-26T08:17:54.798Z</time></trkpt><trkpt lat="38.1081467" lon="15.6747967"><ele>185.0</ele><time>2026-04-26T08:17:55.799Z</time></trkpt><trkpt lat="38.1083033" lon="15.6747767"><ele>185.0</ele><time>2026-04-26T08:17:56.799Z</time></trkpt><trkpt lat="38.10846" lon="15.67476"><ele>188.75</ele><time>2026-04-26T08:17:57.799Z</time></trkpt><trkpt lat="38.1086067" lon="15.6747517"><ele>192.5</ele><time>2026-04-26T08:17:58.799Z</time></trkpt><trkpt lat="38.1087333" lon="15.67477"><ele>196.25</ele><time>2026-04-26T08:17:59.798Z</time></trkpt><trkpt lat="38.1088517" lon="15.67482"><ele>200.0</ele><time>2026-04-26T08:18:00.798Z</time></trkpt><trkpt lat="38.1089683" lon="15.6749317"><ele>201.25</ele><time>2026-04-26T08:18:01.799Z</time></trkpt><trkpt lat="38.10909" lon="15.6750517"><ele>202.5</ele><time>2026-04-26T08:18:02.798Z</time></trkpt><trkpt lat="38.1092017" lon="15.6751233"><ele>203.75</ele><time>2026-04-26T08:18:03.798Z</time></trkpt><trkpt lat="38.1093267" lon="15.67513"><ele>205.0</ele><time>2026-04-26T08:18:04.799Z</time></trkpt><trkpt lat="38.10946" lon="15.6750817"><ele>205.0</ele><time>2026-04-26T08:18:05.798Z</time></trkpt><trkpt lat="38.1096117" lon="15.6750183"><ele>205.0</ele><time>2026-04-26T08:18:06.799Z</time></trkpt><trkpt lat="38.1097783" lon="15.6749317"><ele>205.0</ele><time>2026-04-26T08:18:07.799Z</time></trkpt><trkpt lat="38.10996" lon="15.6748667"><ele>207.0</ele><time>2026-04-26T08:18:08.799Z</time></trkpt><trkpt lat="38.11016" lon="15.6748167"><ele>209.0</ele><time>2026-04-26T08:18:09.799Z</time></trkpt><trkpt lat="38.1103367" lon="15.6747667"><ele>211.0</ele><time>2026-04-26T08:18:10.798Z</time></trkpt><trkpt lat="38.1104883" lon="15.6747233"><ele>211.0</ele><time>2026-04-26T08:18:11.798Z</time></trkpt><trkpt lat="38.110615" lon="15.67471"><ele>211.0</ele><time>2026-04-26T08:18:12.799Z</time></trkpt><trkpt lat="38.1107283" lon="15.6747433"><ele>211.0</ele><time>2026-04-26T08:18:13.799Z</time></trkpt><trkpt lat="38.1108217" lon="15.674825"><ele>211.0</ele><time>2026-04-26T08:18:14.799Z</time></trkpt><trkpt lat="38.1108833" lon="15.674945"><ele>211.5</ele><time>2026-04-26T08:18:15.798Z</time></trkpt><trkpt lat="38.1109267" lon="15.67511"><ele>212.0</ele><time>2026-04-26T08:18:16.799Z</time></trkpt><trkpt lat="38.1109533" lon="15.6752883"><ele>212.5</ele><time>2026-04-26T08:18:17.798Z</time></trkpt><trkpt lat="38.1109883" lon="15.675425"><ele>213.0</ele><time>2026-04-26T08:18:18.799Z</time></trkpt><trkpt lat="38.1110417" lon="15.675525"><ele>215.16666666666666</ele><time>2026-04-26T08:18:19.799Z</time></trkpt><trkpt lat="38.1111183" lon="15.6755767"><ele>217.33333333333331</ele><time>2026-04-26T08:18:20.799Z</time></trkpt><trkpt lat="38.1111917" lon="15.6755933"><ele>219.5</ele><time>2026-04-26T08:18:21.798Z</time></trkpt><trkpt lat="38.1112567" lon="15.6755933"><ele>221.66666666666666</ele><time>2026-04-26T08:18:22.799Z</time></trkpt><trkpt lat="38.11132" lon="15.67556"><ele>223.83333333333331</ele><time>2026-04-26T08:18:36.798Z</time></trkpt><trkpt lat="38.1114017" lon="15.675445"><ele>226.0</ele><time>2026-04-26T08:18:38.798Z</time></trkpt><trkpt lat="38.111465" lon="15.6753633"><ele>224.4</ele><time>2026-04-26T08:18:39.798Z</time></trkpt><trkpt lat="38.1115383" lon="15.675265"><ele>222.8</ele><time>2026-04-26T08:18:40.799Z</time></trkpt><trkpt lat="38.1116117" lon="15.6751617"><ele>221.20000000000002</ele><time>2026-04-26T08:18:41.799Z</time></trkpt><trkpt lat="38.11168" lon="15.67509"><ele>219.60000000000002</ele><time>2026-04-26T08:18:42.799Z</time></trkpt><trkpt lat="38.1117617" lon="15.6750283"><ele>218.0</ele><time>2026-04-26T08:18:43.798Z</time></trkpt><trkpt lat="38.1118567" lon="15.6750017"><ele>218.0</ele><time>2026-04-26T08:18:44.798Z</time></trkpt><trkpt lat="38.1119583" lon="15.6750033"><ele>218.0</ele><time>2026-04-26T08:18:45.799Z</time></trkpt><trkpt lat="38.1120683" lon="15.6750283"><ele>218.0</ele><time>2026-04-26T08:18:46.798Z</time></trkpt><trkpt lat="38.1121983" lon="15.67508"><ele>218.0</ele><time>2026-04-26T08:18:47.799Z</time></trkpt><trkpt lat="38.11233" lon="15.6751383"><ele>219.33333333333334</ele><time>2026-04-26T08:18:48.799Z</time></trkpt><trkpt lat="38.1124333" lon="15.6751983"><ele>220.66666666666669</ele><time>2026-04-26T08:18:49.799Z</time></trkpt><trkpt lat="38.1125" lon="15.67525"><ele>222.0</ele><time>2026-04-26T08:18:50.799Z</time></trkpt><trkpt lat="38.1125333" lon="15.6753317"><ele>223.33333333333331</ele><time>2026-04-26T08:18:51.799Z</time></trkpt><trkpt lat="38.1124917" lon="15.675465"><ele>224.66666666666666</ele><time>2026-04-26T08:18:53.799Z</time></trkpt><trkpt lat="38.1124233" lon="15.675495"><ele>226.0</ele><time>2026-04-26T08:18:54.799Z</time></trkpt><trkpt lat="38.1123033" lon="15.6755017"><ele>227.0</ele><time>2026-04-26T08:18:55.799Z</time></trkpt><trkpt lat="38.1121433" lon="15.675505"><ele>228.0</ele><time>2026-04-26T08:18:56.798Z</time></trkpt><trkpt lat="38.1119883" lon="15.675555"><ele>229.0</ele><time>2026-04-26T08:18:57.798Z</time></trkpt><trkpt lat="38.1118817" lon="15.6756583"><ele>229.0</ele><time>2026-04-26T08:18:58.798Z</time></trkpt><trkpt lat="38.11182" lon="15.675785"><ele>229.0</ele><time>2026-04-26T08:18:59.799Z</time></trkpt><trkpt lat="38.1117983" lon="15.6759333"><ele>229.0</ele><time>2026-04-26T08:19:00.798Z</time></trkpt><trkpt lat="38.1118117" lon="15.6760783"><ele>229.0</ele><time>2026-04-26T08:19:01.798Z</time></trkpt><trkpt lat="38.1118567" lon="15.6762133"><ele>230.5</ele><time>2026-04-26T08:19:02.798Z</time></trkpt><trkpt lat="38.1119183" lon="15.6763417"><ele>232.0</ele><time>2026-04-26T08:19:03.799Z</time></trkpt><trkpt lat="38.111985" lon="15.6764767"><ele>233.5</ele><time>2026-04-26T08:19:04.798Z</time></trkpt><trkpt lat="38.11205" lon="15.676605"><ele>235.0</ele><time>2026-04-26T08:19:05.798Z</time></trkpt><trkpt lat="38.1121033" lon="15.6767317"><ele>234.99999999999997</ele><time>2026-04-26T08:19:06.798Z</time></trkpt><trkpt lat="38.112145" lon="15.67685"><ele>235.0</ele><time>2026-04-26T08:19:07.799Z</time></trkpt><trkpt lat="38.11217" lon="15.67696"><ele>235.0</ele><time>2026-04-26T08:19:08.799Z</time></trkpt><trkpt lat="38.1121767" lon="15.67707"><ele>235.0</ele><time>2026-04-26T08:19:09.798Z</time></trkpt><trkpt lat="38.112165" lon="15.6771683"><ele>234.99999999999997</ele><time>2026-04-26T08:19:10.798Z</time></trkpt><trkpt lat="38.1121367" lon="15.677245"><ele>235.0</ele><time>2026-04-26T08:19:11.799Z</time></trkpt><trkpt lat="38.112035" lon="15.6773117"><ele>239.8</ele><time>2026-04-26T08:19:13.799Z</time></trkpt><trkpt lat="38.1119617" lon="15.677295"><ele>244.6</ele><time>2026-04-26T08:19:14.798Z</time></trkpt><trkpt lat="38.1118867" lon="15.6772417"><ele>249.39999999999998</ele><time>2026-04-26T08:19:15.799Z</time></trkpt><trkpt lat="38.1118" lon="15.67716"><ele>254.2</ele><time>2026-04-26T08:19:16.799Z</time></trkpt><trkpt lat="38.1117083" lon="15.6770667"><ele>259.0</ele><time>2026-04-26T08:19:17.799Z</time></trkpt><trkpt lat="38.11162" lon="15.67698"><ele>254.79999999999998</ele><time>2026-04-26T08:19:18.799Z</time></trkpt><trkpt lat="38.1115267" lon="15.6769083"><ele>250.59999999999997</ele><time>2026-04-26T08:19:19.799Z</time></trkpt><trkpt lat="38.11144" lon="15.6768567"><ele>246.4</ele><time>2026-04-26T08:19:20.798Z</time></trkpt><trkpt lat="38.11134" lon="15.6768283"><ele>242.2</ele><time>2026-04-26T08:19:21.798Z</time></trkpt><trkpt lat="38.1112383" lon="15.6768333"><ele>238.0</ele><time>2026-04-26T08:19:22.799Z</time></trkpt><trkpt lat="38.1111483" lon="15.6768717"><ele>238.0</ele><time>2026-04-26T08:19:23.799Z</time></trkpt><trkpt lat="38.11106" lon="15.6769333"><ele>238.0</ele><time>2026-04-26T08:19:24.798Z</time></trkpt><trkpt lat="38.110985" lon="15.677025"><ele>238.0</ele><time>2026-04-26T08:19:25.798Z</time></trkpt><trkpt lat="38.1109233" lon="15.6771333"><ele>238.0</ele><time>2026-04-26T08:19:26.798Z</time></trkpt><trkpt lat="38.1108717" lon="15.6772533"><ele>238.0</ele><time>2026-04-26T08:19:27.798Z</time></trkpt><trkpt lat="38.11083" lon="15.6773833"><ele>241.60000000000002</ele><time>2026-04-26T08:19:28.799Z</time></trkpt><trkpt lat="38.1108083" lon="15.6775167"><ele>245.20000000000002</ele><time>2026-04-26T08:19:29.798Z</time></trkpt><trkpt lat="38.1108033" lon="15.6776583"><ele>248.8</ele><time>2026-04-26T08:19:30.799Z</time></trkpt><trkpt lat="38.1108117" lon="15.6777967"><ele>252.4</ele><time>2026-04-26T08:19:31.798Z</time></trkpt><trkpt lat="38.11083" lon="15.6779383"><ele>256.0</ele><time>2026-04-26T08:19:32.798Z</time></trkpt><trkpt lat="38.1108683" lon="15.6780783"><ele>256.5</ele><time>2026-04-26T08:19:33.798Z</time></trkpt><trkpt lat="38.1109117" lon="15.6782083"><ele>257.0</ele><time>2026-04-26T08:19:34.798Z</time></trkpt><trkpt lat="38.1109783" lon="15.6783167"><ele>257.5</ele><time>2026-04-26T08:19:35.798Z</time></trkpt><trkpt lat="38.11107" lon="15.67841"><ele>258.0</ele><time>2026-04-26T08:19:36.799Z</time></trkpt><trkpt lat="38.111175" lon="15.6785"><ele>258.0</ele><time>2026-04-26T08:19:37.798Z</time></trkpt><trkpt lat="38.1112767" lon="15.678595"><ele>258.0</ele><time>2026-04-26T08:19:38.799Z</time></trkpt><trkpt lat="38.1113667" lon="15.678715"><ele>258.0</ele><time>2026-04-26T08:19:39.798Z</time></trkpt><trkpt lat="38.1114367" lon="15.678855"><ele>258.0</ele><time>2026-04-26T08:19:40.798Z</time></trkpt><trkpt lat="38.1114983" lon="15.67902"><ele>258.75</ele><time>2026-04-26T08:19:41.799Z</time></trkpt><trkpt lat="38.111555" lon="15.6791917"><ele>259.5</ele><time>2026-04-26T08:19:42.798Z</time></trkpt><trkpt lat="38.1116117" lon="15.679355"><ele>260.25</ele><time>2026-04-26T08:19:43.798Z</time></trkpt><trkpt lat="38.1116717" lon="15.6795017"><ele>261.0</ele><time>2026-04-26T08:19:44.799Z</time></trkpt><trkpt lat="38.1117417" lon="15.6796433"><ele>264.5</ele><time>2026-04-26T08:19:45.798Z</time></trkpt><trkpt lat="38.11181" lon="15.67978"><ele>268.0</ele><time>2026-04-26T08:19:46.798Z</time></trkpt><trkpt lat="38.1118883" lon="15.6799017"><ele>271.5</ele><time>2026-04-26T08:19:47.798Z</time></trkpt><trkpt lat="38.11197" lon="15.680015"><ele>275.0</ele><time>2026-04-26T08:19:48.798Z</time></trkpt><trkpt lat="38.1120517" lon="15.6801233"><ele>275.0</ele><time>2026-04-26T08:19:49.798Z</time></trkpt><trkpt lat="38.1121217" lon="15.6802283"><ele>275.0</ele><time>2026-04-26T08:19:50.798Z</time></trkpt><trkpt lat="38.1121833" lon="15.680325"><ele>275.0</ele><time>2026-04-26T08:19:51.799Z</time></trkpt><trkpt lat="38.1122233" lon="15.680415"><ele>275.0</ele><time>2026-04-26T08:19:52.798Z</time></trkpt><trkpt lat="38.1122483" lon="15.6805"><ele>275.0</ele><time>2026-04-26T08:19:53.798Z</time></trkpt><trkpt lat="38.1122433" lon="15.6805867"><ele>275.0</ele><time>2026-04-26T08:19:54.799Z</time></trkpt><trkpt lat="38.1122083" lon="15.6806683"><ele>277.0</ele><time>2026-04-26T08:19:55.798Z</time></trkpt><trkpt lat="38.1121617" lon="15.6807333"><ele>279.0</ele><time>2026-04-26T08:19:56.798Z</time></trkpt><trkpt lat="38.1120883" lon="15.68078"><ele>281.0</ele><time>2026-04-26T08:19:57.798Z</time></trkpt><trkpt lat="38.1119867" lon="15.6808167"><ele>283.0</ele><time>2026-04-26T08:19:58.799Z</time></trkpt><trkpt lat="38.1118583" lon="15.680835"><ele>285.0</ele><time>2026-04-26T08:19:59.798Z</time></trkpt><trkpt lat="38.111715" lon="15.6808417"><ele>285.0</ele><time>2026-04-26T08:20:00.799Z</time></trkpt><trkpt lat="38.1116067" lon="15.6808617"><ele>285.0</ele><time>2026-04-26T08:20:01.798Z</time></trkpt><trkpt lat="38.1115267" lon="15.6808883"><ele>285.0</ele><time>2026-04-26T08:20:02.799Z</time></trkpt><trkpt lat="38.1114583" lon="15.68092"><ele>285.0</ele><time>2026-04-26T08:20:03.798Z</time></trkpt><trkpt lat="38.11138" lon="15.6810167"><ele>285.0</ele><time>2026-04-26T08:20:05.799Z</time></trkpt><trkpt lat="38.1113983" lon="15.6811567"><ele>284.0</ele><time>2026-04-26T08:20:07.799Z</time></trkpt><trkpt lat="38.111455" lon="15.681235"><ele>283.0</ele><time>2026-04-26T08:20:08.799Z</time></trkpt><trkpt lat="38.11153" lon="15.681335"><ele>282.0</ele><time>2026-04-26T08:20:09.799Z</time></trkpt><trkpt lat="38.1116" lon="15.68147"><ele>281.0</ele><time>2026-04-26T08:20:10.799Z</time></trkpt><trkpt lat="38.1116533" lon="15.681635"><ele>281.25</ele><time>2026-04-26T08:20:11.798Z</time></trkpt><trkpt lat="38.1117" lon="15.6818467"><ele>281.5</ele><time>2026-04-26T08:20:12.799Z</time></trkpt><trkpt lat="38.1116783" lon="15.6820017"><ele>281.75</ele><time>2026-04-26T08:20:13.799Z</time></trkpt><trkpt lat="38.1116267" lon="15.682125"><ele>282.0</ele><time>2026-04-26T08:20:14.798Z</time></trkpt><trkpt lat="38.1115333" lon="15.6822317"><ele>282.0</ele><time>2026-04-26T08:20:15.798Z</time></trkpt><trkpt lat="38.1114383" lon="15.68233"><ele>282.0</ele><time>2026-04-26T08:20:16.799Z</time></trkpt><trkpt lat="38.1114017" lon="15.6824333"><ele>282.0</ele><time>2026-04-26T08:20:17.799Z</time></trkpt><trkpt lat="38.111415" lon="15.6825667"><ele>282.0</ele><time>2026-04-26T08:20:18.799Z</time></trkpt><trkpt lat="38.111465" lon="15.6827"><ele>282.0</ele><time>2026-04-26T08:20:19.798Z</time></trkpt><trkpt lat="38.11155" lon="15.6828133"><ele>285.0</ele><time>2026-04-26T08:20:20.798Z</time></trkpt><trkpt lat="38.11165" lon="15.6829033"><ele>288.0</ele><time>2026-04-26T08:20:21.799Z</time></trkpt><trkpt lat="38.1117583" lon="15.682985"><ele>291.0</ele><time>2026-04-26T08:20:22.799Z</time></trkpt><trkpt lat="38.1118633" lon="15.6830683"><ele>294.0</ele><time>2026-04-26T08:20:23.798Z</time></trkpt><trkpt lat="38.1119733" lon="15.6831433"><ele>294.0</ele><time>2026-04-26T08:20:24.798Z</time></trkpt><trkpt lat="38.112085" lon="15.68321"><ele>294.0</ele><time>2026-04-26T08:20:25.798Z</time></trkpt><trkpt lat="38.11219" lon="15.6832767"><ele>294.0</ele><time>2026-04-26T08:20:26.799Z</time></trkpt><trkpt lat="38.112285" lon="15.6833633"><ele>294.0</ele><time>2026-04-26T08:20:27.798Z</time></trkpt><trkpt lat="38.1123667" lon="15.6834917"><ele>297.75</ele><time>2026-04-26T08:20:28.799Z</time></trkpt><trkpt lat="38.11244" lon="15.683655"><ele>301.5</ele><time>2026-04-26T08:20:29.799Z</time></trkpt><trkpt lat="38.1125067" lon="15.6838267"><ele>305.25</ele><time>2026-04-26T08:20:30.799Z</time></trkpt><trkpt lat="38.1125667" lon="15.6840017"><ele>309.0</ele><time>2026-04-26T08:20:31.799Z</time></trkpt><trkpt lat="38.1126283" lon="15.68416"><ele>309.0</ele><time>2026-04-26T08:20:32.798Z</time></trkpt><trkpt lat="38.1127" lon="15.6842733"><ele>309.0</ele><time>2026-04-26T08:20:33.798Z</time></trkpt><trkpt lat="38.112795" lon="15.684345"><ele>309.0</ele><time>2026-04-26T08:20:34.798Z</time></trkpt><trkpt lat="38.1129033" lon="15.68436"><ele>309.0</ele><time>2026-04-26T08:20:35.799Z</time></trkpt><trkpt lat="38.113025" lon="15.6843267"><ele>309.0</ele><time>2026-04-26T08:20:36.798Z</time></trkpt><trkpt lat="38.1131433" lon="15.684265"><ele>309.0</ele><time>2026-04-26T08:20:37.799Z</time></trkpt><trkpt lat="38.1132633" lon="15.6841883"><ele>309.0</ele><time>2026-04-26T08:20:38.798Z</time></trkpt><trkpt lat="38.1133883" lon="15.6841133"><ele>309.0</ele><time>2026-04-26T08:20:39.798Z</time></trkpt><trkpt lat="38.113505" lon="15.6840433"><ele>310.75</ele><time>2026-04-26T08:20:40.799Z</time></trkpt><trkpt lat="38.1136283" lon="15.6839867"><ele>312.5</ele><time>2026-04-26T08:20:41.798Z</time></trkpt><trkpt lat="38.1137417" lon="15.6839733"><ele>314.25</ele><time>2026-04-26T08:20:42.799Z</time></trkpt><trkpt lat="38.113875" lon="15.6839883"><ele>316.0</ele><time>2026-04-26T08:20:43.798Z</time></trkpt><trkpt lat="38.114015" lon="15.6840083"><ele>316.8</ele><time>2026-04-26T08:20:44.799Z</time></trkpt><trkpt lat="38.1141417" lon="15.68403"><ele>317.6</ele><time>2026-04-26T08:20:45.798Z</time></trkpt><trkpt lat="38.11425" lon="15.684065"><ele>318.4</ele><time>2026-04-26T08:20:46.798Z</time></trkpt><trkpt lat="38.1143367" lon="15.684125"><ele>319.2</ele><time>2026-04-26T08:20:47.798Z</time></trkpt><trkpt lat="38.1144033" lon="15.6842117"><ele>320.0</ele><time>2026-04-26T08:20:48.798Z</time></trkpt><trkpt lat="38.11445" lon="15.6843167"><ele>319.0</ele><time>2026-04-26T08:20:49.799Z</time></trkpt><trkpt lat="38.114475" lon="15.68444"><ele>318.0</ele><time>2026-04-26T08:20:50.799Z</time></trkpt><trkpt lat="38.1145" lon="15.68456"><ele>317.0</ele><time>2026-04-26T08:20:51.799Z</time></trkpt><trkpt lat="38.11454" lon="15.6846583"><ele>316.0</ele><time>2026-04-26T08:20:52.798Z</time></trkpt><trkpt lat="38.11461" lon="15.6847217"><ele>315.0</ele><time>2026-04-26T08:20:53.798Z</time></trkpt><trkpt lat="38.1146983" lon="15.6847467"><ele>315.0</ele><time>2026-04-26T08:20:54.798Z</time></trkpt><trkpt lat="38.114795" lon="15.6847367"><ele>315.0</ele><time>2026-04-26T08:20:55.798Z</time></trkpt><trkpt lat="38.1149017" lon="15.6847217"><ele>315.0</ele><time>2026-04-26T08:20:56.798Z</time></trkpt><trkpt lat="38.1150183" lon="15.684695"><ele>315.0</ele><time>2026-04-26T08:20:57.798Z</time></trkpt><trkpt lat="38.1151367" lon="15.684665"><ele>315.0</ele><time>2026-04-26T08:20:58.799Z</time></trkpt><trkpt lat="38.11525" lon="15.684625"><ele>317.8</ele><time>2026-04-26T08:20:59.798Z</time></trkpt><trkpt lat="38.1153667" lon="15.6845917"><ele>320.6</ele><time>2026-04-26T08:21:00.798Z</time></trkpt><trkpt lat="38.115475" lon="15.68458"><ele>323.4</ele><time>2026-04-26T08:21:01.798Z</time></trkpt><trkpt lat="38.1155717" lon="15.684605"><ele>326.2</ele><time>2026-04-26T08:21:02.798Z</time></trkpt><trkpt lat="38.1156633" lon="15.68465"><ele>329.0</ele><time>2026-04-26T08:21:03.799Z</time></trkpt><trkpt lat="38.1157333" lon="15.6847183"><ele>329.0</ele><time>2026-04-26T08:21:04.799Z</time></trkpt><trkpt lat="38.1157783" lon="15.6847933"><ele>329.0</ele><time>2026-04-26T08:21:05.798Z</time></trkpt><trkpt lat="38.1157883" lon="15.6848867"><ele>329.0</ele><time>2026-04-26T08:21:06.798Z</time></trkpt><trkpt lat="38.1157717" lon="15.6849733"><ele>329.0</ele><time>2026-04-26T08:21:07.798Z</time></trkpt><trkpt lat="38.1157417" lon="15.6850667"><ele>329.0</ele><time>2026-04-26T08:21:08.798Z</time></trkpt><trkpt lat="38.11572" lon="15.6851683"><ele>329.0</ele><time>2026-04-26T08:21:09.799Z</time></trkpt><trkpt lat="38.1157233" lon="15.6852683"><ele>331.33333333333337</ele><time>2026-04-26T08:21:10.798Z</time></trkpt><trkpt lat="38.11575" lon="15.685345"><ele>333.6666666666667</ele><time>2026-04-26T08:21:11.798Z</time></trkpt><trkpt lat="38.115795" lon="15.6854083"><ele>336.0</ele><time>2026-04-26T08:21:12.799Z</time></trkpt><trkpt lat="38.1158533" lon="15.6854883"><ele>338.3333333333333</ele><time>2026-04-26T08:21:13.799Z</time></trkpt><trkpt lat="38.1159067" lon="15.68559"><ele>340.66666666666663</ele><time>2026-04-26T08:21:14.799Z</time></trkpt><trkpt lat="38.1159433" lon="15.685695"><ele>343.0</ele><time>2026-04-26T08:21:15.798Z</time></trkpt><trkpt lat="38.1159483" lon="15.6858167"><ele>343.0</ele><time>2026-04-26T08:21:16.798Z</time></trkpt><trkpt lat="38.1159383" lon="15.6859767"><ele>343.0</ele><time>2026-04-26T08:21:17.799Z</time></trkpt><trkpt lat="38.1159167" lon="15.68616"><ele>343.0</ele><time>2026-04-26T08:21:18.799Z</time></trkpt><trkpt lat="38.1158883" lon="15.6863767"><ele>343.0</ele><time>2026-04-26T08:21:19.799Z</time></trkpt><trkpt lat="38.1158717" lon="15.6866083"><ele>344.75</ele><time>2026-04-26T08:21:20.798Z</time></trkpt><trkpt lat="38.115855" lon="15.6868167"><ele>346.5</ele><time>2026-04-26T08:21:21.799Z</time></trkpt><trkpt lat="38.1158567" lon="15.6869933"><ele>348.25</ele><time>2026-04-26T08:21:22.798Z</time></trkpt><trkpt lat="38.115885" lon="15.6871517"><ele>350.0</ele><time>2026-04-26T08:21:23.799Z</time></trkpt><trkpt lat="38.11594" lon="15.6872817"><ele>351.25</ele><time>2026-04-26T08:21:24.798Z</time></trkpt><trkpt lat="38.1160233" lon="15.6873933"><ele>352.5</ele><time>2026-04-26T08:21:25.799Z</time></trkpt><trkpt lat="38.1161267" lon="15.6874883"><ele>353.75</ele><time>2026-04-26T08:21:26.799Z</time></trkpt><trkpt lat="38.1162383" lon="15.687585"><ele>355.0</ele><time>2026-04-26T08:21:27.799Z</time></trkpt><trkpt lat="38.11636" lon="15.6876883"><ele>353.66666666666663</ele><time>2026-04-26T08:21:28.798Z</time></trkpt><trkpt lat="38.1164833" lon="15.6878"><ele>352.3333333333333</ele><time>2026-04-26T08:21:29.798Z</time></trkpt><trkpt lat="38.1166067" lon="15.6879217"><ele>351.0</ele><time>2026-04-26T08:21:30.798Z</time></trkpt><trkpt lat="38.1167117" lon="15.6880433"><ele>352.25</ele><time>2026-04-26T08:21:31.798Z</time></trkpt><trkpt lat="38.1167917" lon="15.688195"><ele>353.5</ele><time>2026-04-26T08:21:32.799Z</time></trkpt><trkpt lat="38.1168583" lon="15.688365"><ele>354.75</ele><time>2026-04-26T08:21:33.799Z</time></trkpt><trkpt lat="38.1169067" lon="15.6885133"><ele>356.0</ele><time>2026-04-26T08:21:34.799Z</time></trkpt><trkpt lat="38.1169517" lon="15.6886217"><ele>356.0</ele><time>2026-04-26T08:21:35.798Z</time></trkpt><trkpt lat="38.117015" lon="15.6886867"><ele>356.0</ele><time>2026-04-26T08:21:36.798Z</time></trkpt><trkpt lat="38.1170917" lon="15.6887133"><ele>356.0</ele><time>2026-04-26T08:21:37.799Z</time></trkpt><trkpt lat="38.117195" lon="15.6887167"><ele>356.0</ele><time>2026-04-26T08:21:38.798Z</time></trkpt><trkpt lat="38.1173117" lon="15.6887333"><ele>356.0</ele><time>2026-04-26T08:21:39.799Z</time></trkpt><trkpt lat="38.1174333" lon="15.6887867"><ele>357.33333333333337</ele><time>2026-04-26T08:21:40.798Z</time></trkpt><trkpt lat="38.11755" lon="15.688885"><ele>358.6666666666667</ele><time>2026-04-26T08:21:41.798Z</time></trkpt><trkpt lat="38.1176617" lon="15.6890117"><ele>360.0</ele><time>2026-04-26T08:21:42.798Z</time></trkpt><trkpt lat="38.1177867" lon="15.68917"><ele>360.0</ele><time>2026-04-26T08:21:43.798Z</time></trkpt><trkpt lat="38.1179267" lon="15.68932"><ele>360.0</ele><time>2026-04-26T08:21:44.798Z</time></trkpt><trkpt lat="38.1180667" lon="15.6894317"><ele>360.0</ele><time>2026-04-26T08:21:45.799Z</time></trkpt><trkpt lat="38.118215" lon="15.6894917"><ele>363.6666666666667</ele><time>2026-04-26T08:21:46.798Z</time></trkpt><trkpt lat="38.1183683" lon="15.689535"><ele>367.33333333333337</ele><time>2026-04-26T08:21:47.798Z</time></trkpt><trkpt lat="38.1185417" lon="15.6895633"><ele>371.0</ele><time>2026-04-26T08:21:48.798Z</time></trkpt><trkpt lat="38.1187117" lon="15.68959"><ele>371.0</ele><time>2026-04-26T08:21:49.798Z</time></trkpt><trkpt lat="38.1188833" lon="15.6896117"><ele>371.0</ele><time>2026-04-26T08:21:50.799Z</time></trkpt><trkpt lat="38.1190467" lon="15.6896517"><ele>371.0</ele><time>2026-04-26T08:21:51.798Z</time></trkpt><trkpt lat="38.1192133" lon="15.68968"><ele>374.25</ele><time>2026-04-26T08:21:52.798Z</time></trkpt><trkpt lat="38.1193683" lon="15.6897133"><ele>377.5</ele><time>2026-04-26T08:21:53.798Z</time></trkpt><trkpt lat="38.1195133" lon="15.6897417"><ele>380.75</ele><time>2026-04-26T08:21:54.799Z</time></trkpt><trkpt lat="38.1196467" lon="15.6897667"><ele>384.0</ele><time>2026-04-26T08:21:55.798Z</time></trkpt><trkpt lat="38.1197733" lon="15.6898"><ele>384.75</ele><time>2026-04-26T08:21:56.799Z</time></trkpt><trkpt lat="38.1199083" lon="15.6898333"><ele>385.5</ele><time>2026-04-26T08:21:57.798Z</time></trkpt><trkpt lat="38.1200517" lon="15.6898617"><ele>386.25</ele><time>2026-04-26T08:21:58.798Z</time></trkpt><trkpt lat="38.1201983" lon="15.6898983"><ele>387.0</ele><time>2026-04-26T08:21:59.798Z</time></trkpt><trkpt lat="38.1203433" lon="15.68993"><ele>387.0</ele><time>2026-04-26T08:22:00.799Z</time></trkpt><trkpt lat="38.1204917" lon="15.6899733"><ele>387.0</ele><time>2026-04-26T08:22:01.798Z</time></trkpt><trkpt lat="38.1206333" lon="15.6900167"><ele>387.0</ele><time>2026-04-26T08:22:02.799Z</time></trkpt><trkpt lat="38.1207667" lon="15.6900433"><ele>387.0</ele><time>2026-04-26T08:22:03.798Z</time></trkpt><trkpt lat="38.1208783" lon="15.6900717"><ele>387.0</ele><time>2026-04-26T08:22:04.799Z</time></trkpt><trkpt lat="38.120955" lon="15.690105"><ele>387.0</ele><time>2026-04-26T08:22:05.798Z</time></trkpt><trkpt lat="38.1210317" lon="15.6902033"><ele>387.0</ele><time>2026-04-26T08:22:07.798Z</time></trkpt><trkpt lat="38.1210283" lon="15.690335"><ele>387.0</ele><time>2026-04-26T08:22:09.798Z</time></trkpt><trkpt lat="38.1209783" lon="15.6903917"><ele>387.0</ele><time>2026-04-26T08:22:10.799Z</time></trkpt><trkpt lat="38.1209" lon="15.69043"><ele>387.0</ele><time>2026-04-26T08:22:11.799Z</time></trkpt><trkpt lat="38.1208067" lon="15.6904383"><ele>391.25</ele><time>2026-04-26T08:22:12.799Z</time></trkpt><trkpt lat="38.1206967" lon="15.6904083"><ele>395.5</ele><time>2026-04-26T08:22:13.799Z</time></trkpt><trkpt lat="38.1205717" lon="15.690345"><ele>399.75</ele><time>2026-04-26T08:22:14.799Z</time></trkpt><trkpt lat="38.1204267" lon="15.690295"><ele>404.0</ele><time>2026-04-26T08:22:15.8Z</time></trkpt><trkpt lat="38.1202883" lon="15.6902867"><ele>404.0</ele><time>2026-04-26T08:22:16.799Z</time></trkpt><trkpt lat="38.1201917" lon="15.69033"><ele>404.0</ele><time>2026-04-26T08:22:17.8Z</time></trkpt><trkpt lat="38.12013" lon="15.6904117"><ele>404.0</ele><time>2026-04-26T08:22:18.8Z</time></trkpt><trkpt lat="38.1200967" lon="15.6905317"><ele>404.0</ele><time>2026-04-26T08:22:19.799Z</time></trkpt><trkpt lat="38.1201017" lon="15.69069"><ele>404.0</ele><time>2026-04-26T08:22:20.8Z</time></trkpt><trkpt lat="38.12013" lon="15.6909017"><ele>405.66666666666663</ele><time>2026-04-26T08:22:21.8Z</time></trkpt><trkpt lat="38.1201533" lon="15.69112"><ele>407.33333333333337</ele><time>2026-04-26T08:22:22.799Z</time></trkpt><trkpt lat="38.1201567" lon="15.6913283"><ele>409.0</ele><time>2026-04-26T08:22:23.8Z</time></trkpt><trkpt lat="38.1201267" lon="15.6915133"><ele>409.0</ele><time>2026-04-26T08:22:24.799Z</time></trkpt><trkpt lat="38.120085" lon="15.6916867"><ele>409.0</ele><time>2026-04-26T08:22:25.799Z</time></trkpt><trkpt lat="38.1200433" lon="15.6918617"><ele>409.0</ele><time>2026-04-26T08:22:26.8Z</time></trkpt><trkpt lat="38.119995" lon="15.6920283"><ele>409.0</ele><time>2026-04-26T08:22:27.799Z</time></trkpt><trkpt lat="38.1199333" lon="15.6921983"><ele>400.6666666666667</ele><time>2026-04-26T08:22:28.799Z</time></trkpt><trkpt lat="38.1198667" lon="15.6923783"><ele>392.33333333333337</ele><time>2026-04-26T08:22:29.8Z</time></trkpt><trkpt lat="38.1198033" lon="15.6925617"><ele>384.0</ele><time>2026-04-26T08:22:30.8Z</time></trkpt><trkpt lat="38.1197233" lon="15.6927367"><ele>380.3333333333333</ele><time>2026-04-26T08:22:31.799Z</time></trkpt><trkpt lat="38.11965" lon="15.692915"><ele>376.66666666666663</ele><time>2026-04-26T08:22:32.8Z</time></trkpt><trkpt lat="38.1195767" lon="15.693085"><ele>373.0</ele><time>2026-04-26T08:22:33.799Z</time></trkpt><trkpt lat="38.119525" lon="15.6932533"><ele>373.0</ele><time>2026-04-26T08:22:34.8Z</time></trkpt><trkpt lat="38.1194883" lon="15.693415"><ele>373.0</ele><time>2026-04-26T08:22:35.799Z</time></trkpt><trkpt lat="38.1194733" lon="15.6936"><ele>373.0</ele><time>2026-04-26T08:22:36.799Z</time></trkpt><trkpt lat="38.1194733" lon="15.6938233"><ele>375.0</ele><time>2026-04-26T08:22:37.8Z</time></trkpt><trkpt lat="38.1194817" lon="15.6940883"><ele>377.0</ele><time>2026-04-26T08:22:38.8Z</time></trkpt><trkpt lat="38.119485" lon="15.6943883"><ele>379.0</ele><time>2026-04-26T08:22:39.8Z</time></trkpt><trkpt lat="38.11947" lon="15.694705"><ele>388.0</ele><time>2026-04-26T08:22:40.8Z</time></trkpt><trkpt lat="38.1194317" lon="15.6950383"><ele>397.0</ele><time>2026-04-26T08:22:41.8Z</time></trkpt><trkpt lat="38.11939" lon="15.6953917"><ele>404.0</ele><time>2026-04-26T08:22:42.799Z</time></trkpt><trkpt lat="38.11933" lon="15.6957417"><ele>411.0</ele><time>2026-04-26T08:22:43.799Z</time></trkpt><trkpt lat="38.1192767" lon="15.6960583"><ele>417.0</ele><time>2026-04-26T08:22:44.799Z</time></trkpt><trkpt lat="38.1192267" lon="15.6963583"><ele>423.0</ele><time>2026-04-26T08:22:45.799Z</time></trkpt><trkpt lat="38.1191683" lon="15.6966133"><ele>423.0</ele><time>2026-04-26T08:22:46.8Z</time></trkpt><trkpt lat="38.11913" lon="15.69683"><ele>423.0</ele><time>2026-04-26T08:22:47.799Z</time></trkpt><trkpt lat="38.119105" lon="15.69699"><ele>423.0</ele><time>2026-04-26T08:22:48.799Z</time></trkpt><trkpt lat="38.1191167" lon="15.6971217"><ele>423.0</ele><time>2026-04-26T08:22:49.799Z</time></trkpt><trkpt lat="38.11916" lon="15.6972083"><ele>424.4</ele><time>2026-04-26T08:22:50.799Z</time></trkpt><trkpt lat="38.11923" lon="15.6972567"><ele>425.79999999999995</ele><time>2026-04-26T08:22:51.799Z</time></trkpt><trkpt lat="38.119305" lon="15.6972583"><ele>427.2</ele><time>2026-04-26T08:22:52.799Z</time></trkpt><trkpt lat="38.119375" lon="15.6972133"><ele>428.6</ele><time>2026-04-26T08:22:53.799Z</time></trkpt><trkpt lat="38.1194333" lon="15.6971167"><ele>430.0</ele><time>2026-04-26T08:22:54.799Z</time></trkpt><trkpt lat="38.1194783" lon="15.6969467"><ele>428.25</ele><time>2026-04-26T08:22:55.799Z</time></trkpt><trkpt lat="38.1194933" lon="15.69672"><ele>426.5</ele><time>2026-04-26T08:22:56.799Z</time></trkpt><trkpt lat="38.11951" lon="15.6965167"><ele>424.75</ele><time>2026-04-26T08:22:57.799Z</time></trkpt><trkpt lat="38.11954" lon="15.6963867"><ele>423.0</ele><time>2026-04-26T08:22:58.8Z</time></trkpt><trkpt lat="38.1195967" lon="15.6963367"><ele>423.0</ele><time>2026-04-26T08:22:59.799Z</time></trkpt><trkpt lat="38.1197017" lon="15.6964067"><ele>423.0</ele><time>2026-04-26T08:23:01.799Z</time></trkpt><trkpt lat="38.1197217" lon="15.69652"><ele>423.0</ele><time>2026-04-26T08:23:02.8Z</time></trkpt><trkpt lat="38.1197017" lon="15.69667"><ele>423.0</ele><time>2026-04-26T08:23:03.8Z</time></trkpt><trkpt lat="38.1196483" lon="15.6968883"><ele>425.33333333333337</ele><time>2026-04-26T08:23:04.8Z</time></trkpt><trkpt lat="38.1196033" lon="15.6971517"><ele>427.6666666666667</ele><time>2026-04-26T08:23:05.8Z</time></trkpt><trkpt lat="38.1196067" lon="15.697435"><ele>430.0</ele><time>2026-04-26T08:23:06.8Z</time></trkpt><trkpt lat="38.119655" lon="15.69772"><ele>430.5</ele><time>2026-04-26T08:23:07.8Z</time></trkpt><trkpt lat="38.1197167" lon="15.698015"><ele>431.0</ele><time>2026-04-26T08:23:08.8Z</time></trkpt><trkpt lat="38.1197733" lon="15.69834"><ele>431.0</ele><time>2026-04-26T08:23:09.799Z</time></trkpt><trkpt lat="38.1198317" lon="15.6986733"><ele>431.0</ele><time>2026-04-26T08:23:10.799Z</time></trkpt><trkpt lat="38.1198817" lon="15.6989867"><ele>446.5</ele><time>2026-04-26T08:23:11.799Z</time></trkpt><trkpt lat="38.1199133" lon="15.6992667"><ele>462.0</ele><time>2026-04-26T08:23:12.8Z</time></trkpt><trkpt lat="38.1199283" lon="15.699555"><ele>465.0</ele><time>2026-04-26T08:23:13.8Z</time></trkpt><trkpt lat="38.1199267" lon="15.6998683"><ele>468.0</ele><time>2026-04-26T08:23:14.8Z</time></trkpt><trkpt lat="38.11991" lon="15.7001933"><ele>452.0</ele><time>2026-04-26T08:23:15.8Z</time></trkpt><trkpt lat="38.1198933" lon="15.7005217"><ele>436.0</ele><time>2026-04-26T08:23:16.8Z</time></trkpt><trkpt lat="38.1198733" lon="15.7008183"><ele>436.6666666666667</ele><time>2026-04-26T08:23:17.799Z</time></trkpt><trkpt lat="38.1198433" lon="15.7010983"><ele>437.33333333333337</ele><time>2026-04-26T08:23:18.8Z</time></trkpt><trkpt lat="38.119805" lon="15.7013667"><ele>438.0</ele><time>2026-04-26T08:23:19.8Z</time></trkpt><trkpt lat="38.1197367" lon="15.7016383"><ele>438.0</ele><time>2026-04-26T08:23:20.799Z</time></trkpt><trkpt lat="38.11966" lon="15.701875"><ele>438.0</ele><time>2026-04-26T08:23:21.799Z</time></trkpt><trkpt lat="38.119595" lon="15.702085"><ele>438.0</ele><time>2026-04-26T08:23:22.8Z</time></trkpt><trkpt lat="38.1195617" lon="15.70226"><ele>437.75</ele><time>2026-04-26T08:23:23.799Z</time></trkpt><trkpt lat="38.1195733" lon="15.7024267"><ele>437.5</ele><time>2026-04-26T08:23:24.8Z</time></trkpt><trkpt lat="38.1196167" lon="15.702565"><ele>437.25</ele><time>2026-04-26T08:23:25.799Z</time></trkpt><trkpt lat="38.1197033" lon="15.7026717"><ele>437.0</ele><time>2026-04-26T08:23:26.8Z</time></trkpt><trkpt lat="38.11984" lon="15.7027667"><ele>442.0</ele><time>2026-04-26T08:23:27.799Z</time></trkpt><trkpt lat="38.1200217" lon="15.70285"><ele>447.0</ele><time>2026-04-26T08:23:28.8Z</time></trkpt><trkpt lat="38.120225" lon="15.702935"><ele>452.0</ele><time>2026-04-26T08:23:29.8Z</time></trkpt><trkpt lat="38.1204267" lon="15.7030317"><ele>452.0</ele><time>2026-04-26T08:23:30.799Z</time></trkpt><trkpt lat="38.1206133" lon="15.7031567"><ele>452.0</ele><time>2026-04-26T08:23:31.799Z</time></trkpt><trkpt lat="38.12078" lon="15.7033017"><ele>452.0</ele><time>2026-04-26T08:23:32.8Z</time></trkpt><trkpt lat="38.12092" lon="15.7034333"><ele>449.66666666666663</ele><time>2026-04-26T08:23:33.799Z</time></trkpt><trkpt lat="38.1210517" lon="15.7035433"><ele>447.33333333333337</ele><time>2026-04-26T08:23:34.799Z</time></trkpt><trkpt lat="38.12121" lon="15.70362"><ele>445.0</ele><time>2026-04-26T08:23:35.8Z</time></trkpt><trkpt lat="38.1214083" lon="15.7036683"><ele>456.33333333333337</ele><time>2026-04-26T08:23:36.799Z</time></trkpt><trkpt lat="38.1216217" lon="15.7036983"><ele>467.66666666666663</ele><time>2026-04-26T08:23:37.8Z</time></trkpt><trkpt lat="38.1218133" lon="15.7037367"><ele>479.0</ele><time>2026-04-26T08:23:38.8Z</time></trkpt><trkpt lat="38.1219733" lon="15.7037883"><ele>479.0</ele><time>2026-04-26T08:23:39.799Z</time></trkpt><trkpt lat="38.1221" lon="15.703875"><ele>479.0</ele><time>2026-04-26T08:23:40.8Z</time></trkpt><trkpt lat="38.1221917" lon="15.7040017"><ele>479.0</ele><time>2026-04-26T08:23:41.799Z</time></trkpt><trkpt lat="38.12226" lon="15.704185"><ele>479.0</ele><time>2026-04-26T08:23:42.8Z</time></trkpt><trkpt lat="38.1223233" lon="15.7044117"><ele>482.0</ele><time>2026-04-26T08:23:43.799Z</time></trkpt><trkpt lat="38.1224" lon="15.70465"><ele>485.0</ele><time>2026-04-26T08:23:44.8Z</time></trkpt><trkpt lat="38.122475" lon="15.704855"><ele>488.0</ele><time>2026-04-26T08:23:45.799Z</time></trkpt><trkpt lat="38.1225283" lon="15.7050117"><ele>487.99999999999994</ele><time>2026-04-26T08:23:46.799Z</time></trkpt><trkpt lat="38.1225583" lon="15.70515"><ele>488.0</ele><time>2026-04-26T08:23:47.799Z</time></trkpt><trkpt lat="38.122565" lon="15.705265"><ele>488.0</ele><time>2026-04-26T08:23:48.799Z</time></trkpt><trkpt lat="38.122565" lon="15.7053633"><ele>488.0</ele><time>2026-04-26T08:23:49.799Z</time></trkpt><trkpt lat="38.12255" lon="15.7054517"><ele>487.99999999999994</ele><time>2026-04-26T08:23:50.799Z</time></trkpt><trkpt lat="38.1225233" lon="15.7055283"><ele>488.0</ele><time>2026-04-26T08:23:51.799Z</time></trkpt><trkpt lat="38.1224583" lon="15.7056667"><ele>488.66666666666663</ele><time>2026-04-26T08:23:53.8Z</time></trkpt><trkpt lat="38.1224167" lon="15.7057417"><ele>489.3333333333333</ele><time>2026-04-26T08:23:54.799Z</time></trkpt><trkpt lat="38.122335" lon="15.705845"><ele>490.0</ele><time>2026-04-26T08:23:56.799Z</time></trkpt><trkpt lat="38.1222883" lon="15.705905"><ele>490.66666666666663</ele><time>2026-04-26T08:23:57.8Z</time></trkpt><trkpt lat="38.1222383" lon="15.7059617"><ele>491.3333333333333</ele><time>2026-04-26T08:23:58.8Z</time></trkpt><trkpt lat="38.1221883" lon="15.706015"><ele>492.0</ele><time>2026-04-26T08:23:59.799Z</time></trkpt><trkpt lat="38.1221333" lon="15.706065"><ele>490.1428571428572</ele><time>2026-04-26T08:24:00.799Z</time></trkpt><trkpt lat="38.1220767" lon="15.7061067"><ele>488.28571428571433</ele><time>2026-04-26T08:24:01.799Z</time></trkpt><trkpt lat="38.1220183" lon="15.706145"><ele>486.42857142857144</ele><time>2026-04-26T08:24:02.799Z</time></trkpt><trkpt lat="38.1219517" lon="15.7061733"><ele>484.5714285714286</ele><time>2026-04-26T08:24:03.8Z</time></trkpt><trkpt lat="38.1218867" lon="15.7061833"><ele>482.7142857142858</ele><time>2026-04-26T08:24:04.799Z</time></trkpt><trkpt lat="38.1218217" lon="15.7061683"><ele>480.85714285714283</ele><time>2026-04-26T08:24:05.799Z</time></trkpt><trkpt lat="38.1217517" lon="15.706135"><ele>479.0</ele><time>2026-04-26T08:24:06.799Z</time></trkpt><trkpt lat="38.12166" lon="15.7060717"><ele>480.3333333333333</ele><time>2026-04-26T08:24:07.8Z</time></trkpt><trkpt lat="38.1215433" lon="15.706"><ele>481.66666666666663</ele><time>2026-04-26T08:24:08.799Z</time></trkpt><trkpt lat="38.1213883" lon="15.7059683"><ele>483.0</ele><time>2026-04-26T08:24:09.799Z</time></trkpt><trkpt lat="38.1211967" lon="15.706"><ele>483.33333333333337</ele><time>2026-04-26T08:24:10.799Z</time></trkpt><trkpt lat="38.1210017" lon="15.7060867"><ele>483.6666666666667</ele><time>2026-04-26T08:24:11.799Z</time></trkpt><trkpt lat="38.1208083" lon="15.7062"><ele>484.0</ele><time>2026-04-26T08:24:12.8Z</time></trkpt><trkpt lat="38.12061" lon="15.7063533"><ele>484.0</ele><time>2026-04-26T08:24:13.799Z</time></trkpt><trkpt lat="38.12044" lon="15.7064983"><ele>484.0</ele><time>2026-04-26T08:24:14.799Z</time></trkpt><trkpt lat="38.120325" lon="15.7066017"><ele>484.0</ele><time>2026-04-26T08:24:15.8Z</time></trkpt><trkpt lat="38.1202533" lon="15.706685"><ele>484.0</ele><time>2026-04-26T08:24:16.799Z</time></trkpt><trkpt lat="38.1202267" lon="15.7067667"><ele>484.0</ele><time>2026-04-26T08:24:17.8Z</time></trkpt><trkpt lat="38.12024" lon="15.7068717"><ele>484.0</ele><time>2026-04-26T08:24:18.799Z</time></trkpt><trkpt lat="38.1202817" lon="15.70696"><ele>484.0</ele><time>2026-04-26T08:24:19.8Z</time></trkpt><trkpt lat="38.120405" lon="15.706995"><ele>484.0</ele><time>2026-04-26T08:24:21.799Z</time></trkpt><trkpt lat="38.1205" lon="15.7069517"><ele>484.0</ele><time>2026-04-26T08:24:22.799Z</time></trkpt><trkpt lat="38.1206417" lon="15.70686"><ele>493.0</ele><time>2026-04-26T08:24:23.8Z</time></trkpt><trkpt lat="38.1208067" lon="15.70672"><ele>502.0</ele><time>2026-04-26T08:24:24.799Z</time></trkpt><trkpt lat="38.1209933" lon="15.7066367"><ele>511.0</ele><time>2026-04-26T08:24:25.799Z</time></trkpt><trkpt lat="38.121165" lon="15.7066017"><ele>511.0</ele><time>2026-04-26T08:24:26.799Z</time></trkpt><trkpt lat="38.1213017" lon="15.7066033"><ele>511.0</ele><time>2026-04-26T08:24:27.8Z</time></trkpt><trkpt lat="38.1214033" lon="15.706655"><ele>511.0</ele><time>2026-04-26T08:24:28.799Z</time></trkpt><trkpt lat="38.1214583" lon="15.7067533"><ele>511.0</ele><time>2026-04-26T08:24:29.8Z</time></trkpt><trkpt lat="38.1214683" lon="15.7068717"><ele>511.0</ele><time>2026-04-26T08:24:30.8Z</time></trkpt><trkpt lat="38.1214433" lon="15.7069683"><ele>514.5</ele><time>2026-04-26T08:24:31.8Z</time></trkpt><trkpt lat="38.1213783" lon="15.70704"><ele>518.0</ele><time>2026-04-26T08:24:32.8Z</time></trkpt><trkpt lat="38.1212683" lon="15.7070933"><ele>521.5</ele><time>2026-04-26T08:24:33.799Z</time></trkpt><trkpt lat="38.1211217" lon="15.7071283"><ele>525.0</ele><time>2026-04-26T08:24:34.799Z</time></trkpt><trkpt lat="38.1209967" lon="15.7072133"><ele>525.0</ele><time>2026-04-26T08:24:35.8Z</time></trkpt><trkpt lat="38.1208983" lon="15.7073283"><ele>525.0</ele><time>2026-04-26T08:24:36.799Z</time></trkpt><trkpt lat="38.120835" lon="15.70751"><ele>525.0</ele><time>2026-04-26T08:24:37.8Z</time></trkpt><trkpt lat="38.1207883" lon="15.7077417"><ele>527.0</ele><time>2026-04-26T08:24:38.799Z</time></trkpt><trkpt lat="38.1207383" lon="15.7080083"><ele>529.0</ele><time>2026-04-26T08:24:39.799Z</time></trkpt><trkpt lat="38.1206833" lon="15.7082833"><ele>531.0</ele><time>2026-04-26T08:24:40.799Z</time></trkpt><trkpt lat="38.12062" lon="15.7085417"><ele>529.5</ele><time>2026-04-26T08:24:41.8Z</time></trkpt><trkpt lat="38.120565" lon="15.7087567"><ele>528.0</ele><time>2026-04-26T08:24:42.8Z</time></trkpt><trkpt lat="38.120515" lon="15.70891"><ele>526.5</ele><time>2026-04-26T08:24:43.799Z</time></trkpt><trkpt lat="38.1204617" lon="15.70904"><ele>525.0</ele><time>2026-04-26T08:24:44.799Z</time></trkpt><trkpt lat="38.1204167" lon="15.7091417"><ele>525.0</ele><time>2026-04-26T08:24:45.799Z</time></trkpt><trkpt lat="38.12037" lon="15.70925"><ele>525.0</ele><time>2026-04-26T08:24:46.799Z</time></trkpt><trkpt lat="38.1203317" lon="15.7093467"><ele>525.0</ele><time>2026-04-26T08:24:47.799Z</time></trkpt><trkpt lat="38.1203017" lon="15.7094533"><ele>525.0</ele><time>2026-04-26T08:24:48.799Z</time></trkpt><trkpt lat="38.1202733" lon="15.709555"><ele>525.0</ele><time>2026-04-26T08:24:49.799Z</time></trkpt><trkpt lat="38.120265" lon="15.709665"><ele>525.0</ele><time>2026-04-26T08:24:50.8Z</time></trkpt><trkpt lat="38.1202767" lon="15.7097933"><ele>525.2</ele><time>2026-04-26T08:24:51.799Z</time></trkpt><trkpt lat="38.1203033" lon="15.709915"><ele>525.4</ele><time>2026-04-26T08:24:52.8Z</time></trkpt><trkpt lat="38.1203583" lon="15.7100183"><ele>525.6</ele><time>2026-04-26T08:24:53.799Z</time></trkpt><trkpt lat="38.120415" lon="15.7101067"><ele>525.8</ele><time>2026-04-26T08:24:54.799Z</time></trkpt><trkpt lat="38.1204667" lon="15.710195"><ele>526.0</ele><time>2026-04-26T08:24:55.799Z</time></trkpt><trkpt lat="38.12053" lon="15.7102883"><ele>526.25</ele><time>2026-04-26T08:24:56.8Z</time></trkpt><trkpt lat="38.1206" lon="15.71038"><ele>526.5</ele><time>2026-04-26T08:24:57.799Z</time></trkpt><trkpt lat="38.120685" lon="15.7105067"><ele>526.75</ele><time>2026-04-26T08:24:58.799Z</time></trkpt><trkpt lat="38.1207583" lon="15.7106467"><ele>527.0</ele><time>2026-04-26T08:24:59.8Z</time></trkpt><trkpt lat="38.1208233" lon="15.71079"><ele>528.75</ele><time>2026-04-26T08:25:00.8Z</time></trkpt><trkpt lat="38.1208767" lon="15.71092"><ele>530.5</ele><time>2026-04-26T08:25:01.799Z</time></trkpt><trkpt lat="38.120875" lon="15.7110667"><ele>532.25</ele><time>2026-04-26T08:25:02.8Z</time></trkpt><trkpt lat="38.1208567" lon="15.7112217"><ele>534.0</ele><time>2026-04-26T08:25:03.799Z</time></trkpt><trkpt lat="38.120815" lon="15.7114267"><ele>534.0</ele><time>2026-04-26T08:25:04.799Z</time></trkpt><trkpt lat="38.120745" lon="15.7116867"><ele>534.0</ele><time>2026-04-26T08:25:05.8Z</time></trkpt><trkpt lat="38.120665" lon="15.7119183"><ele>534.0</ele><time>2026-04-26T08:25:06.799Z</time></trkpt><trkpt lat="38.12059" lon="15.7120983"><ele>535.4</ele><time>2026-04-26T08:25:07.799Z</time></trkpt><trkpt lat="38.1205267" lon="15.7122167"><ele>536.8</ele><time>2026-04-26T08:25:08.8Z</time></trkpt><trkpt lat="38.1204367" lon="15.7122917"><ele>538.2</ele><time>2026-04-26T08:25:09.8Z</time></trkpt><trkpt lat="38.120345" lon="15.7123617"><ele>539.6</ele><time>2026-04-26T08:25:10.8Z</time></trkpt><trkpt lat="38.1202683" lon="15.7124183"><ele>541.0</ele><time>2026-04-26T08:25:11.799Z</time></trkpt><trkpt lat="38.12021" lon="15.7124883"><ele>541.0</ele><time>2026-04-26T08:25:12.8Z</time></trkpt><trkpt lat="38.1201717" lon="15.7125817"><ele>541.0</ele><time>2026-04-26T08:25:13.8Z</time></trkpt><trkpt lat="38.1201433" lon="15.7126867"><ele>541.0</ele><time>2026-04-26T08:25:14.8Z</time></trkpt><trkpt lat="38.1201217" lon="15.7128417"><ele>541.0</ele><time>2026-04-26T08:25:15.799Z</time></trkpt><trkpt lat="38.120105" lon="15.71304"><ele>543.4</ele><time>2026-04-26T08:25:16.799Z</time></trkpt><trkpt lat="38.1200767" lon="15.713195"><ele>545.8</ele><time>2026-04-26T08:25:17.8Z</time></trkpt><trkpt lat="38.1200433" lon="15.7133067"><ele>548.1999999999999</ele><time>2026-04-26T08:25:18.799Z</time></trkpt><trkpt lat="38.1199783" lon="15.7133767"><ele>550.6</ele><time>2026-04-26T08:25:19.799Z</time></trkpt><trkpt lat="38.1199" lon="15.713445"><ele>553.0</ele><time>2026-04-26T08:25:20.799Z</time></trkpt><trkpt lat="38.1197717" lon="15.71345"><ele>554.0</ele><time>2026-04-26T08:25:21.799Z</time></trkpt><trkpt lat="38.11964" lon="15.7134267"><ele>555.0</ele><time>2026-04-26T08:25:22.799Z</time></trkpt><trkpt lat="38.1195167" lon="15.713355"><ele>556.0</ele><time>2026-04-26T08:25:23.799Z</time></trkpt><trkpt lat="38.1194083" lon="15.713255"><ele>557.0</ele><time>2026-04-26T08:25:24.799Z</time></trkpt><trkpt lat="38.1193" lon="15.713135"><ele>557.0</ele><time>2026-04-26T08:25:25.8Z</time></trkpt><trkpt lat="38.1191983" lon="15.7130617"><ele>557.0</ele><time>2026-04-26T08:25:26.799Z</time></trkpt><trkpt lat="38.1191083" lon="15.7130617"><ele>557.0</ele><time>2026-04-26T08:25:27.799Z</time></trkpt><trkpt lat="38.1190167" lon="15.713105"><ele>557.0</ele><time>2026-04-26T08:25:28.799Z</time></trkpt><trkpt lat="38.118925" lon="15.7131767"><ele>557.0</ele><time>2026-04-26T08:25:29.799Z</time></trkpt><trkpt lat="38.1188483" lon="15.7132817"><ele>557.25</ele><time>2026-04-26T08:25:30.8Z</time></trkpt><trkpt lat="38.11877" lon="15.713385"><ele>557.5</ele><time>2026-04-26T08:25:31.8Z</time></trkpt><trkpt lat="38.11869" lon="15.7135133"><ele>557.75</ele><time>2026-04-26T08:25:32.8Z</time></trkpt><trkpt lat="38.1185733" lon="15.7136167"><ele>558.0</ele><time>2026-04-26T08:25:33.8Z</time></trkpt><trkpt lat="38.1184067" lon="15.7137"><ele>560.3333333333334</ele><time>2026-04-26T08:25:34.8Z</time></trkpt><trkpt lat="38.1182133" lon="15.7137817"><ele>562.6666666666667</ele><time>2026-04-26T08:25:35.799Z</time></trkpt><trkpt lat="38.11803" lon="15.713865"><ele>565.0</ele><time>2026-04-26T08:25:36.799Z</time></trkpt><trkpt lat="38.1178817" lon="15.713955"><ele>565.0</ele><time>2026-04-26T08:25:37.8Z</time></trkpt><trkpt lat="38.1177533" lon="15.7140817"><ele>565.0</ele><time>2026-04-26T08:25:38.799Z</time></trkpt><trkpt lat="38.1176467" lon="15.714255"><ele>565.0</ele><time>2026-04-26T08:25:39.799Z</time></trkpt><trkpt lat="38.1175417" lon="15.714485"><ele>567.0</ele><time>2026-04-26T08:25:40.799Z</time></trkpt><trkpt lat="38.1174383" lon="15.7147533"><ele>569.0</ele><time>2026-04-26T08:25:41.8Z</time></trkpt><trkpt lat="38.117325" lon="15.7150267"><ele>568.0</ele><time>2026-04-26T08:25:42.799Z</time></trkpt><trkpt lat="38.11722" lon="15.7153"><ele>567.0</ele><time>2026-04-26T08:25:43.8Z</time></trkpt><trkpt lat="38.1171233" lon="15.7155317"><ele>566.0</ele><time>2026-04-26T08:25:44.799Z</time></trkpt><trkpt lat="38.1170767" lon="15.71575"><ele>566.0</ele><time>2026-04-26T08:25:45.799Z</time></trkpt><trkpt lat="38.11708" lon="15.715985"><ele>566.0</ele><time>2026-04-26T08:25:46.799Z</time></trkpt><trkpt lat="38.117125" lon="15.716225"><ele>566.0</ele><time>2026-04-26T08:25:47.799Z</time></trkpt><trkpt lat="38.11723" lon="15.7164733"><ele>569.5</ele><time>2026-04-26T08:25:48.8Z</time></trkpt><trkpt lat="38.117365" lon="15.716725"><ele>573.0</ele><time>2026-04-26T08:25:49.8Z</time></trkpt><trkpt lat="38.1175067" lon="15.7169983"><ele>573.0</ele><time>2026-04-26T08:25:50.799Z</time></trkpt><trkpt lat="38.11766" lon="15.71729"><ele>573.0</ele><time>2026-04-26T08:25:51.799Z</time></trkpt><trkpt lat="38.1178117" lon="15.7175917"><ele>556.0</ele><time>2026-04-26T08:25:52.799Z</time></trkpt><trkpt lat="38.117975" lon="15.71788"><ele>539.0</ele><time>2026-04-26T08:25:53.799Z</time></trkpt><trkpt lat="38.1181717" lon="15.71816"><ele>548.5</ele><time>2026-04-26T08:25:54.799Z</time></trkpt><trkpt lat="38.118375" lon="15.718425"><ele>558.0</ele><time>2026-04-26T08:25:55.799Z</time></trkpt><trkpt lat="38.1185617" lon="15.7186383"><ele>558.0</ele><time>2026-04-26T08:25:56.8Z</time></trkpt><trkpt lat="38.1187217" lon="15.718855"><ele>558.0</ele><time>2026-04-26T08:25:57.799Z</time></trkpt><trkpt lat="38.11884" lon="15.719055"><ele>558.0</ele><time>2026-04-26T08:25:58.799Z</time></trkpt><trkpt lat="38.1189233" lon="15.7192717"><ele>553.0</ele><time>2026-04-26T08:25:59.8Z</time></trkpt><trkpt lat="38.11898" lon="15.7195383"><ele>548.0</ele><time>2026-04-26T08:26:00.799Z</time></trkpt><trkpt lat="38.1190267" lon="15.719835"><ele>548.0</ele><time>2026-04-26T08:26:01.8Z</time></trkpt><trkpt lat="38.1190667" lon="15.7201533"><ele>548.0</ele><time>2026-04-26T08:26:02.8Z</time></trkpt><trkpt lat="38.1191" lon="15.72049"><ele>569.5</ele><time>2026-04-26T08:26:03.8Z</time></trkpt><trkpt lat="38.1191383" lon="15.7208083"><ele>591.0</ele><time>2026-04-26T08:26:04.799Z</time></trkpt><trkpt lat="38.1191533" lon="15.7211133"><ele>591.0</ele><time>2026-04-26T08:26:05.799Z</time></trkpt><trkpt lat="38.11915" lon="15.7214117"><ele>591.0</ele><time>2026-04-26T08:26:06.799Z</time></trkpt><trkpt lat="38.1191133" lon="15.7217333"><ele>568.0</ele><time>2026-04-26T08:26:07.8Z</time></trkpt><trkpt lat="38.11905" lon="15.7220633"><ele>545.0</ele><time>2026-04-26T08:26:08.799Z</time></trkpt><trkpt lat="38.1189917" lon="15.7223867"><ele>545.0</ele><time>2026-04-26T08:26:09.8Z</time></trkpt><trkpt lat="38.1189367" lon="15.7226917"><ele>545.0</ele><time>2026-04-26T08:26:10.8Z</time></trkpt><trkpt lat="38.1189067" lon="15.7229617"><ele>542.6666666666666</ele><time>2026-04-26T08:26:11.799Z</time></trkpt><trkpt lat="38.1189083" lon="15.7232167"><ele>540.3333333333334</ele><time>2026-04-26T08:26:12.799Z</time></trkpt><trkpt lat="38.1189467" lon="15.7234633"><ele>538.0</ele><time>2026-04-26T08:26:13.8Z</time></trkpt><trkpt lat="38.1190167" lon="15.7237283"><ele>566.0</ele><time>2026-04-26T08:26:14.8Z</time></trkpt><trkpt lat="38.11913" lon="15.7240083"><ele>594.0</ele><time>2026-04-26T08:26:15.799Z</time></trkpt><trkpt lat="38.1192617" lon="15.7243133"><ele>586.5</ele><time>2026-04-26T08:26:16.799Z</time></trkpt><trkpt lat="38.1194083" lon="15.7246467"><ele>579.0</ele><time>2026-04-26T08:26:17.799Z</time></trkpt><trkpt lat="38.11953" lon="15.7249917"><ele>567.5</ele><time>2026-04-26T08:26:18.8Z</time></trkpt><trkpt lat="38.11964" lon="15.7253583"><ele>556.0</ele><time>2026-04-26T08:26:19.799Z</time></trkpt><trkpt lat="38.119735" lon="15.7257517"><ele>547.5</ele><time>2026-04-26T08:26:20.8Z</time></trkpt><trkpt lat="38.119815" lon="15.7261683"><ele>539.0</ele><time>2026-04-26T08:26:21.8Z</time></trkpt><trkpt lat="38.1198967" lon="15.7265783"><ele>571.0</ele><time>2026-04-26T08:26:22.8Z</time></trkpt><trkpt lat="38.1199683" lon="15.7269483"><ele>603.0</ele><time>2026-04-26T08:26:23.8Z</time></trkpt><trkpt lat="38.1200617" lon="15.72729"><ele>603.0</ele><time>2026-04-26T08:26:24.799Z</time></trkpt><trkpt lat="38.120155" lon="15.7276033"><ele>603.0</ele><time>2026-04-26T08:26:25.799Z</time></trkpt><trkpt lat="38.1202567" lon="15.7278783"><ele>593.6666666666666</ele><time>2026-04-26T08:26:26.8Z</time></trkpt><trkpt lat="38.1203583" lon="15.7281217"><ele>584.3333333333333</ele><time>2026-04-26T08:26:27.8Z</time></trkpt><trkpt lat="38.120455" lon="15.7283183"><ele>575.0</ele><time>2026-04-26T08:26:28.799Z</time></trkpt><trkpt lat="38.1205533" lon="15.728485"><ele>564.6666666666666</ele><time>2026-04-26T08:26:29.799Z</time></trkpt><trkpt lat="38.1206817" lon="15.72863"><ele>554.3333333333334</ele><time>2026-04-26T08:26:30.799Z</time></trkpt><trkpt lat="38.1208367" lon="15.7287367"><ele>544.0</ele><time>2026-04-26T08:26:31.799Z</time></trkpt><trkpt lat="38.1209633" lon="15.728835"><ele>558.25</ele><time>2026-04-26T08:26:32.799Z</time></trkpt><trkpt lat="38.1210583" lon="15.728925"><ele>572.5</ele><time>2026-04-26T08:26:33.8Z</time></trkpt><trkpt lat="38.1211217" lon="15.72905"><ele>586.75</ele><time>2026-04-26T08:26:34.799Z</time></trkpt><trkpt lat="38.1211467" lon="15.7292167"><ele>601.0</ele><time>2026-04-26T08:26:35.8Z</time></trkpt><trkpt lat="38.1211417" lon="15.72942"><ele>601.0</ele><time>2026-04-26T08:26:36.799Z</time></trkpt><trkpt lat="38.1210983" lon="15.7297017"><ele>601.0</ele><time>2026-04-26T08:26:37.799Z</time></trkpt><trkpt lat="38.1210483" lon="15.730005"><ele>604.0</ele><time>2026-04-26T08:26:38.799Z</time></trkpt><trkpt lat="38.1210033" lon="15.73031"><ele>607.0</ele><time>2026-04-26T08:26:39.799Z</time></trkpt><trkpt lat="38.1209833" lon="15.730595"><ele>607.0</ele><time>2026-04-26T08:26:40.799Z</time></trkpt><trkpt lat="38.1209967" lon="15.73086"><ele>607.0</ele><time>2026-04-26T08:26:41.799Z</time></trkpt><trkpt lat="38.1210367" lon="15.7311083"><ele>607.0</ele><time>2026-04-26T08:26:42.8Z</time></trkpt><trkpt lat="38.1210933" lon="15.7313333"><ele>605.3333333333334</ele><time>2026-04-26T08:26:43.8Z</time></trkpt><trkpt lat="38.1211783" lon="15.731535"><ele>603.6666666666666</ele><time>2026-04-26T08:26:44.8Z</time></trkpt><trkpt lat="38.1213017" lon="15.731695"><ele>602.0</ele><time>2026-04-26T08:26:45.799Z</time></trkpt><trkpt lat="38.1214617" lon="15.73183"><ele>602.0</ele><time>2026-04-26T08:26:46.799Z</time></trkpt><trkpt lat="38.1216483" lon="15.7319467"><ele>602.0</ele><time>2026-04-26T08:26:47.799Z</time></trkpt><trkpt lat="38.1218717" lon="15.732055"><ele>602.0</ele><time>2026-04-26T08:26:48.799Z</time></trkpt><trkpt lat="38.1221167" lon="15.73217"><ele>602.0</ele><time>2026-04-26T08:26:49.799Z</time></trkpt><trkpt lat="38.1223583" lon="15.7322967"><ele>602.0</ele><time>2026-04-26T08:26:50.799Z</time></trkpt><trkpt lat="38.1225733" lon="15.7324217"><ele>605.0</ele><time>2026-04-26T08:26:51.8Z</time></trkpt><trkpt lat="38.1227533" lon="15.732535"><ele>608.0</ele><time>2026-04-26T08:26:52.8Z</time></trkpt><trkpt lat="38.1228867" lon="15.73267"><ele>611.0</ele><time>2026-04-26T08:26:53.799Z</time></trkpt><trkpt lat="38.1229683" lon="15.7328533"><ele>611.0</ele><time>2026-04-26T08:26:54.799Z</time></trkpt><trkpt lat="38.1230233" lon="15.73307"><ele>611.0</ele><time>2026-04-26T08:26:55.799Z</time></trkpt><trkpt lat="38.123045" lon="15.7333367"><ele>611.0</ele><time>2026-04-26T08:26:56.8Z</time></trkpt><trkpt lat="38.1230767" lon="15.73362"><ele>607.0</ele><time>2026-04-26T08:26:57.8Z</time></trkpt><trkpt lat="38.1230967" lon="15.73393"><ele>603.0</ele><time>2026-04-26T08:26:58.8Z</time></trkpt><trkpt lat="38.123125" lon="15.7342517"><ele>605.3333333333334</ele><time>2026-04-26T08:26:59.799Z</time></trkpt><trkpt lat="38.1231433" lon="15.734535"><ele>607.6666666666667</ele><time>2026-04-26T08:27:00.8Z</time></trkpt><trkpt lat="38.1231783" lon="15.7347817"><ele>610.0</ele><time>2026-04-26T08:27:01.8Z</time></trkpt><trkpt lat="38.12325" lon="15.7350017"><ele>618.0</ele><time>2026-04-26T08:27:02.8Z</time></trkpt><trkpt lat="38.1233317" lon="15.7352233"><ele>626.0</ele><time>2026-04-26T08:27:03.8Z</time></trkpt><trkpt lat="38.1234333" lon="15.7354533"><ele>634.0</ele><time>2026-04-26T08:27:04.8Z</time></trkpt><trkpt lat="38.1235633" lon="15.7357033"><ele>634.0</ele><time>2026-04-26T08:27:05.799Z</time></trkpt><trkpt lat="38.123705" lon="15.735955"><ele>634.0</ele><time>2026-04-26T08:27:06.8Z</time></trkpt><trkpt lat="38.123835" lon="15.7361867"><ele>637.6666666666667</ele><time>2026-04-26T08:27:07.799Z</time></trkpt><trkpt lat="38.12395" lon="15.7363917"><ele>641.3333333333334</ele><time>2026-04-26T08:27:08.8Z</time></trkpt><trkpt lat="38.1240583" lon="15.736575"><ele>645.0</ele><time>2026-04-26T08:27:09.799Z</time></trkpt><trkpt lat="38.1241467" lon="15.7367467"><ele>645.5</ele><time>2026-04-26T08:27:10.8Z</time></trkpt><trkpt lat="38.1242217" lon="15.7369183"><ele>646.0</ele><time>2026-04-26T08:27:11.8Z</time></trkpt><trkpt lat="38.1243033" lon="15.7370667"><ele>646.5</ele><time>2026-04-26T08:27:12.799Z</time></trkpt><trkpt lat="38.1243817" lon="15.7372083"><ele>647.0</ele><time>2026-04-26T08:27:13.799Z</time></trkpt><trkpt lat="38.12445" lon="15.7373583"><ele>647.0</ele><time>2026-04-26T08:27:14.8Z</time></trkpt><trkpt lat="38.12451" lon="15.7375217"><ele>647.0</ele><time>2026-04-26T08:27:15.799Z</time></trkpt><trkpt lat="38.1245567" lon="15.7376833"><ele>647.0</ele><time>2026-04-26T08:27:16.8Z</time></trkpt><trkpt lat="38.1245833" lon="15.7378417"><ele>647.0</ele><time>2026-04-26T08:27:17.8Z</time></trkpt><trkpt lat="38.1245967" lon="15.7379983"><ele>646.4000000000001</ele><time>2026-04-26T08:27:18.799Z</time></trkpt><trkpt lat="38.1246" lon="15.7381567"><ele>645.8000000000001</ele><time>2026-04-26T08:27:19.799Z</time></trkpt><trkpt lat="38.1245883" lon="15.7383017"><ele>645.2</ele><time>2026-04-26T08:27:20.799Z</time></trkpt><trkpt lat="38.12458" lon="15.7384417"><ele>644.6</ele><time>2026-04-26T08:27:21.799Z</time></trkpt><trkpt lat="38.12457" lon="15.7385617"><ele>644.0</ele><time>2026-04-26T08:27:22.8Z</time></trkpt><trkpt lat="38.1245567" lon="15.7386867"><ele>642.8333333333333</ele><time>2026-04-26T08:27:23.799Z</time></trkpt><trkpt lat="38.12455" lon="15.7388067"><ele>641.6666666666666</ele><time>2026-04-26T08:27:24.799Z</time></trkpt><trkpt lat="38.124545" lon="15.7389133"><ele>640.5</ele><time>2026-04-26T08:27:25.799Z</time></trkpt><trkpt lat="38.1245417" lon="15.7390133"><ele>639.3333333333334</ele><time>2026-04-26T08:27:26.799Z</time></trkpt><trkpt lat="38.1245433" lon="15.7390967"><ele>638.1666666666667</ele><time>2026-04-26T08:27:27.799Z</time></trkpt><trkpt lat="38.1245383" lon="15.73919"><ele>637.0</ele><time>2026-04-26T08:27:28.8Z</time></trkpt><trkpt lat="38.1245467" lon="15.7392933"><ele>636.1666666666667</ele><time>2026-04-26T08:27:29.799Z</time></trkpt><trkpt lat="38.1245367" lon="15.7393867"><ele>635.3333333333334</ele><time>2026-04-26T08:27:30.799Z</time></trkpt><trkpt lat="38.1245267" lon="15.73948"><ele>634.5</ele><time>2026-04-26T08:27:31.799Z</time></trkpt><trkpt lat="38.124515" lon="15.739585"><ele>633.6666666666666</ele><time>2026-04-26T08:27:32.799Z</time></trkpt><trkpt lat="38.1245067" lon="15.7396917"><ele>632.8333333333333</ele><time>2026-04-26T08:27:33.8Z</time></trkpt><trkpt lat="38.1245" lon="15.7397967"><ele>632.0</ele><time>2026-04-26T08:27:34.8Z</time></trkpt><trkpt lat="38.124495" lon="15.7399"><ele>632.0</ele><time>2026-04-26T08:27:35.799Z</time></trkpt><trkpt lat="38.1244917" lon="15.7399983"><ele>632.0</ele><time>2026-04-26T08:27:36.799Z</time></trkpt><trkpt lat="38.124485" lon="15.7401017"><ele>632.0</ele><time>2026-04-26T08:27:37.8Z</time></trkpt><trkpt lat="38.124485" lon="15.7401983"><ele>632.0</ele><time>2026-04-26T08:27:38.8Z</time></trkpt><trkpt lat="38.1245017" lon="15.7403033"><ele>632.0</ele><time>2026-04-26T08:27:39.799Z</time></trkpt><trkpt lat="38.1245383" lon="15.7403867"><ele>632.0</ele><time>2026-04-26T08:27:40.8Z</time></trkpt><trkpt lat="38.1245767" lon="15.7404717"><ele>630.4285714285714</ele><time>2026-04-26T08:27:41.8Z</time></trkpt><trkpt lat="38.1246267" lon="15.7405433"><ele>628.8571428571429</ele><time>2026-04-26T08:27:42.8Z</time></trkpt><trkpt lat="38.1246783" lon="15.7406067"><ele>627.2857142857142</ele><time>2026-04-26T08:27:43.799Z</time></trkpt><trkpt lat="38.12473" lon="15.7406617"><ele>625.7142857142858</ele><time>2026-04-26T08:27:44.799Z</time></trkpt><trkpt lat="38.1247883" lon="15.7407217"><ele>624.1428571428571</ele><time>2026-04-26T08:27:45.8Z</time></trkpt><trkpt lat="38.1248417" lon="15.7407833"><ele>622.5714285714286</ele><time>2026-04-26T08:27:46.799Z</time></trkpt><trkpt lat="38.1248933" lon="15.7408467"><ele>621.0</ele><time>2026-04-26T08:27:47.799Z</time></trkpt><trkpt lat="38.1249417" lon="15.7409"><ele>621.0</ele><time>2026-04-26T08:27:48.8Z</time></trkpt><trkpt lat="38.125035" lon="15.7410017"><ele>621.0</ele><time>2026-04-26T08:27:50.8Z</time></trkpt><trkpt lat="38.1251183" lon="15.7411133"><ele>621.0</ele><time>2026-04-26T08:27:52.8Z</time></trkpt><trkpt lat="38.125195" lon="15.7412283"><ele>621.0</ele><time>2026-04-26T08:27:54.799Z</time></trkpt><trkpt lat="38.12525" lon="15.7413083"><ele>621.0</ele><time>2026-04-26T08:27:56.8Z</time></trkpt><trkpt lat="38.12531" lon="15.74141"><ele>619.1666666666666</ele><time>2026-04-26T08:30:20.8Z</time></trkpt><trkpt lat="38.1253667" lon="15.7415"><ele>617.3333333333334</ele><time>2026-04-26T08:30:28.8Z</time></trkpt><trkpt lat="38.125415" lon="15.7415867"><ele>615.5</ele><time>2026-04-26T08:30:30.8Z</time></trkpt><trkpt lat="38.1254833" lon="15.7417083"><ele>613.6666666666667</ele><time>2026-04-26T08:30:32.799Z</time></trkpt><trkpt lat="38.1255283" lon="15.741785"><ele>611.8333333333334</ele><time>2026-04-26T08:30:33.799Z</time></trkpt><trkpt lat="38.1255767" lon="15.741865"><ele>610.0</ele><time>2026-04-26T08:30:34.799Z</time></trkpt><trkpt lat="38.1256267" lon="15.7419433"><ele>612.0</ele><time>2026-04-26T08:30:35.799Z</time></trkpt><trkpt lat="38.1256767" lon="15.7420317"><ele>614.0</ele><time>2026-04-26T08:30:36.799Z</time></trkpt><trkpt lat="38.125725" lon="15.7421183"><ele>616.0</ele><time>2026-04-26T08:30:37.799Z</time></trkpt><trkpt lat="38.12578" lon="15.7422033"><ele>618.0</ele><time>2026-04-26T08:30:38.8Z</time></trkpt><trkpt lat="38.12583" lon="15.7422917"><ele>620.0</ele><time>2026-04-26T08:30:39.799Z</time></trkpt><trkpt lat="38.1258883" lon="15.7423867"><ele>622.0</ele><time>2026-04-26T08:30:40.8Z</time></trkpt><trkpt lat="38.1259483" lon="15.7424917"><ele>622.0</ele><time>2026-04-26T08:30:41.799Z</time></trkpt><trkpt lat="38.1260083" lon="15.7425983"><ele>622.0</ele><time>2026-04-26T08:30:42.799Z</time></trkpt><trkpt lat="38.126075" lon="15.7427183"><ele>622.0</ele><time>2026-04-26T08:30:43.8Z</time></trkpt><trkpt lat="38.12614" lon="15.7428383"><ele>622.0</ele><time>2026-04-26T08:30:44.799Z</time></trkpt><trkpt lat="38.1262" lon="15.7429533"><ele>622.0</ele><time>2026-04-26T08:30:45.8Z</time></trkpt><trkpt lat="38.1262633" lon="15.74307"><ele>622.75</ele><time>2026-04-26T08:30:46.8Z</time></trkpt><trkpt lat="38.126325" lon="15.7431867"><ele>623.5</ele><time>2026-04-26T08:30:47.8Z</time></trkpt><trkpt lat="38.1263967" lon="15.7433"><ele>624.25</ele><time>2026-04-26T08:30:48.799Z</time></trkpt><trkpt lat="38.1264867" lon="15.7434017"><ele>625.0</ele><time>2026-04-26T08:30:49.8Z</time></trkpt><trkpt lat="38.1265817" lon="15.74349"><ele>627.75</ele><time>2026-04-26T08:30:50.8Z</time></trkpt><trkpt lat="38.1266883" lon="15.7435767"><ele>630.5</ele><time>2026-04-26T08:30:51.8Z</time></trkpt><trkpt lat="38.1268017" lon="15.7436517"><ele>633.25</ele><time>2026-04-26T08:30:52.799Z</time></trkpt><trkpt lat="38.1269183" lon="15.7437217"><ele>636.0</ele><time>2026-04-26T08:30:53.799Z</time></trkpt><trkpt lat="38.1270433" lon="15.7437783"><ele>636.0</ele><time>2026-04-26T08:30:54.799Z</time></trkpt><trkpt lat="38.127165" lon="15.7438183"><ele>636.0</ele><time>2026-04-26T08:30:55.799Z</time></trkpt><trkpt lat="38.1272867" lon="15.74386"><ele>636.0</ele><time>2026-04-26T08:30:56.799Z</time></trkpt><trkpt lat="38.127405" lon="15.7439167"><ele>636.0</ele><time>2026-04-26T08:30:57.799Z</time></trkpt><trkpt lat="38.1275267" lon="15.743965"><ele>636.4</ele><time>2026-04-26T08:30:58.799Z</time></trkpt><trkpt lat="38.127625" lon="15.7440233"><ele>636.8</ele><time>2026-04-26T08:30:59.8Z</time></trkpt><trkpt lat="38.1277117" lon="15.7441017"><ele>637.1999999999999</ele><time>2026-04-26T08:31:00.799Z</time></trkpt><trkpt lat="38.1277783" lon="15.7442067"><ele>637.6</ele><time>2026-04-26T08:31:01.799Z</time></trkpt><trkpt lat="38.1278233" lon="15.7443317"><ele>638.0</ele><time>2026-04-26T08:31:02.799Z</time></trkpt><trkpt lat="38.1278533" lon="15.7444817"><ele>638.0</ele><time>2026-04-26T08:31:03.8Z</time></trkpt><trkpt lat="38.127865" lon="15.7446467"><ele>638.0</ele><time>2026-04-26T08:31:04.799Z</time></trkpt><trkpt lat="38.127885" lon="15.7448283"><ele>638.0</ele><time>2026-04-26T08:31:05.799Z</time></trkpt><trkpt lat="38.1279317" lon="15.745"><ele>638.0</ele><time>2026-04-26T08:31:06.799Z</time></trkpt><trkpt lat="38.127975" lon="15.7451533"><ele>640.2</ele><time>2026-04-26T08:31:07.799Z</time></trkpt><trkpt lat="38.12801" lon="15.74528"><ele>642.4</ele><time>2026-04-26T08:31:08.799Z</time></trkpt><trkpt lat="38.12801" lon="15.7454083"><ele>644.6</ele><time>2026-04-26T08:31:09.799Z</time></trkpt><trkpt lat="38.1279983" lon="15.7455383"><ele>646.8000000000001</ele><time>2026-04-26T08:31:10.799Z</time></trkpt><trkpt lat="38.1279983" lon="15.7456767"><ele>649.0</ele><time>2026-04-26T08:31:11.799Z</time></trkpt><trkpt lat="38.1280283" lon="15.7458267"><ele>649.0</ele><time>2026-04-26T08:31:12.8Z</time></trkpt><trkpt lat="38.12808" lon="15.7459883"><ele>649.0</ele><time>2026-04-26T08:31:13.799Z</time></trkpt><trkpt lat="38.1281517" lon="15.7461633"><ele>649.0</ele><time>2026-04-26T08:31:14.799Z</time></trkpt><trkpt lat="38.1282383" lon="15.7463533"><ele>638.0</ele><time>2026-04-26T08:31:15.8Z</time></trkpt><trkpt lat="38.1283367" lon="15.746535"><ele>627.0</ele><time>2026-04-26T08:31:16.8Z</time></trkpt><trkpt lat="38.1284267" lon="15.7466983"><ele>616.0</ele><time>2026-04-26T08:31:17.8Z</time></trkpt><trkpt lat="38.1285183" lon="15.7468517"><ele>618.4</ele><time>2026-04-26T08:31:18.8Z</time></trkpt><trkpt lat="38.12859" lon="15.746985"><ele>620.8</ele><time>2026-04-26T08:31:19.799Z</time></trkpt><trkpt lat="38.1286383" lon="15.7471033"><ele>623.1999999999999</ele><time>2026-04-26T08:31:20.799Z</time></trkpt><trkpt lat="38.12866" lon="15.747225"><ele>625.6</ele><time>2026-04-26T08:31:21.8Z</time></trkpt><trkpt lat="38.1286667" lon="15.7473633"><ele>628.0</ele><time>2026-04-26T08:31:22.799Z</time></trkpt><trkpt lat="38.1286417" lon="15.747525"><ele>628.0</ele><time>2026-04-26T08:31:23.8Z</time></trkpt><trkpt lat="38.12863" lon="15.7476767"><ele>628.0</ele><time>2026-04-26T08:31:24.8Z</time></trkpt><trkpt lat="38.1286333" lon="15.7478067"><ele>628.0</ele><time>2026-04-26T08:31:25.799Z</time></trkpt><trkpt lat="38.1286567" lon="15.74792"><ele>628.0</ele><time>2026-04-26T08:31:26.799Z</time></trkpt><trkpt lat="38.1287133" lon="15.748"><ele>628.0</ele><time>2026-04-26T08:31:27.8Z</time></trkpt><trkpt lat="38.1287983" lon="15.7480383"><ele>629.75</ele><time>2026-04-26T08:31:28.8Z</time></trkpt><trkpt lat="38.12891" lon="15.7480417"><ele>631.5</ele><time>2026-04-26T08:31:29.799Z</time></trkpt><trkpt lat="38.1290267" lon="15.748025"><ele>633.25</ele><time>2026-04-26T08:31:30.799Z</time></trkpt><trkpt lat="38.1291517" lon="15.7480083"><ele>635.0</ele><time>2026-04-26T08:31:31.8Z</time></trkpt><trkpt lat="38.1292717" lon="15.7480267"><ele>627.75</ele><time>2026-04-26T08:31:32.799Z</time></trkpt><trkpt lat="38.1293733" lon="15.7480933"><ele>620.5</ele><time>2026-04-26T08:31:33.799Z</time></trkpt><trkpt lat="38.1294567" lon="15.748205"><ele>613.25</ele><time>2026-04-26T08:31:34.799Z</time></trkpt><trkpt lat="38.1295317" lon="15.748345"><ele>606.0</ele><time>2026-04-26T08:31:35.799Z</time></trkpt><trkpt lat="38.129615" lon="15.7484933"><ele>613.0</ele><time>2026-04-26T08:31:36.8Z</time></trkpt><trkpt lat="38.129695" lon="15.748645"><ele>620.0</ele><time>2026-04-26T08:31:37.8Z</time></trkpt><trkpt lat="38.129765" lon="15.7487983"><ele>627.0</ele><time>2026-04-26T08:31:38.799Z</time></trkpt><trkpt lat="38.12983" lon="15.7489417"><ele>634.0</ele><time>2026-04-26T08:31:39.8Z</time></trkpt><trkpt lat="38.1298917" lon="15.7491"><ele>624.75</ele><time>2026-04-26T08:31:40.799Z</time></trkpt><trkpt lat="38.12995" lon="15.7492567"><ele>615.5</ele><time>2026-04-26T08:31:41.799Z</time></trkpt><trkpt lat="38.130005" lon="15.749415"><ele>606.25</ele><time>2026-04-26T08:31:42.799Z</time></trkpt><trkpt lat="38.1300433" lon="15.7495717"><ele>597.0</ele><time>2026-04-26T08:31:43.8Z</time></trkpt><trkpt lat="38.1300683" lon="15.7497317"><ele>597.0</ele><time>2026-04-26T08:31:44.799Z</time></trkpt><trkpt lat="38.1300783" lon="15.7498983"><ele>597.0</ele><time>2026-04-26T08:31:45.799Z</time></trkpt><trkpt lat="38.13008" lon="15.7500483"><ele>597.0</ele><time>2026-04-26T08:31:46.8Z</time></trkpt><trkpt lat="38.1300883" lon="15.7501917"><ele>597.0</ele><time>2026-04-26T08:31:47.799Z</time></trkpt><trkpt lat="38.130115" lon="15.7503"><ele>600.2</ele><time>2026-04-26T08:31:48.799Z</time></trkpt><trkpt lat="38.1301733" lon="15.7503917"><ele>603.4000000000001</ele><time>2026-04-26T08:31:49.799Z</time></trkpt><trkpt lat="38.130255" lon="15.750465"><ele>606.5999999999999</ele><time>2026-04-26T08:31:50.799Z</time></trkpt><trkpt lat="38.1303417" lon="15.75055"><ele>609.8</ele><time>2026-04-26T08:31:51.8Z</time></trkpt><trkpt lat="38.13043" lon="15.7506417"><ele>613.0</ele><time>2026-04-26T08:31:52.799Z</time></trkpt><trkpt lat="38.1305117" lon="15.7507583"><ele>613.0</ele><time>2026-04-26T08:31:53.8Z</time></trkpt><trkpt lat="38.1305783" lon="15.7509033"><ele>613.0</ele><time>2026-04-26T08:31:54.8Z</time></trkpt><trkpt lat="38.1306367" lon="15.7510583"><ele>613.0</ele><time>2026-04-26T08:31:55.799Z</time></trkpt><trkpt lat="38.1306933" lon="15.7512233"><ele>613.0</ele><time>2026-04-26T08:31:56.8Z</time></trkpt><trkpt lat="38.1307667" lon="15.751375"><ele>607.0</ele><time>2026-04-26T08:31:57.799Z</time></trkpt><trkpt lat="38.13086" lon="15.751515"><ele>601.0</ele><time>2026-04-26T08:31:58.8Z</time></trkpt><trkpt lat="38.130965" lon="15.7516317"><ele>595.0</ele><time>2026-04-26T08:31:59.799Z</time></trkpt><trkpt lat="38.13108" lon="15.7517517"><ele>589.0</ele><time>2026-04-26T08:32:00.8Z</time></trkpt><trkpt lat="38.1312067" lon="15.75186"><ele>585.0</ele><time>2026-04-26T08:32:01.799Z</time></trkpt><trkpt lat="38.1313217" lon="15.7519767"><ele>581.0</ele><time>2026-04-26T08:32:02.799Z</time></trkpt><trkpt lat="38.13145" lon="15.75209"><ele>577.0</ele><time>2026-04-26T08:32:03.8Z</time></trkpt><trkpt lat="38.1315683" lon="15.752215"><ele>577.0</ele><time>2026-04-26T08:32:04.799Z</time></trkpt><trkpt lat="38.1316783" lon="15.7523367"><ele>577.0</ele><time>2026-04-26T08:32:05.799Z</time></trkpt><trkpt lat="38.13179" lon="15.75245"><ele>577.0</ele><time>2026-04-26T08:32:06.8Z</time></trkpt><trkpt lat="38.1318967" lon="15.7525617"><ele>577.0</ele><time>2026-04-26T08:32:07.799Z</time></trkpt><trkpt lat="38.1319983" lon="15.752655"><ele>577.0</ele><time>2026-04-26T08:32:08.799Z</time></trkpt><trkpt lat="38.1320967" lon="15.7527033"><ele>577.0</ele><time>2026-04-26T08:32:09.8Z</time></trkpt><trkpt lat="38.13219" lon="15.75272"><ele>577.0</ele><time>2026-04-26T08:32:10.8Z</time></trkpt><trkpt lat="38.1322917" lon="15.7526867"><ele>577.0</ele><time>2026-04-26T08:32:11.799Z</time></trkpt><trkpt lat="38.1323917" lon="15.7526083"><ele>577.0</ele><time>2026-04-26T08:32:12.8Z</time></trkpt><trkpt lat="38.1324883" lon="15.7524833"><ele>575.25</ele><time>2026-04-26T08:32:13.8Z</time></trkpt><trkpt lat="38.132565" lon="15.7523183"><ele>573.5</ele><time>2026-04-26T08:32:14.799Z</time></trkpt><trkpt lat="38.13263" lon="15.7521533"><ele>571.75</ele><time>2026-04-26T08:32:15.799Z</time></trkpt><trkpt lat="38.1326767" lon="15.751985"><ele>570.0</ele><time>2026-04-26T08:32:16.799Z</time></trkpt><trkpt lat="38.1327083" lon="15.7518083"><ele>570.0</ele><time>2026-04-26T08:32:17.8Z</time></trkpt><trkpt lat="38.13274" lon="15.7516233"><ele>570.0</ele><time>2026-04-26T08:32:18.799Z</time></trkpt><trkpt lat="38.132785" lon="15.7514567"><ele>570.0</ele><time>2026-04-26T08:32:19.8Z</time></trkpt><trkpt lat="38.1328667" lon="15.751285"><ele>570.0</ele><time>2026-04-26T08:32:20.8Z</time></trkpt><trkpt lat="38.132955" lon="15.7511133"><ele>564.3333333333334</ele><time>2026-04-26T08:32:21.8Z</time></trkpt><trkpt lat="38.1330483" lon="15.7509483"><ele>558.6666666666667</ele><time>2026-04-26T08:32:22.8Z</time></trkpt><trkpt lat="38.1331517" lon="15.75079"><ele>553.0</ele><time>2026-04-26T08:32:23.799Z</time></trkpt><trkpt lat="38.1332483" lon="15.7506383"><ele>561.75</ele><time>2026-04-26T08:32:24.8Z</time></trkpt><trkpt lat="38.1333233" lon="15.7504783"><ele>570.5</ele><time>2026-04-26T08:32:25.799Z</time></trkpt><trkpt lat="38.1333683" lon="15.750305"><ele>579.25</ele><time>2026-04-26T08:32:26.8Z</time></trkpt><trkpt lat="38.1333933" lon="15.7501383"><ele>588.0</ele><time>2026-04-26T08:32:27.799Z</time></trkpt><trkpt lat="38.1333933" lon="15.749965"><ele>588.0</ele><time>2026-04-26T08:32:28.8Z</time></trkpt><trkpt lat="38.1333633" lon="15.7497967"><ele>588.0</ele><time>2026-04-26T08:32:29.799Z</time></trkpt><trkpt lat="38.1333133" lon="15.7496383"><ele>588.0</ele><time>2026-04-26T08:32:30.799Z</time></trkpt><trkpt lat="38.13327" lon="15.749485"><ele>588.0</ele><time>2026-04-26T08:32:31.799Z</time></trkpt><trkpt lat="38.1332317" lon="15.749345"><ele>590.8333333333334</ele><time>2026-04-26T08:32:32.799Z</time></trkpt><trkpt lat="38.13323" lon="15.7492083"><ele>593.6666666666666</ele><time>2026-04-26T08:32:33.799Z</time></trkpt><trkpt lat="38.1332583" lon="15.749075"><ele>596.5</ele><time>2026-04-26T08:32:34.799Z</time></trkpt><trkpt lat="38.133285" lon="15.7489733"><ele>599.3333333333333</ele><time>2026-04-26T08:32:35.799Z</time></trkpt><trkpt lat="38.1333083" lon="15.7488933"><ele>602.1666666666666</ele><time>2026-04-26T08:32:36.799Z</time></trkpt><trkpt lat="38.1333033" lon="15.7488067"><ele>605.0</ele><time>2026-04-26T08:32:37.799Z</time></trkpt><trkpt lat="38.1331983" lon="15.7486933"><ele>595.25</ele><time>2026-04-26T08:32:39.799Z</time></trkpt><trkpt lat="38.133095" lon="15.74866"><ele>585.5</ele><time>2026-04-26T08:32:40.8Z</time></trkpt><trkpt lat="38.1329667" lon="15.7486383"><ele>575.75</ele><time>2026-04-26T08:32:41.799Z</time></trkpt><trkpt lat="38.1327783" lon="15.7486233"><ele>566.0</ele><time>2026-04-26T08:32:42.799Z</time></trkpt><trkpt lat="38.1326383" lon="15.74861"><ele>566.0</ele><time>2026-04-26T08:32:43.799Z</time></trkpt><trkpt lat="38.1325183" lon="15.7485667"><ele>566.0</ele><time>2026-04-26T08:32:44.8Z</time></trkpt><trkpt lat="38.132415" lon="15.7485217"><ele>566.0</ele><time>2026-04-26T08:32:45.799Z</time></trkpt><trkpt lat="38.1323183" lon="15.7484383"><ele>566.0</ele><time>2026-04-26T08:32:46.8Z</time></trkpt><trkpt lat="38.132245" lon="15.7483283"><ele>565.1666666666666</ele><time>2026-04-26T08:32:47.799Z</time></trkpt><trkpt lat="38.1321917" lon="15.7482033"><ele>564.3333333333333</ele><time>2026-04-26T08:32:48.799Z</time></trkpt><trkpt lat="38.132165" lon="15.7480883"><ele>563.5</ele><time>2026-04-26T08:32:49.799Z</time></trkpt><trkpt lat="38.13216" lon="15.7479833"><ele>562.6666666666666</ele><time>2026-04-26T08:32:50.8Z</time></trkpt><trkpt lat="38.13218" lon="15.7478867"><ele>561.8333333333334</ele><time>2026-04-26T08:32:51.799Z</time></trkpt><trkpt lat="38.1322233" lon="15.7478267"><ele>561.0</ele><time>2026-04-26T08:32:52.799Z</time></trkpt><trkpt lat="38.1322867" lon="15.7478067"><ele>561.0</ele><time>2026-04-26T08:32:53.8Z</time></trkpt><trkpt lat="38.1323683" lon="15.7478483"><ele>561.0</ele><time>2026-04-26T08:32:54.799Z</time></trkpt><trkpt lat="38.1324583" lon="15.7479367"><ele>561.0</ele><time>2026-04-26T08:32:55.799Z</time></trkpt><trkpt lat="38.13255" lon="15.7480717"><ele>561.0</ele><time>2026-04-26T08:32:56.799Z</time></trkpt><trkpt lat="38.13262" lon="15.7481917"><ele>566.5</ele><time>2026-04-26T08:32:57.8Z</time></trkpt><trkpt lat="38.13268" lon="15.7482667"><ele>572.0</ele><time>2026-04-26T08:32:58.799Z</time></trkpt><trkpt lat="38.1327483" lon="15.7483267"><ele>577.5</ele><time>2026-04-26T08:32:59.8Z</time></trkpt><trkpt lat="38.13282" lon="15.7483533"><ele>583.0</ele><time>2026-04-26T08:33:00.799Z</time></trkpt><trkpt lat="38.1329" lon="15.7483317"><ele>588.5</ele><time>2026-04-26T08:33:01.799Z</time></trkpt><trkpt lat="38.132985" lon="15.748265"><ele>594.0</ele><time>2026-04-26T08:33:02.8Z</time></trkpt><trkpt lat="38.133075" lon="15.7481617"><ele>594.0</ele><time>2026-04-26T08:33:03.8Z</time></trkpt><trkpt lat="38.1331833" lon="15.748035"><ele>594.0</ele><time>2026-04-26T08:33:04.799Z</time></trkpt><trkpt lat="38.1333083" lon="15.7479083"><ele>594.0</ele><time>2026-04-26T08:33:05.8Z</time></trkpt><trkpt lat="38.1334217" lon="15.7477867"><ele>595.25</ele><time>2026-04-26T08:33:06.8Z</time></trkpt><trkpt lat="38.1335233" lon="15.747695"><ele>596.5</ele><time>2026-04-26T08:33:07.8Z</time></trkpt><trkpt lat="38.133635" lon="15.7475933"><ele>597.75</ele><time>2026-04-26T08:33:08.8Z</time></trkpt><trkpt lat="38.1337333" lon="15.7475083"><ele>599.0</ele><time>2026-04-26T08:33:09.799Z</time></trkpt><trkpt lat="38.1338267" lon="15.7474317"><ele>599.0</ele><time>2026-04-26T08:33:10.8Z</time></trkpt><trkpt lat="38.1339267" lon="15.7473717"><ele>599.0</ele><time>2026-04-26T08:33:11.799Z</time></trkpt><trkpt lat="38.1340317" lon="15.747305"><ele>599.0</ele><time>2026-04-26T08:33:12.799Z</time></trkpt><trkpt lat="38.13413" lon="15.7472233"><ele>599.0</ele><time>2026-04-26T08:33:13.8Z</time></trkpt><trkpt lat="38.1342333" lon="15.7471133"><ele>599.5</ele><time>2026-04-26T08:33:14.799Z</time></trkpt><trkpt lat="38.1343367" lon="15.747005"><ele>600.0</ele><time>2026-04-26T08:33:15.799Z</time></trkpt><trkpt lat="38.1344383" lon="15.7468817"><ele>600.5</ele><time>2026-04-26T08:33:16.799Z</time></trkpt><trkpt lat="38.1345383" lon="15.7467633"><ele>601.0</ele><time>2026-04-26T08:33:17.8Z</time></trkpt><trkpt lat="38.1346267" lon="15.7466533"><ele>601.0</ele><time>2026-04-26T08:33:18.8Z</time></trkpt><trkpt lat="38.1347167" lon="15.7465433"><ele>601.0</ele><time>2026-04-26T08:33:19.8Z</time></trkpt><trkpt lat="38.134805" lon="15.746445"><ele>601.0</ele><time>2026-04-26T08:33:20.799Z</time></trkpt><trkpt lat="38.134895" lon="15.7463383"><ele>601.0</ele><time>2026-04-26T08:33:21.799Z</time></trkpt><trkpt lat="38.1349817" lon="15.7462183"><ele>602.25</ele><time>2026-04-26T08:33:22.8Z</time></trkpt><trkpt lat="38.135075" lon="15.74611"><ele>603.5</ele><time>2026-04-26T08:33:23.8Z</time></trkpt><trkpt lat="38.1351733" lon="15.7460017"><ele>604.75</ele><time>2026-04-26T08:33:24.799Z</time></trkpt><trkpt lat="38.1352867" lon="15.7459"><ele>606.0</ele><time>2026-04-26T08:33:25.799Z</time></trkpt><trkpt lat="38.1353983" lon="15.745805"><ele>606.0</ele><time>2026-04-26T08:33:26.8Z</time></trkpt><trkpt lat="38.135515" lon="15.745735"><ele>606.0</ele><time>2026-04-26T08:33:27.8Z</time></trkpt><trkpt lat="38.13564" lon="15.745695"><ele>606.0</ele><time>2026-04-26T08:33:28.8Z</time></trkpt><trkpt lat="38.1357633" lon="15.7456933"><ele>606.0</ele><time>2026-04-26T08:33:29.799Z</time></trkpt><trkpt lat="38.1358917" lon="15.745735"><ele>609.75</ele><time>2026-04-26T08:33:30.8Z</time></trkpt><trkpt lat="38.1360133" lon="15.7458133"><ele>613.5</ele><time>2026-04-26T08:33:31.799Z</time></trkpt><trkpt lat="38.1361083" lon="15.74591"><ele>617.25</ele><time>2026-04-26T08:33:32.799Z</time></trkpt><trkpt lat="38.1361717" lon="15.7460217"><ele>621.0</ele><time>2026-04-26T08:33:33.8Z</time></trkpt><trkpt lat="38.1362" lon="15.7461583"><ele>629.0</ele><time>2026-04-26T08:33:34.799Z</time></trkpt><trkpt lat="38.1362167" lon="15.746295"><ele>637.0</ele><time>2026-04-26T08:33:35.8Z</time></trkpt><trkpt lat="38.136245" lon="15.7464267"><ele>645.0</ele><time>2026-04-26T08:33:36.8Z</time></trkpt><trkpt lat="38.1363133" lon="15.7465467"><ele>653.0</ele><time>2026-04-26T08:33:37.8Z</time></trkpt><trkpt lat="38.136425" lon="15.7466283"><ele>657.5</ele><time>2026-04-26T08:33:38.8Z</time></trkpt><trkpt lat="38.1365567" lon="15.7466917"><ele>662.0</ele><time>2026-04-26T08:33:39.8Z</time></trkpt><trkpt lat="38.136695" lon="15.7467483"><ele>666.5</ele><time>2026-04-26T08:33:40.8Z</time></trkpt><trkpt lat="38.1368167" lon="15.7468217"><ele>671.0</ele><time>2026-04-26T08:33:41.799Z</time></trkpt><trkpt lat="38.1369333" lon="15.7469083"><ele>671.0</ele><time>2026-04-26T08:33:42.8Z</time></trkpt><trkpt lat="38.13704" lon="15.7469983"><ele>671.0</ele><time>2026-04-26T08:33:43.799Z</time></trkpt><trkpt lat="38.1371333" lon="15.747115"><ele>671.0</ele><time>2026-04-26T08:33:44.8Z</time></trkpt><trkpt lat="38.137195" lon="15.7472567"><ele>671.0</ele><time>2026-04-26T08:33:45.8Z</time></trkpt><trkpt lat="38.1372383" lon="15.747415"><ele>671.0</ele><time>2026-04-26T08:33:46.799Z</time></trkpt><trkpt lat="38.1372833" lon="15.7475533"><ele>671.0</ele><time>2026-04-26T08:33:47.799Z</time></trkpt><trkpt lat="38.137345" lon="15.74766"><ele>671.0</ele><time>2026-04-26T08:33:48.799Z</time></trkpt><trkpt lat="38.13742" lon="15.7477183"><ele>671.0</ele><time>2026-04-26T08:33:49.799Z</time></trkpt><trkpt lat="38.1375083" lon="15.747735"><ele>671.0</ele><time>2026-04-26T08:33:50.799Z</time></trkpt><trkpt lat="38.1376083" lon="15.7477133"><ele>666.25</ele><time>2026-04-26T08:33:51.799Z</time></trkpt><trkpt lat="38.1377017" lon="15.74764"><ele>661.5</ele><time>2026-04-26T08:33:52.8Z</time></trkpt><trkpt lat="38.1377717" lon="15.7475217"><ele>656.75</ele><time>2026-04-26T08:33:53.8Z</time></trkpt><trkpt lat="38.1378333" lon="15.74737"><ele>652.0</ele><time>2026-04-26T08:33:54.8Z</time></trkpt><trkpt lat="38.1378883" lon="15.7471767"><ele>652.0</ele><time>2026-04-26T08:33:55.8Z</time></trkpt><trkpt lat="38.1379117" lon="15.7469217"><ele>652.0</ele><time>2026-04-26T08:33:56.799Z</time></trkpt><trkpt lat="38.1379233" lon="15.7466617"><ele>652.0</ele><time>2026-04-26T08:33:57.799Z</time></trkpt><trkpt lat="38.137935" lon="15.74642"><ele>646.3333333333334</ele><time>2026-04-26T08:33:58.799Z</time></trkpt><trkpt lat="38.137935" lon="15.7461917"><ele>640.6666666666666</ele><time>2026-04-26T08:33:59.799Z</time></trkpt><trkpt lat="38.1379417" lon="15.7459733"><ele>635.0</ele><time>2026-04-26T08:34:00.799Z</time></trkpt><trkpt lat="38.1379483" lon="15.7457683"><ele>632.25</ele><time>2026-04-26T08:34:01.8Z</time></trkpt><trkpt lat="38.1379517" lon="15.745565"><ele>629.5</ele><time>2026-04-26T08:34:02.799Z</time></trkpt><trkpt lat="38.1379617" lon="15.7453817"><ele>626.75</ele><time>2026-04-26T08:34:03.799Z</time></trkpt><trkpt lat="38.1379833" lon="15.7452117"><ele>624.0</ele><time>2026-04-26T08:34:04.799Z</time></trkpt><trkpt lat="38.1380283" lon="15.7450783"><ele>624.0</ele><time>2026-04-26T08:34:05.8Z</time></trkpt><trkpt lat="38.1381017" lon="15.7449883"><ele>624.0</ele><time>2026-04-26T08:34:06.799Z</time></trkpt><trkpt lat="38.1381933" lon="15.744945"><ele>624.0</ele><time>2026-04-26T08:34:07.799Z</time></trkpt><trkpt lat="38.1383233" lon="15.7449417"><ele>624.0</ele><time>2026-04-26T08:34:08.799Z</time></trkpt><trkpt lat="38.1384733" lon="15.7449633"><ele>632.0</ele><time>2026-04-26T08:34:09.799Z</time></trkpt><trkpt lat="38.1386167" lon="15.74497"><ele>640.0</ele><time>2026-04-26T08:34:10.8Z</time></trkpt><trkpt lat="38.1387467" lon="15.7449783"><ele>648.0</ele><time>2026-04-26T08:34:11.799Z</time></trkpt><trkpt lat="38.1388767" lon="15.74498"><ele>656.0</ele><time>2026-04-26T08:34:12.8Z</time></trkpt><trkpt lat="38.139005" lon="15.744985"><ele>658.75</ele><time>2026-04-26T08:34:13.8Z</time></trkpt><trkpt lat="38.1391333" lon="15.744995"><ele>661.5</ele><time>2026-04-26T08:34:14.8Z</time></trkpt><trkpt lat="38.139265" lon="15.7449967"><ele>664.25</ele><time>2026-04-26T08:34:15.799Z</time></trkpt><trkpt lat="38.1393933" lon="15.7449917"><ele>667.0</ele><time>2026-04-26T08:34:16.799Z</time></trkpt><trkpt lat="38.1395133" lon="15.744975"><ele>667.0</ele><time>2026-04-26T08:34:17.8Z</time></trkpt><trkpt lat="38.1396283" lon="15.7449333"><ele>667.0</ele><time>2026-04-26T08:34:18.799Z</time></trkpt><trkpt lat="38.13973" lon="15.7448417"><ele>667.0</ele><time>2026-04-26T08:34:19.799Z</time></trkpt><trkpt lat="38.1398083" lon="15.744695"><ele>667.0</ele><time>2026-04-26T08:34:20.8Z</time></trkpt><trkpt lat="38.1398683" lon="15.74453"><ele>667.25</ele><time>2026-04-26T08:34:21.799Z</time></trkpt><trkpt lat="38.1399267" lon="15.7443783"><ele>667.5</ele><time>2026-04-26T08:34:22.799Z</time></trkpt><trkpt lat="38.1399967" lon="15.7442417"><ele>667.75</ele><time>2026-04-26T08:34:23.799Z</time></trkpt><trkpt lat="38.1400767" lon="15.744115"><ele>668.0</ele><time>2026-04-26T08:34:24.799Z</time></trkpt><trkpt lat="38.1401817" lon="15.7440083"><ele>668.0</ele><time>2026-04-26T08:34:25.799Z</time></trkpt><trkpt lat="38.1402917" lon="15.7439217"><ele>668.0</ele><time>2026-04-26T08:34:26.8Z</time></trkpt><trkpt lat="38.1403933" lon="15.7438583"><ele>668.0</ele><time>2026-04-26T08:34:27.799Z</time></trkpt><trkpt lat="38.140495" lon="15.7438217"><ele>668.0</ele><time>2026-04-26T08:34:28.8Z</time></trkpt><trkpt lat="38.1406133" lon="15.7438167"><ele>675.25</ele><time>2026-04-26T08:34:29.8Z</time></trkpt><trkpt lat="38.1407367" lon="15.7437917"><ele>682.5</ele><time>2026-04-26T08:34:30.799Z</time></trkpt><trkpt lat="38.1408667" lon="15.7437417"><ele>689.75</ele><time>2026-04-26T08:34:31.799Z</time></trkpt><trkpt lat="38.1409917" lon="15.7436733"><ele>697.0</ele><time>2026-04-26T08:34:32.799Z</time></trkpt><trkpt lat="38.141115" lon="15.7436167"><ele>697.0</ele><time>2026-04-26T08:34:33.799Z</time></trkpt><trkpt lat="38.1412483" lon="15.7435917"><ele>697.0</ele><time>2026-04-26T08:34:34.8Z</time></trkpt><trkpt lat="38.141385" lon="15.74358"><ele>697.0</ele><time>2026-04-26T08:34:35.799Z</time></trkpt><trkpt lat="38.1415283" lon="15.7435683"><ele>697.0</ele><time>2026-04-26T08:34:36.8Z</time></trkpt><trkpt lat="38.1416633" lon="15.74358"><ele>701.5</ele><time>2026-04-26T08:34:37.799Z</time></trkpt><trkpt lat="38.1417917" lon="15.7435933"><ele>706.0</ele><time>2026-04-26T08:34:38.8Z</time></trkpt><trkpt lat="38.1419233" lon="15.7436183"><ele>710.5</ele><time>2026-04-26T08:34:39.8Z</time></trkpt><trkpt lat="38.1420383" lon="15.7436567"><ele>715.0</ele><time>2026-04-26T08:34:40.799Z</time></trkpt><trkpt lat="38.1421367" lon="15.743685"><ele>715.0</ele><time>2026-04-26T08:34:41.799Z</time></trkpt><trkpt lat="38.1422233" lon="15.7437017"><ele>715.0</ele><time>2026-04-26T08:34:42.799Z</time></trkpt><trkpt lat="38.142315" lon="15.74369"><ele>715.0</ele><time>2026-04-26T08:34:43.8Z</time></trkpt><trkpt lat="38.14239" lon="15.743635"><ele>715.0</ele><time>2026-04-26T08:34:44.799Z</time></trkpt><trkpt lat="38.1424367" lon="15.7435467"><ele>715.0</ele><time>2026-04-26T08:34:45.799Z</time></trkpt><trkpt lat="38.1424583" lon="15.7434317"><ele>715.0</ele><time>2026-04-26T08:34:46.8Z</time></trkpt><trkpt lat="38.14246" lon="15.743305"><ele>712.5</ele><time>2026-04-26T08:34:47.799Z</time></trkpt><trkpt lat="38.1424133" lon="15.7431817"><ele>710.0</ele><time>2026-04-26T08:34:48.799Z</time></trkpt><trkpt lat="38.142315" lon="15.7430517"><ele>707.5</ele><time>2026-04-26T08:34:49.8Z</time></trkpt><trkpt lat="38.1421567" lon="15.7429417"><ele>705.0</ele><time>2026-04-26T08:34:50.799Z</time></trkpt><trkpt lat="38.1420083" lon="15.74283"><ele>704.3333333333334</ele><time>2026-04-26T08:34:51.8Z</time></trkpt><trkpt lat="38.1418667" lon="15.7427217"><ele>703.6666666666667</ele><time>2026-04-26T08:34:52.799Z</time></trkpt><trkpt lat="38.1417367" lon="15.7426133"><ele>703.0</ele><time>2026-04-26T08:34:53.8Z</time></trkpt><trkpt lat="38.1416083" lon="15.74251"><ele>698.5</ele><time>2026-04-26T08:34:54.799Z</time></trkpt><trkpt lat="38.1414833" lon="15.742425"><ele>694.0</ele><time>2026-04-26T08:34:55.799Z</time></trkpt><trkpt lat="38.1413583" lon="15.7423533"><ele>689.5</ele><time>2026-04-26T08:34:56.8Z</time></trkpt><trkpt lat="38.1412417" lon="15.7423017"><ele>685.0</ele><time>2026-04-26T08:34:57.8Z</time></trkpt><trkpt lat="38.1411167" lon="15.74225"><ele>685.0</ele><time>2026-04-26T08:34:58.799Z</time></trkpt><trkpt lat="38.1409983" lon="15.74222"><ele>685.0</ele><time>2026-04-26T08:34:59.8Z</time></trkpt><trkpt lat="38.1408867" lon="15.74218"><ele>685.0</ele><time>2026-04-26T08:35:00.8Z</time></trkpt><trkpt lat="38.1407817" lon="15.7421033"><ele>685.0</ele><time>2026-04-26T08:35:01.799Z</time></trkpt><trkpt lat="38.1406917" lon="15.7419917"><ele>682.2</ele><time>2026-04-26T08:35:02.799Z</time></trkpt><trkpt lat="38.140625" lon="15.7418717"><ele>679.4</ele><time>2026-04-26T08:35:03.8Z</time></trkpt><trkpt lat="38.1405717" lon="15.7417633"><ele>676.5999999999999</ele><time>2026-04-26T08:35:04.8Z</time></trkpt><trkpt lat="38.1405433" lon="15.741655"><ele>673.8</ele><time>2026-04-26T08:35:05.799Z</time></trkpt><trkpt lat="38.14055" lon="15.7415417"><ele>671.0</ele><time>2026-04-26T08:35:06.799Z</time></trkpt><trkpt lat="38.1406067" lon="15.7414417"><ele>671.0</ele><time>2026-04-26T08:35:07.799Z</time></trkpt><trkpt lat="38.1407017" lon="15.74137"><ele>671.0</ele><time>2026-04-26T08:35:08.799Z</time></trkpt><trkpt lat="38.1408133" lon="15.7413167"><ele>671.0</ele><time>2026-04-26T08:35:09.799Z</time></trkpt><trkpt lat="38.1409283" lon="15.74126"><ele>671.0</ele><time>2026-04-26T08:35:10.8Z</time></trkpt><trkpt lat="38.1410317" lon="15.741205"><ele>674.25</ele><time>2026-04-26T08:35:11.8Z</time></trkpt><trkpt lat="38.14113" lon="15.7411433"><ele>677.5</ele><time>2026-04-26T08:35:12.799Z</time></trkpt><trkpt lat="38.1412367" lon="15.741065"><ele>680.75</ele><time>2026-04-26T08:35:13.8Z</time></trkpt><trkpt lat="38.1413417" lon="15.7409717"><ele>684.0</ele><time>2026-04-26T08:35:14.799Z</time></trkpt><trkpt lat="38.14145" lon="15.74088"><ele>694.5</ele><time>2026-04-26T08:35:15.799Z</time></trkpt><trkpt lat="38.1415583" lon="15.740785"><ele>705.0</ele><time>2026-04-26T08:35:16.8Z</time></trkpt><trkpt lat="38.14167" lon="15.7406933"><ele>715.5</ele><time>2026-04-26T08:35:17.8Z</time></trkpt><trkpt lat="38.141765" lon="15.7406017"><ele>726.0</ele><time>2026-04-26T08:35:18.8Z</time></trkpt><trkpt lat="38.1418433" lon="15.7404917"><ele>726.0</ele><time>2026-04-26T08:35:19.8Z</time></trkpt><trkpt lat="38.141915" lon="15.7403583"><ele>726.0</ele><time>2026-04-26T08:35:20.8Z</time></trkpt><trkpt lat="38.1419733" lon="15.7402367"><ele>726.0</ele><time>2026-04-26T08:35:21.799Z</time></trkpt><trkpt lat="38.14202" lon="15.740105"><ele>726.0</ele><time>2026-04-26T08:35:22.8Z</time></trkpt><trkpt lat="38.142065" lon="15.7399783"><ele>720.5</ele><time>2026-04-26T08:35:23.799Z</time></trkpt><trkpt lat="38.1421117" lon="15.7398683"><ele>715.0</ele><time>2026-04-26T08:35:24.8Z</time></trkpt><trkpt lat="38.1421567" lon="15.7397617"><ele>709.5</ele><time>2026-04-26T08:35:25.799Z</time></trkpt><trkpt lat="38.1422" lon="15.7396767"><ele>704.0</ele><time>2026-04-26T08:35:26.799Z</time></trkpt><trkpt lat="38.14225" lon="15.7396067"><ele>698.5</ele><time>2026-04-26T08:35:27.8Z</time></trkpt><trkpt lat="38.142305" lon="15.7395517"><ele>693.0</ele><time>2026-04-26T08:35:28.8Z</time></trkpt><trkpt lat="38.14237" lon="15.7395083"><ele>698.2</ele><time>2026-04-26T08:35:29.799Z</time></trkpt><trkpt lat="38.1424933" lon="15.7395383"><ele>703.4</ele><time>2026-04-26T08:35:31.799Z</time></trkpt><trkpt lat="38.1425383" lon="15.7396083"><ele>708.6</ele><time>2026-04-26T08:35:32.799Z</time></trkpt><trkpt lat="38.1425483" lon="15.7396983"><ele>713.8000000000001</ele><time>2026-04-26T08:35:33.8Z</time></trkpt><trkpt lat="38.1425467" lon="15.7398133"><ele>719.0</ele><time>2026-04-26T08:35:34.799Z</time></trkpt><trkpt lat="38.1425383" lon="15.7399367"><ele>719.0</ele><time>2026-04-26T08:35:35.8Z</time></trkpt><trkpt lat="38.1425283" lon="15.7400617"><ele>719.0</ele><time>2026-04-26T08:35:36.799Z</time></trkpt><trkpt lat="38.1425267" lon="15.7401967"><ele>719.0</ele><time>2026-04-26T08:35:37.799Z</time></trkpt><trkpt lat="38.1425467" lon="15.7403383"><ele>719.0</ele><time>2026-04-26T08:35:38.8Z</time></trkpt><trkpt lat="38.1425783" lon="15.7404767"><ele>719.0</ele><time>2026-04-26T08:35:39.8Z</time></trkpt><trkpt lat="38.1426167" lon="15.7406117"><ele>723.5</ele><time>2026-04-26T08:35:40.8Z</time></trkpt><trkpt lat="38.1426767" lon="15.7407367"><ele>728.0</ele><time>2026-04-26T08:35:41.8Z</time></trkpt><trkpt lat="38.1427467" lon="15.7408517"><ele>732.5</ele><time>2026-04-26T08:35:42.799Z</time></trkpt><trkpt lat="38.14283" lon="15.7409517"><ele>737.0</ele><time>2026-04-26T08:35:43.8Z</time></trkpt><trkpt lat="38.142925" lon="15.741045"><ele>736.75</ele><time>2026-04-26T08:35:44.799Z</time></trkpt><trkpt lat="38.1430217" lon="15.7411317"><ele>736.5</ele><time>2026-04-26T08:35:45.799Z</time></trkpt><trkpt lat="38.1431333" lon="15.74122"><ele>736.25</ele><time>2026-04-26T08:35:46.799Z</time></trkpt><trkpt lat="38.14324" lon="15.7413217"><ele>736.0</ele><time>2026-04-26T08:35:47.8Z</time></trkpt><trkpt lat="38.143345" lon="15.741435"><ele>736.0</ele><time>2026-04-26T08:35:48.799Z</time></trkpt><trkpt lat="38.14345" lon="15.7415533"><ele>736.0</ele><time>2026-04-26T08:35:49.799Z</time></trkpt><trkpt lat="38.1435517" lon="15.74167"><ele>736.0</ele><time>2026-04-26T08:35:50.8Z</time></trkpt><trkpt lat="38.14366" lon="15.741785"><ele>736.0</ele><time>2026-04-26T08:35:51.799Z</time></trkpt><trkpt lat="38.1437567" lon="15.7418767"><ele>737.4</ele><time>2026-04-26T08:35:52.8Z</time></trkpt><trkpt lat="38.1438467" lon="15.7419683"><ele>738.8</ele><time>2026-04-26T08:35:53.8Z</time></trkpt><trkpt lat="38.1439367" lon="15.742045"><ele>740.1999999999999</ele><time>2026-04-26T08:35:54.799Z</time></trkpt><trkpt lat="38.14402" lon="15.7421033"><ele>741.5999999999999</ele><time>2026-04-26T08:35:55.8Z</time></trkpt><trkpt lat="38.14411" lon="15.7421433"><ele>743.0</ele><time>2026-04-26T08:35:56.8Z</time></trkpt><trkpt lat="38.144215" lon="15.7421667"><ele>743.0</ele><time>2026-04-26T08:35:57.8Z</time></trkpt><trkpt lat="38.1443383" lon="15.7421933"><ele>743.0</ele><time>2026-04-26T08:35:58.8Z</time></trkpt><trkpt lat="38.1444617" lon="15.7422317"><ele>743.0</ele><time>2026-04-26T08:35:59.8Z</time></trkpt><trkpt lat="38.1445733" lon="15.7422667"><ele>743.0</ele><time>2026-04-26T08:36:00.8Z</time></trkpt><trkpt lat="38.1446717" lon="15.7423"><ele>743.0</ele><time>2026-04-26T08:36:01.799Z</time></trkpt><trkpt lat="38.144765" lon="15.7423533"><ele>743.0</ele><time>2026-04-26T08:36:02.799Z</time></trkpt><trkpt lat="38.14483" lon="15.7424317"><ele>743.0</ele><time>2026-04-26T08:36:03.799Z</time></trkpt><trkpt lat="38.144885" lon="15.7425317"><ele>743.0</ele><time>2026-04-26T08:36:04.8Z</time></trkpt><trkpt lat="38.1449367" lon="15.7426583"><ele>743.0</ele><time>2026-04-26T08:36:05.799Z</time></trkpt><trkpt lat="38.1449733" lon="15.7427917"><ele>744.0</ele><time>2026-04-26T08:36:06.799Z</time></trkpt><trkpt lat="38.144985" lon="15.7429117"><ele>745.0</ele><time>2026-04-26T08:36:07.8Z</time></trkpt><trkpt lat="38.14497" lon="15.7430233"><ele>746.0</ele><time>2026-04-26T08:36:08.8Z</time></trkpt><trkpt lat="38.14492" lon="15.74311"><ele>747.0</ele><time>2026-04-26T08:36:09.8Z</time></trkpt><trkpt lat="38.1448367" lon="15.7431733"><ele>748.0</ele><time>2026-04-26T08:36:10.8Z</time></trkpt><trkpt lat="38.1447083" lon="15.7431933"><ele>748.0</ele><time>2026-04-26T08:36:11.799Z</time></trkpt><trkpt lat="38.1445717" lon="15.7432117"><ele>748.0</ele><time>2026-04-26T08:36:12.799Z</time></trkpt><trkpt lat="38.144465" lon="15.7432783"><ele>748.0</ele><time>2026-04-26T08:36:13.8Z</time></trkpt><trkpt lat="38.14436" lon="15.7433883"><ele>748.0</ele><time>2026-04-26T08:36:14.799Z</time></trkpt><trkpt lat="38.144295" lon="15.7435217"><ele>747.0</ele><time>2026-04-26T08:36:15.8Z</time></trkpt><trkpt lat="38.1442567" lon="15.7436567"><ele>746.0</ele><time>2026-04-26T08:36:16.799Z</time></trkpt><trkpt lat="38.1442483" lon="15.7438"><ele>745.0</ele><time>2026-04-26T08:36:17.799Z</time></trkpt><trkpt lat="38.1442683" lon="15.7439767"><ele>744.0</ele><time>2026-04-26T08:36:18.799Z</time></trkpt><trkpt lat="38.144325" lon="15.744165"><ele>744.0</ele><time>2026-04-26T08:36:19.8Z</time></trkpt><trkpt lat="38.1443883" lon="15.7443383"><ele>744.0</ele><time>2026-04-26T08:36:20.8Z</time></trkpt><trkpt lat="38.1444517" lon="15.74449"><ele>744.0</ele><time>2026-04-26T08:36:21.799Z</time></trkpt><trkpt lat="38.1445" lon="15.7446417"><ele>744.0</ele><time>2026-04-26T08:36:22.8Z</time></trkpt><trkpt lat="38.14453" lon="15.7447683"><ele>743.6</ele><time>2026-04-26T08:36:23.8Z</time></trkpt><trkpt lat="38.1445283" lon="15.7448917"><ele>743.2</ele><time>2026-04-26T08:36:24.799Z</time></trkpt><trkpt lat="38.1445083" lon="15.745015"><ele>742.8000000000001</ele><time>2026-04-26T08:36:25.799Z</time></trkpt><trkpt lat="38.14447" lon="15.7451467"><ele>742.4000000000001</ele><time>2026-04-26T08:36:26.8Z</time></trkpt><trkpt lat="38.1443917" lon="15.7452617"><ele>742.0</ele><time>2026-04-26T08:36:27.799Z</time></trkpt><trkpt lat="38.1442917" lon="15.745365"><ele>741.0</ele><time>2026-04-26T08:36:28.799Z</time></trkpt><trkpt lat="38.1441833" lon="15.745465"><ele>740.0</ele><time>2026-04-26T08:36:29.8Z</time></trkpt><trkpt lat="38.1440867" lon="15.7455833"><ele>739.0</ele><time>2026-04-26T08:36:30.799Z</time></trkpt><trkpt lat="38.1440017" lon="15.745705"><ele>738.0</ele><time>2026-04-26T08:36:31.799Z</time></trkpt><trkpt lat="38.1439517" lon="15.74585"><ele>738.0</ele><time>2026-04-26T08:36:32.8Z</time></trkpt><trkpt lat="38.1439183" lon="15.7459833"><ele>738.0</ele><time>2026-04-26T08:36:33.799Z</time></trkpt><trkpt lat="38.143915" lon="15.7461333"><ele>738.0</ele><time>2026-04-26T08:36:34.799Z</time></trkpt><trkpt lat="38.1439317" lon="15.746285"><ele>738.0</ele><time>2026-04-26T08:36:35.8Z</time></trkpt><trkpt lat="38.14396" lon="15.74644"><ele>739.0</ele><time>2026-04-26T08:36:36.8Z</time></trkpt><trkpt lat="38.1439933" lon="15.7465833"><ele>740.0</ele><time>2026-04-26T08:36:37.799Z</time></trkpt><trkpt lat="38.14403" lon="15.746735"><ele>741.0</ele><time>2026-04-26T08:36:38.799Z</time></trkpt><trkpt lat="38.14407" lon="15.7468767"><ele>742.0</ele><time>2026-04-26T08:36:39.799Z</time></trkpt><trkpt lat="38.14409" lon="15.747"><ele>744.0</ele><time>2026-04-26T08:36:40.799Z</time></trkpt><trkpt lat="38.1441017" lon="15.7470967"><ele>746.0</ele><time>2026-04-26T08:36:41.8Z</time></trkpt><trkpt lat="38.1440667" lon="15.747215"><ele>748.0</ele><time>2026-04-26T08:36:43.8Z</time></trkpt><trkpt lat="38.1439367" lon="15.7472733"><ele>750.0</ele><time>2026-04-26T08:36:45.8Z</time></trkpt><trkpt lat="38.1438383" lon="15.7472917"><ele>752.0</ele><time>2026-04-26T08:36:46.799Z</time></trkpt><trkpt lat="38.14373" lon="15.7473417"><ele>754.4000000000001</ele><time>2026-04-26T08:36:47.799Z</time></trkpt><trkpt lat="38.1436283" lon="15.7473883"><ele>756.8000000000001</ele><time>2026-04-26T08:36:48.799Z</time></trkpt><trkpt lat="38.1435317" lon="15.7474583"><ele>759.2</ele><time>2026-04-26T08:36:49.8Z</time></trkpt><trkpt lat="38.14345" lon="15.7475083"><ele>761.6</ele><time>2026-04-26T08:36:50.8Z</time></trkpt><trkpt lat="38.1433783" lon="15.7475567"><ele>764.0</ele><time>2026-04-26T08:36:51.799Z</time></trkpt><trkpt lat="38.1433217" lon="15.74761"><ele>764.0</ele><time>2026-04-26T08:36:52.8Z</time></trkpt><trkpt lat="38.1432767" lon="15.7476767"><ele>764.0</ele><time>2026-04-26T08:36:53.799Z</time></trkpt><trkpt lat="38.14327" lon="15.7478167"><ele>764.0</ele><time>2026-04-26T08:36:55.799Z</time></trkpt><trkpt lat="38.143355" lon="15.747895"><ele>764.0</ele><time>2026-04-26T08:36:57.8Z</time></trkpt><trkpt lat="38.1434883" lon="15.7478583"><ele>764.0</ele><time>2026-04-26T08:36:59.799Z</time></trkpt><trkpt lat="38.1435633" lon="15.7478117"><ele>766.8000000000001</ele><time>2026-04-26T08:37:00.799Z</time></trkpt><trkpt lat="38.1436383" lon="15.7477833"><ele>769.6</ele><time>2026-04-26T08:37:01.8Z</time></trkpt><trkpt lat="38.14372" lon="15.7477917"><ele>772.4</ele><time>2026-04-26T08:37:02.799Z</time></trkpt><trkpt lat="38.1438133" lon="15.7478567"><ele>775.2</ele><time>2026-04-26T08:37:03.8Z</time></trkpt><trkpt lat="38.1438917" lon="15.7479433"><ele>778.0</ele><time>2026-04-26T08:37:04.8Z</time></trkpt><trkpt lat="38.1439467" lon="15.74804"><ele>777.9999999999999</ele><time>2026-04-26T08:37:05.8Z</time></trkpt><trkpt lat="38.1439367" lon="15.7481367"><ele>778.0</ele><time>2026-04-26T08:37:06.8Z</time></trkpt><trkpt lat="38.143905" lon="15.7482083"><ele>778.0</ele><time>2026-04-26T08:37:07.799Z</time></trkpt><trkpt lat="38.1438483" lon="15.7482617"><ele>778.0</ele><time>2026-04-26T08:37:08.8Z</time></trkpt><trkpt lat="38.143765" lon="15.74829"><ele>777.9999999999999</ele><time>2026-04-26T08:37:09.8Z</time></trkpt><trkpt lat="38.1436533" lon="15.74827"><ele>778.0</ele><time>2026-04-26T08:37:10.8Z</time></trkpt><trkpt lat="38.1435217" lon="15.748245"><ele>778.0</ele><time>2026-04-26T08:37:11.799Z</time></trkpt><trkpt lat="38.1434133" lon="15.7482733"><ele>778.0</ele><time>2026-04-26T08:37:12.799Z</time></trkpt><trkpt lat="38.1433283" lon="15.748355"><ele>778.0</ele><time>2026-04-26T08:37:13.8Z</time></trkpt><trkpt lat="38.1432817" lon="15.7484717"><ele>778.0</ele><time>2026-04-26T08:37:14.8Z</time></trkpt><trkpt lat="38.143245" lon="15.748595"><ele>778.0</ele><time>2026-04-26T08:37:15.799Z</time></trkpt><trkpt lat="38.1431867" lon="15.7487317"><ele>783.5</ele><time>2026-04-26T08:37:16.8Z</time></trkpt><trkpt lat="38.1431183" lon="15.74885"><ele>789.0</ele><time>2026-04-26T08:37:17.799Z</time></trkpt><trkpt lat="38.1430367" lon="15.748965"><ele>794.5</ele><time>2026-04-26T08:37:18.799Z</time></trkpt><trkpt lat="38.14295" lon="15.7490717"><ele>800.0</ele><time>2026-04-26T08:37:19.8Z</time></trkpt><trkpt lat="38.1428633" lon="15.749175"><ele>800.0000000000001</ele><time>2026-04-26T08:37:20.799Z</time></trkpt><trkpt lat="38.1427867" lon="15.7492783"><ele>800.0</ele><time>2026-04-26T08:37:21.8Z</time></trkpt><trkpt lat="38.1427317" lon="15.74937"><ele>800.0</ele><time>2026-04-26T08:37:22.8Z</time></trkpt><trkpt lat="38.1426867" lon="15.7494567"><ele>800.0</ele><time>2026-04-26T08:37:23.799Z</time></trkpt><trkpt lat="38.1426367" lon="15.7495367"><ele>800.0000000000001</ele><time>2026-04-26T08:37:24.799Z</time></trkpt><trkpt lat="38.14258" lon="15.749605"><ele>800.0</ele><time>2026-04-26T08:37:25.8Z</time></trkpt><trkpt lat="38.1425133" lon="15.7496467"><ele>801.8333333333334</ele><time>2026-04-26T08:37:26.8Z</time></trkpt><trkpt lat="38.142445" lon="15.749655"><ele>803.6666666666667</ele><time>2026-04-26T08:37:27.8Z</time></trkpt><trkpt lat="38.1423667" lon="15.7496283"><ele>805.5</ele><time>2026-04-26T08:37:28.799Z</time></trkpt><trkpt lat="38.142295" lon="15.74956"><ele>807.3333333333333</ele><time>2026-04-26T08:37:29.799Z</time></trkpt><trkpt lat="38.14223" lon="15.7494617"><ele>809.1666666666666</ele><time>2026-04-26T08:37:30.8Z</time></trkpt><trkpt lat="38.14218" lon="15.7493417"><ele>811.0</ele><time>2026-04-26T08:37:31.799Z</time></trkpt><trkpt lat="38.14214" lon="15.7492167"><ele>815.25</ele><time>2026-04-26T08:37:32.8Z</time></trkpt><trkpt lat="38.1420683" lon="15.7490867"><ele>819.5</ele><time>2026-04-26T08:37:33.8Z</time></trkpt><trkpt lat="38.142" lon="15.7489683"><ele>823.75</ele><time>2026-04-26T08:37:34.799Z</time></trkpt><trkpt lat="38.141935" lon="15.7488567"><ele>828.0</ele><time>2026-04-26T08:37:35.8Z</time></trkpt><trkpt lat="38.141885" lon="15.748735"><ele>828.0</ele><time>2026-04-26T08:37:36.8Z</time></trkpt><trkpt lat="38.141855" lon="15.7486083"><ele>828.0</ele><time>2026-04-26T08:37:37.8Z</time></trkpt><trkpt lat="38.1418267" lon="15.748485"><ele>828.0</ele><time>2026-04-26T08:37:38.8Z</time></trkpt><trkpt lat="38.141795" lon="15.7483717"><ele>828.0</ele><time>2026-04-26T08:37:39.799Z</time></trkpt><trkpt lat="38.1417433" lon="15.7482733"><ele>828.0</ele><time>2026-04-26T08:37:40.799Z</time></trkpt><trkpt lat="38.141655" lon="15.7481917"><ele>827.4</ele><time>2026-04-26T08:37:41.799Z</time></trkpt><trkpt lat="38.1415517" lon="15.7481317"><ele>826.8</ele><time>2026-04-26T08:37:42.8Z</time></trkpt><trkpt lat="38.141455" lon="15.7480767"><ele>826.2</ele><time>2026-04-26T08:37:43.8Z</time></trkpt><trkpt lat="38.14137" lon="15.7480467"><ele>825.6</ele><time>2026-04-26T08:37:44.8Z</time></trkpt><trkpt lat="38.14129" lon="15.7480433"><ele>825.0</ele><time>2026-04-26T08:37:45.8Z</time></trkpt><trkpt lat="38.1412117" lon="15.74808"><ele>825.0</ele><time>2026-04-26T08:37:46.8Z</time></trkpt><trkpt lat="38.141155" lon="15.7481483"><ele>825.0</ele><time>2026-04-26T08:37:47.799Z</time></trkpt><trkpt lat="38.141115" lon="15.74824"><ele>825.0</ele><time>2026-04-26T08:37:48.799Z</time></trkpt><trkpt lat="38.1411" lon="15.74836"><ele>825.0</ele><time>2026-04-26T08:37:49.799Z</time></trkpt><trkpt lat="38.14113" lon="15.7485167"><ele>825.0</ele><time>2026-04-26T08:37:50.8Z</time></trkpt><trkpt lat="38.1411867" lon="15.7486833"><ele>825.6</ele><time>2026-04-26T08:37:51.8Z</time></trkpt><trkpt lat="38.141265" lon="15.7488167"><ele>826.2</ele><time>2026-04-26T08:37:52.8Z</time></trkpt><trkpt lat="38.1413417" lon="15.7489167"><ele>826.8</ele><time>2026-04-26T08:37:53.8Z</time></trkpt><trkpt lat="38.1414267" lon="15.7489967"><ele>827.4</ele><time>2026-04-26T08:37:54.799Z</time></trkpt><trkpt lat="38.1415083" lon="15.749075"><ele>828.0</ele><time>2026-04-26T08:37:55.799Z</time></trkpt><trkpt lat="38.1415667" lon="15.7491483"><ele>828.0</ele><time>2026-04-26T08:37:56.799Z</time></trkpt><trkpt lat="38.141605" lon="15.7492167"><ele>828.0</ele><time>2026-04-26T08:37:57.8Z</time></trkpt><trkpt lat="38.1416333" lon="15.7493217"><ele>828.0</ele><time>2026-04-26T08:37:59.799Z</time></trkpt><trkpt lat="38.1415733" lon="15.749385"><ele>828.0</ele><time>2026-04-26T08:38:01.799Z</time></trkpt><trkpt lat="38.141475" lon="15.7493283"><ele>828.0</ele><time>2026-04-26T08:38:03.8Z</time></trkpt><trkpt lat="38.1414117" lon="15.7492417"><ele>828.0</ele><time>2026-04-26T08:38:04.8Z</time></trkpt><trkpt lat="38.1413467" lon="15.7491317"><ele>827.4</ele><time>2026-04-26T08:38:05.799Z</time></trkpt><trkpt lat="38.1412833" lon="15.7490183"><ele>826.8</ele><time>2026-04-26T08:38:06.799Z</time></trkpt><trkpt lat="38.141225" lon="15.7489083"><ele>826.2</ele><time>2026-04-26T08:38:07.8Z</time></trkpt><trkpt lat="38.141165" lon="15.7487967"><ele>825.6</ele><time>2026-04-26T08:38:08.8Z</time></trkpt><trkpt lat="38.141125" lon="15.7486683"><ele>825.0</ele><time>2026-04-26T08:38:09.8Z</time></trkpt><trkpt lat="38.1410867" lon="15.7485367"><ele>825.0</ele><time>2026-04-26T08:38:10.799Z</time></trkpt><trkpt lat="38.141045" lon="15.748405"><ele>825.0</ele><time>2026-04-26T08:38:11.799Z</time></trkpt><trkpt lat="38.140995" lon="15.7483"><ele>825.0</ele><time>2026-04-26T08:38:12.799Z</time></trkpt><trkpt lat="38.1409433" lon="15.74823"><ele>825.0</ele><time>2026-04-26T08:38:13.799Z</time></trkpt><trkpt lat="38.140875" lon="15.7482133"><ele>825.0</ele><time>2026-04-26T08:38:14.8Z</time></trkpt><trkpt lat="38.1407983" lon="15.7482467"><ele>825.0</ele><time>2026-04-26T08:38:15.799Z</time></trkpt><trkpt lat="38.1407283" lon="15.7483283"><ele>817.25</ele><time>2026-04-26T08:38:16.8Z</time></trkpt><trkpt lat="38.1406717" lon="15.748445"><ele>809.5</ele><time>2026-04-26T08:38:17.799Z</time></trkpt><trkpt lat="38.14064" lon="15.7486"><ele>801.75</ele><time>2026-04-26T08:38:18.799Z</time></trkpt><trkpt lat="38.1406267" lon="15.7487433"><ele>794.0</ele><time>2026-04-26T08:38:19.799Z</time></trkpt><trkpt lat="38.140635" lon="15.7488933"><ele>794.0</ele><time>2026-04-26T08:38:20.8Z</time></trkpt><trkpt lat="38.1406767" lon="15.74905"><ele>794.0</ele><time>2026-04-26T08:38:21.8Z</time></trkpt><trkpt lat="38.140765" lon="15.7492117"><ele>794.0</ele><time>2026-04-26T08:38:22.799Z</time></trkpt><trkpt lat="38.1408533" lon="15.7493767"><ele>794.0</ele><time>2026-04-26T08:38:23.8Z</time></trkpt><trkpt lat="38.1409467" lon="15.7495433"><ele>807.3333333333334</ele><time>2026-04-26T08:38:24.799Z</time></trkpt><trkpt lat="38.1410383" lon="15.7497133"><ele>820.6666666666667</ele><time>2026-04-26T08:38:25.8Z</time></trkpt><trkpt lat="38.1411267" lon="15.749885"><ele>834.0</ele><time>2026-04-26T08:38:26.799Z</time></trkpt><trkpt lat="38.1412067" lon="15.75006"><ele>835.6666666666667</ele><time>2026-04-26T08:38:27.8Z</time></trkpt><trkpt lat="38.1412683" lon="15.7502467"><ele>837.3333333333334</ele><time>2026-04-26T08:38:28.799Z</time></trkpt><trkpt lat="38.1413083" lon="15.7504467"><ele>839.0</ele><time>2026-04-26T08:38:29.799Z</time></trkpt><trkpt lat="38.1413367" lon="15.7506483"><ele>839.0</ele><time>2026-04-26T08:38:30.799Z</time></trkpt><trkpt lat="38.1413667" lon="15.75085"><ele>839.0</ele><time>2026-04-26T08:38:31.799Z</time></trkpt><trkpt lat="38.1413933" lon="15.7510533"><ele>839.0</ele><time>2026-04-26T08:38:32.799Z</time></trkpt><trkpt lat="38.1414167" lon="15.75123"><ele>840.75</ele><time>2026-04-26T08:38:33.799Z</time></trkpt><trkpt lat="38.14143" lon="15.7513933"><ele>842.5</ele><time>2026-04-26T08:38:34.799Z</time></trkpt><trkpt lat="38.141395" lon="15.7515517"><ele>844.25</ele><time>2026-04-26T08:38:35.799Z</time></trkpt><trkpt lat="38.1413383" lon="15.7516983"><ele>846.0</ele><time>2026-04-26T08:38:36.799Z</time></trkpt><trkpt lat="38.1412667" lon="15.7518467"><ele>849.25</ele><time>2026-04-26T08:38:37.8Z</time></trkpt><trkpt lat="38.1412017" lon="15.752"><ele>852.5</ele><time>2026-04-26T08:38:38.799Z</time></trkpt><trkpt lat="38.14117" lon="15.752185"><ele>855.75</ele><time>2026-04-26T08:38:39.8Z</time></trkpt><trkpt lat="38.1411483" lon="15.7523717"><ele>859.0</ele><time>2026-04-26T08:38:40.799Z</time></trkpt><trkpt lat="38.14113" lon="15.7525417"><ele>859.0</ele><time>2026-04-26T08:38:41.8Z</time></trkpt><trkpt lat="38.1411033" lon="15.752695"><ele>859.0</ele><time>2026-04-26T08:38:42.799Z</time></trkpt><trkpt lat="38.141055" lon="15.75283"><ele>859.0</ele><time>2026-04-26T08:38:43.799Z</time></trkpt><trkpt lat="38.1410067" lon="15.7529683"><ele>859.0</ele><time>2026-04-26T08:38:44.799Z</time></trkpt><trkpt lat="38.1409517" lon="15.7531167"><ele>864.25</ele><time>2026-04-26T08:38:45.799Z</time></trkpt><trkpt lat="38.1408883" lon="15.7532567"><ele>869.5</ele><time>2026-04-26T08:38:46.799Z</time></trkpt><trkpt lat="38.1408133" lon="15.7533917"><ele>874.75</ele><time>2026-04-26T08:38:47.799Z</time></trkpt><trkpt lat="38.1407417" lon="15.7535317"><ele>880.0</ele><time>2026-04-26T08:38:48.8Z</time></trkpt><trkpt lat="38.140665" lon="15.753675"><ele>880.0</ele><time>2026-04-26T08:38:49.799Z</time></trkpt><trkpt lat="38.1405783" lon="15.7538167"><ele>880.0</ele><time>2026-04-26T08:38:50.799Z</time></trkpt><trkpt lat="38.1404783" lon="15.753925"><ele>880.0</ele><time>2026-04-26T08:38:51.8Z</time></trkpt><trkpt lat="38.140385" lon="15.753985"><ele>880.0</ele><time>2026-04-26T08:38:52.799Z</time></trkpt><trkpt lat="38.1403033" lon="15.754055"><ele>880.0</ele><time>2026-04-26T08:38:53.8Z</time></trkpt><trkpt lat="38.14024" lon="15.7541217"><ele>880.0</ele><time>2026-04-26T08:38:54.8Z</time></trkpt><trkpt lat="38.1401967" lon="15.7542033"><ele>880.0</ele><time>2026-04-26T08:38:55.8Z</time></trkpt><trkpt lat="38.1401767" lon="15.7543033"><ele>880.0</ele><time>2026-04-26T08:38:56.799Z</time></trkpt><trkpt lat="38.1401883" lon="15.7544367"><ele>880.0</ele><time>2026-04-26T08:38:57.799Z</time></trkpt><trkpt lat="38.140205" lon="15.7545983"><ele>882.0</ele><time>2026-04-26T08:38:58.799Z</time></trkpt><trkpt lat="38.1402083" lon="15.754775"><ele>884.0</ele><time>2026-04-26T08:38:59.8Z</time></trkpt><trkpt lat="38.1401933" lon="15.7549633"><ele>886.0</ele><time>2026-04-26T08:39:00.8Z</time></trkpt><trkpt lat="38.14016" lon="15.7551583"><ele>888.0</ele><time>2026-04-26T08:39:01.799Z</time></trkpt><trkpt lat="38.1401067" lon="15.7553533"><ele>891.5</ele><time>2026-04-26T08:39:02.8Z</time></trkpt><trkpt lat="38.14005" lon="15.7555317"><ele>895.0</ele><time>2026-04-26T08:39:03.799Z</time></trkpt><trkpt lat="38.1400117" lon="15.7557117"><ele>898.5</ele><time>2026-04-26T08:39:04.799Z</time></trkpt><trkpt lat="38.1399983" lon="15.7558883"><ele>902.0</ele><time>2026-04-26T08:39:05.8Z</time></trkpt><trkpt lat="38.140005" lon="15.7560783"><ele>904.0</ele><time>2026-04-26T08:39:06.799Z</time></trkpt><trkpt lat="38.1400367" lon="15.7562833"><ele>906.0</ele><time>2026-04-26T08:39:07.8Z</time></trkpt><trkpt lat="38.1400817" lon="15.7564667"><ele>908.0</ele><time>2026-04-26T08:39:08.8Z</time></trkpt><trkpt lat="38.140135" lon="15.756665"><ele>908.0</ele><time>2026-04-26T08:39:09.799Z</time></trkpt><trkpt lat="38.1401833" lon="15.7568667"><ele>908.0</ele><time>2026-04-26T08:39:10.799Z</time></trkpt><trkpt lat="38.1402267" lon="15.7570717"><ele>908.0</ele><time>2026-04-26T08:39:11.799Z</time></trkpt><trkpt lat="38.1402767" lon="15.757275"><ele>908.0</ele><time>2026-04-26T08:39:12.8Z</time></trkpt><trkpt lat="38.1403317" lon="15.757475"><ele>908.0</ele><time>2026-04-26T08:39:13.8Z</time></trkpt><trkpt lat="38.1403967" lon="15.7576783"><ele>908.0</ele><time>2026-04-26T08:39:14.799Z</time></trkpt><trkpt lat="38.1404883" lon="15.7578883"><ele>908.3333333333334</ele><time>2026-04-26T08:39:15.8Z</time></trkpt><trkpt lat="38.1406" lon="15.7581017"><ele>908.6666666666667</ele><time>2026-04-26T08:39:16.799Z</time></trkpt><trkpt lat="38.140715" lon="15.75831"><ele>909.0</ele><time>2026-04-26T08:39:17.799Z</time></trkpt><trkpt lat="38.1408267" lon="15.7585317"><ele>909.3333333333333</ele><time>2026-04-26T08:39:18.8Z</time></trkpt><trkpt lat="38.1409367" lon="15.7587567"><ele>909.6666666666666</ele><time>2026-04-26T08:39:19.799Z</time></trkpt><trkpt lat="38.141035" lon="15.758995"><ele>910.0</ele><time>2026-04-26T08:39:20.8Z</time></trkpt><trkpt lat="38.1411383" lon="15.759225"><ele>914.3333333333333</ele><time>2026-04-26T08:39:21.8Z</time></trkpt><trkpt lat="38.1412533" lon="15.7594517"><ele>918.6666666666667</ele><time>2026-04-26T08:39:22.799Z</time></trkpt><trkpt lat="38.1413617" lon="15.75968"><ele>923.0</ele><time>2026-04-26T08:39:23.8Z</time></trkpt><trkpt lat="38.1414883" lon="15.7598933"><ele>923.3333333333334</ele><time>2026-04-26T08:39:24.8Z</time></trkpt><trkpt lat="38.141615" lon="15.7601083"><ele>923.6666666666667</ele><time>2026-04-26T08:39:25.799Z</time></trkpt><trkpt lat="38.1417417" lon="15.7603183"><ele>924.0</ele><time>2026-04-26T08:39:26.799Z</time></trkpt><trkpt lat="38.14186" lon="15.7605167"><ele>924.0</ele><time>2026-04-26T08:39:27.8Z</time></trkpt><trkpt lat="38.1419733" lon="15.7607217"><ele>924.0</ele><time>2026-04-26T08:39:28.8Z</time></trkpt><trkpt lat="38.1420917" lon="15.76093"><ele>924.0</ele><time>2026-04-26T08:39:29.799Z</time></trkpt><trkpt lat="38.1422117" lon="15.761125"><ele>922.3333333333333</ele><time>2026-04-26T08:39:30.8Z</time></trkpt><trkpt lat="38.142325" lon="15.7613283"><ele>920.6666666666666</ele><time>2026-04-26T08:39:31.8Z</time></trkpt><trkpt lat="38.1424233" lon="15.761545"><ele>919.0</ele><time>2026-04-26T08:39:32.799Z</time></trkpt><trkpt lat="38.1425083" lon="15.761765"><ele>922.0</ele><time>2026-04-26T08:39:33.799Z</time></trkpt><trkpt lat="38.142585" lon="15.7619833"><ele>925.0</ele><time>2026-04-26T08:39:34.8Z</time></trkpt><trkpt lat="38.142665" lon="15.762205"><ele>928.0</ele><time>2026-04-26T08:39:35.799Z</time></trkpt><trkpt lat="38.14274" lon="15.76243"><ele>928.0</ele><time>2026-04-26T08:39:36.8Z</time></trkpt><trkpt lat="38.1428183" lon="15.7626567"><ele>928.0</ele><time>2026-04-26T08:39:37.799Z</time></trkpt><trkpt lat="38.1429033" lon="15.762885"><ele>928.0</ele><time>2026-04-26T08:39:38.8Z</time></trkpt><trkpt lat="38.1429783" lon="15.76312"><ele>928.0</ele><time>2026-04-26T08:39:39.8Z</time></trkpt><trkpt lat="38.14307" lon="15.7633433"><ele>928.0</ele><time>2026-04-26T08:39:40.8Z</time></trkpt><trkpt lat="38.143155" lon="15.7635617"><ele>928.0</ele><time>2026-04-26T08:39:41.8Z</time></trkpt><trkpt lat="38.14325" lon="15.76377"><ele>928.0</ele><time>2026-04-26T08:39:42.799Z</time></trkpt><trkpt lat="38.1433233" lon="15.763955"><ele>928.0</ele><time>2026-04-26T08:39:43.8Z</time></trkpt><trkpt lat="38.1433833" lon="15.7641233"><ele>928.0</ele><time>2026-04-26T08:39:44.799Z</time></trkpt><trkpt lat="38.1434217" lon="15.7642883"><ele>928.0</ele><time>2026-04-26T08:39:45.8Z</time></trkpt><trkpt lat="38.143445" lon="15.7644567"><ele>930.25</ele><time>2026-04-26T08:39:46.799Z</time></trkpt><trkpt lat="38.143455" lon="15.7646183"><ele>932.5</ele><time>2026-04-26T08:39:47.8Z</time></trkpt><trkpt lat="38.1434617" lon="15.7647783"><ele>934.75</ele><time>2026-04-26T08:39:48.8Z</time></trkpt><trkpt lat="38.143465" lon="15.764955"><ele>937.0</ele><time>2026-04-26T08:39:49.8Z</time></trkpt><trkpt lat="38.1434767" lon="15.765145"><ele>935.75</ele><time>2026-04-26T08:39:50.8Z</time></trkpt><trkpt lat="38.14347" lon="15.7653333"><ele>934.5</ele><time>2026-04-26T08:39:51.8Z</time></trkpt><trkpt lat="38.14346" lon="15.7655"><ele>933.25</ele><time>2026-04-26T08:39:52.799Z</time></trkpt><trkpt lat="38.1434367" lon="15.7656683"><ele>932.0</ele><time>2026-04-26T08:39:53.799Z</time></trkpt><trkpt lat="38.1433767" lon="15.76583"><ele>932.0</ele><time>2026-04-26T08:39:54.799Z</time></trkpt><trkpt lat="38.1432917" lon="15.7659817"><ele>932.0</ele><time>2026-04-26T08:39:55.8Z</time></trkpt><trkpt lat="38.1432283" lon="15.7661317"><ele>932.0</ele><time>2026-04-26T08:39:56.8Z</time></trkpt><trkpt lat="38.1431967" lon="15.76631"><ele>932.0</ele><time>2026-04-26T08:39:57.799Z</time></trkpt><trkpt lat="38.1432017" lon="15.76652"><ele>932.0</ele><time>2026-04-26T08:39:58.8Z</time></trkpt><trkpt lat="38.14323" lon="15.7667467"><ele>932.0</ele><time>2026-04-26T08:39:59.799Z</time></trkpt><trkpt lat="38.143255" lon="15.767"><ele>932.0</ele><time>2026-04-26T08:40:00.8Z</time></trkpt><trkpt lat="38.1432733" lon="15.767245"><ele>933.3333333333334</ele><time>2026-04-26T08:40:01.799Z</time></trkpt><trkpt lat="38.143285" lon="15.767485"><ele>934.6666666666667</ele><time>2026-04-26T08:40:02.8Z</time></trkpt><trkpt lat="38.143305" lon="15.7677267"><ele>936.0</ele><time>2026-04-26T08:40:03.8Z</time></trkpt><trkpt lat="38.1433317" lon="15.7679567"><ele>937.3333333333333</ele><time>2026-04-26T08:40:04.8Z</time></trkpt><trkpt lat="38.14337" lon="15.768195"><ele>938.6666666666666</ele><time>2026-04-26T08:40:05.799Z</time></trkpt><trkpt lat="38.1434133" lon="15.7684167"><ele>940.0</ele><time>2026-04-26T08:40:06.799Z</time></trkpt><trkpt lat="38.14347" lon="15.7686283"><ele>937.0</ele><time>2026-04-26T08:40:07.8Z</time></trkpt><trkpt lat="38.143525" lon="15.7688217"><ele>934.0</ele><time>2026-04-26T08:40:08.799Z</time></trkpt><trkpt lat="38.1435883" lon="15.7690017"><ele>931.0</ele><time>2026-04-26T08:40:09.799Z</time></trkpt><trkpt lat="38.1436767" lon="15.769165"><ele>931.0</ele><time>2026-04-26T08:40:10.8Z</time></trkpt><trkpt lat="38.1437833" lon="15.7693167"><ele>931.0</ele><time>2026-04-26T08:40:11.8Z</time></trkpt><trkpt lat="38.1439" lon="15.7694633"><ele>931.0</ele><time>2026-04-26T08:40:12.799Z</time></trkpt><trkpt lat="38.1440183" lon="15.7696133"><ele>936.6666666666666</ele><time>2026-04-26T08:40:13.8Z</time></trkpt><trkpt lat="38.1441333" lon="15.7697783"><ele>942.3333333333333</ele><time>2026-04-26T08:40:14.8Z</time></trkpt><trkpt lat="38.1442383" lon="15.7699683"><ele>948.0</ele><time>2026-04-26T08:40:15.8Z</time></trkpt><trkpt lat="38.144345" lon="15.7701767"><ele>945.6666666666667</ele><time>2026-04-26T08:40:16.8Z</time></trkpt><trkpt lat="38.14445" lon="15.770385"><ele>943.3333333333334</ele><time>2026-04-26T08:40:17.8Z</time></trkpt><trkpt lat="38.14456" lon="15.7705783"><ele>941.0</ele><time>2026-04-26T08:40:18.8Z</time></trkpt><trkpt lat="38.1446667" lon="15.7707533"><ele>941.0</ele><time>2026-04-26T08:40:19.8Z</time></trkpt><trkpt lat="38.14476" lon="15.7709233"><ele>941.0</ele><time>2026-04-26T08:40:20.8Z</time></trkpt><trkpt lat="38.144845" lon="15.7710967"><ele>941.0</ele><time>2026-04-26T08:40:21.799Z</time></trkpt><trkpt lat="38.1449167" lon="15.7712667"><ele>939.0</ele><time>2026-04-26T08:40:22.799Z</time></trkpt><trkpt lat="38.1449683" lon="15.771435"><ele>937.0</ele><time>2026-04-26T08:40:23.799Z</time></trkpt><trkpt lat="38.1450117" lon="15.771615"><ele>935.0</ele><time>2026-04-26T08:40:24.799Z</time></trkpt><trkpt lat="38.1450667" lon="15.7717967"><ele>933.0</ele><time>2026-04-26T08:40:25.8Z</time></trkpt><trkpt lat="38.145135" lon="15.7719733"><ele>933.0</ele><time>2026-04-26T08:40:26.8Z</time></trkpt><trkpt lat="38.145235" lon="15.7721433"><ele>933.0</ele><time>2026-04-26T08:40:27.799Z</time></trkpt><trkpt lat="38.145355" lon="15.7723017"><ele>933.0</ele><time>2026-04-26T08:40:28.8Z</time></trkpt><trkpt lat="38.1454967" lon="15.7724233"><ele>933.0</ele><time>2026-04-26T08:40:29.799Z</time></trkpt><trkpt lat="38.1456583" lon="15.7725383"><ele>933.0</ele><time>2026-04-26T08:40:30.799Z</time></trkpt><trkpt lat="38.1458233" lon="15.772645"><ele>933.0</ele><time>2026-04-26T08:40:31.8Z</time></trkpt><trkpt lat="38.145975" lon="15.772755"><ele>936.6666666666667</ele><time>2026-04-26T08:40:32.799Z</time></trkpt><trkpt lat="38.1461033" lon="15.7728983"><ele>940.3333333333334</ele><time>2026-04-26T08:40:33.799Z</time></trkpt><trkpt lat="38.1462117" lon="15.7730567"><ele>944.0</ele><time>2026-04-26T08:40:34.799Z</time></trkpt><trkpt lat="38.1463283" lon="15.7732183"><ele>944.0</ele><time>2026-04-26T08:40:35.8Z</time></trkpt><trkpt lat="38.1464617" lon="15.7733717"><ele>944.0</ele><time>2026-04-26T08:40:36.8Z</time></trkpt><trkpt lat="38.1465833" lon="15.7735317"><ele>944.0</ele><time>2026-04-26T08:40:37.799Z</time></trkpt><trkpt lat="38.146705" lon="15.77369"><ele>947.0</ele><time>2026-04-26T08:40:38.799Z</time></trkpt><trkpt lat="38.1468217" lon="15.7738533"><ele>950.0</ele><time>2026-04-26T08:40:39.8Z</time></trkpt><trkpt lat="38.1469217" lon="15.774025"><ele>953.0</ele><time>2026-04-26T08:40:40.799Z</time></trkpt><trkpt lat="38.1470267" lon="15.7742017"><ele>950.0</ele><time>2026-04-26T08:40:41.8Z</time></trkpt><trkpt lat="38.1471467" lon="15.774365"><ele>947.0</ele><time>2026-04-26T08:40:42.8Z</time></trkpt><trkpt lat="38.14728" lon="15.7745167"><ele>944.0</ele><time>2026-04-26T08:40:43.799Z</time></trkpt><trkpt lat="38.147415" lon="15.7746817"><ele>944.0</ele><time>2026-04-26T08:40:44.799Z</time></trkpt><trkpt lat="38.147565" lon="15.7748567"><ele>944.0</ele><time>2026-04-26T08:40:45.799Z</time></trkpt><trkpt lat="38.1477117" lon="15.7750317"><ele>944.0</ele><time>2026-04-26T08:40:46.8Z</time></trkpt><trkpt lat="38.1478483" lon="15.7752167"><ele>944.3333333333334</ele><time>2026-04-26T08:40:47.799Z</time></trkpt><trkpt lat="38.14798" lon="15.7754133"><ele>944.6666666666667</ele><time>2026-04-26T08:40:48.8Z</time></trkpt><trkpt lat="38.1481" lon="15.7756183"><ele>945.0</ele><time>2026-04-26T08:40:49.799Z</time></trkpt><trkpt lat="38.1482033" lon="15.7758183"><ele>947.5</ele><time>2026-04-26T08:40:50.799Z</time></trkpt><trkpt lat="38.1483017" lon="15.7760033"><ele>950.0</ele><time>2026-04-26T08:40:51.8Z</time></trkpt><trkpt lat="38.1483733" lon="15.776165"><ele>952.5</ele><time>2026-04-26T08:40:52.8Z</time></trkpt><trkpt lat="38.148415" lon="15.7763133"><ele>955.0</ele><time>2026-04-26T08:40:53.8Z</time></trkpt><trkpt lat="38.1484583" lon="15.7764617"><ele>957.75</ele><time>2026-04-26T08:40:54.8Z</time></trkpt><trkpt lat="38.1484817" lon="15.7766133"><ele>960.5</ele><time>2026-04-26T08:40:55.8Z</time></trkpt><trkpt lat="38.14851" lon="15.77676"><ele>963.25</ele><time>2026-04-26T08:40:56.8Z</time></trkpt><trkpt lat="38.1485317" lon="15.7769083"><ele>966.0</ele><time>2026-04-26T08:40:57.8Z</time></trkpt><trkpt lat="38.1485517" lon="15.77709"><ele>967.75</ele><time>2026-04-26T08:40:58.799Z</time></trkpt><trkpt lat="38.148575" lon="15.7772567"><ele>969.5</ele><time>2026-04-26T08:40:59.799Z</time></trkpt><trkpt lat="38.1486083" lon="15.77741"><ele>971.25</ele><time>2026-04-26T08:41:00.799Z</time></trkpt><trkpt lat="38.148635" lon="15.7775583"><ele>973.0</ele><time>2026-04-26T08:41:01.799Z</time></trkpt><trkpt lat="38.1486683" lon="15.77771"><ele>975.5</ele><time>2026-04-26T08:41:02.8Z</time></trkpt><trkpt lat="38.1486917" lon="15.7778667"><ele>978.0</ele><time>2026-04-26T08:41:03.799Z</time></trkpt><trkpt lat="38.14874" lon="15.7780033"><ele>980.5</ele><time>2026-04-26T08:41:04.799Z</time></trkpt><trkpt lat="38.1488083" lon="15.7781433"><ele>983.0</ele><time>2026-04-26T08:41:05.799Z</time></trkpt><trkpt lat="38.1488917" lon="15.7783083"><ele>983.0</ele><time>2026-04-26T08:41:06.799Z</time></trkpt><trkpt lat="38.1489883" lon="15.7784917"><ele>983.0</ele><time>2026-04-26T08:41:07.799Z</time></trkpt><trkpt lat="38.1491167" lon="15.7786767"><ele>983.0</ele><time>2026-04-26T08:41:08.8Z</time></trkpt><trkpt lat="38.14924" lon="15.7788633"><ele>985.0</ele><time>2026-04-26T08:41:09.8Z</time></trkpt><trkpt lat="38.149365" lon="15.7790317"><ele>987.0</ele><time>2026-04-26T08:41:10.799Z</time></trkpt><trkpt lat="38.1494983" lon="15.7791933"><ele>989.0</ele><time>2026-04-26T08:41:11.8Z</time></trkpt><trkpt lat="38.149655" lon="15.7793433"><ele>992.6666666666667</ele><time>2026-04-26T08:41:12.8Z</time></trkpt><trkpt lat="38.1498117" lon="15.7795"><ele>996.3333333333333</ele><time>2026-04-26T08:41:13.799Z</time></trkpt><trkpt lat="38.1499867" lon="15.77964"><ele>1000.0</ele><time>2026-04-26T08:41:14.8Z</time></trkpt><trkpt lat="38.1501567" lon="15.7797783"><ele>1000.0</ele><time>2026-04-26T08:41:15.8Z</time></trkpt><trkpt lat="38.1503117" lon="15.7799283"><ele>1000.0</ele><time>2026-04-26T08:41:16.8Z</time></trkpt><trkpt lat="38.1504467" lon="15.7800683"><ele>1000.0</ele><time>2026-04-26T08:41:17.8Z</time></trkpt><trkpt lat="38.150565" lon="15.7801983"><ele>999.4</ele><time>2026-04-26T08:41:18.799Z</time></trkpt><trkpt lat="38.1506483" lon="15.7803217"><ele>998.8</ele><time>2026-04-26T08:41:19.8Z</time></trkpt><trkpt lat="38.15071" lon="15.78043"><ele>998.2</ele><time>2026-04-26T08:41:20.799Z</time></trkpt><trkpt lat="38.15073" lon="15.7805533"><ele>997.6</ele><time>2026-04-26T08:41:21.8Z</time></trkpt><trkpt lat="38.1507233" lon="15.78069"><ele>997.0</ele><time>2026-04-26T08:41:22.8Z</time></trkpt><trkpt lat="38.1507133" lon="15.7808217"><ele>997.0</ele><time>2026-04-26T08:41:23.8Z</time></trkpt><trkpt lat="38.1507133" lon="15.7809567"><ele>997.0</ele><time>2026-04-26T08:41:24.799Z</time></trkpt><trkpt lat="38.15076" lon="15.781085"><ele>997.0</ele><time>2026-04-26T08:41:25.8Z</time></trkpt><trkpt lat="38.1508417" lon="15.7812033"><ele>997.0</ele><time>2026-04-26T08:41:26.8Z</time></trkpt><trkpt lat="38.1509583" lon="15.7812983"><ele>1004.0</ele><time>2026-04-26T08:41:27.799Z</time></trkpt><trkpt lat="38.15108" lon="15.7813983"><ele>1011.0</ele><time>2026-04-26T08:41:28.8Z</time></trkpt><trkpt lat="38.1511917" lon="15.781495"><ele>1018.0</ele><time>2026-04-26T08:41:29.799Z</time></trkpt><trkpt lat="38.1512867" lon="15.7815983"><ele>1025.0</ele><time>2026-04-26T08:41:30.799Z</time></trkpt><trkpt lat="38.151375" lon="15.78172"><ele>1024.5</ele><time>2026-04-26T08:41:31.799Z</time></trkpt><trkpt lat="38.1514467" lon="15.78185"><ele>1024.0</ele><time>2026-04-26T08:41:32.8Z</time></trkpt><trkpt lat="38.1515167" lon="15.7819917"><ele>1023.5</ele><time>2026-04-26T08:41:33.8Z</time></trkpt><trkpt lat="38.1516033" lon="15.782125"><ele>1023.0</ele><time>2026-04-26T08:41:34.799Z</time></trkpt><trkpt lat="38.1517233" lon="15.78224"><ele>1023.0</ele><time>2026-04-26T08:41:35.799Z</time></trkpt><trkpt lat="38.151845" lon="15.7823467"><ele>1023.0</ele><time>2026-04-26T08:41:36.799Z</time></trkpt><trkpt lat="38.1519733" lon="15.7824683"><ele>1023.0</ele><time>2026-04-26T08:41:37.8Z</time></trkpt><trkpt lat="38.1520817" lon="15.7825883"><ele>1032.0</ele><time>2026-04-26T08:41:38.799Z</time></trkpt><trkpt lat="38.1521817" lon="15.782735"><ele>1041.0</ele><time>2026-04-26T08:41:39.8Z</time></trkpt><trkpt lat="38.152275" lon="15.7829017"><ele>1050.0</ele><time>2026-04-26T08:41:40.799Z</time></trkpt><trkpt lat="38.1523667" lon="15.7830733"><ele>1043.6666666666667</ele><time>2026-04-26T08:41:41.799Z</time></trkpt><trkpt lat="38.15246" lon="15.7832483"><ele>1037.3333333333335</ele><time>2026-04-26T08:41:42.8Z</time></trkpt><trkpt lat="38.1525583" lon="15.78343"><ele>1031.0</ele><time>2026-04-26T08:41:43.799Z</time></trkpt><trkpt lat="38.152655" lon="15.78362"><ele>1031.0</ele><time>2026-04-26T08:41:44.8Z</time></trkpt><trkpt lat="38.152755" lon="15.7838033"><ele>1031.0</ele><time>2026-04-26T08:41:45.8Z</time></trkpt><trkpt lat="38.1528567" lon="15.7839733"><ele>1031.0</ele><time>2026-04-26T08:41:46.8Z</time></trkpt><trkpt lat="38.152945" lon="15.78413"><ele>1031.0</ele><time>2026-04-26T08:41:47.799Z</time></trkpt><trkpt lat="38.1530283" lon="15.7842783"><ele>1031.0</ele><time>2026-04-26T08:41:48.799Z</time></trkpt><trkpt lat="38.153095" lon="15.784425"><ele>1031.0</ele><time>2026-04-26T08:41:49.799Z</time></trkpt><trkpt lat="38.153145" lon="15.784575"><ele>1031.0</ele><time>2026-04-26T08:41:50.799Z</time></trkpt><trkpt lat="38.153165" lon="15.784715"><ele>1032.25</ele><time>2026-04-26T08:41:51.8Z</time></trkpt><trkpt lat="38.1531533" lon="15.784855"><ele>1033.5</ele><time>2026-04-26T08:41:52.799Z</time></trkpt><trkpt lat="38.15311" lon="15.7849967"><ele>1034.75</ele><time>2026-04-26T08:41:53.8Z</time></trkpt><trkpt lat="38.1530083" lon="15.7851333"><ele>1036.0</ele><time>2026-04-26T08:41:54.8Z</time></trkpt><trkpt lat="38.1529083" lon="15.7852683"><ele>1038.75</ele><time>2026-04-26T08:41:55.799Z</time></trkpt><trkpt lat="38.1528267" lon="15.7853967"><ele>1041.5</ele><time>2026-04-26T08:41:56.8Z</time></trkpt><trkpt lat="38.1528033" lon="15.7855267"><ele>1044.25</ele><time>2026-04-26T08:41:57.8Z</time></trkpt><trkpt lat="38.1528067" lon="15.78567"><ele>1047.0</ele><time>2026-04-26T08:41:58.799Z</time></trkpt><trkpt lat="38.1528483" lon="15.785815"><ele>1047.0</ele><time>2026-04-26T08:41:59.799Z</time></trkpt><trkpt lat="38.152895" lon="15.7859683"><ele>1047.0</ele><time>2026-04-26T08:42:00.8Z</time></trkpt><trkpt lat="38.1529283" lon="15.7861233"><ele>1047.0</ele><time>2026-04-26T08:42:01.799Z</time></trkpt><trkpt lat="38.1529367" lon="15.7862733"><ele>1047.0</ele><time>2026-04-26T08:42:02.799Z</time></trkpt><trkpt lat="38.15293" lon="15.7864317"><ele>1049.5</ele><time>2026-04-26T08:42:03.799Z</time></trkpt><trkpt lat="38.1529433" lon="15.78658"><ele>1052.0</ele><time>2026-04-26T08:42:04.799Z</time></trkpt><trkpt lat="38.1529733" lon="15.786715"><ele>1054.5</ele><time>2026-04-26T08:42:05.8Z</time></trkpt><trkpt lat="38.15304" lon="15.7868333"><ele>1057.0</ele><time>2026-04-26T08:42:06.8Z</time></trkpt><trkpt lat="38.1531233" lon="15.786935"><ele>1058.25</ele><time>2026-04-26T08:42:07.8Z</time></trkpt><trkpt lat="38.1532017" lon="15.78706"><ele>1059.5</ele><time>2026-04-26T08:42:08.799Z</time></trkpt><trkpt lat="38.15326" lon="15.7871967"><ele>1060.75</ele><time>2026-04-26T08:42:09.799Z</time></trkpt><trkpt lat="38.1532917" lon="15.78734"><ele>1062.0</ele><time>2026-04-26T08:42:10.8Z</time></trkpt><trkpt lat="38.1533383" lon="15.7874883"><ele>1060.5</ele><time>2026-04-26T08:42:11.8Z</time></trkpt><trkpt lat="38.1534167" lon="15.78762"><ele>1059.0</ele><time>2026-04-26T08:42:12.799Z</time></trkpt><trkpt lat="38.1535283" lon="15.7877217"><ele>1057.5</ele><time>2026-04-26T08:42:13.799Z</time></trkpt><trkpt lat="38.1536433" lon="15.7878083"><ele>1056.0</ele><time>2026-04-26T08:42:14.8Z</time></trkpt><trkpt lat="38.1537583" lon="15.7879067"><ele>1056.0</ele><time>2026-04-26T08:42:15.799Z</time></trkpt><trkpt lat="38.15385" lon="15.788035"><ele>1056.0</ele><time>2026-04-26T08:42:16.799Z</time></trkpt><trkpt lat="38.1539133" lon="15.7881717"><ele>1056.0</ele><time>2026-04-26T08:42:17.799Z</time></trkpt><trkpt lat="38.1539517" lon="15.7883167"><ele>1056.0</ele><time>2026-04-26T08:42:18.799Z</time></trkpt><trkpt lat="38.15395" lon="15.7884517"><ele>1054.5</ele><time>2026-04-26T08:42:19.8Z</time></trkpt><trkpt lat="38.153925" lon="15.7885667"><ele>1053.0</ele><time>2026-04-26T08:42:20.799Z</time></trkpt><trkpt lat="38.1538483" lon="15.7886633"><ele>1051.5</ele><time>2026-04-26T08:42:21.8Z</time></trkpt><trkpt lat="38.1537567" lon="15.78875"><ele>1050.0</ele><time>2026-04-26T08:42:22.799Z</time></trkpt><trkpt lat="38.1536467" lon="15.7888533"><ele>1050.0</ele><time>2026-04-26T08:42:23.8Z</time></trkpt><trkpt lat="38.1535433" lon="15.788975"><ele>1050.0</ele><time>2026-04-26T08:42:24.799Z</time></trkpt><trkpt lat="38.153455" lon="15.7891267"><ele>1050.0</ele><time>2026-04-26T08:42:25.799Z</time></trkpt><trkpt lat="38.15335" lon="15.7892667"><ele>1050.0</ele><time>2026-04-26T08:42:26.799Z</time></trkpt><trkpt lat="38.153245" lon="15.789405"><ele>1049.5</ele><time>2026-04-26T08:42:27.799Z</time></trkpt><trkpt lat="38.1531383" lon="15.7895267"><ele>1049.0</ele><time>2026-04-26T08:42:28.799Z</time></trkpt><trkpt lat="38.1530283" lon="15.78963"><ele>1048.5</ele><time>2026-04-26T08:42:29.799Z</time></trkpt><trkpt lat="38.1529233" lon="15.7897217"><ele>1048.0</ele><time>2026-04-26T08:42:30.8Z</time></trkpt><trkpt lat="38.1528067" lon="15.789805"><ele>1048.0</ele><time>2026-04-26T08:42:31.799Z</time></trkpt><trkpt lat="38.152685" lon="15.7899117"><ele>1048.0</ele><time>2026-04-26T08:42:32.799Z</time></trkpt><trkpt lat="38.1525667" lon="15.7899933"><ele>1048.0</ele><time>2026-04-26T08:42:33.8Z</time></trkpt><trkpt lat="38.1524383" lon="15.7900333"><ele>1048.0</ele><time>2026-04-26T08:42:34.799Z</time></trkpt><trkpt lat="38.1523017" lon="15.7900383"><ele>1048.25</ele><time>2026-04-26T08:42:35.8Z</time></trkpt><trkpt lat="38.1521517" lon="15.7900517"><ele>1048.5</ele><time>2026-04-26T08:42:36.799Z</time></trkpt><trkpt lat="38.1520067" lon="15.7900817"><ele>1048.75</ele><time>2026-04-26T08:42:37.799Z</time></trkpt><trkpt lat="38.1518683" lon="15.7901467"><ele>1049.0</ele><time>2026-04-26T08:42:38.799Z</time></trkpt><trkpt lat="38.15173" lon="15.7902283"><ele>1049.6666666666667</ele><time>2026-04-26T08:42:39.799Z</time></trkpt><trkpt lat="38.1515933" lon="15.7903267"><ele>1050.3333333333333</ele><time>2026-04-26T08:42:40.799Z</time></trkpt><trkpt lat="38.15145" lon="15.7904167"><ele>1051.0</ele><time>2026-04-26T08:42:41.799Z</time></trkpt><trkpt lat="38.1513117" lon="15.7905083"><ele>1051.0</ele><time>2026-04-26T08:42:42.799Z</time></trkpt><trkpt lat="38.151175" lon="15.79062"><ele>1051.0</ele><time>2026-04-26T08:42:43.799Z</time></trkpt><trkpt lat="38.1510483" lon="15.7907467"><ele>1051.0</ele><time>2026-04-26T08:42:44.799Z</time></trkpt><trkpt lat="38.1509367" lon="15.7908867"><ele>1051.3333333333333</ele><time>2026-04-26T08:42:45.799Z</time></trkpt><trkpt lat="38.1508283" lon="15.791045"><ele>1051.6666666666667</ele><time>2026-04-26T08:42:46.8Z</time></trkpt><trkpt lat="38.1507433" lon="15.79122"><ele>1052.0</ele><time>2026-04-26T08:42:47.8Z</time></trkpt><trkpt lat="38.1506817" lon="15.7913917"><ele>1057.75</ele><time>2026-04-26T08:42:48.799Z</time></trkpt><trkpt lat="38.1506417" lon="15.7915567"><ele>1063.5</ele><time>2026-04-26T08:42:49.8Z</time></trkpt><trkpt lat="38.1506233" lon="15.7917317"><ele>1069.25</ele><time>2026-04-26T08:42:50.799Z</time></trkpt><trkpt lat="38.1506483" lon="15.7919217"><ele>1075.0</ele><time>2026-04-26T08:42:51.799Z</time></trkpt><trkpt lat="38.1506883" lon="15.7921"><ele>1075.5</ele><time>2026-04-26T08:42:52.8Z</time></trkpt><trkpt lat="38.1507533" lon="15.7922583"><ele>1076.0</ele><time>2026-04-26T08:42:53.799Z</time></trkpt><trkpt lat="38.1508417" lon="15.7924017"><ele>1076.5</ele><time>2026-04-26T08:42:54.799Z</time></trkpt><trkpt lat="38.15094" lon="15.7925383"><ele>1077.0</ele><time>2026-04-26T08:42:55.799Z</time></trkpt><trkpt lat="38.1510417" lon="15.7926817"><ele>1077.0</ele><time>2026-04-26T08:42:56.799Z</time></trkpt><trkpt lat="38.1511367" lon="15.7928267"><ele>1077.0</ele><time>2026-04-26T08:42:57.799Z</time></trkpt><trkpt lat="38.1512183" lon="15.7929667"><ele>1077.0</ele><time>2026-04-26T08:42:58.8Z</time></trkpt><trkpt lat="38.1512733" lon="15.793125"><ele>1077.0</ele><time>2026-04-26T08:42:59.8Z</time></trkpt><trkpt lat="38.1513033" lon="15.7932917"><ele>1077.0</ele><time>2026-04-26T08:43:00.8Z</time></trkpt><trkpt lat="38.1513167" lon="15.7934767"><ele>1077.0</ele><time>2026-04-26T08:43:01.799Z</time></trkpt><trkpt lat="38.1513367" lon="15.793655"><ele>1077.0</ele><time>2026-04-26T08:43:02.8Z</time></trkpt><trkpt lat="38.15137" lon="15.79381"><ele>1077.0</ele><time>2026-04-26T08:43:03.799Z</time></trkpt><trkpt lat="38.15144" lon="15.7939333"><ele>1077.0</ele><time>2026-04-26T08:43:04.8Z</time></trkpt><trkpt lat="38.1515083" lon="15.7940417"><ele>1077.0</ele><time>2026-04-26T08:43:05.799Z</time></trkpt><trkpt lat="38.1515483" lon="15.7941283"><ele>1077.0</ele><time>2026-04-26T08:43:06.8Z</time></trkpt><trkpt lat="38.1515283" lon="15.7942483"><ele>1077.0</ele><time>2026-04-26T08:43:08.799Z</time></trkpt><trkpt lat="38.1514333" lon="15.79417"><ele>1077.0</ele><time>2026-04-26T08:43:10.8Z</time></trkpt><trkpt lat="38.1513733" lon="15.79404"><ele>1082.0</ele><time>2026-04-26T08:43:11.8Z</time></trkpt><trkpt lat="38.151285" lon="15.7938867"><ele>1087.0</ele><time>2026-04-26T08:43:12.799Z</time></trkpt><trkpt lat="38.15119" lon="15.7937317"><ele>1092.0</ele><time>2026-04-26T08:43:13.799Z</time></trkpt><trkpt lat="38.1510983" lon="15.793615"><ele>1097.0</ele><time>2026-04-26T08:43:14.8Z</time></trkpt><trkpt lat="38.1510167" lon="15.79354"><ele>1097.0</ele><time>2026-04-26T08:43:15.799Z</time></trkpt><trkpt lat="38.150945" lon="15.79349"><ele>1097.0</ele><time>2026-04-26T08:43:16.799Z</time></trkpt><trkpt lat="38.1508633" lon="15.79348"><ele>1097.0</ele><time>2026-04-26T08:43:17.8Z</time></trkpt><trkpt lat="38.150785" lon="15.793515"><ele>1097.0</ele><time>2026-04-26T08:43:18.799Z</time></trkpt><trkpt lat="38.1507033" lon="15.793575"><ele>1097.0</ele><time>2026-04-26T08:43:19.799Z</time></trkpt><trkpt lat="38.1506317" lon="15.79364"><ele>1097.0</ele><time>2026-04-26T08:43:20.799Z</time></trkpt><trkpt lat="38.1505767" lon="15.7937117"><ele>1093.2</ele><time>2026-04-26T08:43:21.8Z</time></trkpt><trkpt lat="38.1505317" lon="15.7937883"><ele>1089.4</ele><time>2026-04-26T08:43:22.799Z</time></trkpt><trkpt lat="38.1504967" lon="15.7938783"><ele>1085.6</ele><time>2026-04-26T08:43:23.8Z</time></trkpt><trkpt lat="38.150475" lon="15.793985"><ele>1081.8</ele><time>2026-04-26T08:43:24.799Z</time></trkpt><trkpt lat="38.1504633" lon="15.79411"><ele>1078.0</ele><time>2026-04-26T08:43:25.799Z</time></trkpt><trkpt lat="38.1504567" lon="15.7942583"><ele>1080.75</ele><time>2026-04-26T08:43:26.799Z</time></trkpt><trkpt lat="38.1504467" lon="15.7943983"><ele>1083.5</ele><time>2026-04-26T08:43:27.8Z</time></trkpt><trkpt lat="38.1504233" lon="15.7945483"><ele>1086.25</ele><time>2026-04-26T08:43:28.8Z</time></trkpt><trkpt lat="38.1504" lon="15.7947017"><ele>1089.0</ele><time>2026-04-26T08:43:29.799Z</time></trkpt><trkpt lat="38.1503667" lon="15.7948717"><ele>1089.0</ele><time>2026-04-26T08:43:30.799Z</time></trkpt><trkpt lat="38.15034" lon="15.79505"><ele>1089.0</ele><time>2026-04-26T08:43:31.799Z</time></trkpt><trkpt lat="38.1503" lon="15.795225"><ele>1089.0</ele><time>2026-04-26T08:43:32.799Z</time></trkpt><trkpt lat="38.150245" lon="15.7954017"><ele>1089.0</ele><time>2026-04-26T08:43:33.8Z</time></trkpt><trkpt lat="38.1501817" lon="15.7955817"><ele>1094.6666666666667</ele><time>2026-04-26T08:43:34.8Z</time></trkpt><trkpt lat="38.15007" lon="15.7957583"><ele>1100.3333333333335</ele><time>2026-04-26T08:43:35.799Z</time></trkpt><trkpt lat="38.1499433" lon="15.795935"><ele>1106.0</ele><time>2026-04-26T08:43:36.799Z</time></trkpt><trkpt lat="38.1498333" lon="15.7961133"><ele>1106.3333333333335</ele><time>2026-04-26T08:43:37.799Z</time></trkpt><trkpt lat="38.1497317" lon="15.796295"><ele>1106.6666666666667</ele><time>2026-04-26T08:43:38.799Z</time></trkpt><trkpt lat="38.14964" lon="15.796475"><ele>1107.0</ele><time>2026-04-26T08:43:39.8Z</time></trkpt><trkpt lat="38.1495567" lon="15.79664"><ele>1107.0</ele><time>2026-04-26T08:43:40.8Z</time></trkpt><trkpt lat="38.1494883" lon="15.796795"><ele>1107.0</ele><time>2026-04-26T08:43:41.8Z</time></trkpt><trkpt lat="38.1494367" lon="15.7969467"><ele>1107.0</ele><time>2026-04-26T08:43:42.8Z</time></trkpt><trkpt lat="38.1494183" lon="15.7970883"><ele>1107.0</ele><time>2026-04-26T08:43:43.799Z</time></trkpt><trkpt lat="38.1494367" lon="15.79723"><ele>1109.4</ele><time>2026-04-26T08:43:44.799Z</time></trkpt><trkpt lat="38.1495" lon="15.79732"><ele>1111.8000000000002</ele><time>2026-04-26T08:43:45.799Z</time></trkpt><trkpt lat="38.1496017" lon="15.7973583"><ele>1114.2</ele><time>2026-04-26T08:43:46.799Z</time></trkpt><trkpt lat="38.14972" lon="15.7973483"><ele>1116.6000000000001</ele><time>2026-04-26T08:43:47.799Z</time></trkpt><trkpt lat="38.1498433" lon="15.7973033"><ele>1119.0</ele><time>2026-04-26T08:43:48.8Z</time></trkpt><trkpt lat="38.1499667" lon="15.79725"><ele>1123.0</ele><time>2026-04-26T08:43:49.8Z</time></trkpt><trkpt lat="38.150085" lon="15.797235"><ele>1127.0</ele><time>2026-04-26T08:43:50.799Z</time></trkpt><trkpt lat="38.150205" lon="15.7972517"><ele>1131.0</ele><time>2026-04-26T08:43:51.8Z</time></trkpt><trkpt lat="38.15032" lon="15.7973067"><ele>1135.0</ele><time>2026-04-26T08:43:52.8Z</time></trkpt><trkpt lat="38.1504067" lon="15.7974067"><ele>1135.0</ele><time>2026-04-26T08:43:53.799Z</time></trkpt><trkpt lat="38.1504583" lon="15.7975367"><ele>1135.0</ele><time>2026-04-26T08:43:54.799Z</time></trkpt><trkpt lat="38.15049" lon="15.7977"><ele>1135.0</ele><time>2026-04-26T08:43:55.8Z</time></trkpt><trkpt lat="38.1505083" lon="15.797895"><ele>1135.0</ele><time>2026-04-26T08:43:56.799Z</time></trkpt><trkpt lat="38.1505" lon="15.798105"><ele>1136.6666666666665</ele><time>2026-04-26T08:43:57.8Z</time></trkpt><trkpt lat="38.1504783" lon="15.7983233"><ele>1138.3333333333333</ele><time>2026-04-26T08:43:58.799Z</time></trkpt><trkpt lat="38.15045" lon="15.7985683"><ele>1140.0</ele><time>2026-04-26T08:43:59.8Z</time></trkpt><trkpt lat="38.1504267" lon="15.7988133"><ele>1141.6666666666667</ele><time>2026-04-26T08:44:00.8Z</time></trkpt><trkpt lat="38.1504117" lon="15.7990683"><ele>1143.3333333333335</ele><time>2026-04-26T08:44:01.799Z</time></trkpt><trkpt lat="38.1504017" lon="15.7993233"><ele>1145.0</ele><time>2026-04-26T08:44:02.799Z</time></trkpt><trkpt lat="38.1504017" lon="15.7995733"><ele>1146.3333333333335</ele><time>2026-04-26T08:44:03.799Z</time></trkpt><trkpt lat="38.1504067" lon="15.79982"><ele>1147.6666666666667</ele><time>2026-04-26T08:44:04.799Z</time></trkpt><trkpt lat="38.1504117" lon="15.8000717"><ele>1149.0</ele><time>2026-04-26T08:44:05.799Z</time></trkpt><trkpt lat="38.150415" lon="15.8003233"><ele>1150.0</ele><time>2026-04-26T08:44:06.8Z</time></trkpt><trkpt lat="38.15042" lon="15.80057"><ele>1151.0</ele><time>2026-04-26T08:44:07.799Z</time></trkpt><trkpt lat="38.1504217" lon="15.8008183"><ele>1152.0</ele><time>2026-04-26T08:44:08.8Z</time></trkpt><trkpt lat="38.1504267" lon="15.8010683"><ele>1153.3333333333333</ele><time>2026-04-26T08:44:09.8Z</time></trkpt><trkpt lat="38.1504433" lon="15.8013367"><ele>1154.6666666666665</ele><time>2026-04-26T08:44:10.799Z</time></trkpt><trkpt lat="38.1504567" lon="15.801595"><ele>1156.0</ele><time>2026-04-26T08:44:11.799Z</time></trkpt><trkpt lat="38.15046" lon="15.8018633"><ele>1156.6666666666665</ele><time>2026-04-26T08:44:12.8Z</time></trkpt><trkpt lat="38.150465" lon="15.8021183"><ele>1157.3333333333333</ele><time>2026-04-26T08:44:13.8Z</time></trkpt><trkpt lat="38.1504667" lon="15.8024017"><ele>1158.0</ele><time>2026-04-26T08:44:14.799Z</time></trkpt><trkpt lat="38.150475" lon="15.80268"><ele>1158.6666666666667</ele><time>2026-04-26T08:44:15.799Z</time></trkpt><trkpt lat="38.15047" lon="15.8029317"><ele>1159.3333333333335</ele><time>2026-04-26T08:44:16.799Z</time></trkpt><trkpt lat="38.1504483" lon="15.8031767"><ele>1160.0</ele><time>2026-04-26T08:44:17.8Z</time></trkpt><trkpt lat="38.1504317" lon="15.8034"><ele>1162.3333333333335</ele><time>2026-04-26T08:44:18.8Z</time></trkpt><trkpt lat="38.1503917" lon="15.8036217"><ele>1164.6666666666667</ele><time>2026-04-26T08:44:19.799Z</time></trkpt><trkpt lat="38.1503433" lon="15.8038567"><ele>1167.0</ele><time>2026-04-26T08:44:20.8Z</time></trkpt><trkpt lat="38.150285" lon="15.8041017"><ele>1168.6666666666667</ele><time>2026-04-26T08:44:21.799Z</time></trkpt><trkpt lat="38.15022" lon="15.804335"><ele>1170.3333333333335</ele><time>2026-04-26T08:44:22.799Z</time></trkpt><trkpt lat="38.15016" lon="15.804605"><ele>1172.0</ele><time>2026-04-26T08:44:23.8Z</time></trkpt><trkpt lat="38.1501017" lon="15.8048917"><ele>1174.0</ele><time>2026-04-26T08:44:24.799Z</time></trkpt><trkpt lat="38.1500683" lon="15.805215"><ele>1176.0</ele><time>2026-04-26T08:44:25.799Z</time></trkpt><trkpt lat="38.1500467" lon="15.8055633"><ele>1176.0</ele><time>2026-04-26T08:44:26.799Z</time></trkpt><trkpt lat="38.1500367" lon="15.8059067"><ele>1176.0</ele><time>2026-04-26T08:44:27.8Z</time></trkpt><trkpt lat="38.150025" lon="15.8062683"><ele>1179.5</ele><time>2026-04-26T08:44:28.799Z</time></trkpt><trkpt lat="38.1500183" lon="15.8066267"><ele>1183.0</ele><time>2026-04-26T08:44:29.8Z</time></trkpt><trkpt lat="38.1500117" lon="15.806945"><ele>1185.0</ele><time>2026-04-26T08:44:30.8Z</time></trkpt><trkpt lat="38.1499983" lon="15.8072417"><ele>1187.0</ele><time>2026-04-26T08:44:31.8Z</time></trkpt><trkpt lat="38.1499933" lon="15.8075033"><ele>1189.0</ele><time>2026-04-26T08:44:32.799Z</time></trkpt><trkpt lat="38.1499767" lon="15.8077633"><ele>1190.3333333333333</ele><time>2026-04-26T08:44:33.8Z</time></trkpt><trkpt lat="38.1499667" lon="15.8080217"><ele>1191.6666666666667</ele><time>2026-04-26T08:44:34.799Z</time></trkpt><trkpt lat="38.1499567" lon="15.808275"><ele>1193.0</ele><time>2026-04-26T08:44:35.799Z</time></trkpt><trkpt lat="38.1499517" lon="15.808545"><ele>1195.0</ele><time>2026-04-26T08:44:36.799Z</time></trkpt><trkpt lat="38.1499417" lon="15.8088017"><ele>1197.0</ele><time>2026-04-26T08:44:37.799Z</time></trkpt><trkpt lat="38.1499367" lon="15.8093017"><ele>1199.3333333333333</ele><time>2026-04-26T08:44:39.8Z</time></trkpt><trkpt lat="38.149935" lon="15.8095533"><ele>1201.6666666666665</ele><time>2026-04-26T08:44:40.8Z</time></trkpt><trkpt lat="38.1499217" lon="15.8097883"><ele>1204.0</ele><time>2026-04-26T08:44:41.799Z</time></trkpt><trkpt lat="38.149915" lon="15.81003"><ele>1205.0</ele><time>2026-04-26T08:44:42.799Z</time></trkpt><trkpt lat="38.1498967" lon="15.8102717"><ele>1206.0</ele><time>2026-04-26T08:44:43.799Z</time></trkpt><trkpt lat="38.1498783" lon="15.81049"><ele>1207.0</ele><time>2026-04-26T08:44:44.8Z</time></trkpt><trkpt lat="38.1498583" lon="15.8107083"><ele>1208.6666666666665</ele><time>2026-04-26T08:44:45.799Z</time></trkpt><trkpt lat="38.1498083" lon="15.810915"><ele>1210.3333333333333</ele><time>2026-04-26T08:44:46.8Z</time></trkpt><trkpt lat="38.1497383" lon="15.8111217"><ele>1212.0</ele><time>2026-04-26T08:44:47.799Z</time></trkpt><trkpt lat="38.1496667" lon="15.8113333"><ele>1214.0</ele><time>2026-04-26T08:44:48.799Z</time></trkpt><trkpt lat="38.149585" lon="15.811545"><ele>1216.0</ele><time>2026-04-26T08:44:49.799Z</time></trkpt><trkpt lat="38.14949" lon="15.81176"><ele>1218.0</ele><time>2026-04-26T08:44:50.799Z</time></trkpt><trkpt lat="38.1493967" lon="15.8119733"><ele>1219.0</ele><time>2026-04-26T08:44:51.799Z</time></trkpt><trkpt lat="38.14931" lon="15.8121867"><ele>1220.0</ele><time>2026-04-26T08:44:52.8Z</time></trkpt><trkpt lat="38.149225" lon="15.8124017"><ele>1221.0</ele><time>2026-04-26T08:44:53.8Z</time></trkpt><trkpt lat="38.149145" lon="15.8126117"><ele>1221.25</ele><time>2026-04-26T08:44:54.799Z</time></trkpt><trkpt lat="38.149065" lon="15.8128"><ele>1221.5</ele><time>2026-04-26T08:44:55.8Z</time></trkpt><trkpt lat="38.1489867" lon="15.81296"><ele>1221.75</ele><time>2026-04-26T08:44:56.799Z</time></trkpt><trkpt lat="38.1489133" lon="15.813075"><ele>1222.0</ele><time>2026-04-26T08:44:57.8Z</time></trkpt><trkpt lat="38.14882" lon="15.8131317"><ele>1225.25</ele><time>2026-04-26T08:44:58.8Z</time></trkpt><trkpt lat="38.1487117" lon="15.8131383"><ele>1228.5</ele><time>2026-04-26T08:44:59.8Z</time></trkpt><trkpt lat="38.1485917" lon="15.8131117"><ele>1231.75</ele><time>2026-04-26T08:45:00.8Z</time></trkpt><trkpt lat="38.1484617" lon="15.8130717"><ele>1235.0</ele><time>2026-04-26T08:45:01.8Z</time></trkpt><trkpt lat="38.1483333" lon="15.813025"><ele>1235.0</ele><time>2026-04-26T08:45:02.799Z</time></trkpt><trkpt lat="38.148215" lon="15.8129733"><ele>1235.0</ele><time>2026-04-26T08:45:03.799Z</time></trkpt><trkpt lat="38.1481067" lon="15.8129117"><ele>1235.0</ele><time>2026-04-26T08:45:04.799Z</time></trkpt><trkpt lat="38.14801" lon="15.81283"><ele>1235.0</ele><time>2026-04-26T08:45:05.8Z</time></trkpt><trkpt lat="38.1479233" lon="15.812725"><ele>1237.25</ele><time>2026-04-26T08:45:06.799Z</time></trkpt><trkpt lat="38.147855" lon="15.812595"><ele>1239.5</ele><time>2026-04-26T08:45:07.799Z</time></trkpt><trkpt lat="38.1477933" lon="15.8124467"><ele>1241.75</ele><time>2026-04-26T08:45:08.8Z</time></trkpt><trkpt lat="38.147725" lon="15.812295"><ele>1244.0</ele><time>2026-04-26T08:45:09.8Z</time></trkpt><trkpt lat="38.1476567" lon="15.8121317"><ele>1244.0</ele><time>2026-04-26T08:45:10.8Z</time></trkpt><trkpt lat="38.1475833" lon="15.8119633"><ele>1244.0</ele><time>2026-04-26T08:45:11.8Z</time></trkpt><trkpt lat="38.1475133" lon="15.8118117"><ele>1244.0</ele><time>2026-04-26T08:45:12.799Z</time></trkpt><trkpt lat="38.1474383" lon="15.8116983"><ele>1244.0</ele><time>2026-04-26T08:45:13.799Z</time></trkpt><trkpt lat="38.1473417" lon="15.8116267"><ele>1241.25</ele><time>2026-04-26T08:45:14.8Z</time></trkpt><trkpt lat="38.14723" lon="15.811605"><ele>1238.5</ele><time>2026-04-26T08:45:15.799Z</time></trkpt><trkpt lat="38.1471083" lon="15.81163"><ele>1235.75</ele><time>2026-04-26T08:45:16.8Z</time></trkpt><trkpt lat="38.14701" lon="15.8117017"><ele>1233.0</ele><time>2026-04-26T08:45:17.8Z</time></trkpt><trkpt lat="38.1469483" lon="15.8118083"><ele>1235.25</ele><time>2026-04-26T08:45:18.799Z</time></trkpt><trkpt lat="38.1469233" lon="15.8119317"><ele>1237.5</ele><time>2026-04-26T08:45:19.799Z</time></trkpt><trkpt lat="38.1469283" lon="15.8120817"><ele>1239.75</ele><time>2026-04-26T08:45:20.8Z</time></trkpt><trkpt lat="38.1469683" lon="15.8122667"><ele>1242.0</ele><time>2026-04-26T08:45:21.799Z</time></trkpt><trkpt lat="38.1470283" lon="15.8124633"><ele>1242.0</ele><time>2026-04-26T08:45:22.799Z</time></trkpt><trkpt lat="38.1470617" lon="15.8126517"><ele>1242.0</ele><time>2026-04-26T08:45:23.799Z</time></trkpt><trkpt lat="38.14706" lon="15.8128217"><ele>1242.0</ele><time>2026-04-26T08:45:24.8Z</time></trkpt><trkpt lat="38.147035" lon="15.8129933"><ele>1242.0</ele><time>2026-04-26T08:45:25.799Z</time></trkpt><trkpt lat="38.1469867" lon="15.8131567"><ele>1246.3333333333333</ele><time>2026-04-26T08:45:26.8Z</time></trkpt><trkpt lat="38.146915" lon="15.8133283"><ele>1250.6666666666665</ele><time>2026-04-26T08:45:27.799Z</time></trkpt><trkpt lat="38.1468117" lon="15.81349"><ele>1255.0</ele><time>2026-04-26T08:45:28.799Z</time></trkpt><trkpt lat="38.146695" lon="15.813645"><ele>1257.0</ele><time>2026-04-26T08:45:29.799Z</time></trkpt><trkpt lat="38.1465683" lon="15.8137967"><ele>1259.0</ele><time>2026-04-26T08:45:30.799Z</time></trkpt><trkpt lat="38.14643" lon="15.8139617"><ele>1261.0</ele><time>2026-04-26T08:45:31.8Z</time></trkpt><trkpt lat="38.14628" lon="15.8141217"><ele>1262.3333333333333</ele><time>2026-04-26T08:45:32.8Z</time></trkpt><trkpt lat="38.1461283" lon="15.81427"><ele>1263.6666666666667</ele><time>2026-04-26T08:45:33.799Z</time></trkpt><trkpt lat="38.14599" lon="15.8144283"><ele>1265.0</ele><time>2026-04-26T08:45:34.799Z</time></trkpt><trkpt lat="38.1458417" lon="15.8145833"><ele>1268.0</ele><time>2026-04-26T08:45:35.8Z</time></trkpt><trkpt lat="38.1456983" lon="15.8147483"><ele>1271.0</ele><time>2026-04-26T08:45:36.8Z</time></trkpt><trkpt lat="38.1455733" lon="15.8148883"><ele>1274.0</ele><time>2026-04-26T08:45:37.799Z</time></trkpt><trkpt lat="38.1454367" lon="15.8149933"><ele>1274.0</ele><time>2026-04-26T08:45:38.799Z</time></trkpt><trkpt lat="38.1452983" lon="15.8150567"><ele>1274.0</ele><time>2026-04-26T08:45:39.799Z</time></trkpt><trkpt lat="38.1451667" lon="15.8150833"><ele>1274.0</ele><time>2026-04-26T08:45:40.8Z</time></trkpt><trkpt lat="38.145045" lon="15.815055"><ele>1274.0</ele><time>2026-04-26T08:45:41.799Z</time></trkpt><trkpt lat="38.1449317" lon="15.81501"><ele>1273.0</ele><time>2026-04-26T08:45:42.799Z</time></trkpt><trkpt lat="38.1448133" lon="15.815005"><ele>1272.0</ele><time>2026-04-26T08:45:43.8Z</time></trkpt><trkpt lat="38.1447133" lon="15.8150467"><ele>1271.0</ele><time>2026-04-26T08:45:44.8Z</time></trkpt><trkpt lat="38.1446183" lon="15.81514"><ele>1270.0</ele><time>2026-04-26T08:45:45.799Z</time></trkpt><trkpt lat="38.144545" lon="15.8152767"><ele>1272.0</ele><time>2026-04-26T08:45:46.8Z</time></trkpt><trkpt lat="38.1444967" lon="15.8154333"><ele>1274.0</ele><time>2026-04-26T08:45:47.8Z</time></trkpt><trkpt lat="38.1444833" lon="15.8156"><ele>1276.0</ele><time>2026-04-26T08:45:48.799Z</time></trkpt><trkpt lat="38.1445083" lon="15.8157583"><ele>1278.0</ele><time>2026-04-26T08:45:49.8Z</time></trkpt><trkpt lat="38.144565" lon="15.815895"><ele>1279.75</ele><time>2026-04-26T08:45:50.799Z</time></trkpt><trkpt lat="38.1446633" lon="15.8160033"><ele>1281.5</ele><time>2026-04-26T08:45:51.8Z</time></trkpt><trkpt lat="38.1447817" lon="15.8160833"><ele>1283.25</ele><time>2026-04-26T08:45:52.799Z</time></trkpt><trkpt lat="38.1449" lon="15.816155"><ele>1285.0</ele><time>2026-04-26T08:45:53.799Z</time></trkpt><trkpt lat="38.144995" lon="15.8162533"><ele>1285.75</ele><time>2026-04-26T08:45:54.799Z</time></trkpt><trkpt lat="38.1450467" lon="15.8163533"><ele>1286.5</ele><time>2026-04-26T08:45:55.8Z</time></trkpt><trkpt lat="38.145065" lon="15.816485"><ele>1287.25</ele><time>2026-04-26T08:45:56.799Z</time></trkpt><trkpt lat="38.1450367" lon="15.8166317"><ele>1288.0</ele><time>2026-04-26T08:45:57.8Z</time></trkpt><trkpt lat="38.1449967" lon="15.8168017"><ele>1288.6666666666665</ele><time>2026-04-26T08:45:58.799Z</time></trkpt><trkpt lat="38.1449483" lon="15.8170017"><ele>1289.3333333333333</ele><time>2026-04-26T08:45:59.799Z</time></trkpt><trkpt lat="38.144915" lon="15.81721"><ele>1290.0</ele><time>2026-04-26T08:46:00.799Z</time></trkpt><trkpt lat="38.1448767" lon="15.8174233"><ele>1290.0</ele><time>2026-04-26T08:46:01.799Z</time></trkpt><trkpt lat="38.1448283" lon="15.8176417"><ele>1290.0</ele><time>2026-04-26T08:46:02.8Z</time></trkpt><trkpt lat="38.1447833" lon="15.8178717"><ele>1290.0</ele><time>2026-04-26T08:46:03.799Z</time></trkpt><trkpt lat="38.1447367" lon="15.81812"><ele>1291.0</ele><time>2026-04-26T08:46:04.799Z</time></trkpt><trkpt lat="38.1446833" lon="15.8183883"><ele>1292.0</ele><time>2026-04-26T08:46:05.799Z</time></trkpt><trkpt lat="38.1446267" lon="15.8186733"><ele>1293.0</ele><time>2026-04-26T08:46:06.799Z</time></trkpt><trkpt lat="38.1445667" lon="15.8189617"><ele>1294.0</ele><time>2026-04-26T08:46:07.799Z</time></trkpt><trkpt lat="38.1445" lon="15.8192533"><ele>1295.0</ele><time>2026-04-26T08:46:08.8Z</time></trkpt><trkpt lat="38.1444333" lon="15.8195383"><ele>1296.5</ele><time>2026-04-26T08:46:09.799Z</time></trkpt><trkpt lat="38.1443567" lon="15.8198267"><ele>1298.0</ele><time>2026-04-26T08:46:10.8Z</time></trkpt><trkpt lat="38.14429" lon="15.8200983"><ele>1299.5</ele><time>2026-04-26T08:46:11.8Z</time></trkpt><trkpt lat="38.1442133" lon="15.8203783"><ele>1301.0</ele><time>2026-04-26T08:46:12.8Z</time></trkpt><trkpt lat="38.1441467" lon="15.8206583"><ele>1301.0</ele><time>2026-04-26T08:46:13.8Z</time></trkpt><trkpt lat="38.14407" lon="15.820945"><ele>1301.0</ele><time>2026-04-26T08:46:14.799Z</time></trkpt><trkpt lat="38.144" lon="15.8212317"><ele>1302.0</ele><time>2026-04-26T08:46:15.8Z</time></trkpt><trkpt lat="38.1439333" lon="15.8215183"><ele>1303.0</ele><time>2026-04-26T08:46:16.799Z</time></trkpt><trkpt lat="38.1438683" lon="15.8217967"><ele>1304.5</ele><time>2026-04-26T08:46:17.799Z</time></trkpt><trkpt lat="38.1438033" lon="15.822075"><ele>1306.0</ele><time>2026-04-26T08:46:18.8Z</time></trkpt><trkpt lat="38.1437383" lon="15.8223467"><ele>1306.0</ele><time>2026-04-26T08:46:19.799Z</time></trkpt><trkpt lat="38.1436667" lon="15.82262"><ele>1306.0</ele><time>2026-04-26T08:46:20.799Z</time></trkpt><trkpt lat="38.1435983" lon="15.82288"><ele>1306.0</ele><time>2026-04-26T08:46:21.8Z</time></trkpt><trkpt lat="38.1435217" lon="15.8231517"><ele>1308.0</ele><time>2026-04-26T08:46:22.8Z</time></trkpt><trkpt lat="38.1434283" lon="15.8234417"><ele>1310.0</ele><time>2026-04-26T08:46:23.799Z</time></trkpt><trkpt lat="38.1433367" lon="15.8237367"><ele>1310.5</ele><time>2026-04-26T08:46:24.799Z</time></trkpt><trkpt lat="38.14324" lon="15.8240283"><ele>1311.0</ele><time>2026-04-26T08:46:25.799Z</time></trkpt><trkpt lat="38.1431483" lon="15.8242967"><ele>1316.0</ele><time>2026-04-26T08:46:26.799Z</time></trkpt><trkpt lat="38.1429683" lon="15.8248233"><ele>1316.0</ele><time>2026-04-26T08:46:28.8Z</time></trkpt><trkpt lat="38.1428783" lon="15.8251"><ele>1316.0</ele><time>2026-04-26T08:46:29.799Z</time></trkpt><trkpt lat="38.14278" lon="15.82538"><ele>1319.5</ele><time>2026-04-26T08:46:30.799Z</time></trkpt><trkpt lat="38.1426783" lon="15.8256617"><ele>1323.0</ele><time>2026-04-26T08:46:31.799Z</time></trkpt><trkpt lat="38.142585" lon="15.8259433"><ele>1326.0</ele><time>2026-04-26T08:46:32.799Z</time></trkpt><trkpt lat="38.142495" lon="15.8262167"><ele>1329.0</ele><time>2026-04-26T08:46:33.799Z</time></trkpt><trkpt lat="38.1424217" lon="15.8264867"><ele>1329.0</ele><time>2026-04-26T08:46:34.799Z</time></trkpt><trkpt lat="38.1423883" lon="15.826775"><ele>1329.0</ele><time>2026-04-26T08:46:35.8Z</time></trkpt><trkpt lat="38.1423767" lon="15.8270733"><ele>1328.5</ele><time>2026-04-26T08:46:36.8Z</time></trkpt><trkpt lat="38.1423733" lon="15.82738"><ele>1328.0</ele><time>2026-04-26T08:46:37.8Z</time></trkpt><trkpt lat="38.1423733" lon="15.8276867"><ele>1328.0</ele><time>2026-04-26T08:46:38.8Z</time></trkpt><trkpt lat="38.1423817" lon="15.82798"><ele>1328.0</ele><time>2026-04-26T08:46:39.799Z</time></trkpt><trkpt lat="38.1423767" lon="15.8282583"><ele>1328.3333333333335</ele><time>2026-04-26T08:46:40.799Z</time></trkpt><trkpt lat="38.1423783" lon="15.8285333"><ele>1328.6666666666667</ele><time>2026-04-26T08:46:41.801Z</time></trkpt><trkpt lat="38.1423833" lon="15.8288083"><ele>1329.0</ele><time>2026-04-26T08:46:42.8Z</time></trkpt><trkpt lat="38.14238" lon="15.82909"><ele>1334.0</ele><time>2026-04-26T08:46:43.801Z</time></trkpt><trkpt lat="38.1423817" lon="15.8293617"><ele>1339.0</ele><time>2026-04-26T08:46:44.801Z</time></trkpt><trkpt lat="38.1423867" lon="15.8296317"><ele>1344.0</ele><time>2026-04-26T08:46:45.801Z</time></trkpt><trkpt lat="38.1423817" lon="15.8298917"><ele>1345.3333333333333</ele><time>2026-04-26T08:46:46.8Z</time></trkpt><trkpt lat="38.1423833" lon="15.8301633"><ele>1346.6666666666665</ele><time>2026-04-26T08:46:47.8Z</time></trkpt><trkpt lat="38.1423883" lon="15.8304367"><ele>1348.0</ele><time>2026-04-26T08:46:48.801Z</time></trkpt><trkpt lat="38.14239" lon="15.8307117"><ele>1349.3333333333333</ele><time>2026-04-26T08:46:49.8Z</time></trkpt><trkpt lat="38.1423883" lon="15.8309783"><ele>1350.6666666666667</ele><time>2026-04-26T08:46:50.8Z</time></trkpt><trkpt lat="38.142385" lon="15.83124"><ele>1352.0</ele><time>2026-04-26T08:46:51.8Z</time></trkpt><trkpt lat="38.1423867" lon="15.8314917"><ele>1352.0</ele><time>2026-04-26T08:46:52.801Z</time></trkpt><trkpt lat="38.142385" lon="15.8317233"><ele>1352.0</ele><time>2026-04-26T08:46:53.8Z</time></trkpt><trkpt lat="38.1423883" lon="15.8319517"><ele>1352.0</ele><time>2026-04-26T08:46:54.8Z</time></trkpt><trkpt lat="38.142385" lon="15.8321667"><ele>1350.6666666666667</ele><time>2026-04-26T08:46:55.801Z</time></trkpt><trkpt lat="38.1423783" lon="15.83238"><ele>1349.3333333333333</ele><time>2026-04-26T08:46:56.8Z</time></trkpt><trkpt lat="38.1423717" lon="15.832595"><ele>1348.0</ele><time>2026-04-26T08:46:57.801Z</time></trkpt><trkpt lat="38.1423617" lon="15.8328033"><ele>1348.0</ele><time>2026-04-26T08:46:58.801Z</time></trkpt><trkpt lat="38.1423567" lon="15.833"><ele>1348.0</ele><time>2026-04-26T08:46:59.8Z</time></trkpt><trkpt lat="38.142345" lon="15.8331867"><ele>1348.0</ele><time>2026-04-26T08:47:00.8Z</time></trkpt><trkpt lat="38.1423267" lon="15.8333533"><ele>1348.0</ele><time>2026-04-26T08:47:01.8Z</time></trkpt><trkpt lat="38.1423183" lon="15.8335133"><ele>1350.4</ele><time>2026-04-26T08:47:02.8Z</time></trkpt><trkpt lat="38.142305" lon="15.8336717"><ele>1352.8000000000002</ele><time>2026-04-26T08:47:03.8Z</time></trkpt><trkpt lat="38.1423" lon="15.8338167"><ele>1355.2</ele><time>2026-04-26T08:47:04.801Z</time></trkpt><trkpt lat="38.1422867" lon="15.833925"><ele>1357.6</ele><time>2026-04-26T08:47:05.801Z</time></trkpt><trkpt lat="38.142275" lon="15.8340167"><ele>1360.0</ele><time>2026-04-26T08:47:06.8Z</time></trkpt><trkpt lat="38.1422467" lon="15.834105"><ele>1360.0</ele><time>2026-04-26T08:47:08.8Z</time></trkpt><trkpt lat="38.1422183" lon="15.8341783"><ele>1360.0</ele><time>2026-04-26T08:47:12.8Z</time></trkpt><trkpt lat="38.1422183" lon="15.8342683"><ele>1360.0</ele><time>2026-04-26T08:47:16.8Z</time></trkpt><trkpt lat="38.1422833" lon="15.8341983"><ele>1360.0</ele><time>2026-04-26T08:47:20.801Z</time></trkpt><trkpt lat="38.14231" lon="15.8340983"><ele>1360.0</ele><time>2026-04-26T08:47:23.8Z</time></trkpt><trkpt lat="38.14225" lon="15.8341317"><ele>1360.0</ele><time>2026-04-26T08:47:29.8Z</time></trkpt><trkpt lat="38.1422183" lon="15.834205"><ele>1360.0</ele><time>2026-04-26T08:47:32.8Z</time></trkpt><trkpt lat="38.142255" lon="15.8343033"><ele>1360.2</ele><time>2026-04-26T08:47:35.8Z</time></trkpt><trkpt lat="38.142315" lon="15.834395"><ele>1360.4</ele><time>2026-04-26T08:47:37.801Z</time></trkpt><trkpt lat="38.1423783" lon="15.8344917"><ele>1360.6</ele><time>2026-04-26T08:47:39.8Z</time></trkpt><trkpt lat="38.1424383" lon="15.834595"><ele>1360.8</ele><time>2026-04-26T08:47:41.8Z</time></trkpt><trkpt lat="38.14249" lon="15.8347"><ele>1361.0</ele><time>2026-04-26T08:47:43.801Z</time></trkpt><trkpt lat="38.14254" lon="15.8347883"><ele>1361.0</ele><time>2026-04-26T08:47:45.8Z</time></trkpt><trkpt lat="38.1426067" lon="15.8348633"><ele>1361.0</ele><time>2026-04-26T08:47:47.801Z</time></trkpt><trkpt lat="38.1427183" lon="15.834885"><ele>1361.0</ele><time>2026-04-26T08:47:49.8Z</time></trkpt><trkpt lat="38.1427917" lon="15.834875"><ele>1361.0</ele><time>2026-04-26T08:47:50.8Z</time></trkpt><trkpt lat="38.1428667" lon="15.834855"><ele>1361.0</ele><time>2026-04-26T08:47:51.8Z</time></trkpt><trkpt lat="38.1429533" lon="15.8348483"><ele>1361.0</ele><time>2026-04-26T08:47:52.8Z</time></trkpt><trkpt lat="38.1430533" lon="15.83484"><ele>1361.0</ele><time>2026-04-26T08:47:53.8Z</time></trkpt><trkpt lat="38.143165" lon="15.8348417"><ele>1361.0</ele><time>2026-04-26T08:47:54.8Z</time></trkpt><trkpt lat="38.1432833" lon="15.8348617"><ele>1361.0</ele><time>2026-04-26T08:47:55.8Z</time></trkpt><trkpt lat="38.143425" lon="15.8348817"><ele>1361.0</ele><time>2026-04-26T08:47:56.8Z</time></trkpt><trkpt lat="38.14357" lon="15.83491"><ele>1361.5</ele><time>2026-04-26T08:47:57.8Z</time></trkpt><trkpt lat="38.14371" lon="15.834965"><ele>1362.0</ele><time>2026-04-26T08:47:58.801Z</time></trkpt><trkpt lat="38.143845" lon="15.8350217"><ele>1362.5</ele><time>2026-04-26T08:47:59.801Z</time></trkpt><trkpt lat="38.1439833" lon="15.8350867"><ele>1363.0</ele><time>2026-04-26T08:48:00.8Z</time></trkpt><trkpt lat="38.1441117" lon="15.83516"><ele>1365.0</ele><time>2026-04-26T08:48:01.8Z</time></trkpt><trkpt lat="38.1442317" lon="15.8352333"><ele>1367.0</ele><time>2026-04-26T08:48:02.8Z</time></trkpt><trkpt lat="38.1443583" lon="15.8353017"><ele>1369.0</ele><time>2026-04-26T08:48:03.801Z</time></trkpt><trkpt lat="38.144485" lon="15.835365"><ele>1371.0</ele><time>2026-04-26T08:48:04.8Z</time></trkpt><trkpt lat="38.1445967" lon="15.8354167"><ele>1371.0</ele><time>2026-04-26T08:48:05.8Z</time></trkpt><trkpt lat="38.1447067" lon="15.8354883"><ele>1371.0</ele><time>2026-04-26T08:48:06.801Z</time></trkpt><trkpt lat="38.1448" lon="15.8356033"><ele>1371.0</ele><time>2026-04-26T08:48:07.8Z</time></trkpt><trkpt lat="38.1448833" lon="15.8357183"><ele>1371.0</ele><time>2026-04-26T08:48:08.801Z</time></trkpt><trkpt lat="38.1449717" lon="15.83581"><ele>1366.8</ele><time>2026-04-26T08:48:09.8Z</time></trkpt><trkpt lat="38.14505" lon="15.83587"><ele>1362.6</ele><time>2026-04-26T08:48:10.801Z</time></trkpt><trkpt lat="38.1451517" lon="15.8358967"><ele>1358.4</ele><time>2026-04-26T08:48:11.8Z</time></trkpt><trkpt lat="38.14525" lon="15.835885"><ele>1354.2</ele><time>2026-04-26T08:48:12.801Z</time></trkpt><trkpt lat="38.1453367" lon="15.8358567"><ele>1350.0</ele><time>2026-04-26T08:48:13.8Z</time></trkpt><trkpt lat="38.14542" lon="15.8358"><ele>1350.0</ele><time>2026-04-26T08:48:14.8Z</time></trkpt><trkpt lat="38.14549" lon="15.8357067"><ele>1350.0</ele><time>2026-04-26T08:48:15.801Z</time></trkpt><trkpt lat="38.1455383" lon="15.83559"><ele>1350.0</ele><time>2026-04-26T08:48:16.8Z</time></trkpt><trkpt lat="38.1455683" lon="15.835435"><ele>1350.0</ele><time>2026-04-26T08:48:17.801Z</time></trkpt><trkpt lat="38.1455683" lon="15.8352117"><ele>1346.8</ele><time>2026-04-26T08:48:18.801Z</time></trkpt><trkpt lat="38.1455933" lon="15.8350617"><ele>1343.6</ele><time>2026-04-26T08:48:19.8Z</time></trkpt><trkpt lat="38.14561" lon="15.8349467"><ele>1340.4</ele><time>2026-04-26T08:48:20.8Z</time></trkpt><trkpt lat="38.1456433" lon="15.8348283"><ele>1337.2</ele><time>2026-04-26T08:48:21.801Z</time></trkpt><trkpt lat="38.14567" lon="15.8347283"><ele>1334.0</ele><time>2026-04-26T08:48:22.8Z</time></trkpt><trkpt lat="38.1457067" lon="15.8346567"><ele>1337.8000000000002</ele><time>2026-04-26T08:48:23.801Z</time></trkpt><trkpt lat="38.1457583" lon="15.8346033"><ele>1341.6000000000001</ele><time>2026-04-26T08:48:24.801Z</time></trkpt><trkpt lat="38.1458283" lon="15.834555"><ele>1345.4</ele><time>2026-04-26T08:48:25.801Z</time></trkpt><trkpt lat="38.14593" lon="15.8345033"><ele>1349.2</ele><time>2026-04-26T08:48:26.8Z</time></trkpt><trkpt lat="38.146045" lon="15.8344517"><ele>1353.0</ele><time>2026-04-26T08:48:27.8Z</time></trkpt><trkpt lat="38.146145" lon="15.8343783"><ele>1354.0</ele><time>2026-04-26T08:48:28.8Z</time></trkpt><trkpt lat="38.1462383" lon="15.8342833"><ele>1355.0</ele><time>2026-04-26T08:48:29.8Z</time></trkpt><trkpt lat="38.1463217" lon="15.83419"><ele>1356.0</ele><time>2026-04-26T08:48:30.801Z</time></trkpt><trkpt lat="38.1463883" lon="15.8341167"><ele>1357.0</ele><time>2026-04-26T08:48:31.801Z</time></trkpt><trkpt lat="38.1464683" lon="15.834045"><ele>1358.0</ele><time>2026-04-26T08:48:32.801Z</time></trkpt><trkpt lat="38.1465533" lon="15.8339833"><ele>1358.0</ele><time>2026-04-26T08:48:33.8Z</time></trkpt><trkpt lat="38.1466367" lon="15.8339067"><ele>1358.0</ele><time>2026-04-26T08:48:34.8Z</time></trkpt><trkpt lat="38.1467117" lon="15.8338383"><ele>1358.0</ele><time>2026-04-26T08:48:35.8Z</time></trkpt><trkpt lat="38.1467833" lon="15.83376"><ele>1358.0</ele><time>2026-04-26T08:48:36.801Z</time></trkpt><trkpt lat="38.1468467" lon="15.83367"><ele>1358.0</ele><time>2026-04-26T08:48:37.8Z</time></trkpt><trkpt lat="38.146895" lon="15.833575"><ele>1353.6000000000001</ele><time>2026-04-26T08:48:38.801Z</time></trkpt><trkpt lat="38.1469367" lon="15.8334617"><ele>1349.2</ele><time>2026-04-26T08:48:39.801Z</time></trkpt><trkpt lat="38.14697" lon="15.8333633"><ele>1344.8</ele><time>2026-04-26T08:48:40.8Z</time></trkpt><trkpt lat="38.1469917" lon="15.8332467"><ele>1340.4</ele><time>2026-04-26T08:48:41.8Z</time></trkpt><trkpt lat="38.14701" lon="15.8331317"><ele>1336.0</ele><time>2026-04-26T08:48:42.801Z</time></trkpt><trkpt lat="38.147025" lon="15.8330217"><ele>1336.0</ele><time>2026-04-26T08:48:43.801Z</time></trkpt><trkpt lat="38.1470367" lon="15.8329"><ele>1336.0</ele><time>2026-04-26T08:48:44.8Z</time></trkpt><trkpt lat="38.1470533" lon="15.8327767"><ele>1336.0</ele><time>2026-04-26T08:48:45.801Z</time></trkpt><trkpt lat="38.1470933" lon="15.8326717"><ele>1336.0</ele><time>2026-04-26T08:48:46.8Z</time></trkpt><trkpt lat="38.1471467" lon="15.8325767"><ele>1336.0</ele><time>2026-04-26T08:48:47.8Z</time></trkpt><trkpt lat="38.1472033" lon="15.8324783"><ele>1333.6</ele><time>2026-04-26T08:48:48.8Z</time></trkpt><trkpt lat="38.14727" lon="15.8323817"><ele>1331.1999999999998</ele><time>2026-04-26T08:48:49.8Z</time></trkpt><trkpt lat="38.1473483" lon="15.8322983"><ele>1328.8000000000002</ele><time>2026-04-26T08:48:50.801Z</time></trkpt><trkpt lat="38.1474283" lon="15.8322183"><ele>1326.4</ele><time>2026-04-26T08:48:51.8Z</time></trkpt><trkpt lat="38.1475017" lon="15.8321467"><ele>1324.0</ele><time>2026-04-26T08:48:52.8Z</time></trkpt><trkpt lat="38.1475717" lon="15.83208"><ele>1329.1666666666665</ele><time>2026-04-26T08:48:53.8Z</time></trkpt><trkpt lat="38.1476483" lon="15.832035"><ele>1334.3333333333333</ele><time>2026-04-26T08:48:54.8Z</time></trkpt><trkpt lat="38.14772" lon="15.8319983"><ele>1339.5</ele><time>2026-04-26T08:48:55.8Z</time></trkpt><trkpt lat="38.147785" lon="15.8319833"><ele>1344.6666666666667</ele><time>2026-04-26T08:48:56.8Z</time></trkpt><trkpt lat="38.147875" lon="15.831995"><ele>1349.8333333333335</ele><time>2026-04-26T08:48:57.8Z</time></trkpt><trkpt lat="38.1479767" lon="15.8320283"><ele>1355.0</ele><time>2026-04-26T08:48:58.8Z</time></trkpt><trkpt lat="38.1480767" lon="15.832025"><ele>1355.0</ele><time>2026-04-26T08:48:59.801Z</time></trkpt><trkpt lat="38.1481767" lon="15.8319967"><ele>1355.0</ele><time>2026-04-26T08:49:00.8Z</time></trkpt><trkpt lat="38.14827" lon="15.8319383"><ele>1355.0</ele><time>2026-04-26T08:49:01.8Z</time></trkpt><trkpt lat="38.1483467" lon="15.8318733"><ele>1355.0</ele><time>2026-04-26T08:49:02.8Z</time></trkpt><trkpt lat="38.148405" lon="15.8317533"><ele>1355.0</ele><time>2026-04-26T08:49:03.801Z</time></trkpt><trkpt lat="38.1484633" lon="15.8316367"><ele>1354.0</ele><time>2026-04-26T08:49:04.801Z</time></trkpt><trkpt lat="38.1485183" lon="15.8315417"><ele>1353.0</ele><time>2026-04-26T08:49:05.8Z</time></trkpt><trkpt lat="38.1485733" lon="15.8314583"><ele>1352.0</ele><time>2026-04-26T08:49:06.8Z</time></trkpt><trkpt lat="38.14865" lon="15.8313967"><ele>1351.0</ele><time>2026-04-26T08:49:07.8Z</time></trkpt><trkpt lat="38.1487267" lon="15.8313717"><ele>1350.0</ele><time>2026-04-26T08:49:08.8Z</time></trkpt><trkpt lat="38.1488217" lon="15.8313533"><ele>1349.0</ele><time>2026-04-26T08:49:09.8Z</time></trkpt><trkpt lat="38.1489083" lon="15.8313567"><ele>1349.0</ele><time>2026-04-26T08:49:10.8Z</time></trkpt><trkpt lat="38.1489917" lon="15.8313633"><ele>1349.0</ele><time>2026-04-26T08:49:11.8Z</time></trkpt><trkpt lat="38.14907" lon="15.83137"><ele>1349.0</ele><time>2026-04-26T08:49:12.8Z</time></trkpt><trkpt lat="38.1491417" lon="15.8313983"><ele>1349.0</ele><time>2026-04-26T08:49:13.801Z</time></trkpt><trkpt lat="38.1492083" lon="15.8314383"><ele>1349.0</ele><time>2026-04-26T08:49:14.8Z</time></trkpt><trkpt lat="38.1492683" lon="15.831505"><ele>1349.0</ele><time>2026-04-26T08:49:15.8Z</time></trkpt><trkpt lat="38.1493283" lon="15.8315917"><ele>1349.8000000000002</ele><time>2026-04-26T08:49:16.8Z</time></trkpt><trkpt lat="38.14939" lon="15.8316833"><ele>1350.6000000000001</ele><time>2026-04-26T08:49:17.8Z</time></trkpt><trkpt lat="38.1494533" lon="15.8317783"><ele>1351.4</ele><time>2026-04-26T08:49:18.8Z</time></trkpt><trkpt lat="38.14953" lon="15.8318617"><ele>1352.2</ele><time>2026-04-26T08:49:19.801Z</time></trkpt><trkpt lat="38.1496083" lon="15.8319283"><ele>1353.0</ele><time>2026-04-26T08:49:20.8Z</time></trkpt><trkpt lat="38.1496933" lon="15.831965"><ele>1353.0</ele><time>2026-04-26T08:49:21.8Z</time></trkpt><trkpt lat="38.1497817" lon="15.831995"><ele>1353.0</ele><time>2026-04-26T08:49:22.8Z</time></trkpt><trkpt lat="38.149865" lon="15.832015"><ele>1353.0</ele><time>2026-04-26T08:49:23.8Z</time></trkpt><trkpt lat="38.14995" lon="15.832015"><ele>1353.0</ele><time>2026-04-26T08:49:24.801Z</time></trkpt><trkpt lat="38.1500367" lon="15.8320117"><ele>1353.0</ele><time>2026-04-26T08:49:25.8Z</time></trkpt><trkpt lat="38.1501317" lon="15.8319883"><ele>1353.0</ele><time>2026-04-26T08:49:26.8Z</time></trkpt><trkpt lat="38.1502233" lon="15.8319467"><ele>1353.2</ele><time>2026-04-26T08:49:27.801Z</time></trkpt><trkpt lat="38.1503133" lon="15.8318817"><ele>1353.4</ele><time>2026-04-26T08:49:28.801Z</time></trkpt><trkpt lat="38.1503967" lon="15.8318033"><ele>1353.6000000000001</ele><time>2026-04-26T08:49:29.8Z</time></trkpt><trkpt lat="38.15048" lon="15.83173"><ele>1353.8000000000002</ele><time>2026-04-26T08:49:30.8Z</time></trkpt><trkpt lat="38.15057" lon="15.8316867"><ele>1354.0</ele><time>2026-04-26T08:49:31.801Z</time></trkpt><trkpt lat="38.1506567" lon="15.8316633"><ele>1352.8333333333333</ele><time>2026-04-26T08:49:32.8Z</time></trkpt><trkpt lat="38.1507433" lon="15.8316583"><ele>1351.6666666666665</ele><time>2026-04-26T08:49:33.801Z</time></trkpt><trkpt lat="38.1508333" lon="15.831685"><ele>1350.5</ele><time>2026-04-26T08:49:34.8Z</time></trkpt><trkpt lat="38.15091" lon="15.83174"><ele>1349.3333333333333</ele><time>2026-04-26T08:49:35.8Z</time></trkpt><trkpt lat="38.15098" lon="15.831805"><ele>1348.1666666666667</ele><time>2026-04-26T08:49:36.8Z</time></trkpt><trkpt lat="38.151055" lon="15.8318517"><ele>1347.0</ele><time>2026-04-26T08:49:37.801Z</time></trkpt><trkpt lat="38.1511383" lon="15.8318867"><ele>1347.0</ele><time>2026-04-26T08:49:38.801Z</time></trkpt><trkpt lat="38.151215" lon="15.8319133"><ele>1347.0</ele><time>2026-04-26T08:49:39.8Z</time></trkpt><trkpt lat="38.15129" lon="15.8319283"><ele>1347.0</ele><time>2026-04-26T08:49:40.8Z</time></trkpt><trkpt lat="38.1513983" lon="15.831875"><ele>1347.0</ele><time>2026-04-26T08:49:42.801Z</time></trkpt><trkpt lat="38.1514733" lon="15.8318017"><ele>1347.0</ele><time>2026-04-26T08:49:44.8Z</time></trkpt><trkpt lat="38.1515533" lon="15.831755"><ele>1347.5</ele><time>2026-04-26T08:49:46.8Z</time></trkpt><trkpt lat="38.1516617" lon="15.8317383"><ele>1348.0</ele><time>2026-04-26T08:49:48.8Z</time></trkpt><trkpt lat="38.15177" lon="15.831755"><ele>1348.5</ele><time>2026-04-26T08:49:50.8Z</time></trkpt><trkpt lat="38.15184" lon="15.8317733"><ele>1349.0</ele><time>2026-04-26T08:49:51.8Z</time></trkpt><trkpt lat="38.1519117" lon="15.831785"><ele>1349.5</ele><time>2026-04-26T08:49:52.8Z</time></trkpt><trkpt lat="38.1519933" lon="15.8318083"><ele>1350.0</ele><time>2026-04-26T08:49:53.801Z</time></trkpt><trkpt lat="38.1520733" lon="15.8318383"><ele>1351.8</ele><time>2026-04-26T08:49:54.8Z</time></trkpt><trkpt lat="38.15217" lon="15.8318617"><ele>1353.6</ele><time>2026-04-26T08:49:55.8Z</time></trkpt><trkpt lat="38.1522717" lon="15.83188"><ele>1355.4</ele><time>2026-04-26T08:49:56.8Z</time></trkpt><trkpt lat="38.1523683" lon="15.8319067"><ele>1357.2</ele><time>2026-04-26T08:49:57.8Z</time></trkpt><trkpt lat="38.152465" lon="15.83194"><ele>1359.0</ele><time>2026-04-26T08:49:58.8Z</time></trkpt><trkpt lat="38.1525617" lon="15.83197"><ele>1359.0</ele><time>2026-04-26T08:49:59.801Z</time></trkpt><trkpt lat="38.15265" lon="15.832005"><ele>1359.0</ele><time>2026-04-26T08:50:00.8Z</time></trkpt><trkpt lat="38.15275" lon="15.8320467"><ele>1359.0</ele><time>2026-04-26T08:50:01.8Z</time></trkpt><trkpt lat="38.15285" lon="15.8320933"><ele>1359.0</ele><time>2026-04-26T08:50:02.8Z</time></trkpt><trkpt lat="38.1529583" lon="15.8321383"><ele>1359.0</ele><time>2026-04-26T08:50:03.801Z</time></trkpt><trkpt lat="38.1530767" lon="15.8321733"><ele>1359.0</ele><time>2026-04-26T08:50:04.801Z</time></trkpt><trkpt lat="38.1531933" lon="15.83221"><ele>1359.0</ele><time>2026-04-26T08:50:05.8Z</time></trkpt><trkpt lat="38.153315" lon="15.8322483"><ele>1359.0</ele><time>2026-04-26T08:50:06.8Z</time></trkpt><trkpt lat="38.1534467" lon="15.832285"><ele>1359.0</ele><time>2026-04-26T08:50:07.8Z</time></trkpt><trkpt lat="38.1535683" lon="15.8323317"><ele>1357.5</ele><time>2026-04-26T08:50:08.8Z</time></trkpt><trkpt lat="38.1536933" lon="15.8323683"><ele>1356.0</ele><time>2026-04-26T08:50:09.8Z</time></trkpt><trkpt lat="38.1538217" lon="15.8324083"><ele>1354.5</ele><time>2026-04-26T08:50:10.8Z</time></trkpt><trkpt lat="38.1539583" lon="15.83244"><ele>1353.0</ele><time>2026-04-26T08:50:11.801Z</time></trkpt><trkpt lat="38.1540883" lon="15.8324733"><ele>1353.0</ele><time>2026-04-26T08:50:12.8Z</time></trkpt><trkpt lat="38.154245" lon="15.832495"><ele>1353.0</ele><time>2026-04-26T08:50:13.801Z</time></trkpt><trkpt lat="38.1544083" lon="15.832515"><ele>1353.0</ele><time>2026-04-26T08:50:14.8Z</time></trkpt><trkpt lat="38.1545533" lon="15.8325317"><ele>1353.0</ele><time>2026-04-26T08:50:15.801Z</time></trkpt><trkpt lat="38.1547033" lon="15.832555"><ele>1353.0</ele><time>2026-04-26T08:50:16.8Z</time></trkpt><trkpt lat="38.1548483" lon="15.8325883"><ele>1353.0</ele><time>2026-04-26T08:50:17.8Z</time></trkpt><trkpt lat="38.1549833" lon="15.8326217"><ele>1353.0</ele><time>2026-04-26T08:50:18.801Z</time></trkpt><trkpt lat="38.15512" lon="15.8326533"><ele>1354.75</ele><time>2026-04-26T08:50:19.801Z</time></trkpt><trkpt lat="38.15524" lon="15.8327033"><ele>1356.5</ele><time>2026-04-26T08:50:20.801Z</time></trkpt><trkpt lat="38.1553533" lon="15.83276"><ele>1358.25</ele><time>2026-04-26T08:50:21.8Z</time></trkpt><trkpt lat="38.1554633" lon="15.832825"><ele>1360.0</ele><time>2026-04-26T08:50:22.8Z</time></trkpt><trkpt lat="38.1555567" lon="15.8328833"><ele>1360.0</ele><time>2026-04-26T08:50:23.801Z</time></trkpt><trkpt lat="38.1556267" lon="15.832935"><ele>1360.0</ele><time>2026-04-26T08:50:24.801Z</time></trkpt><trkpt lat="38.155725" lon="15.8330033"><ele>1360.0</ele><time>2026-04-26T08:50:26.801Z</time></trkpt><trkpt lat="38.1557967" lon="15.8330617"><ele>1360.0</ele><time>2026-04-26T08:50:28.8Z</time></trkpt><trkpt lat="38.1559017" lon="15.8331067"><ele>1360.0</ele><time>2026-04-26T08:50:30.801Z</time></trkpt><trkpt lat="38.1559683" lon="15.83312"><ele>1359.5</ele><time>2026-04-26T08:50:31.8Z</time></trkpt><trkpt lat="38.1560483" lon="15.8331433"><ele>1359.0</ele><time>2026-04-26T08:50:32.801Z</time></trkpt><trkpt lat="38.15613" lon="15.8331567"><ele>1358.5</ele><time>2026-04-26T08:50:33.801Z</time></trkpt><trkpt lat="38.1562117" lon="15.8331683"><ele>1358.0</ele><time>2026-04-26T08:50:34.8Z</time></trkpt><trkpt lat="38.1563" lon="15.833175"><ele>1357.5</ele><time>2026-04-26T08:50:35.8Z</time></trkpt><trkpt lat="38.156405" lon="15.8331833"><ele>1357.0</ele><time>2026-04-26T08:50:36.8Z</time></trkpt><trkpt lat="38.1565133" lon="15.8331983"><ele>1356.75</ele><time>2026-04-26T08:50:37.8Z</time></trkpt><trkpt lat="38.1566333" lon="15.833215"><ele>1356.5</ele><time>2026-04-26T08:50:38.8Z</time></trkpt><trkpt lat="38.156775" lon="15.833225"><ele>1356.25</ele><time>2026-04-26T08:50:39.8Z</time></trkpt><trkpt lat="38.1569317" lon="15.83324"><ele>1356.0</ele><time>2026-04-26T08:50:40.8Z</time></trkpt><trkpt lat="38.1570833" lon="15.8332583"><ele>1356.0</ele><time>2026-04-26T08:50:41.8Z</time></trkpt><trkpt lat="38.1572283" lon="15.8332783"><ele>1356.0</ele><time>2026-04-26T08:50:42.8Z</time></trkpt><trkpt lat="38.1573833" lon="15.8332967"><ele>1356.0</ele><time>2026-04-26T08:50:43.801Z</time></trkpt><trkpt lat="38.1575467" lon="15.833305"><ele>1355.3333333333333</ele><time>2026-04-26T08:50:44.8Z</time></trkpt><trkpt lat="38.1577067" lon="15.8333167"><ele>1354.6666666666665</ele><time>2026-04-26T08:50:45.8Z</time></trkpt><trkpt lat="38.1578733" lon="15.83333"><ele>1354.0</ele><time>2026-04-26T08:50:46.801Z</time></trkpt><trkpt lat="38.1580417" lon="15.833335"><ele>1353.0</ele><time>2026-04-26T08:50:47.801Z</time></trkpt><trkpt lat="38.1582083" lon="15.8333417"><ele>1352.0</ele><time>2026-04-26T08:50:48.8Z</time></trkpt><trkpt lat="38.158375" lon="15.83335"><ele>1351.0</ele><time>2026-04-26T08:50:49.8Z</time></trkpt><trkpt lat="38.1585483" lon="15.83336"><ele>1351.0</ele><time>2026-04-26T08:50:50.8Z</time></trkpt><trkpt lat="38.1587283" lon="15.8333767"><ele>1351.0</ele><time>2026-04-26T08:50:51.801Z</time></trkpt><trkpt lat="38.1589067" lon="15.8333883"><ele>1351.0</ele><time>2026-04-26T08:50:52.8Z</time></trkpt><trkpt lat="38.15908" lon="15.8333983"><ele>1350.3333333333333</ele><time>2026-04-26T08:50:53.801Z</time></trkpt><trkpt lat="38.1592567" lon="15.8334033"><ele>1349.6666666666667</ele><time>2026-04-26T08:50:54.8Z</time></trkpt><trkpt lat="38.159435" lon="15.83341"><ele>1349.0</ele><time>2026-04-26T08:50:55.8Z</time></trkpt><trkpt lat="38.159615" lon="15.83341"><ele>1349.0</ele><time>2026-04-26T08:50:56.8Z</time></trkpt><trkpt lat="38.1597933" lon="15.8334217"><ele>1349.0</ele><time>2026-04-26T08:50:57.801Z</time></trkpt><trkpt lat="38.1599683" lon="15.833435"><ele>1349.0</ele><time>2026-04-26T08:50:58.8Z</time></trkpt><trkpt lat="38.1601283" lon="15.8334483"><ele>1349.25</ele><time>2026-04-26T08:50:59.8Z</time></trkpt><trkpt lat="38.1602883" lon="15.83346"><ele>1349.5</ele><time>2026-04-26T08:51:00.8Z</time></trkpt><trkpt lat="38.1604317" lon="15.83348"><ele>1349.75</ele><time>2026-04-26T08:51:01.8Z</time></trkpt><trkpt lat="38.1605633" lon="15.8334783"><ele>1350.0</ele><time>2026-04-26T08:51:02.8Z</time></trkpt><trkpt lat="38.16068" lon="15.8334717"><ele>1349.8</ele><time>2026-04-26T08:51:03.8Z</time></trkpt><trkpt lat="38.1607783" lon="15.8334783"><ele>1349.6</ele><time>2026-04-26T08:51:04.801Z</time></trkpt><trkpt lat="38.1608733" lon="15.8335017"><ele>1349.4</ele><time>2026-04-26T08:51:05.801Z</time></trkpt><trkpt lat="38.1609667" lon="15.83355"><ele>1349.2</ele><time>2026-04-26T08:51:06.8Z</time></trkpt><trkpt lat="38.1610517" lon="15.8336167"><ele>1349.0</ele><time>2026-04-26T08:51:07.801Z</time></trkpt><trkpt lat="38.1611183" lon="15.8336967"><ele>1349.0</ele><time>2026-04-26T08:51:08.801Z</time></trkpt><trkpt lat="38.1611667" lon="15.8337933"><ele>1349.0</ele><time>2026-04-26T08:51:09.801Z</time></trkpt><trkpt lat="38.1612017" lon="15.8338967"><ele>1349.0</ele><time>2026-04-26T08:51:10.8Z</time></trkpt><trkpt lat="38.1612233" lon="15.8339967"><ele>1349.0</ele><time>2026-04-26T08:51:11.801Z</time></trkpt><trkpt lat="38.1612433" lon="15.8340767"><ele>1349.0</ele><time>2026-04-26T08:51:12.8Z</time></trkpt><trkpt lat="38.16127" lon="15.83415"><ele>1349.0</ele><time>2026-04-26T08:51:13.801Z</time></trkpt><trkpt lat="38.16129" lon="15.8342717"><ele>1348.1666666666667</ele><time>2026-04-26T08:51:15.801Z</time></trkpt><trkpt lat="38.1613117" lon="15.8343883"><ele>1347.3333333333335</ele><time>2026-04-26T08:51:17.801Z</time></trkpt><trkpt lat="38.1613633" lon="15.8345233"><ele>1346.5</ele><time>2026-04-26T08:51:19.8Z</time></trkpt><trkpt lat="38.1613983" lon="15.8345917"><ele>1345.6666666666667</ele><time>2026-04-26T08:51:20.8Z</time></trkpt><trkpt lat="38.1614333" lon="15.8346583"><ele>1344.8333333333333</ele><time>2026-04-26T08:51:21.8Z</time></trkpt><trkpt lat="38.161475" lon="15.8347217"><ele>1344.0</ele><time>2026-04-26T08:51:22.801Z</time></trkpt><trkpt lat="38.1615533" lon="15.8348267"><ele>1344.0</ele><time>2026-04-26T08:51:24.801Z</time></trkpt><trkpt lat="38.1616167" lon="15.8349233"><ele>1344.0</ele><time>2026-04-26T08:51:26.8Z</time></trkpt><trkpt lat="38.1616583" lon="15.8350583"><ele>1344.0</ele><time>2026-04-26T08:51:28.8Z</time></trkpt><trkpt lat="38.1616683" lon="15.83514"><ele>1344.0</ele><time>2026-04-26T08:51:29.801Z</time></trkpt><trkpt lat="38.1616717" lon="15.83522"><ele>1344.0</ele><time>2026-04-26T08:51:30.801Z</time></trkpt><trkpt lat="38.161675" lon="15.8353067"><ele>1344.0</ele><time>2026-04-26T08:51:31.8Z</time></trkpt><trkpt lat="38.1616733" lon="15.83539"><ele>1343.7142857142858</ele><time>2026-04-26T08:51:32.8Z</time></trkpt><trkpt lat="38.1616617" lon="15.83548"><ele>1343.4285714285716</ele><time>2026-04-26T08:51:33.8Z</time></trkpt><trkpt lat="38.1616483" lon="15.8355683"><ele>1343.142857142857</ele><time>2026-04-26T08:51:34.8Z</time></trkpt><trkpt lat="38.1616283" lon="15.83566"><ele>1342.857142857143</ele><time>2026-04-26T08:51:35.8Z</time></trkpt><trkpt lat="38.1616067" lon="15.835755"><ele>1342.5714285714287</ele><time>2026-04-26T08:51:36.801Z</time></trkpt><trkpt lat="38.1615817" lon="15.8358433"><ele>1342.2857142857142</ele><time>2026-04-26T08:51:37.8Z</time></trkpt><trkpt lat="38.1615583" lon="15.835935"><ele>1342.0</ele><time>2026-04-26T08:51:38.801Z</time></trkpt><trkpt lat="38.161535" lon="15.8360317"><ele>1341.6666666666665</ele><time>2026-04-26T08:51:39.8Z</time></trkpt><trkpt lat="38.1615117" lon="15.8361333"><ele>1341.3333333333333</ele><time>2026-04-26T08:51:40.8Z</time></trkpt><trkpt lat="38.1614917" lon="15.83623"><ele>1341.0</ele><time>2026-04-26T08:51:41.801Z</time></trkpt><trkpt lat="38.1614783" lon="15.83632"><ele>1340.6666666666667</ele><time>2026-04-26T08:51:42.8Z</time></trkpt><trkpt lat="38.16147" lon="15.8364"><ele>1340.3333333333335</ele><time>2026-04-26T08:51:43.801Z</time></trkpt><trkpt lat="38.161495" lon="15.8365383"><ele>1340.0</ele><time>2026-04-26T08:51:45.801Z</time></trkpt><trkpt lat="38.1615567" lon="15.8366317"><ele>1340.0</ele><time>2026-04-26T08:51:47.8Z</time></trkpt><trkpt lat="38.1616683" lon="15.83668"><ele>1340.0</ele><time>2026-04-26T08:51:49.8Z</time></trkpt><trkpt lat="38.161765" lon="15.836675"><ele>1340.0</ele><time>2026-04-26T08:51:50.8Z</time></trkpt><trkpt lat="38.161895" lon="15.83663"><ele>1340.0</ele><time>2026-04-26T08:51:51.8Z</time></trkpt><trkpt lat="38.1620367" lon="15.8365433"><ele>1340.0</ele><time>2026-04-26T08:51:52.801Z</time></trkpt><trkpt lat="38.1621483" lon="15.8364283"><ele>1340.0</ele><time>2026-04-26T08:51:53.8Z</time></trkpt><trkpt lat="38.1622317" lon="15.8363083"><ele>1340.0</ele><time>2026-04-26T08:51:54.8Z</time></trkpt><trkpt lat="38.1623167" lon="15.8361867"><ele>1340.0</ele><time>2026-04-26T08:51:55.801Z</time></trkpt><trkpt lat="38.162395" lon="15.8360683"><ele>1337.0</ele><time>2026-04-26T08:51:56.8Z</time></trkpt><trkpt lat="38.1624817" lon="15.8359583"><ele>1334.0</ele><time>2026-04-26T08:51:57.801Z</time></trkpt><trkpt lat="38.1625683" lon="15.835865"><ele>1331.0</ele><time>2026-04-26T08:51:58.801Z</time></trkpt><trkpt lat="38.16265" lon="15.8357717"><ele>1328.0</ele><time>2026-04-26T08:51:59.8Z</time></trkpt><trkpt lat="38.1627317" lon="15.83567"><ele>1328.0</ele><time>2026-04-26T08:52:00.8Z</time></trkpt><trkpt lat="38.1628133" lon="15.835565"><ele>1328.0</ele><time>2026-04-26T08:52:01.8Z</time></trkpt><trkpt lat="38.1628867" lon="15.83545"><ele>1328.0</ele><time>2026-04-26T08:52:02.8Z</time></trkpt><trkpt lat="38.1629533" lon="15.8353283"><ele>1328.0</ele><time>2026-04-26T08:52:03.8Z</time></trkpt><trkpt lat="38.16302" lon="15.835205"><ele>1328.75</ele><time>2026-04-26T08:52:04.8Z</time></trkpt><trkpt lat="38.1630867" lon="15.83508"><ele>1329.5</ele><time>2026-04-26T08:52:05.801Z</time></trkpt><trkpt lat="38.1631517" lon="15.8349567"><ele>1330.25</ele><time>2026-04-26T08:52:06.8Z</time></trkpt><trkpt lat="38.1632167" lon="15.8348417"><ele>1331.0</ele><time>2026-04-26T08:52:07.8Z</time></trkpt><trkpt lat="38.163295" lon="15.8347383"><ele>1331.0</ele><time>2026-04-26T08:52:08.801Z</time></trkpt><trkpt lat="38.1633817" lon="15.8346483"><ele>1331.0</ele><time>2026-04-26T08:52:09.8Z</time></trkpt><trkpt lat="38.1634783" lon="15.8345583"><ele>1331.0</ele><time>2026-04-26T08:52:10.801Z</time></trkpt><trkpt lat="38.16358" lon="15.834495"><ele>1331.0</ele><time>2026-04-26T08:52:11.8Z</time></trkpt><trkpt lat="38.163685" lon="15.8344333"><ele>1331.0</ele><time>2026-04-26T08:52:12.8Z</time></trkpt><trkpt lat="38.1637867" lon="15.83438"><ele>1331.0</ele><time>2026-04-26T08:52:13.8Z</time></trkpt><trkpt lat="38.1638983" lon="15.8343517"><ele>1331.0</ele><time>2026-04-26T08:52:14.8Z</time></trkpt><trkpt lat="38.1640133" lon="15.8343317"><ele>1331.0</ele><time>2026-04-26T08:52:15.8Z</time></trkpt><trkpt lat="38.1641317" lon="15.8343167"><ele>1329.8</ele><time>2026-04-26T08:52:16.801Z</time></trkpt><trkpt lat="38.1642483" lon="15.834305"><ele>1328.6</ele><time>2026-04-26T08:52:17.8Z</time></trkpt><trkpt lat="38.1643567" lon="15.834285"><ele>1327.4</ele><time>2026-04-26T08:52:18.8Z</time></trkpt><trkpt lat="38.1644633" lon="15.8342683"><ele>1326.2</ele><time>2026-04-26T08:52:19.801Z</time></trkpt><trkpt lat="38.164565" lon="15.8342567"><ele>1325.0</ele><time>2026-04-26T08:52:20.801Z</time></trkpt><trkpt lat="38.164665" lon="15.8342617"><ele>1325.0</ele><time>2026-04-26T08:52:21.8Z</time></trkpt><trkpt lat="38.1647583" lon="15.8343"><ele>1325.0</ele><time>2026-04-26T08:52:22.8Z</time></trkpt><trkpt lat="38.164845" lon="15.834355"><ele>1325.0</ele><time>2026-04-26T08:52:23.8Z</time></trkpt><trkpt lat="38.1649267" lon="15.8344317"><ele>1325.0</ele><time>2026-04-26T08:52:24.801Z</time></trkpt><trkpt lat="38.1649833" lon="15.83452"><ele>1325.0</ele><time>2026-04-26T08:52:25.801Z</time></trkpt><trkpt lat="38.1650117" lon="15.834615"><ele>1326.3333333333335</ele><time>2026-04-26T08:52:26.8Z</time></trkpt><trkpt lat="38.16499" lon="15.8347283"><ele>1327.6666666666667</ele><time>2026-04-26T08:52:27.8Z</time></trkpt><trkpt lat="38.16494" lon="15.8348533"><ele>1329.0</ele><time>2026-04-26T08:52:28.8Z</time></trkpt><trkpt lat="38.1649433" lon="15.83496"><ele>1330.3333333333333</ele><time>2026-04-26T08:52:29.8Z</time></trkpt><trkpt lat="38.16497" lon="15.8350433"><ele>1331.6666666666665</ele><time>2026-04-26T08:52:30.8Z</time></trkpt><trkpt lat="38.1650417" lon="15.835115"><ele>1333.0</ele><time>2026-04-26T08:52:32.801Z</time></trkpt><trkpt lat="38.1651617" lon="15.8350717"><ele>1333.0</ele><time>2026-04-26T08:52:34.801Z</time></trkpt><trkpt lat="38.16524" lon="15.8349817"><ele>1333.0</ele><time>2026-04-26T08:52:35.801Z</time></trkpt><trkpt lat="38.1653267" lon="15.8348933"><ele>1333.0</ele><time>2026-04-26T08:52:36.8Z</time></trkpt><trkpt lat="38.165415" lon="15.8348067"><ele>1333.0</ele><time>2026-04-26T08:52:37.801Z</time></trkpt><trkpt lat="38.1655083" lon="15.8346833"><ele>1333.0</ele><time>2026-04-26T08:52:38.8Z</time></trkpt><trkpt lat="38.1656" lon="15.834575"><ele>1333.0</ele><time>2026-04-26T08:52:39.8Z</time></trkpt><trkpt lat="38.1657067" lon="15.8344683"><ele>1333.0</ele><time>2026-04-26T08:52:40.8Z</time></trkpt><trkpt lat="38.1658083" lon="15.8344017"><ele>1333.0</ele><time>2026-04-26T08:52:41.801Z</time></trkpt><trkpt lat="38.165905" lon="15.834375"><ele>1331.8000000000002</ele><time>2026-04-26T08:52:42.8Z</time></trkpt><trkpt lat="38.1660033" lon="15.8343733"><ele>1330.6</ele><time>2026-04-26T08:52:43.8Z</time></trkpt><trkpt lat="38.1661017" lon="15.8344183"><ele>1329.4</ele><time>2026-04-26T08:52:44.8Z</time></trkpt><trkpt lat="38.1661933" lon="15.83448"><ele>1328.1999999999998</ele><time>2026-04-26T08:52:45.801Z</time></trkpt><trkpt lat="38.1662917" lon="15.8345667"><ele>1327.0</ele><time>2026-04-26T08:52:46.8Z</time></trkpt><trkpt lat="38.1663917" lon="15.83464"><ele>1327.0</ele><time>2026-04-26T08:52:47.8Z</time></trkpt><trkpt lat="38.16649" lon="15.8347183"><ele>1327.0</ele><time>2026-04-26T08:52:48.801Z</time></trkpt><trkpt lat="38.1666" lon="15.83481"><ele>1327.0</ele><time>2026-04-26T08:52:49.801Z</time></trkpt><trkpt lat="38.1667017" lon="15.8349"><ele>1327.0</ele><time>2026-04-26T08:52:50.8Z</time></trkpt><trkpt lat="38.1667833" lon="15.8349917"><ele>1325.8333333333333</ele><time>2026-04-26T08:52:51.8Z</time></trkpt><trkpt lat="38.1668533" lon="15.8350833"><ele>1324.6666666666665</ele><time>2026-04-26T08:52:52.8Z</time></trkpt><trkpt lat="38.1669167" lon="15.8351633"><ele>1323.5</ele><time>2026-04-26T08:52:53.8Z</time></trkpt><trkpt lat="38.1669683" lon="15.8352433"><ele>1322.3333333333333</ele><time>2026-04-26T08:52:54.8Z</time></trkpt><trkpt lat="38.1670233" lon="15.835325"><ele>1321.1666666666667</ele><time>2026-04-26T08:52:55.801Z</time></trkpt><trkpt lat="38.167065" lon="15.83541"><ele>1320.0</ele><time>2026-04-26T08:52:56.8Z</time></trkpt><trkpt lat="38.1671033" lon="15.835495"><ele>1320.0</ele><time>2026-04-26T08:52:57.8Z</time></trkpt><trkpt lat="38.1671367" lon="15.8355883"><ele>1320.0</ele><time>2026-04-26T08:52:58.801Z</time></trkpt><trkpt lat="38.16717" lon="15.83567"><ele>1320.0</ele><time>2026-04-26T08:52:59.801Z</time></trkpt><trkpt lat="38.1671983" lon="15.83575"><ele>1320.0</ele><time>2026-04-26T08:53:00.801Z</time></trkpt><trkpt lat="38.1672267" lon="15.8358317"><ele>1320.0</ele><time>2026-04-26T08:53:01.8Z</time></trkpt><trkpt lat="38.1672483" lon="15.835915"><ele>1320.0</ele><time>2026-04-26T08:53:02.801Z</time></trkpt><trkpt lat="38.1672583" lon="15.8360617"><ele>1320.1428571428573</ele><time>2026-04-26T08:53:04.801Z</time></trkpt><trkpt lat="38.167205" lon="15.8361483"><ele>1320.2857142857142</ele><time>2026-04-26T08:53:06.801Z</time></trkpt><trkpt lat="38.1671383" lon="15.83619"><ele>1320.4285714285716</ele><time>2026-04-26T08:53:08.801Z</time></trkpt><trkpt lat="38.1670883" lon="15.8362467"><ele>1320.5714285714287</ele><time>2026-04-26T08:53:11.8Z</time></trkpt><trkpt lat="38.1670933" lon="15.8363483"><ele>1320.7142857142858</ele><time>2026-04-26T08:53:15.801Z</time></trkpt><trkpt lat="38.1671183" lon="15.8364267"><ele>1320.857142857143</ele><time>2026-04-26T08:53:18.801Z</time></trkpt><trkpt lat="38.1671733" lon="15.8363633"><ele>1321.0</ele><time>2026-04-26T09:28:57.795Z</time></trkpt><trkpt lat="38.1671883" lon="15.8362717"><ele>1321.0</ele><time>2026-04-26T09:28:59.795Z</time></trkpt><trkpt lat="38.1671833" lon="15.8361733"><ele>1321.0</ele><time>2026-04-26T09:29:02.794Z</time></trkpt><trkpt lat="38.1672533" lon="15.8361083"><ele>1321.0</ele><time>2026-04-26T09:29:05.794Z</time></trkpt><trkpt lat="38.1673183" lon="15.8360683"><ele>1321.0</ele><time>2026-04-26T09:29:07.794Z</time></trkpt><trkpt lat="38.167305" lon="15.8359217"><ele>1321.0</ele><time>2026-04-26T09:29:10.794Z</time></trkpt><trkpt lat="38.1672617" lon="15.8358217"><ele>1321.0</ele><time>2026-04-26T09:29:11.795Z</time></trkpt><trkpt lat="38.1672067" lon="15.835695"><ele>1320.75</ele><time>2026-04-26T09:29:12.794Z</time></trkpt><trkpt lat="38.1671383" lon="15.835555"><ele>1320.5</ele><time>2026-04-26T09:29:13.794Z</time></trkpt><trkpt lat="38.167065" lon="15.8353967"><ele>1320.25</ele><time>2026-04-26T09:29:14.795Z</time></trkpt><trkpt lat="38.1669733" lon="15.83522"><ele>1320.0</ele><time>2026-04-26T09:29:15.794Z</time></trkpt><trkpt lat="38.1668417" lon="15.83503"><ele>1320.0</ele><time>2026-04-26T09:29:16.795Z</time></trkpt><trkpt lat="38.1666933" lon="15.83486"><ele>1320.0</ele><time>2026-04-26T09:29:17.795Z</time></trkpt><trkpt lat="38.166535" lon="15.8347167"><ele>1320.0</ele><time>2026-04-26T09:29:18.795Z</time></trkpt><trkpt lat="38.1663883" lon="15.8346"><ele>1321.75</ele><time>2026-04-26T09:29:19.794Z</time></trkpt><trkpt lat="38.1662533" lon="15.8344967"><ele>1323.5</ele><time>2026-04-26T09:29:20.795Z</time></trkpt><trkpt lat="38.1661267" lon="15.83441"><ele>1325.25</ele><time>2026-04-26T09:29:21.794Z</time></trkpt><trkpt lat="38.1659983" lon="15.8343567"><ele>1327.0</ele><time>2026-04-26T09:29:22.794Z</time></trkpt><trkpt lat="38.1658733" lon="15.83436"><ele>1327.0</ele><time>2026-04-26T09:29:23.794Z</time></trkpt><trkpt lat="38.1657567" lon="15.8344017"><ele>1327.0</ele><time>2026-04-26T09:29:24.794Z</time></trkpt><trkpt lat="38.1656383" lon="15.834455"><ele>1327.0</ele><time>2026-04-26T09:29:25.795Z</time></trkpt><trkpt lat="38.165535" lon="15.8345533"><ele>1327.0</ele><time>2026-04-26T09:29:26.794Z</time></trkpt><trkpt lat="38.165435" lon="15.8346667"><ele>1328.1999999999998</ele><time>2026-04-26T09:29:27.794Z</time></trkpt><trkpt lat="38.1653417" lon="15.834785"><ele>1329.4</ele><time>2026-04-26T09:29:28.795Z</time></trkpt><trkpt lat="38.1652617" lon="15.8348917"><ele>1330.6</ele><time>2026-04-26T09:29:29.794Z</time></trkpt><trkpt lat="38.16518" lon="15.83497"><ele>1331.8000000000002</ele><time>2026-04-26T09:29:30.795Z</time></trkpt><trkpt lat="38.16511" lon="15.8350317"><ele>1333.0</ele><time>2026-04-26T09:29:31.794Z</time></trkpt><trkpt lat="38.16504" lon="15.8350683"><ele>1333.0</ele><time>2026-04-26T09:29:32.795Z</time></trkpt><trkpt lat="38.1649367" lon="15.835025"><ele>1333.0</ele><time>2026-04-26T09:29:34.794Z</time></trkpt><trkpt lat="38.164905" lon="15.834955"><ele>1333.0</ele><time>2026-04-26T09:29:35.795Z</time></trkpt><trkpt lat="38.1648933" lon="15.8348583"><ele>1333.0</ele><time>2026-04-26T09:29:36.794Z</time></trkpt><trkpt lat="38.1648917" lon="15.8347483"><ele>1333.0</ele><time>2026-04-26T09:29:37.794Z</time></trkpt><trkpt lat="38.1649133" lon="15.83463"><ele>1333.0</ele><time>2026-04-26T09:29:38.794Z</time></trkpt><trkpt lat="38.1649167" lon="15.8345083"><ele>1333.0</ele><time>2026-04-26T09:29:39.795Z</time></trkpt><trkpt lat="38.1648783" lon="15.8344017"><ele>1333.0</ele><time>2026-04-26T09:29:40.794Z</time></trkpt><trkpt lat="38.1648233" lon="15.83431"><ele>1333.0</ele><time>2026-04-26T09:29:41.795Z</time></trkpt><trkpt lat="38.1647283" lon="15.8342567"><ele>1333.0</ele><time>2026-04-26T09:29:42.794Z</time></trkpt><trkpt lat="38.16461" lon="15.83423"><ele>1333.0</ele><time>2026-04-26T09:29:43.795Z</time></trkpt><trkpt lat="38.16447" lon="15.8342333"><ele>1332.3333333333333</ele><time>2026-04-26T09:29:44.794Z</time></trkpt><trkpt lat="38.1643017" lon="15.83428"><ele>1331.6666666666667</ele><time>2026-04-26T09:29:45.795Z</time></trkpt><trkpt lat="38.164135" lon="15.8343383"><ele>1331.0</ele><time>2026-04-26T09:29:46.795Z</time></trkpt><trkpt lat="38.1639917" lon="15.8343767"><ele>1331.0</ele><time>2026-04-26T09:29:47.794Z</time></trkpt><trkpt lat="38.1638683" lon="15.8344167"><ele>1331.0</ele><time>2026-04-26T09:29:48.794Z</time></trkpt><trkpt lat="38.16375" lon="15.8344417"><ele>1331.0</ele><time>2026-04-26T09:29:49.795Z</time></trkpt><trkpt lat="38.163645" lon="15.8344683"><ele>1331.0</ele><time>2026-04-26T09:29:50.794Z</time></trkpt><trkpt lat="38.163545" lon="15.8345183"><ele>1331.0</ele><time>2026-04-26T09:29:51.794Z</time></trkpt><trkpt lat="38.1634417" lon="15.8345717"><ele>1331.0</ele><time>2026-04-26T09:29:52.794Z</time></trkpt><trkpt lat="38.1633417" lon="15.8346467"><ele>1331.0</ele><time>2026-04-26T09:29:53.795Z</time></trkpt><trkpt lat="38.1632333" lon="15.8347533"><ele>1331.0</ele><time>2026-04-26T09:29:54.794Z</time></trkpt><trkpt lat="38.1631417" lon="15.8348833"><ele>1330.25</ele><time>2026-04-26T09:29:55.794Z</time></trkpt><trkpt lat="38.1630533" lon="15.8350267"><ele>1329.5</ele><time>2026-04-26T09:29:56.794Z</time></trkpt><trkpt lat="38.16297" lon="15.835185"><ele>1328.75</ele><time>2026-04-26T09:29:57.795Z</time></trkpt><trkpt lat="38.1628933" lon="15.8353533"><ele>1328.0</ele><time>2026-04-26T09:29:58.794Z</time></trkpt><trkpt lat="38.162805" lon="15.835505"><ele>1328.0</ele><time>2026-04-26T09:29:59.795Z</time></trkpt><trkpt lat="38.16271" lon="15.83565"><ele>1328.0</ele><time>2026-04-26T09:30:00.794Z</time></trkpt><trkpt lat="38.1626017" lon="15.8357967"><ele>1328.0</ele><time>2026-04-26T09:30:01.794Z</time></trkpt><trkpt lat="38.162495" lon="15.8359267"><ele>1329.5</ele><time>2026-04-26T09:30:02.795Z</time></trkpt><trkpt lat="38.162395" lon="15.83604"><ele>1331.0</ele><time>2026-04-26T09:30:03.794Z</time></trkpt><trkpt lat="38.1623067" lon="15.8361733"><ele>1332.5</ele><time>2026-04-26T09:30:04.794Z</time></trkpt><trkpt lat="38.1622283" lon="15.8363167"><ele>1334.0</ele><time>2026-04-26T09:30:05.795Z</time></trkpt><trkpt lat="38.1621633" lon="15.8364633"><ele>1335.2</ele><time>2026-04-26T09:30:06.795Z</time></trkpt><trkpt lat="38.1620967" lon="15.8365817"><ele>1336.4</ele><time>2026-04-26T09:30:07.795Z</time></trkpt><trkpt lat="38.1620183" lon="15.83667"><ele>1337.6</ele><time>2026-04-26T09:30:08.795Z</time></trkpt><trkpt lat="38.1619217" lon="15.8367267"><ele>1338.8</ele><time>2026-04-26T09:30:09.794Z</time></trkpt><trkpt lat="38.161825" lon="15.836755"><ele>1340.0</ele><time>2026-04-26T09:30:10.795Z</time></trkpt><trkpt lat="38.1617233" lon="15.83676"><ele>1340.0</ele><time>2026-04-26T09:30:11.794Z</time></trkpt><trkpt lat="38.1616583" lon="15.8367567"><ele>1340.0</ele><time>2026-04-26T09:30:12.795Z</time></trkpt><trkpt lat="38.1615783" lon="15.8366767"><ele>1340.0</ele><time>2026-04-26T09:30:14.794Z</time></trkpt><trkpt lat="38.1615617" lon="15.8365267"><ele>1340.0</ele><time>2026-04-26T09:30:16.795Z</time></trkpt><trkpt lat="38.1615967" lon="15.836405"><ele>1340.0</ele><time>2026-04-26T09:30:17.795Z</time></trkpt><trkpt lat="38.1616483" lon="15.8362717"><ele>1340.0</ele><time>2026-04-26T09:30:18.794Z</time></trkpt><trkpt lat="38.1617067" lon="15.836125"><ele>1340.0</ele><time>2026-04-26T09:30:19.795Z</time></trkpt><trkpt lat="38.1617833" lon="15.835905"><ele>1340.0</ele><time>2026-04-26T09:30:20.794Z</time></trkpt><trkpt lat="38.1618117" lon="15.8356767"><ele>1340.6666666666667</ele><time>2026-04-26T09:30:21.795Z</time></trkpt><trkpt lat="38.1618433" lon="15.835455"><ele>1341.3333333333333</ele><time>2026-04-26T09:30:22.794Z</time></trkpt><trkpt lat="38.1618533" lon="15.8352617"><ele>1342.0</ele><time>2026-04-26T09:30:23.794Z</time></trkpt><trkpt lat="38.161825" lon="15.8350867"><ele>1342.3999999999999</ele><time>2026-04-26T09:30:24.794Z</time></trkpt><trkpt lat="38.16179" lon="15.8349433"><ele>1342.8</ele><time>2026-04-26T09:30:25.794Z</time></trkpt><trkpt lat="38.1617383" lon="15.834835"><ele>1343.2</ele><time>2026-04-26T09:30:26.794Z</time></trkpt><trkpt lat="38.16168" lon="15.8347717"><ele>1343.6</ele><time>2026-04-26T09:30:27.794Z</time></trkpt><trkpt lat="38.1616233" lon="15.83473"><ele>1344.0</ele><time>2026-04-26T09:30:28.794Z</time></trkpt><trkpt lat="38.16154" lon="15.834655"><ele>1344.8333333333333</ele><time>2026-04-26T09:30:30.795Z</time></trkpt><trkpt lat="38.1614817" lon="15.83456"><ele>1345.6666666666667</ele><time>2026-04-26T09:30:33.794Z</time></trkpt><trkpt lat="38.1614483" lon="15.8344683"><ele>1346.5</ele><time>2026-04-26T09:30:35.794Z</time></trkpt><trkpt lat="38.1614233" lon="15.8343533"><ele>1347.3333333333335</ele><time>2026-04-26T09:30:37.795Z</time></trkpt><trkpt lat="38.161385" lon="15.8342267"><ele>1348.1666666666667</ele><time>2026-04-26T09:30:39.794Z</time></trkpt><trkpt lat="38.16136" lon="15.8341433"><ele>1349.0</ele><time>2026-04-26T09:30:40.795Z</time></trkpt><trkpt lat="38.1613317" lon="15.8340633"><ele>1349.0</ele><time>2026-04-26T09:30:41.795Z</time></trkpt><trkpt lat="38.161305" lon="15.8339767"><ele>1349.0</ele><time>2026-04-26T09:30:42.795Z</time></trkpt><trkpt lat="38.16127" lon="15.8338833"><ele>1349.0</ele><time>2026-04-26T09:30:43.794Z</time></trkpt><trkpt lat="38.1612333" lon="15.833785"><ele>1349.0</ele><time>2026-04-26T09:30:44.795Z</time></trkpt><trkpt lat="38.1611733" lon="15.833675"><ele>1349.0</ele><time>2026-04-26T09:30:45.795Z</time></trkpt><trkpt lat="38.1611083" lon="15.8335867"><ele>1349.0</ele><time>2026-04-26T09:30:46.794Z</time></trkpt><trkpt lat="38.16104" lon="15.83351"><ele>1347.75</ele><time>2026-04-26T09:30:47.795Z</time></trkpt><trkpt lat="38.1609417" lon="15.8334617"><ele>1346.5</ele><time>2026-04-26T09:30:48.794Z</time></trkpt><trkpt lat="38.1608333" lon="15.8334383"><ele>1345.25</ele><time>2026-04-26T09:30:49.795Z</time></trkpt><trkpt lat="38.1607117" lon="15.8334283"><ele>1344.0</ele><time>2026-04-26T09:30:50.795Z</time></trkpt><trkpt lat="38.160585" lon="15.83343"><ele>1344.0</ele><time>2026-04-26T09:30:51.795Z</time></trkpt><trkpt lat="38.1604617" lon="15.833425"><ele>1344.0</ele><time>2026-04-26T09:30:52.794Z</time></trkpt><trkpt lat="38.1603317" lon="15.8334267"><ele>1344.0</ele><time>2026-04-26T09:30:53.795Z</time></trkpt><trkpt lat="38.1601917" lon="15.8334183"><ele>1344.0</ele><time>2026-04-26T09:30:54.794Z</time></trkpt><trkpt lat="38.16005" lon="15.8334183"><ele>1344.0</ele><time>2026-04-26T09:30:55.795Z</time></trkpt><trkpt lat="38.1598917" lon="15.8334083"><ele>1344.0</ele><time>2026-04-26T09:30:56.794Z</time></trkpt><trkpt lat="38.1597283" lon="15.8334167"><ele>1344.0</ele><time>2026-04-26T09:30:57.795Z</time></trkpt><trkpt lat="38.1595667" lon="15.8334183"><ele>1345.6666666666667</ele><time>2026-04-26T09:30:58.795Z</time></trkpt><trkpt lat="38.1593983" lon="15.833415"><ele>1347.3333333333335</ele><time>2026-04-26T09:30:59.794Z</time></trkpt><trkpt lat="38.1592217" lon="15.8334067"><ele>1349.0</ele><time>2026-04-26T09:31:00.794Z</time></trkpt><trkpt lat="38.15904" lon="15.8334"><ele>1349.6666666666667</ele><time>2026-04-26T09:31:01.794Z</time></trkpt><trkpt lat="38.1588667" lon="15.83339"><ele>1350.3333333333333</ele><time>2026-04-26T09:31:02.795Z</time></trkpt><trkpt lat="38.158685" lon="15.833385"><ele>1351.0</ele><time>2026-04-26T09:31:03.794Z</time></trkpt><trkpt lat="38.1584917" lon="15.8333783"><ele>1351.0</ele><time>2026-04-26T09:31:04.794Z</time></trkpt><trkpt lat="38.158285" lon="15.8333683"><ele>1351.0</ele><time>2026-04-26T09:31:05.794Z</time></trkpt><trkpt lat="38.1580983" lon="15.8333517"><ele>1351.0</ele><time>2026-04-26T09:31:06.794Z</time></trkpt><trkpt lat="38.1579167" lon="15.8333383"><ele>1352.0</ele><time>2026-04-26T09:31:07.795Z</time></trkpt><trkpt lat="38.15774" lon="15.8333217"><ele>1353.0</ele><time>2026-04-26T09:31:08.795Z</time></trkpt><trkpt lat="38.157575" lon="15.8333"><ele>1354.0</ele><time>2026-04-26T09:31:09.795Z</time></trkpt><trkpt lat="38.15743" lon="15.83329"><ele>1354.5</ele><time>2026-04-26T09:31:10.794Z</time></trkpt><trkpt lat="38.1572933" lon="15.833275"><ele>1355.0</ele><time>2026-04-26T09:31:11.794Z</time></trkpt><trkpt lat="38.1571617" lon="15.8332567"><ele>1355.5</ele><time>2026-04-26T09:31:12.794Z</time></trkpt><trkpt lat="38.1570417" lon="15.833225"><ele>1356.0</ele><time>2026-04-26T09:31:13.795Z</time></trkpt><trkpt lat="38.1569367" lon="15.8332067"><ele>1356.0</ele><time>2026-04-26T09:31:14.795Z</time></trkpt><trkpt lat="38.156845" lon="15.8331783"><ele>1356.0</ele><time>2026-04-26T09:31:15.795Z</time></trkpt><trkpt lat="38.156755" lon="15.833155"><ele>1356.0</ele><time>2026-04-26T09:31:16.794Z</time></trkpt><trkpt lat="38.1566667" lon="15.8331433"><ele>1356.0</ele><time>2026-04-26T09:31:17.795Z</time></trkpt><trkpt lat="38.1565767" lon="15.8331317"><ele>1356.0</ele><time>2026-04-26T09:31:18.795Z</time></trkpt><trkpt lat="38.1564833" lon="15.83311"><ele>1356.1999999999998</ele><time>2026-04-26T09:31:19.794Z</time></trkpt><trkpt lat="38.15639" lon="15.833105"><ele>1356.3999999999999</ele><time>2026-04-26T09:31:20.795Z</time></trkpt><trkpt lat="38.1562883" lon="15.83309"><ele>1356.6</ele><time>2026-04-26T09:31:21.795Z</time></trkpt><trkpt lat="38.156185" lon="15.8330767"><ele>1356.8</ele><time>2026-04-26T09:31:22.795Z</time></trkpt><trkpt lat="38.1560917" lon="15.8330767"><ele>1357.0</ele><time>2026-04-26T09:31:23.794Z</time></trkpt><trkpt lat="38.1560067" lon="15.83306"><ele>1357.0</ele><time>2026-04-26T09:31:24.794Z</time></trkpt><trkpt lat="38.1559317" lon="15.833045"><ele>1357.0</ele><time>2026-04-26T09:31:25.794Z</time></trkpt><trkpt lat="38.1558333" lon="15.8330267"><ele>1357.0</ele><time>2026-04-26T09:31:27.795Z</time></trkpt><trkpt lat="38.1557517" lon="15.8329817"><ele>1357.0</ele><time>2026-04-26T09:31:29.795Z</time></trkpt><trkpt lat="38.1556917" lon="15.832945"><ele>1357.0</ele><time>2026-04-26T09:31:30.795Z</time></trkpt><trkpt lat="38.155585" lon="15.8328667"><ele>1357.6</ele><time>2026-04-26T09:31:32.794Z</time></trkpt><trkpt lat="38.1555133" lon="15.8328233"><ele>1358.1999999999998</ele><time>2026-04-26T09:31:33.794Z</time></trkpt><trkpt lat="38.15543" lon="15.8327817"><ele>1358.8</ele><time>2026-04-26T09:31:34.794Z</time></trkpt><trkpt lat="38.15534" lon="15.83274"><ele>1359.4</ele><time>2026-04-26T09:31:35.794Z</time></trkpt><trkpt lat="38.1552467" lon="15.8326983"><ele>1360.0</ele><time>2026-04-26T09:31:36.794Z</time></trkpt><trkpt lat="38.1551433" lon="15.83266"><ele>1358.25</ele><time>2026-04-26T09:31:37.794Z</time></trkpt><trkpt lat="38.1550267" lon="15.83262"><ele>1356.5</ele><time>2026-04-26T09:31:38.795Z</time></trkpt><trkpt lat="38.1548833" lon="15.8325833"><ele>1354.75</ele><time>2026-04-26T09:31:39.794Z</time></trkpt><trkpt lat="38.154735" lon="15.8325467"><ele>1353.0</ele><time>2026-04-26T09:31:40.795Z</time></trkpt><trkpt lat="38.1545833" lon="15.8325067"><ele>1353.0</ele><time>2026-04-26T09:31:41.794Z</time></trkpt><trkpt lat="38.15442" lon="15.8324667"><ele>1353.0</ele><time>2026-04-26T09:31:42.794Z</time></trkpt><trkpt lat="38.1542433" lon="15.8324233"><ele>1353.0</ele><time>2026-04-26T09:31:43.795Z</time></trkpt><trkpt lat="38.15407" lon="15.8323767"><ele>1352.3333333333333</ele><time>2026-04-26T09:31:44.794Z</time></trkpt><trkpt lat="38.1538967" lon="15.83233"><ele>1351.6666666666665</ele><time>2026-04-26T09:31:45.794Z</time></trkpt><trkpt lat="38.1537283" lon="15.8322733"><ele>1351.0</ele><time>2026-04-26T09:31:46.794Z</time></trkpt><trkpt lat="38.1535633" lon="15.8322217"><ele>1351.0</ele><time>2026-04-26T09:31:47.795Z</time></trkpt><trkpt lat="38.1534033" lon="15.832165"><ele>1351.0</ele><time>2026-04-26T09:31:48.795Z</time></trkpt><trkpt lat="38.1532583" lon="15.8321167"><ele>1351.0</ele><time>2026-04-26T09:31:49.795Z</time></trkpt><trkpt lat="38.15312" lon="15.8320783"><ele>1353.0</ele><time>2026-04-26T09:31:50.795Z</time></trkpt><trkpt lat="38.1529883" lon="15.83204"><ele>1355.0</ele><time>2026-04-26T09:31:51.794Z</time></trkpt><trkpt lat="38.1528617" lon="15.831995"><ele>1357.0</ele><time>2026-04-26T09:31:52.795Z</time></trkpt><trkpt lat="38.152735" lon="15.831955"><ele>1359.0</ele><time>2026-04-26T09:31:53.795Z</time></trkpt><trkpt lat="38.1526217" lon="15.8319217"><ele>1359.0</ele><time>2026-04-26T09:31:54.795Z</time></trkpt><trkpt lat="38.15252" lon="15.831895"><ele>1359.0</ele><time>2026-04-26T09:31:55.794Z</time></trkpt><trkpt lat="38.15242" lon="15.83186"><ele>1359.0</ele><time>2026-04-26T09:31:56.795Z</time></trkpt><trkpt lat="38.1523217" lon="15.831825"><ele>1359.0</ele><time>2026-04-26T09:31:57.794Z</time></trkpt><trkpt lat="38.1522283" lon="15.8317933"><ele>1359.0</ele><time>2026-04-26T09:31:58.794Z</time></trkpt><trkpt lat="38.1521533" lon="15.83176"><ele>1357.5</ele><time>2026-04-26T09:31:59.794Z</time></trkpt><trkpt lat="38.152075" lon="15.8317233"><ele>1356.0</ele><time>2026-04-26T09:32:00.794Z</time></trkpt><trkpt lat="38.1520017" lon="15.83169"><ele>1354.5</ele><time>2026-04-26T09:32:01.794Z</time></trkpt><trkpt lat="38.1519217" lon="15.831665"><ele>1353.0</ele><time>2026-04-26T09:32:02.794Z</time></trkpt><trkpt lat="38.1518533" lon="15.8316433"><ele>1351.5</ele><time>2026-04-26T09:32:03.794Z</time></trkpt><trkpt lat="38.1517883" lon="15.83163"><ele>1350.0</ele><time>2026-04-26T09:32:04.795Z</time></trkpt><trkpt lat="38.151675" lon="15.8316333"><ele>1350.0</ele><time>2026-04-26T09:32:06.795Z</time></trkpt><trkpt lat="38.151585" lon="15.8316733"><ele>1350.0</ele><time>2026-04-26T09:32:08.794Z</time></trkpt><trkpt lat="38.1515133" lon="15.8317233"><ele>1350.0</ele><time>2026-04-26T09:32:10.794Z</time></trkpt><trkpt lat="38.1514217" lon="15.8317767"><ele>1350.0</ele><time>2026-04-26T09:32:12.795Z</time></trkpt><trkpt lat="38.1513633" lon="15.8318067"><ele>1350.0</ele><time>2026-04-26T09:32:13.795Z</time></trkpt><trkpt lat="38.1513017" lon="15.83183"><ele>1350.0</ele><time>2026-04-26T09:32:14.794Z</time></trkpt><trkpt lat="38.1512367" lon="15.8318433"><ele>1349.5</ele><time>2026-04-26T09:32:15.794Z</time></trkpt><trkpt lat="38.1511667" lon="15.8318417"><ele>1349.0</ele><time>2026-04-26T09:32:16.794Z</time></trkpt><trkpt lat="38.15109" lon="15.8318217"><ele>1348.5</ele><time>2026-04-26T09:32:17.794Z</time></trkpt><trkpt lat="38.151015" lon="15.8317833"><ele>1348.0</ele><time>2026-04-26T09:32:18.795Z</time></trkpt><trkpt lat="38.1509383" lon="15.8317317"><ele>1347.5</ele><time>2026-04-26T09:32:19.795Z</time></trkpt><trkpt lat="38.1508483" lon="15.8316567"><ele>1347.0</ele><time>2026-04-26T09:32:20.795Z</time></trkpt><trkpt lat="38.150755" lon="15.8315983"><ele>1346.0</ele><time>2026-04-26T09:32:21.794Z</time></trkpt><trkpt lat="38.1506733" lon="15.8315733"><ele>1345.0</ele><time>2026-04-26T09:32:22.794Z</time></trkpt><trkpt lat="38.1505933" lon="15.8315683"><ele>1344.0</ele><time>2026-04-26T09:32:23.795Z</time></trkpt><trkpt lat="38.1505083" lon="15.8315867"><ele>1343.0</ele><time>2026-04-26T09:32:24.795Z</time></trkpt><trkpt lat="38.1504183" lon="15.8316467"><ele>1342.0</ele><time>2026-04-26T09:32:25.795Z</time></trkpt><trkpt lat="38.15032" lon="15.8317267"><ele>1344.1999999999998</ele><time>2026-04-26T09:32:26.795Z</time></trkpt><trkpt lat="38.1502167" lon="15.8318233"><ele>1346.4</ele><time>2026-04-26T09:32:27.794Z</time></trkpt><trkpt lat="38.15013" lon="15.8318983"><ele>1348.6</ele><time>2026-04-26T09:32:28.794Z</time></trkpt><trkpt lat="38.1500383" lon="15.8319533"><ele>1350.8000000000002</ele><time>2026-04-26T09:32:29.795Z</time></trkpt><trkpt lat="38.1499533" lon="15.8319867"><ele>1353.0</ele><time>2026-04-26T09:32:30.794Z</time></trkpt><trkpt lat="38.149865" lon="15.83199"><ele>1353.0</ele><time>2026-04-26T09:32:31.795Z</time></trkpt><trkpt lat="38.1497533" lon="15.831965"><ele>1353.0</ele><time>2026-04-26T09:32:32.795Z</time></trkpt><trkpt lat="38.14965" lon="15.8319117"><ele>1353.0</ele><time>2026-04-26T09:32:33.794Z</time></trkpt><trkpt lat="38.1495483" lon="15.8318483"><ele>1353.0</ele><time>2026-04-26T09:32:34.794Z</time></trkpt><trkpt lat="38.14945" lon="15.831775"><ele>1350.0</ele><time>2026-04-26T09:32:35.795Z</time></trkpt><trkpt lat="38.1493533" lon="15.8316717"><ele>1347.0</ele><time>2026-04-26T09:32:36.794Z</time></trkpt><trkpt lat="38.149255" lon="15.831555"><ele>1344.0</ele><time>2026-04-26T09:32:37.794Z</time></trkpt><trkpt lat="38.1491733" lon="15.8314583"><ele>1341.0</ele><time>2026-04-26T09:32:38.794Z</time></trkpt><trkpt lat="38.1490883" lon="15.8313867"><ele>1342.3333333333333</ele><time>2026-04-26T09:32:39.794Z</time></trkpt><trkpt lat="38.1490033" lon="15.8313467"><ele>1343.6666666666667</ele><time>2026-04-26T09:32:40.794Z</time></trkpt><trkpt lat="38.1489" lon="15.8313367"><ele>1345.0</ele><time>2026-04-26T09:32:41.795Z</time></trkpt><trkpt lat="38.148805" lon="15.831355"><ele>1346.3333333333335</ele><time>2026-04-26T09:32:42.795Z</time></trkpt><trkpt lat="38.1487267" lon="15.8313883"><ele>1347.6666666666667</ele><time>2026-04-26T09:32:43.795Z</time></trkpt><trkpt lat="38.1486617" lon="15.83141"><ele>1349.0</ele><time>2026-04-26T09:32:44.795Z</time></trkpt><trkpt lat="38.1485933" lon="15.8315067"><ele>1349.0</ele><time>2026-04-26T09:32:46.794Z</time></trkpt><trkpt lat="38.1485533" lon="15.83161"><ele>1349.0</ele><time>2026-04-26T09:32:48.795Z</time></trkpt><trkpt lat="38.1485083" lon="15.8317217"><ele>1349.0</ele><time>2026-04-26T09:32:50.795Z</time></trkpt><trkpt lat="38.1484767" lon="15.831825"><ele>1349.0</ele><time>2026-04-26T09:32:52.794Z</time></trkpt><trkpt lat="38.148445" lon="15.831925"><ele>1349.0</ele><time>2026-04-26T09:32:54.794Z</time></trkpt><trkpt lat="38.1484067" lon="15.8320367"><ele>1350.0</ele><time>2026-04-26T09:32:56.795Z</time></trkpt><trkpt lat="38.14836" lon="15.83214"><ele>1351.0</ele><time>2026-04-26T09:32:58.794Z</time></trkpt><trkpt lat="38.14832" lon="15.8322167"><ele>1352.0</ele><time>2026-04-26T09:33:00.795Z</time></trkpt><trkpt lat="38.148255" lon="15.8323"><ele>1353.0</ele><time>2026-04-26T09:33:03.795Z</time></trkpt><trkpt lat="38.1481783" lon="15.8323433"><ele>1354.0</ele><time>2026-04-26T09:33:05.795Z</time></trkpt><trkpt lat="38.1480883" lon="15.8323733"><ele>1355.0</ele><time>2026-04-26T09:33:07.795Z</time></trkpt><trkpt lat="38.1479883" lon="15.83244"><ele>1355.0</ele><time>2026-04-26T09:33:09.794Z</time></trkpt><trkpt lat="38.14792" lon="15.8325"><ele>1355.0</ele><time>2026-04-26T09:33:10.794Z</time></trkpt><trkpt lat="38.147855" lon="15.83256"><ele>1355.0</ele><time>2026-04-26T09:33:11.795Z</time></trkpt><trkpt lat="38.1477883" lon="15.83263"><ele>1355.0</ele><time>2026-04-26T09:33:12.795Z</time></trkpt><trkpt lat="38.147715" lon="15.8326967"><ele>1355.0</ele><time>2026-04-26T09:33:13.795Z</time></trkpt><trkpt lat="38.1476433" lon="15.8327683"><ele>1355.0</ele><time>2026-04-26T09:33:14.795Z</time></trkpt><trkpt lat="38.147575" lon="15.83284"><ele>1357.3333333333335</ele><time>2026-04-26T09:33:15.795Z</time></trkpt><trkpt lat="38.1475083" lon="15.8329133"><ele>1359.6666666666667</ele><time>2026-04-26T09:33:16.795Z</time></trkpt><trkpt lat="38.1474433" lon="15.8330017"><ele>1362.0</ele><time>2026-04-26T09:33:17.794Z</time></trkpt><trkpt lat="38.14739" lon="15.83309"><ele>1364.3333333333333</ele><time>2026-04-26T09:33:18.795Z</time></trkpt><trkpt lat="38.14734" lon="15.83318"><ele>1366.6666666666665</ele><time>2026-04-26T09:33:19.794Z</time></trkpt><trkpt lat="38.1472983" lon="15.8332733"><ele>1369.0</ele><time>2026-04-26T09:33:20.794Z</time></trkpt><trkpt lat="38.1472583" lon="15.8333617"><ele>1366.8000000000002</ele><time>2026-04-26T09:33:21.794Z</time></trkpt><trkpt lat="38.1472233" lon="15.83344"><ele>1364.6000000000001</ele><time>2026-04-26T09:33:22.795Z</time></trkpt><trkpt lat="38.1471967" lon="15.8335183"><ele>1362.4</ele><time>2026-04-26T09:33:23.795Z</time></trkpt><trkpt lat="38.1471783" lon="15.83367"><ele>1360.2</ele><time>2026-04-26T09:33:25.795Z</time></trkpt><trkpt lat="38.1471683" lon="15.833805"><ele>1358.0</ele><time>2026-04-26T09:33:27.794Z</time></trkpt><trkpt lat="38.147145" lon="15.8339267"><ele>1358.0</ele><time>2026-04-26T09:33:29.795Z</time></trkpt><trkpt lat="38.1471083" lon="15.8340467"><ele>1358.0</ele><time>2026-04-26T09:33:31.795Z</time></trkpt><trkpt lat="38.1470467" lon="15.834135"><ele>1358.0</ele><time>2026-04-26T09:33:33.794Z</time></trkpt><trkpt lat="38.1469683" lon="15.8342233"><ele>1358.0</ele><time>2026-04-26T09:33:35.795Z</time></trkpt><trkpt lat="38.146875" lon="15.8343333"><ele>1358.0</ele><time>2026-04-26T09:33:37.795Z</time></trkpt><trkpt lat="38.1468117" lon="15.8344033"><ele>1357.0</ele><time>2026-04-26T09:33:38.794Z</time></trkpt><trkpt lat="38.14674" lon="15.8344733"><ele>1356.0</ele><time>2026-04-26T09:33:39.795Z</time></trkpt><trkpt lat="38.1466733" lon="15.8345717"><ele>1355.0</ele><time>2026-04-26T09:33:40.795Z</time></trkpt><trkpt lat="38.1466183" lon="15.8346467"><ele>1354.0</ele><time>2026-04-26T09:33:41.794Z</time></trkpt><trkpt lat="38.1465767" lon="15.8347233"><ele>1353.0</ele><time>2026-04-26T09:33:42.794Z</time></trkpt><trkpt lat="38.1465217" lon="15.8348633"><ele>1353.0</ele><time>2026-04-26T09:33:44.795Z</time></trkpt><trkpt lat="38.1464883" lon="15.8349717"><ele>1353.0</ele><time>2026-04-26T09:33:46.795Z</time></trkpt><trkpt lat="38.14646" lon="15.83507"><ele>1353.0</ele><time>2026-04-26T09:33:48.794Z</time></trkpt><trkpt lat="38.1464217" lon="15.83519"><ele>1353.0</ele><time>2026-04-26T09:33:50.795Z</time></trkpt><trkpt lat="38.1463733" lon="15.8353217"><ele>1353.0</ele><time>2026-04-26T09:33:52.794Z</time></trkpt><trkpt lat="38.14634" lon="15.8354233"><ele>1356.0</ele><time>2026-04-26T09:33:53.795Z</time></trkpt><trkpt lat="38.1463033" lon="15.8355117"><ele>1359.0</ele><time>2026-04-26T09:33:54.794Z</time></trkpt><trkpt lat="38.146265" lon="15.8355933"><ele>1362.0</ele><time>2026-04-26T09:33:55.795Z</time></trkpt><trkpt lat="38.1462167" lon="15.8356667"><ele>1365.0</ele><time>2026-04-26T09:33:56.794Z</time></trkpt><trkpt lat="38.1461383" lon="15.8357483"><ele>1368.0</ele><time>2026-04-26T09:33:57.795Z</time></trkpt><trkpt lat="38.1460567" lon="15.83583"><ele>1371.0</ele><time>2026-04-26T09:33:58.794Z</time></trkpt><trkpt lat="38.145965" lon="15.8359317"><ele>1368.5</ele><time>2026-04-26T09:33:59.795Z</time></trkpt><trkpt lat="38.1458867" lon="15.8360517"><ele>1366.0</ele><time>2026-04-26T09:34:00.794Z</time></trkpt><trkpt lat="38.1458017" lon="15.8361867"><ele>1363.5</ele><time>2026-04-26T09:34:01.794Z</time></trkpt><trkpt lat="38.1457183" lon="15.8363217"><ele>1361.0</ele><time>2026-04-26T09:34:02.794Z</time></trkpt><trkpt lat="38.1456383" lon="15.8364667"><ele>1361.0</ele><time>2026-04-26T09:34:03.795Z</time></trkpt><trkpt lat="38.1455783" lon="15.836605"><ele>1361.0</ele><time>2026-04-26T09:34:04.794Z</time></trkpt><trkpt lat="38.1455483" lon="15.836725"><ele>1361.0</ele><time>2026-04-26T09:34:05.795Z</time></trkpt><trkpt lat="38.1455283" lon="15.83684"><ele>1361.0</ele><time>2026-04-26T09:34:06.794Z</time></trkpt><trkpt lat="38.145525" lon="15.83696"><ele>1361.0</ele><time>2026-04-26T09:34:07.795Z</time></trkpt><trkpt lat="38.1455367" lon="15.83707"><ele>1362.8333333333335</ele><time>2026-04-26T09:34:08.794Z</time></trkpt><trkpt lat="38.1455633" lon="15.8371733"><ele>1364.6666666666667</ele><time>2026-04-26T09:34:09.794Z</time></trkpt><trkpt lat="38.14559" lon="15.8372583"><ele>1366.5</ele><time>2026-04-26T09:34:10.794Z</time></trkpt><trkpt lat="38.145625" lon="15.837385"><ele>1368.3333333333333</ele><time>2026-04-26T09:34:12.795Z</time></trkpt><trkpt lat="38.1456267" lon="15.8374883"><ele>1370.1666666666665</ele><time>2026-04-26T09:34:14.794Z</time></trkpt><trkpt lat="38.1456033" lon="15.8375783"><ele>1372.0</ele><time>2026-04-26T09:34:15.795Z</time></trkpt><trkpt lat="38.1455517" lon="15.8376667"><ele>1374.6</ele><time>2026-04-26T09:34:16.794Z</time></trkpt><trkpt lat="38.1454767" lon="15.8377633"><ele>1377.1999999999998</ele><time>2026-04-26T09:34:17.794Z</time></trkpt><trkpt lat="38.145415" lon="15.8378667"><ele>1379.8</ele><time>2026-04-26T09:34:18.794Z</time></trkpt><trkpt lat="38.1453383" lon="15.83795"><ele>1382.4</ele><time>2026-04-26T09:34:19.794Z</time></trkpt><trkpt lat="38.1452933" lon="15.8380283"><ele>1385.0</ele><time>2026-04-26T09:34:20.794Z</time></trkpt><trkpt lat="38.1452467" lon="15.8380933"><ele>1385.0</ele><time>2026-04-26T09:34:21.794Z</time></trkpt><trkpt lat="38.145195" lon="15.8381667"><ele>1385.0</ele><time>2026-04-26T09:34:22.794Z</time></trkpt><trkpt lat="38.1451467" lon="15.8382467"><ele>1385.0</ele><time>2026-04-26T09:34:23.794Z</time></trkpt><trkpt lat="38.1451033" lon="15.8383467"><ele>1385.0</ele><time>2026-04-26T09:34:24.794Z</time></trkpt><trkpt lat="38.14507" lon="15.8384567"><ele>1385.0</ele><time>2026-04-26T09:34:25.795Z</time></trkpt><trkpt lat="38.1450483" lon="15.8385567"><ele>1385.0</ele><time>2026-04-26T09:34:26.794Z</time></trkpt><trkpt lat="38.1450467" lon="15.83866"><ele>1387.6</ele><time>2026-04-26T09:34:27.795Z</time></trkpt><trkpt lat="38.145065" lon="15.8388033"><ele>1390.2</ele><time>2026-04-26T09:34:29.795Z</time></trkpt><trkpt lat="38.1450717" lon="15.8389183"><ele>1392.8000000000002</ele><time>2026-04-26T09:34:31.794Z</time></trkpt><trkpt lat="38.14504" lon="15.839035"><ele>1395.4</ele><time>2026-04-26T09:34:33.794Z</time></trkpt><trkpt lat="38.1450017" lon="15.8391083"><ele>1398.0</ele><time>2026-04-26T09:34:34.794Z</time></trkpt><trkpt lat="38.144935" lon="15.8392483"><ele>1395.6000000000001</ele><time>2026-04-26T09:34:35.794Z</time></trkpt><trkpt lat="38.144855" lon="15.83938"><ele>1393.2</ele><time>2026-04-26T09:34:36.794Z</time></trkpt><trkpt lat="38.1447883" lon="15.8394917"><ele>1390.8</ele><time>2026-04-26T09:34:37.795Z</time></trkpt><trkpt lat="38.144735" lon="15.8396033"><ele>1388.4</ele><time>2026-04-26T09:34:38.795Z</time></trkpt><trkpt lat="38.1447017" lon="15.839715"><ele>1386.0</ele><time>2026-04-26T09:34:39.794Z</time></trkpt><trkpt lat="38.14469" lon="15.8398417"><ele>1386.0</ele><time>2026-04-26T09:34:40.794Z</time></trkpt><trkpt lat="38.144705" lon="15.8399717"><ele>1386.0</ele><time>2026-04-26T09:34:41.794Z</time></trkpt><trkpt lat="38.144735" lon="15.8401017"><ele>1386.0</ele><time>2026-04-26T09:34:42.794Z</time></trkpt><trkpt lat="38.1447883" lon="15.840225"><ele>1386.0</ele><time>2026-04-26T09:34:43.795Z</time></trkpt><trkpt lat="38.1448483" lon="15.8403367"><ele>1386.0</ele><time>2026-04-26T09:34:44.795Z</time></trkpt><trkpt lat="38.1448983" lon="15.84043"><ele>1387.6</ele><time>2026-04-26T09:34:45.794Z</time></trkpt><trkpt lat="38.14493" lon="15.84053"><ele>1389.1999999999998</ele><time>2026-04-26T09:34:46.795Z</time></trkpt><trkpt lat="38.1448833" lon="15.84066"><ele>1390.8000000000002</ele><time>2026-04-26T09:34:48.794Z</time></trkpt><trkpt lat="38.1448267" lon="15.8407283"><ele>1392.4</ele><time>2026-04-26T09:34:49.794Z</time></trkpt><trkpt lat="38.1447567" lon="15.8408"><ele>1394.0</ele><time>2026-04-26T09:34:50.794Z</time></trkpt><trkpt lat="38.1446967" lon="15.8408867"><ele>1394.0</ele><time>2026-04-26T09:34:51.794Z</time></trkpt><trkpt lat="38.14465" lon="15.8409617"><ele>1394.0</ele><time>2026-04-26T09:34:52.794Z</time></trkpt><trkpt lat="38.1446217" lon="15.8410383"><ele>1394.0</ele><time>2026-04-26T09:34:53.795Z</time></trkpt><trkpt lat="38.1446167" lon="15.84118"><ele>1394.0</ele><time>2026-04-26T09:34:55.794Z</time></trkpt><trkpt lat="38.1446167" lon="15.84131"><ele>1394.0</ele><time>2026-04-26T09:34:57.794Z</time></trkpt><trkpt lat="38.14456" lon="15.841385"><ele>1394.0</ele><time>2026-04-26T09:34:59.795Z</time></trkpt><trkpt lat="38.1445" lon="15.8414267"><ele>1395.0</ele><time>2026-04-26T09:35:00.794Z</time></trkpt><trkpt lat="38.1444317" lon="15.841475"><ele>1396.0</ele><time>2026-04-26T09:35:01.794Z</time></trkpt><trkpt lat="38.14437" lon="15.84155"><ele>1397.0</ele><time>2026-04-26T09:35:02.795Z</time></trkpt><trkpt lat="38.1443267" lon="15.8416333"><ele>1398.0</ele><time>2026-04-26T09:35:03.794Z</time></trkpt><trkpt lat="38.14429" lon="15.84174"><ele>1399.0</ele><time>2026-04-26T09:35:04.795Z</time></trkpt><trkpt lat="38.144265" lon="15.8418667"><ele>1400.0</ele><time>2026-04-26T09:35:05.794Z</time></trkpt><trkpt lat="38.144255" lon="15.8420217"><ele>1403.5</ele><time>2026-04-26T09:35:06.794Z</time></trkpt><trkpt lat="38.14423" lon="15.842175"><ele>1407.0</ele><time>2026-04-26T09:35:07.794Z</time></trkpt><trkpt lat="38.1442033" lon="15.8423433"><ele>1410.5</ele><time>2026-04-26T09:35:08.794Z</time></trkpt><trkpt lat="38.1441767" lon="15.8425417"><ele>1414.0</ele><time>2026-04-26T09:35:09.795Z</time></trkpt><trkpt lat="38.1441233" lon="15.842735"><ele>1413.6666666666665</ele><time>2026-04-26T09:35:10.795Z</time></trkpt><trkpt lat="38.1440583" lon="15.8429517"><ele>1413.3333333333333</ele><time>2026-04-26T09:35:11.795Z</time></trkpt><trkpt lat="38.143975" lon="15.84314"><ele>1413.0</ele><time>2026-04-26T09:35:12.795Z</time></trkpt><trkpt lat="38.1438767" lon="15.8433283"><ele>1415.0</ele><time>2026-04-26T09:35:13.794Z</time></trkpt><trkpt lat="38.143775" lon="15.8435"><ele>1417.0</ele><time>2026-04-26T09:35:14.794Z</time></trkpt><trkpt lat="38.1436783" lon="15.8436517"><ele>1419.0</ele><time>2026-04-26T09:35:15.795Z</time></trkpt><trkpt lat="38.1436017" lon="15.8437817"><ele>1419.0</ele><time>2026-04-26T09:35:16.795Z</time></trkpt><trkpt lat="38.143545" lon="15.843895"><ele>1419.0</ele><time>2026-04-26T09:35:17.795Z</time></trkpt><trkpt lat="38.1435017" lon="15.844"><ele>1419.0</ele><time>2026-04-26T09:35:18.795Z</time></trkpt><trkpt lat="38.1434867" lon="15.8441067"><ele>1419.0</ele><time>2026-04-26T09:35:19.795Z</time></trkpt><trkpt lat="38.143475" lon="15.844205"><ele>1419.0</ele><time>2026-04-26T09:35:20.795Z</time></trkpt><trkpt lat="38.1434933" lon="15.8443167"><ele>1420.0</ele><time>2026-04-26T09:35:21.795Z</time></trkpt><trkpt lat="38.1435383" lon="15.84444"><ele>1421.0</ele><time>2026-04-26T09:35:22.795Z</time></trkpt><trkpt lat="38.1435967" lon="15.8445733"><ele>1422.0</ele><time>2026-04-26T09:35:23.794Z</time></trkpt><trkpt lat="38.1436717" lon="15.8447083"><ele>1423.0</ele><time>2026-04-26T09:35:24.794Z</time></trkpt><trkpt lat="38.143755" lon="15.8448417"><ele>1423.0</ele><time>2026-04-26T09:35:25.795Z</time></trkpt><trkpt lat="38.143825" lon="15.84497"><ele>1423.0</ele><time>2026-04-26T09:35:26.795Z</time></trkpt><trkpt lat="38.1439017" lon="15.8450883"><ele>1423.0</ele><time>2026-04-26T09:35:27.794Z</time></trkpt><trkpt lat="38.1439717" lon="15.8452033"><ele>1423.0</ele><time>2026-04-26T09:35:28.794Z</time></trkpt><trkpt lat="38.144035" lon="15.845315"><ele>1426.5</ele><time>2026-04-26T09:35:29.794Z</time></trkpt><trkpt lat="38.1440817" lon="15.845415"><ele>1430.0</ele><time>2026-04-26T09:35:30.795Z</time></trkpt><trkpt lat="38.1441133" lon="15.8455067"><ele>1433.5</ele><time>2026-04-26T09:35:31.795Z</time></trkpt><trkpt lat="38.14414" lon="15.8456067"><ele>1437.0</ele><time>2026-04-26T09:35:33.795Z</time></trkpt><trkpt lat="38.14405" lon="15.8455533"><ele>1440.5</ele><time>2026-04-26T09:35:37.795Z</time></trkpt><trkpt lat="38.14399" lon="15.845495"><ele>1444.0</ele><time>2026-04-26T09:35:38.795Z</time></trkpt><trkpt lat="38.1439033" lon="15.8454217"><ele>1444.0</ele><time>2026-04-26T09:35:39.795Z</time></trkpt><trkpt lat="38.1437983" lon="15.8453467"><ele>1444.0</ele><time>2026-04-26T09:35:40.794Z</time></trkpt><trkpt lat="38.1436933" lon="15.8452667"><ele>1444.0</ele><time>2026-04-26T09:35:41.794Z</time></trkpt><trkpt lat="38.14358" lon="15.8451817"><ele>1444.0</ele><time>2026-04-26T09:35:42.794Z</time></trkpt><trkpt lat="38.1434817" lon="15.8451267"><ele>1443.2</ele><time>2026-04-26T09:35:43.794Z</time></trkpt><trkpt lat="38.1434" lon="15.8450917"><ele>1442.4</ele><time>2026-04-26T09:35:44.794Z</time></trkpt><trkpt lat="38.1433067" lon="15.845095"><ele>1441.6</ele><time>2026-04-26T09:35:45.794Z</time></trkpt><trkpt lat="38.1432083" lon="15.8451517"><ele>1440.8</ele><time>2026-04-26T09:35:46.794Z</time></trkpt><trkpt lat="38.1431117" lon="15.845235"><ele>1440.0</ele><time>2026-04-26T09:35:47.795Z</time></trkpt><trkpt lat="38.1430233" lon="15.8453367"><ele>1440.0</ele><time>2026-04-26T09:35:48.794Z</time></trkpt><trkpt lat="38.14296" lon="15.8454583"><ele>1440.0</ele><time>2026-04-26T09:35:49.794Z</time></trkpt><trkpt lat="38.1429317" lon="15.8456067"><ele>1440.0</ele><time>2026-04-26T09:35:50.794Z</time></trkpt><trkpt lat="38.1429217" lon="15.845765"><ele>1440.0</ele><time>2026-04-26T09:35:51.795Z</time></trkpt><trkpt lat="38.1429283" lon="15.845915"><ele>1441.0</ele><time>2026-04-26T09:35:52.794Z</time></trkpt><trkpt lat="38.1429317" lon="15.846055"><ele>1442.0</ele><time>2026-04-26T09:35:53.794Z</time></trkpt><trkpt lat="38.1429317" lon="15.846205"><ele>1443.0</ele><time>2026-04-26T09:35:54.794Z</time></trkpt><trkpt lat="38.142925" lon="15.846345"><ele>1444.0</ele><time>2026-04-26T09:35:55.794Z</time></trkpt><trkpt lat="38.1429217" lon="15.8464683"><ele>1445.0</ele><time>2026-04-26T09:35:56.794Z</time></trkpt><trkpt lat="38.1429367" lon="15.84659"><ele>1445.0</ele><time>2026-04-26T09:35:57.795Z</time></trkpt><trkpt lat="38.14296" lon="15.84671"><ele>1445.0</ele><time>2026-04-26T09:35:58.794Z</time></trkpt><trkpt lat="38.1429833" lon="15.8468333"><ele>1445.0</ele><time>2026-04-26T09:35:59.795Z</time></trkpt><trkpt lat="38.1429983" lon="15.846965"><ele>1445.0</ele><time>2026-04-26T09:36:00.795Z</time></trkpt><trkpt lat="38.14301" lon="15.8471017"><ele>1445.0</ele><time>2026-04-26T09:36:01.794Z</time></trkpt><trkpt lat="38.1430217" lon="15.847235"><ele>1446.4</ele><time>2026-04-26T09:36:02.794Z</time></trkpt><trkpt lat="38.14305" lon="15.8473583"><ele>1447.8</ele><time>2026-04-26T09:36:03.794Z</time></trkpt><trkpt lat="38.1430983" lon="15.84748"><ele>1449.1999999999998</ele><time>2026-04-26T09:36:04.795Z</time></trkpt><trkpt lat="38.1431533" lon="15.8475967"><ele>1450.6</ele><time>2026-04-26T09:36:05.795Z</time></trkpt><trkpt lat="38.143215" lon="15.847705"><ele>1452.0</ele><time>2026-04-26T09:36:06.794Z</time></trkpt><trkpt lat="38.1432833" lon="15.8478133"><ele>1452.0</ele><time>2026-04-26T09:36:07.794Z</time></trkpt><trkpt lat="38.1433383" lon="15.8479183"><ele>1452.0</ele><time>2026-04-26T09:36:08.794Z</time></trkpt><trkpt lat="38.1433917" lon="15.8479983"><ele>1452.0</ele><time>2026-04-26T09:36:09.794Z</time></trkpt><trkpt lat="38.14343" lon="15.8480933"><ele>1452.0</ele><time>2026-04-26T09:36:10.795Z</time></trkpt><trkpt lat="38.143465" lon="15.848195"><ele>1452.0</ele><time>2026-04-26T09:36:11.795Z</time></trkpt><trkpt lat="38.1434817" lon="15.8483"><ele>1452.0</ele><time>2026-04-26T09:36:12.794Z</time></trkpt><trkpt lat="38.1434917" lon="15.8484"><ele>1453.5714285714284</ele><time>2026-04-26T09:36:13.794Z</time></trkpt><trkpt lat="38.1435083" lon="15.848495"><ele>1455.142857142857</ele><time>2026-04-26T09:36:14.795Z</time></trkpt><trkpt lat="38.1435133" lon="15.8485933"><ele>1456.7142857142858</ele><time>2026-04-26T09:36:15.794Z</time></trkpt><trkpt lat="38.1435267" lon="15.8486817"><ele>1458.2857142857142</ele><time>2026-04-26T09:36:16.794Z</time></trkpt><trkpt lat="38.143535" lon="15.848765"><ele>1459.857142857143</ele><time>2026-04-26T09:36:17.794Z</time></trkpt><trkpt lat="38.1435433" lon="15.848845"><ele>1461.4285714285713</ele><time>2026-04-26T09:36:18.795Z</time></trkpt><trkpt lat="38.1435433" lon="15.848945"><ele>1463.0</ele><time>2026-04-26T09:36:20.794Z</time></trkpt><trkpt lat="38.1434733" lon="15.8489883"><ele>1463.0</ele><time>2026-04-26T09:36:22.794Z</time></trkpt><trkpt lat="38.1434083" lon="15.8489867"><ele>1463.0</ele><time>2026-04-26T09:36:23.795Z</time></trkpt><trkpt lat="38.1433383" lon="15.8489667"><ele>1463.0</ele><time>2026-04-26T09:36:24.794Z</time></trkpt><trkpt lat="38.1432533" lon="15.8489483"><ele>1463.0</ele><time>2026-04-26T09:36:25.794Z</time></trkpt><trkpt lat="38.1431517" lon="15.848935"><ele>1463.0</ele><time>2026-04-26T09:36:26.795Z</time></trkpt><trkpt lat="38.1430433" lon="15.8489083"><ele>1463.0</ele><time>2026-04-26T09:36:27.795Z</time></trkpt><trkpt lat="38.1429317" lon="15.848875"><ele>1462.5</ele><time>2026-04-26T09:36:28.794Z</time></trkpt><trkpt lat="38.1428217" lon="15.8488333"><ele>1462.0</ele><time>2026-04-26T09:36:29.794Z</time></trkpt><trkpt lat="38.1427" lon="15.8488117"><ele>1461.5</ele><time>2026-04-26T09:36:30.794Z</time></trkpt><trkpt lat="38.142585" lon="15.8488117"><ele>1461.0</ele><time>2026-04-26T09:36:31.794Z</time></trkpt><trkpt lat="38.1424883" lon="15.84884"><ele>1461.0</ele><time>2026-04-26T09:36:32.795Z</time></trkpt><trkpt lat="38.1424083" lon="15.8489"><ele>1461.0</ele><time>2026-04-26T09:36:33.795Z</time></trkpt><trkpt lat="38.1423317" lon="15.8489867"><ele>1461.0</ele><time>2026-04-26T09:36:34.795Z</time></trkpt><trkpt lat="38.14226" lon="15.8490867"><ele>1461.0</ele><time>2026-04-26T09:36:35.795Z</time></trkpt><trkpt lat="38.1421967" lon="15.8491983"><ele>1461.0</ele><time>2026-04-26T09:36:36.794Z</time></trkpt><trkpt lat="38.14214" lon="15.84931"><ele>1463.0</ele><time>2026-04-26T09:36:37.794Z</time></trkpt><trkpt lat="38.14211" lon="15.8494267"><ele>1465.0</ele><time>2026-04-26T09:36:38.794Z</time></trkpt><trkpt lat="38.1421017" lon="15.8495517"><ele>1467.0</ele><time>2026-04-26T09:36:39.794Z</time></trkpt><trkpt lat="38.1421033" lon="15.8496817"><ele>1469.0</ele><time>2026-04-26T09:36:40.795Z</time></trkpt><trkpt lat="38.1421133" lon="15.8498117"><ele>1471.0</ele><time>2026-04-26T09:36:41.795Z</time></trkpt><trkpt lat="38.1421283" lon="15.84994"><ele>1471.0</ele><time>2026-04-26T09:36:42.795Z</time></trkpt><trkpt lat="38.1421367" lon="15.8500617"><ele>1471.0</ele><time>2026-04-26T09:36:43.794Z</time></trkpt><trkpt lat="38.1421417" lon="15.8501867"><ele>1471.0</ele><time>2026-04-26T09:36:44.795Z</time></trkpt><trkpt lat="38.142135" lon="15.8503167"><ele>1471.0</ele><time>2026-04-26T09:36:45.794Z</time></trkpt><trkpt lat="38.142125" lon="15.8504533"><ele>1471.0</ele><time>2026-04-26T09:36:46.795Z</time></trkpt><trkpt lat="38.1421233" lon="15.8506017"><ele>1470.0</ele><time>2026-04-26T09:36:47.794Z</time></trkpt><trkpt lat="38.14212" lon="15.85074"><ele>1469.0</ele><time>2026-04-26T09:36:48.795Z</time></trkpt><trkpt lat="38.1421167" lon="15.8508817"><ele>1468.0</ele><time>2026-04-26T09:36:49.794Z</time></trkpt><trkpt lat="38.1421133" lon="15.851015"><ele>1467.0</ele><time>2026-04-26T09:36:50.795Z</time></trkpt><trkpt lat="38.1421067" lon="15.851135"><ele>1466.0</ele><time>2026-04-26T09:36:51.795Z</time></trkpt><trkpt lat="38.1421" lon="15.8512333"><ele>1468.8</ele><time>2026-04-26T09:36:52.794Z</time></trkpt><trkpt lat="38.1420867" lon="15.8513567"><ele>1471.6</ele><time>2026-04-26T09:36:54.794Z</time></trkpt><trkpt lat="38.1419917" lon="15.8512867"><ele>1474.4</ele><time>2026-04-26T09:36:57.794Z</time></trkpt><trkpt lat="38.1419417" lon="15.8512067"><ele>1477.2</ele><time>2026-04-26T09:36:58.795Z</time></trkpt><trkpt lat="38.1418683" lon="15.8511183"><ele>1480.0</ele><time>2026-04-26T09:36:59.794Z</time></trkpt><trkpt lat="38.1417633" lon="15.8510167"><ele>1479.0</ele><time>2026-04-26T09:37:00.794Z</time></trkpt><trkpt lat="38.1416367" lon="15.8509417"><ele>1478.0</ele><time>2026-04-26T09:37:01.794Z</time></trkpt><trkpt lat="38.1415183" lon="15.8508917"><ele>1477.0</ele><time>2026-04-26T09:37:02.794Z</time></trkpt><trkpt lat="38.1413867" lon="15.850875"><ele>1476.0</ele><time>2026-04-26T09:37:03.795Z</time></trkpt><trkpt lat="38.1412617" lon="15.8508733"><ele>1476.0</ele><time>2026-04-26T09:37:04.795Z</time></trkpt><trkpt lat="38.1411483" lon="15.8508867"><ele>1476.0</ele><time>2026-04-26T09:37:05.794Z</time></trkpt><trkpt lat="38.14104" lon="15.85091"><ele>1476.0</ele><time>2026-04-26T09:37:06.794Z</time></trkpt><trkpt lat="38.1409283" lon="15.85093"><ele>1476.0</ele><time>2026-04-26T09:37:07.794Z</time></trkpt><trkpt lat="38.1408183" lon="15.850955"><ele>1476.0</ele><time>2026-04-26T09:37:08.794Z</time></trkpt><trkpt lat="38.1407183" lon="15.8509883"><ele>1479.4</ele><time>2026-04-26T09:37:09.794Z</time></trkpt><trkpt lat="38.1406333" lon="15.8510567"><ele>1482.8</ele><time>2026-04-26T09:37:10.795Z</time></trkpt><trkpt lat="38.1405533" lon="15.8511317"><ele>1486.2</ele><time>2026-04-26T09:37:11.794Z</time></trkpt><trkpt lat="38.1404867" lon="15.8512167"><ele>1489.6000000000001</ele><time>2026-04-26T09:37:12.795Z</time></trkpt><trkpt lat="38.1404233" lon="15.851315"><ele>1493.0</ele><time>2026-04-26T09:37:13.794Z</time></trkpt><trkpt lat="38.1403717" lon="15.8514183"><ele>1493.0</ele><time>2026-04-26T09:37:14.795Z</time></trkpt><trkpt lat="38.1403167" lon="15.8515183"><ele>1493.0</ele><time>2026-04-26T09:37:15.794Z</time></trkpt><trkpt lat="38.14025" lon="15.8516267"><ele>1493.0</ele><time>2026-04-26T09:37:16.794Z</time></trkpt><trkpt lat="38.1401717" lon="15.8517067"><ele>1493.0</ele><time>2026-04-26T09:37:17.794Z</time></trkpt><trkpt lat="38.1401017" lon="15.85179"><ele>1493.0</ele><time>2026-04-26T09:37:18.794Z</time></trkpt><trkpt lat="38.1400333" lon="15.8518667"><ele>1494.4</ele><time>2026-04-26T09:37:19.794Z</time></trkpt><trkpt lat="38.1399717" lon="15.8519467"><ele>1495.8000000000002</ele><time>2026-04-26T09:37:20.795Z</time></trkpt><trkpt lat="38.139915" lon="15.8520317"><ele>1497.2</ele><time>2026-04-26T09:37:21.794Z</time></trkpt><trkpt lat="38.1398633" lon="15.8521267"><ele>1498.6</ele><time>2026-04-26T09:37:22.795Z</time></trkpt><trkpt lat="38.139815" lon="15.8522317"><ele>1500.0</ele><time>2026-04-26T09:37:23.795Z</time></trkpt><trkpt lat="38.1397667" lon="15.8523433"><ele>1502.5</ele><time>2026-04-26T09:37:24.794Z</time></trkpt><trkpt lat="38.1397217" lon="15.8524433"><ele>1505.0</ele><time>2026-04-26T09:37:25.795Z</time></trkpt><trkpt lat="38.13967" lon="15.8525233"><ele>1507.5</ele><time>2026-04-26T09:37:26.795Z</time></trkpt><trkpt lat="38.139625" lon="15.8525983"><ele>1510.0</ele><time>2026-04-26T09:37:27.794Z</time></trkpt><trkpt lat="38.139605" lon="15.852685"><ele>1512.5</ele><time>2026-04-26T09:37:28.794Z</time></trkpt><trkpt lat="38.1396033" lon="15.85277"><ele>1515.0</ele><time>2026-04-26T09:37:29.794Z</time></trkpt><trkpt lat="38.1396317" lon="15.852845"><ele>1515.2</ele><time>2026-04-26T09:37:30.795Z</time></trkpt><trkpt lat="38.1397483" lon="15.8528767"><ele>1515.4</ele><time>2026-04-26T09:37:32.794Z</time></trkpt><trkpt lat="38.1398233" lon="15.8528417"><ele>1515.6</ele><time>2026-04-26T09:37:33.794Z</time></trkpt><trkpt lat="38.1398983" lon="15.8527883"><ele>1515.8</ele><time>2026-04-26T09:37:34.794Z</time></trkpt><trkpt lat="38.1400067" lon="15.852655"><ele>1516.0</ele><time>2026-04-26T09:37:35.795Z</time></trkpt><trkpt lat="38.14011" lon="15.8525"><ele>1512.8</ele><time>2026-04-26T09:37:36.794Z</time></trkpt><trkpt lat="38.1401933" lon="15.8523933"><ele>1509.6</ele><time>2026-04-26T09:37:37.794Z</time></trkpt><trkpt lat="38.1402717" lon="15.8523283"><ele>1506.4</ele><time>2026-04-26T09:37:38.795Z</time></trkpt><trkpt lat="38.1403533" lon="15.8522783"><ele>1503.2</ele><time>2026-04-26T09:37:39.794Z</time></trkpt><trkpt lat="38.1404267" lon="15.8522633"><ele>1500.0</ele><time>2026-04-26T09:37:40.794Z</time></trkpt><trkpt lat="38.1405067" lon="15.8522867"><ele>1500.0</ele><time>2026-04-26T09:37:41.795Z</time></trkpt><trkpt lat="38.140585" lon="15.85234"><ele>1500.0</ele><time>2026-04-26T09:37:42.795Z</time></trkpt><trkpt lat="38.1406583" lon="15.8523867"><ele>1500.0</ele><time>2026-04-26T09:37:43.795Z</time></trkpt><trkpt lat="38.1407233" lon="15.85243"><ele>1500.0</ele><time>2026-04-26T09:37:44.794Z</time></trkpt><trkpt lat="38.1407983" lon="15.8524517"><ele>1500.0</ele><time>2026-04-26T09:37:45.794Z</time></trkpt><trkpt lat="38.1408717" lon="15.8524383"><ele>1500.0</ele><time>2026-04-26T09:37:46.794Z</time></trkpt><trkpt lat="38.1409367" lon="15.8524033"><ele>1502.4285714285716</ele><time>2026-04-26T09:37:47.795Z</time></trkpt><trkpt lat="38.140985" lon="15.8523433"><ele>1504.8571428571427</ele><time>2026-04-26T09:37:48.794Z</time></trkpt><trkpt lat="38.14101" lon="15.85226"><ele>1507.2857142857142</ele><time>2026-04-26T09:37:49.794Z</time></trkpt><trkpt lat="38.141025" lon="15.852175"><ele>1509.7142857142858</ele><time>2026-04-26T09:37:50.795Z</time></trkpt><trkpt lat="38.1410817" lon="15.8521067"><ele>1512.1428571428573</ele><time>2026-04-26T09:37:52.794Z</time></trkpt><trkpt lat="38.1411083" lon="15.8521917"><ele>1514.5714285714284</ele><time>2026-04-26T09:37:54.794Z</time></trkpt><trkpt lat="38.1411" lon="15.8522733"><ele>1517.0</ele><time>2026-04-26T09:37:55.795Z</time></trkpt><trkpt lat="38.141075" lon="15.8523517"><ele>1517.0</ele><time>2026-04-26T09:37:56.794Z</time></trkpt><trkpt lat="38.1410283" lon="15.8524167"><ele>1517.0</ele><time>2026-04-26T09:37:57.794Z</time></trkpt><trkpt lat="38.1409683" lon="15.8524767"><ele>1517.0</ele><time>2026-04-26T09:37:58.794Z</time></trkpt><trkpt lat="38.1408917" lon="15.8525483"><ele>1517.0</ele><time>2026-04-26T09:37:59.794Z</time></trkpt><trkpt lat="38.1408117" lon="15.8526067"><ele>1517.0</ele><time>2026-04-26T09:38:00.795Z</time></trkpt><trkpt lat="38.14073" lon="15.85265"><ele>1517.0</ele><time>2026-04-26T09:38:01.795Z</time></trkpt><trkpt lat="38.140655" lon="15.8526783"><ele>1516.8333333333335</ele><time>2026-04-26T09:38:02.795Z</time></trkpt><trkpt lat="38.1405933" lon="15.8527183"><ele>1516.6666666666667</ele><time>2026-04-26T09:38:03.794Z</time></trkpt><trkpt lat="38.1405317" lon="15.852835"><ele>1516.5</ele><time>2026-04-26T09:38:05.794Z</time></trkpt><trkpt lat="38.140535" lon="15.852975"><ele>1516.3333333333333</ele><time>2026-04-26T09:38:07.794Z</time></trkpt><trkpt lat="38.1405517" lon="15.8530567"><ele>1516.1666666666665</ele><time>2026-04-26T09:38:08.794Z</time></trkpt><trkpt lat="38.1405633" lon="15.85314"><ele>1516.0</ele><time>2026-04-26T09:38:09.794Z</time></trkpt><trkpt lat="38.140555" lon="15.853235"><ele>1516.0</ele><time>2026-04-26T09:38:10.794Z</time></trkpt><trkpt lat="38.1405267" lon="15.8533283"><ele>1516.0</ele><time>2026-04-26T09:38:11.794Z</time></trkpt><trkpt lat="38.1404833" lon="15.85341"><ele>1516.0</ele><time>2026-04-26T09:38:12.794Z</time></trkpt><trkpt lat="38.14043" lon="15.853475"><ele>1516.0</ele><time>2026-04-26T09:38:13.794Z</time></trkpt><trkpt lat="38.1403583" lon="15.8535317"><ele>1516.0</ele><time>2026-04-26T09:38:14.795Z</time></trkpt><trkpt lat="38.1403133" lon="15.8535933"><ele>1516.0</ele><time>2026-04-26T09:38:15.795Z</time></trkpt><trkpt lat="38.1402933" lon="15.8537067"><ele>1520.1666666666665</ele><time>2026-04-26T09:38:17.794Z</time></trkpt><trkpt lat="38.14033" lon="15.8538117"><ele>1524.3333333333333</ele><time>2026-04-26T09:38:19.794Z</time></trkpt><trkpt lat="38.1403633" lon="15.853925"><ele>1528.5</ele><time>2026-04-26T09:38:21.794Z</time></trkpt><trkpt lat="38.1403283" lon="15.8540267"><ele>1532.6666666666665</ele><time>2026-04-26T09:38:24.795Z</time></trkpt><trkpt lat="38.1402667" lon="15.85406"><ele>1536.8333333333333</ele><time>2026-04-26T09:38:26.795Z</time></trkpt><trkpt lat="38.1401967" lon="15.8540517"><ele>1541.0</ele><time>2026-04-26T09:38:28.795Z</time></trkpt><trkpt lat="38.14009" lon="15.854"><ele>1540.9999999999998</ele><time>2026-04-26T09:38:30.794Z</time></trkpt><trkpt lat="38.1400217" lon="15.8539767"><ele>1541.0</ele><time>2026-04-26T09:38:31.794Z</time></trkpt><trkpt lat="38.139935" lon="15.8539667"><ele>1541.0</ele><time>2026-04-26T09:38:32.794Z</time></trkpt><trkpt lat="38.1398533" lon="15.8539967"><ele>1541.0</ele><time>2026-04-26T09:38:33.794Z</time></trkpt><trkpt lat="38.139765" lon="15.8540533"><ele>1540.9999999999998</ele><time>2026-04-26T09:38:34.795Z</time></trkpt><trkpt lat="38.1396883" lon="15.8541283"><ele>1541.0</ele><time>2026-04-26T09:38:35.794Z</time></trkpt><trkpt lat="38.139615" lon="15.8542"><ele>1539.8</ele><time>2026-04-26T09:38:36.794Z</time></trkpt><trkpt lat="38.1395433" lon="15.8542717"><ele>1538.6</ele><time>2026-04-26T09:38:37.794Z</time></trkpt><trkpt lat="38.1394717" lon="15.8543517"><ele>1537.4</ele><time>2026-04-26T09:38:38.794Z</time></trkpt><trkpt lat="38.1394017" lon="15.8544267"><ele>1536.2</ele><time>2026-04-26T09:38:39.794Z</time></trkpt><trkpt lat="38.1393333" lon="15.8545017"><ele>1535.0</ele><time>2026-04-26T09:38:40.795Z</time></trkpt><trkpt lat="38.1392633" lon="15.8545833"><ele>1538.5</ele><time>2026-04-26T09:38:41.795Z</time></trkpt><trkpt lat="38.1392067" lon="15.854665"><ele>1542.0</ele><time>2026-04-26T09:38:42.794Z</time></trkpt><trkpt lat="38.139165" lon="15.8547533"><ele>1545.5</ele><time>2026-04-26T09:38:43.794Z</time></trkpt><trkpt lat="38.1391333" lon="15.85485"><ele>1549.0</ele><time>2026-04-26T09:38:44.794Z</time></trkpt><trkpt lat="38.1391133" lon="15.8549633"><ele>1552.4999999999998</ele><time>2026-04-26T09:38:45.794Z</time></trkpt><trkpt lat="38.1390983" lon="15.85508"><ele>1556.0</ele><time>2026-04-26T09:38:46.794Z</time></trkpt><trkpt lat="38.1390983" lon="15.8551967"><ele>1559.4999999999998</ele><time>2026-04-26T09:38:47.794Z</time></trkpt><trkpt lat="38.1391033" lon="15.8552967"><ele>1563.0</ele><time>2026-04-26T09:38:48.795Z</time></trkpt><trkpt lat="38.139115" lon="15.8554133"><ele>1566.5</ele><time>2026-04-26T09:38:50.795Z</time></trkpt><trkpt lat="38.1391067" lon="15.8555017"><ele>1570.0</ele><time>2026-04-26T09:38:55.794Z</time></trkpt><trkpt lat="38.1390817" lon="15.8555833"><ele>1573.4999999999998</ele><time>2026-04-26T09:38:57.795Z</time></trkpt><trkpt lat="38.139025" lon="15.855635"><ele>1577.0</ele><time>2026-04-26T09:38:59.795Z</time></trkpt><trkpt lat="38.1389283" lon="15.85561"><ele>1577.857142857143</ele><time>2026-04-26T09:39:02.794Z</time></trkpt><trkpt lat="38.1388667" lon="15.8555833"><ele>1578.7142857142856</ele><time>2026-04-26T09:39:03.794Z</time></trkpt><trkpt lat="38.1387967" lon="15.8555633"><ele>1579.5714285714284</ele><time>2026-04-26T09:39:04.795Z</time></trkpt><trkpt lat="38.1387267" lon="15.8555633"><ele>1580.4285714285716</ele><time>2026-04-26T09:39:05.794Z</time></trkpt><trkpt lat="38.1386617" lon="15.85556"><ele>1581.2857142857142</ele><time>2026-04-26T09:39:06.794Z</time></trkpt><trkpt lat="38.1385633" lon="15.855505"><ele>1582.142857142857</ele><time>2026-04-26T09:39:08.795Z</time></trkpt><trkpt lat="38.138525" lon="15.85544"><ele>1583.0</ele><time>2026-04-26T09:39:09.794Z</time></trkpt><trkpt lat="38.1384833" lon="15.855365"><ele>1582.9999999999998</ele><time>2026-04-26T09:39:10.794Z</time></trkpt><trkpt lat="38.1384467" lon="15.8552817"><ele>1583.0</ele><time>2026-04-26T09:39:11.794Z</time></trkpt><trkpt lat="38.1383883" lon="15.8551883"><ele>1583.0</ele><time>2026-04-26T09:39:12.794Z</time></trkpt><trkpt lat="38.1383417" lon="15.8550983"><ele>1583.0</ele><time>2026-04-26T09:39:13.795Z</time></trkpt><trkpt lat="38.1382917" lon="15.8550117"><ele>1582.9999999999998</ele><time>2026-04-26T09:39:14.794Z</time></trkpt><trkpt lat="38.1382517" lon="15.8549183"><ele>1583.0</ele><time>2026-04-26T09:39:15.794Z</time></trkpt><trkpt lat="38.13822" lon="15.8548233"><ele>1585.4</ele><time>2026-04-26T09:39:16.794Z</time></trkpt><trkpt lat="38.1382" lon="15.85473"><ele>1587.8000000000002</ele><time>2026-04-26T09:39:17.794Z</time></trkpt><trkpt lat="38.1381883" lon="15.85464"><ele>1590.2</ele><time>2026-04-26T09:39:18.795Z</time></trkpt><trkpt lat="38.1381833" lon="15.8545483"><ele>1592.6</ele><time>2026-04-26T09:39:19.794Z</time></trkpt><trkpt lat="38.1381617" lon="15.8543567"><ele>1595.0</ele><time>2026-04-26T09:39:21.794Z</time></trkpt><trkpt lat="38.1381283" lon="15.854255"><ele>1594.9999999999998</ele><time>2026-04-26T09:39:22.794Z</time></trkpt><trkpt lat="38.1380833" lon="15.8541817"><ele>1595.0</ele><time>2026-04-26T09:39:23.795Z</time></trkpt><trkpt lat="38.1380167" lon="15.8541267"><ele>1595.0</ele><time>2026-04-26T09:39:24.795Z</time></trkpt><trkpt lat="38.1379383" lon="15.8540783"><ele>1595.0</ele><time>2026-04-26T09:39:25.795Z</time></trkpt><trkpt lat="38.13787" lon="15.85402"><ele>1594.9999999999998</ele><time>2026-04-26T09:39:26.795Z</time></trkpt><trkpt lat="38.1378217" lon="15.8539383"><ele>1595.0</ele><time>2026-04-26T09:39:27.794Z</time></trkpt><trkpt lat="38.13777" lon="15.85385"><ele>1594.9999999999998</ele><time>2026-04-26T09:39:28.794Z</time></trkpt><trkpt lat="38.1377233" lon="15.853775"><ele>1595.0</ele><time>2026-04-26T09:39:29.794Z</time></trkpt><trkpt lat="38.1376767" lon="15.8537033"><ele>1595.0</ele><time>2026-04-26T09:39:30.795Z</time></trkpt><trkpt lat="38.1376367" lon="15.8536317"><ele>1595.0</ele><time>2026-04-26T09:39:31.795Z</time></trkpt><trkpt lat="38.1375967" lon="15.8534933"><ele>1594.9999999999998</ele><time>2026-04-26T09:39:33.794Z</time></trkpt><trkpt lat="38.13763" lon="15.8533733"><ele>1595.0</ele><time>2026-04-26T09:39:35.795Z</time></trkpt><trkpt lat="38.1377083" lon="15.85325"><ele>1594.4999999999998</ele><time>2026-04-26T09:39:37.795Z</time></trkpt><trkpt lat="38.13774" lon="15.85317"><ele>1594.0</ele><time>2026-04-26T09:39:38.795Z</time></trkpt><trkpt lat="38.1377717" lon="15.8530783"><ele>1593.5</ele><time>2026-04-26T09:39:39.795Z</time></trkpt><trkpt lat="38.1377867" lon="15.85298"><ele>1593.0</ele><time>2026-04-26T09:39:40.794Z</time></trkpt><trkpt lat="38.1377983" lon="15.852865"><ele>1592.4999999999998</ele><time>2026-04-26T09:39:41.794Z</time></trkpt><trkpt lat="38.1377767" lon="15.852745"><ele>1592.0</ele><time>2026-04-26T09:39:42.794Z</time></trkpt><trkpt lat="38.1377333" lon="15.85264"><ele>1591.4999999999998</ele><time>2026-04-26T09:39:43.794Z</time></trkpt><trkpt lat="38.137675" lon="15.8525517"><ele>1591.0</ele><time>2026-04-26T09:39:44.795Z</time></trkpt><trkpt lat="38.13761" lon="15.8524783"><ele>1590.5</ele><time>2026-04-26T09:39:45.794Z</time></trkpt><trkpt lat="38.1375233" lon="15.85243"><ele>1590.0</ele><time>2026-04-26T09:39:46.795Z</time></trkpt><trkpt lat="38.1374317" lon="15.8523967"><ele>1589.4999999999998</ele><time>2026-04-26T09:39:47.795Z</time></trkpt><trkpt lat="38.137355" lon="15.8523683"><ele>1589.0</ele><time>2026-04-26T09:39:48.795Z</time></trkpt><trkpt lat="38.1372817" lon="15.8523517"><ele>1590.8333333333333</ele><time>2026-04-26T09:39:49.794Z</time></trkpt><trkpt lat="38.1372117" lon="15.852345"><ele>1592.6666666666665</ele><time>2026-04-26T09:39:50.795Z</time></trkpt><trkpt lat="38.137145" lon="15.8523183"><ele>1594.5</ele><time>2026-04-26T09:39:51.795Z</time></trkpt><trkpt lat="38.1370833" lon="15.8522783"><ele>1596.3333333333335</ele><time>2026-04-26T09:39:52.794Z</time></trkpt><trkpt lat="38.1370133" lon="15.852155"><ele>1598.1666666666667</ele><time>2026-04-26T09:39:54.794Z</time></trkpt><trkpt lat="38.1369383" lon="15.8520667"><ele>1600.0</ele><time>2026-04-26T09:39:56.794Z</time></trkpt><trkpt lat="38.1368733" lon="15.8520717"><ele>1600.0</ele><time>2026-04-26T09:39:57.795Z</time></trkpt><trkpt lat="38.1367883" lon="15.852095"><ele>1600.0</ele><time>2026-04-26T09:39:58.794Z</time></trkpt><trkpt lat="38.136715" lon="15.8521617"><ele>1600.0</ele><time>2026-04-26T09:39:59.795Z</time></trkpt><trkpt lat="38.1366583" lon="15.8522417"><ele>1600.0</ele><time>2026-04-26T09:40:00.795Z</time></trkpt><trkpt lat="38.1366167" lon="15.8523683"><ele>1600.0</ele><time>2026-04-26T09:40:01.794Z</time></trkpt><trkpt lat="38.1366017" lon="15.852515"><ele>1600.2</ele><time>2026-04-26T09:40:02.794Z</time></trkpt><trkpt lat="38.1365917" lon="15.8526517"><ele>1600.4</ele><time>2026-04-26T09:40:03.794Z</time></trkpt><trkpt lat="38.136585" lon="15.8527883"><ele>1600.6</ele><time>2026-04-26T09:40:04.794Z</time></trkpt><trkpt lat="38.1365817" lon="15.8529217"><ele>1600.8</ele><time>2026-04-26T09:40:05.795Z</time></trkpt><trkpt lat="38.1365883" lon="15.8530517"><ele>1601.0</ele><time>2026-04-26T09:40:06.795Z</time></trkpt><trkpt lat="38.1377083" lon="15.85325"><ele>1599.4999999999998</ele><time>2026-04-26T09:39:37.795Z</time></trkpt><trkpt lat="38.13774" lon="15.85317"><ele>1598.0</ele><time>2026-04-26T09:39:38.795Z</time></trkpt><trkpt lat="38.1377717" lon="15.8530783"><ele>1596.5</ele><time>2026-04-26T09:39:39.795Z</time></trkpt><trkpt lat="38.1377867" lon="15.85298"><ele>1595.0</ele><time>2026-04-26T09:39:40.794Z</time></trkpt><trkpt lat="38.1377983" lon="15.852865"><ele>1593.4999999999998</ele><time>2026-04-26T09:39:41.794Z</time></trkpt><trkpt lat="38.1377767" lon="15.852745"><ele>1592.0</ele><time>2026-04-26T09:39:42.794Z</time></trkpt><trkpt lat="38.1377333" lon="15.85264"><ele>1591.4999999999998</ele><time>2026-04-26T09:39:43.794Z</time></trkpt><trkpt lat="38.137675" lon="15.8525517"><ele>1591.0</ele><time>2026-04-26T09:39:44.795Z</time></trkpt><trkpt lat="38.13761" lon="15.8524783"><ele>1590.5</ele><time>2026-04-26T09:39:45.794Z</time></trkpt><trkpt lat="38.1375233" lon="15.85243"><ele>1590.0</ele><time>2026-04-26T09:39:46.795Z</time></trkpt><trkpt lat="38.1374317" lon="15.8523967"><ele>1589.4999999999998</ele><time>2026-04-26T09:39:47.795Z</time></trkpt><trkpt lat="38.137355" lon="15.8523683"><ele>1589.0</ele><time>2026-04-26T09:39:48.795Z</time></trkpt><trkpt lat="38.1372817" lon="15.8523517"><ele>1590.8333333333333</ele><time>2026-04-26T09:39:49.794Z</time></trkpt><trkpt lat="38.1372117" lon="15.852345"><ele>1592.6666666666665</ele><time>2026-04-26T09:39:50.795Z</time></trkpt><trkpt lat="38.137145" lon="15.8523183"><ele>1594.5</ele><time>2026-04-26T09:39:51.795Z</time></trkpt><trkpt lat="38.1370833" lon="15.8522783"><ele>1596.3333333333335</ele><time>2026-04-26T09:39:52.794Z</time></trkpt><trkpt lat="38.1370133" lon="15.852155"><ele>1598.1666666666667</ele><time>2026-04-26T09:39:54.794Z</time></trkpt><trkpt lat="38.1369383" lon="15.8520667"><ele>1600.0</ele><time>2026-04-26T09:39:56.794Z</time></trkpt><trkpt lat="38.1368733" lon="15.8520717"><ele>1600.0</ele><time>2026-04-26T09:39:57.795Z</time></trkpt><trkpt lat="38.1367883" lon="15.852095"><ele>1600.0</ele><time>2026-04-26T09:39:58.794Z</time></trkpt><trkpt lat="38.136715" lon="15.8521617"><ele>1600.0</ele><time>2026-04-26T09:39:59.795Z</time></trkpt><trkpt lat="38.1366583" lon="15.8522417"><ele>1600.0</ele><time>2026-04-26T09:40:00.795Z</time></trkpt><trkpt lat="38.1366167" lon="15.8523683"><ele>1600.0</ele><time>2026-04-26T09:40:01.794Z</time></trkpt><trkpt lat="38.1366017" lon="15.852515"><ele>1600.2</ele><time>2026-04-26T09:40:02.794Z</time></trkpt><trkpt lat="38.1365917" lon="15.8526517"><ele>1600.4</ele><time>2026-04-26T09:40:03.794Z</time></trkpt><trkpt lat="38.136585" lon="15.8527883"><ele>1600.6</ele><time>2026-04-26T09:40:04.794Z</time></trkpt><trkpt lat="38.1365817" lon="15.8529217"><ele>1600.8</ele><time>2026-04-26T09:40:05.795Z</time></trkpt><trkpt lat="38.1365883" lon="15.8530517"><ele>1601.0</ele><time>2026-04-26T09:40:06.795Z</time></trkpt><trkpt lat="38.13659" lon="15.853175"><ele>1600.9999999999998</ele><time>2026-04-26T09:40:07.794Z</time></trkpt><trkpt lat="38.1365967" lon="15.8532817"><ele>1601.0</ele><time>2026-04-26T09:40:08.795Z</time></trkpt><trkpt lat="38.1365883" lon="15.853395"><ele>1601.0</ele><time>2026-04-26T09:40:09.794Z</time></trkpt><trkpt lat="38.136585" lon="15.8534933"><ele>1601.0</ele><time>2026-04-26T09:40:10.795Z</time></trkpt><trkpt lat="38.136585" lon="15.8535883"><ele>1600.9999999999998</ele><time>2026-04-26T09:40:11.794Z</time></trkpt><trkpt lat="38.136605" lon="15.8536833"><ele>1601.0</ele><time>2026-04-26T09:40:12.795Z</time></trkpt><trkpt lat="38.1366467" lon="15.8537683"><ele>1600.8333333333333</ele><time>2026-04-26T09:40:13.794Z</time></trkpt><trkpt lat="38.136705" lon="15.8538467"><ele>1600.6666666666665</ele><time>2026-04-26T09:40:14.794Z</time></trkpt><trkpt lat="38.1367617" lon="15.8539217"><ele>1600.5</ele><time>2026-04-26T09:40:15.795Z</time></trkpt><trkpt lat="38.1368283" lon="15.853995"><ele>1600.3333333333335</ele><time>2026-04-26T09:40:16.794Z</time></trkpt><trkpt lat="38.1368883" lon="15.8540667"><ele>1600.1666666666667</ele><time>2026-04-26T09:40:17.794Z</time></trkpt><trkpt lat="38.1369533" lon="15.8541467"><ele>1600.0</ele><time>2026-04-26T09:40:18.795Z</time></trkpt><trkpt lat="38.1370067" lon="15.8542183"><ele>1600.1666666666667</ele><time>2026-04-26T09:40:19.795Z</time></trkpt><trkpt lat="38.1370583" lon="15.8543033"><ele>1600.3333333333335</ele><time>2026-04-26T09:40:20.794Z</time></trkpt><trkpt lat="38.1370933" lon="15.8543867"><ele>1600.5</ele><time>2026-04-26T09:40:21.794Z</time></trkpt><trkpt lat="38.1371233" lon="15.854465"><ele>1600.6666666666665</ele><time>2026-04-26T09:40:22.794Z</time></trkpt><trkpt lat="38.1371617" lon="15.854575"><ele>1600.8333333333333</ele><time>2026-04-26T09:40:24.794Z</time></trkpt><trkpt lat="38.13718" lon="15.85468"><ele>1601.0</ele><time>2026-04-26T09:40:27.794Z</time></trkpt><trkpt lat="38.137205" lon="15.8547917"><ele>1600.9999999999998</ele><time>2026-04-26T09:40:30.795Z</time></trkpt><trkpt lat="38.1372267" lon="15.8548683"><ele>1601.0</ele><time>2026-04-26T09:40:32.794Z</time></trkpt><trkpt lat="38.13723" lon="15.8549567"><ele>1601.0</ele><time>2026-04-26T09:40:34.794Z</time></trkpt><trkpt lat="38.137215" lon="15.8550667"><ele>1601.0</ele><time>2026-04-26T09:40:36.794Z</time></trkpt><trkpt lat="38.1371717" lon="15.85515"><ele>1600.9999999999998</ele><time>2026-04-26T09:40:38.794Z</time></trkpt><trkpt lat="38.1371067" lon="15.85522"><ele>1601.0</ele><time>2026-04-26T09:40:40.794Z</time></trkpt><trkpt lat="38.1370033" lon="15.8552767"><ele>1602.0</ele><time>2026-04-26T09:40:42.794Z</time></trkpt><trkpt lat="38.1369033" lon="15.855315"><ele>1603.0</ele><time>2026-04-26T09:40:44.794Z</time></trkpt><trkpt lat="38.1368233" lon="15.8553683"><ele>1604.0</ele><time>2026-04-26T09:40:46.794Z</time></trkpt><trkpt lat="38.1367317" lon="15.855455"><ele>1605.0</ele><time>2026-04-26T09:40:48.794Z</time></trkpt><trkpt lat="38.1366367" lon="15.8555467"><ele>1606.0</ele><time>2026-04-26T09:40:50.794Z</time></trkpt><trkpt lat="38.1365583" lon="15.8556367"><ele>1604.3333333333335</ele><time>2026-04-26T09:40:52.794Z</time></trkpt><trkpt lat="38.136495" lon="15.8557067"><ele>1602.6666666666667</ele><time>2026-04-26T09:40:54.795Z</time></trkpt><trkpt lat="38.1364283" lon="15.855785"><ele>1601.0</ele><time>2026-04-26T09:40:56.794Z</time></trkpt><trkpt lat="38.1363833" lon="15.855905"><ele>1599.3333333333335</ele><time>2026-04-26T09:40:58.794Z</time></trkpt><trkpt lat="38.1363667" lon="15.8559917"><ele>1597.6666666666667</ele><time>2026-04-26T09:40:59.795Z</time></trkpt><trkpt lat="38.1363583" lon="15.85609"><ele>1596.0</ele><time>2026-04-26T09:41:00.794Z</time></trkpt><trkpt lat="38.1363567" lon="15.8561867"><ele>1596.0</ele><time>2026-04-26T09:41:01.795Z</time></trkpt><trkpt lat="38.1363567" lon="15.856285"><ele>1596.0</ele><time>2026-04-26T09:41:02.794Z</time></trkpt><trkpt lat="38.1363583" lon="15.85638"><ele>1596.0</ele><time>2026-04-26T09:41:03.794Z</time></trkpt><trkpt lat="38.1363583" lon="15.8564783"><ele>1596.0</ele><time>2026-04-26T09:41:04.795Z</time></trkpt><trkpt lat="38.1363533" lon="15.856575"><ele>1596.0</ele><time>2026-04-26T09:41:05.795Z</time></trkpt><trkpt lat="38.1363267" lon="15.8566717"><ele>1596.0</ele><time>2026-04-26T09:41:06.794Z</time></trkpt><trkpt lat="38.136305" lon="15.8567667"><ele>1597.5</ele><time>2026-04-26T09:41:07.794Z</time></trkpt><trkpt lat="38.136285" lon="15.8568583"><ele>1599.0</ele><time>2026-04-26T09:41:08.794Z</time></trkpt><trkpt lat="38.1362717" lon="15.8569533"><ele>1600.5</ele><time>2026-04-26T09:41:09.794Z</time></trkpt><trkpt lat="38.1362617" lon="15.857045"><ele>1602.0</ele><time>2026-04-26T09:41:10.795Z</time></trkpt><trkpt lat="38.1362483" lon="15.8571417"><ele>1603.5</ele><time>2026-04-26T09:41:11.794Z</time></trkpt><trkpt lat="38.13622" lon="15.8572383"><ele>1605.0</ele><time>2026-04-26T09:41:12.794Z</time></trkpt><trkpt lat="38.1361833" lon="15.857325"><ele>1605.0</ele><time>2026-04-26T09:41:13.794Z</time></trkpt><trkpt lat="38.136125" lon="15.857395"><ele>1605.0</ele><time>2026-04-26T09:41:14.795Z</time></trkpt><trkpt lat="38.1360467" lon="15.8574433"><ele>1605.0</ele><time>2026-04-26T09:41:15.794Z</time></trkpt><trkpt lat="38.13596" lon="15.8574733"><ele>1605.0</ele><time>2026-04-26T09:41:16.794Z</time></trkpt><trkpt lat="38.1358817" lon="15.8575083"><ele>1605.0</ele><time>2026-04-26T09:41:17.795Z</time></trkpt><trkpt lat="38.1358117" lon="15.8575583"><ele>1605.0</ele><time>2026-04-26T09:41:18.794Z</time></trkpt><trkpt lat="38.1357517" lon="15.8576267"><ele>1603.5</ele><time>2026-04-26T09:41:19.794Z</time></trkpt><trkpt lat="38.1357" lon="15.8577083"><ele>1602.0</ele><time>2026-04-26T09:41:20.794Z</time></trkpt><trkpt lat="38.1356533" lon="15.857795"><ele>1600.5</ele><time>2026-04-26T09:41:21.794Z</time></trkpt><trkpt lat="38.135605" lon="15.85788"><ele>1599.0</ele><time>2026-04-26T09:41:22.794Z</time></trkpt><trkpt lat="38.1355467" lon="15.8579633"><ele>1597.5</ele><time>2026-04-26T09:41:23.794Z</time></trkpt><trkpt lat="38.135485" lon="15.8580533"><ele>1596.0</ele><time>2026-04-26T09:41:24.794Z</time></trkpt><trkpt lat="38.135435" lon="15.8581533"><ele>1596.0</ele><time>2026-04-26T09:41:25.795Z</time></trkpt><trkpt lat="38.1354067" lon="15.85826"><ele>1596.0</ele><time>2026-04-26T09:41:26.794Z</time></trkpt><trkpt lat="38.1354" lon="15.8583717"><ele>1596.0</ele><time>2026-04-26T09:41:27.794Z</time></trkpt><trkpt lat="38.1354183" lon="15.858485"><ele>1596.0</ele><time>2026-04-26T09:41:28.794Z</time></trkpt><trkpt lat="38.13544" lon="15.8585983"><ele>1596.0</ele><time>2026-04-26T09:41:29.795Z</time></trkpt><trkpt lat="38.13546" lon="15.8587117"><ele>1596.5</ele><time>2026-04-26T09:41:30.794Z</time></trkpt><trkpt lat="38.13546" lon="15.8588217"><ele>1597.0</ele><time>2026-04-26T09:41:31.794Z</time></trkpt><trkpt lat="38.1354283" lon="15.85892"><ele>1597.5</ele><time>2026-04-26T09:41:32.794Z</time></trkpt><trkpt lat="38.1353767" lon="15.859015"><ele>1598.0</ele><time>2026-04-26T09:41:33.794Z</time></trkpt><trkpt lat="38.135325" lon="15.8591067"><ele>1598.5</ele><time>2026-04-26T09:41:34.795Z</time></trkpt><trkpt lat="38.1352833" lon="15.8591983"><ele>1599.0</ele><time>2026-04-26T09:41:35.794Z</time></trkpt><trkpt lat="38.1352683" lon="15.8593083"><ele>1599.0</ele><time>2026-04-26T09:41:36.794Z</time></trkpt><trkpt lat="38.1352717" lon="15.8594233"><ele>1599.0</ele><time>2026-04-26T09:41:37.795Z</time></trkpt><trkpt lat="38.1352783" lon="15.859535"><ele>1599.0</ele><time>2026-04-26T09:41:38.794Z</time></trkpt><trkpt lat="38.1352683" lon="15.8596433"><ele>1599.0</ele><time>2026-04-26T09:41:39.794Z</time></trkpt><trkpt lat="38.1352417" lon="15.8597517"><ele>1599.0</ele><time>2026-04-26T09:41:40.794Z</time></trkpt><trkpt lat="38.135215" lon="15.8598467"><ele>1599.0</ele><time>2026-04-26T09:41:41.795Z</time></trkpt><trkpt lat="38.1351767" lon="15.859925"><ele>1599.0</ele><time>2026-04-26T09:41:42.795Z</time></trkpt><trkpt lat="38.1350983" lon="15.8599833"><ele>1599.0</ele><time>2026-04-26T09:41:43.794Z</time></trkpt><trkpt lat="38.135005" lon="15.8600233"><ele>1599.0</ele><time>2026-04-26T09:41:44.794Z</time></trkpt><trkpt lat="38.13492" lon="15.8600817"><ele>1599.0</ele><time>2026-04-26T09:41:45.795Z</time></trkpt><trkpt lat="38.1348483" lon="15.8601567"><ele>1599.0</ele><time>2026-04-26T09:41:46.794Z</time></trkpt><trkpt lat="38.1347883" lon="15.8602433"><ele>1598.3333333333333</ele><time>2026-04-26T09:41:47.794Z</time></trkpt><trkpt lat="38.13473" lon="15.8603233"><ele>1597.6666666666665</ele><time>2026-04-26T09:41:48.795Z</time></trkpt><trkpt lat="38.134665" lon="15.8603917"><ele>1597.0</ele><time>2026-04-26T09:41:49.795Z</time></trkpt><trkpt lat="38.134595" lon="15.8604583"><ele>1596.3333333333333</ele><time>2026-04-26T09:41:50.794Z</time></trkpt><trkpt lat="38.13452" lon="15.8605167"><ele>1595.6666666666665</ele><time>2026-04-26T09:41:51.795Z</time></trkpt><trkpt lat="38.1344417" lon="15.8605567"><ele>1595.0</ele><time>2026-04-26T09:41:52.794Z</time></trkpt><trkpt lat="38.134355" lon="15.8605767"><ele>1594.9999999999998</ele><time>2026-04-26T09:41:53.795Z</time></trkpt><trkpt lat="38.1342783" lon="15.8605967"><ele>1595.0</ele><time>2026-04-26T09:41:54.794Z</time></trkpt><trkpt lat="38.1342017" lon="15.8605933"><ele>1595.0</ele><time>2026-04-26T09:41:55.795Z</time></trkpt><trkpt lat="38.1341267" lon="15.8605917"><ele>1595.0</ele><time>2026-04-26T09:41:56.794Z</time></trkpt><trkpt lat="38.1340483" lon="15.8605867"><ele>1594.9999999999998</ele><time>2026-04-26T09:41:57.794Z</time></trkpt><trkpt lat="38.1339683" lon="15.8605767"><ele>1595.0</ele><time>2026-04-26T09:41:58.795Z</time></trkpt><trkpt lat="38.1338817" lon="15.86057"><ele>1596.0</ele><time>2026-04-26T09:41:59.795Z</time></trkpt><trkpt lat="38.1337917" lon="15.860565"><ele>1597.0</ele><time>2026-04-26T09:42:00.795Z</time></trkpt><trkpt lat="38.133695" lon="15.86056"><ele>1598.0</ele><time>2026-04-26T09:42:01.794Z</time></trkpt><trkpt lat="38.133605" lon="15.860545"><ele>1599.0</ele><time>2026-04-26T09:42:02.795Z</time></trkpt><trkpt lat="38.1335033" lon="15.86053"><ele>1600.0</ele><time>2026-04-26T09:42:03.794Z</time></trkpt><trkpt lat="38.1334" lon="15.8605033"><ele>1600.0</ele><time>2026-04-26T09:42:04.795Z</time></trkpt><trkpt lat="38.1333017" lon="15.860485"><ele>1600.0</ele><time>2026-04-26T09:42:05.794Z</time></trkpt><trkpt lat="38.1332033" lon="15.86048"><ele>1600.0</ele><time>2026-04-26T09:42:06.795Z</time></trkpt><trkpt lat="38.1331133" lon="15.860485"><ele>1600.0</ele><time>2026-04-26T09:42:07.794Z</time></trkpt><trkpt lat="38.13302" lon="15.860505"><ele>1600.0</ele><time>2026-04-26T09:42:08.795Z</time></trkpt><trkpt lat="38.132925" lon="15.8605333"><ele>1601.6</ele><time>2026-04-26T09:42:09.795Z</time></trkpt><trkpt lat="38.1328333" lon="15.8605583"><ele>1603.2</ele><time>2026-04-26T09:42:10.795Z</time></trkpt><trkpt lat="38.1327433" lon="15.860565"><ele>1604.8000000000002</ele><time>2026-04-26T09:42:11.794Z</time></trkpt><trkpt lat="38.132655" lon="15.8605467"><ele>1606.4</ele><time>2026-04-26T09:42:12.794Z</time></trkpt><trkpt lat="38.1325633" lon="15.8604967"><ele>1608.0</ele><time>2026-04-26T09:42:13.794Z</time></trkpt><trkpt lat="38.132475" lon="15.86044"><ele>1609.0</ele><time>2026-04-26T09:42:14.794Z</time></trkpt><trkpt lat="38.1323883" lon="15.86041"><ele>1610.0</ele><time>2026-04-26T09:42:15.794Z</time></trkpt><trkpt lat="38.13231" lon="15.8604083"><ele>1611.0</ele><time>2026-04-26T09:42:16.794Z</time></trkpt><trkpt lat="38.1322383" lon="15.8604233"><ele>1612.0</ele><time>2026-04-26T09:42:17.794Z</time></trkpt><trkpt lat="38.1321683" lon="15.860455"><ele>1613.0</ele><time>2026-04-26T09:42:18.795Z</time></trkpt><trkpt lat="38.1320917" lon="15.8604817"><ele>1614.0</ele><time>2026-04-26T09:42:19.795Z</time></trkpt><trkpt lat="38.13202" lon="15.8604967"><ele>1614.0</ele><time>2026-04-26T09:42:20.795Z</time></trkpt><trkpt lat="38.131945" lon="15.8605017"><ele>1614.0</ele><time>2026-04-26T09:42:21.795Z</time></trkpt><trkpt lat="38.1318617" lon="15.86049"><ele>1614.0</ele><time>2026-04-26T09:42:22.794Z</time></trkpt><trkpt lat="38.1317767" lon="15.8604717"><ele>1614.0</ele><time>2026-04-26T09:42:23.795Z</time></trkpt><trkpt lat="38.1316917" lon="15.86043"><ele>1614.0</ele><time>2026-04-26T09:42:24.795Z</time></trkpt><trkpt lat="38.1316083" lon="15.860355"><ele>1614.0</ele><time>2026-04-26T09:42:25.794Z</time></trkpt><trkpt lat="38.1315267" lon="15.8602717"><ele>1614.6</ele><time>2026-04-26T09:42:26.794Z</time></trkpt><trkpt lat="38.1314517" lon="15.860185"><ele>1615.2</ele><time>2026-04-26T09:42:27.795Z</time></trkpt><trkpt lat="38.1313633" lon="15.8601217"><ele>1615.8</ele><time>2026-04-26T09:42:28.794Z</time></trkpt><trkpt lat="38.131275" lon="15.8600683"><ele>1616.3999999999999</ele><time>2026-04-26T09:42:29.794Z</time></trkpt><trkpt lat="38.1311833" lon="15.86003"><ele>1617.0</ele><time>2026-04-26T09:42:30.794Z</time></trkpt><trkpt lat="38.1310933" lon="15.8599917"><ele>1619.0</ele><time>2026-04-26T09:42:31.794Z</time></trkpt><trkpt lat="38.1310083" lon="15.859945"><ele>1621.0</ele><time>2026-04-26T09:42:32.795Z</time></trkpt><trkpt lat="38.1309333" lon="15.8598883"><ele>1623.0</ele><time>2026-04-26T09:42:33.795Z</time></trkpt><trkpt lat="38.1308567" lon="15.8598283"><ele>1625.0</ele><time>2026-04-26T09:42:34.795Z</time></trkpt><trkpt lat="38.1308017" lon="15.8597283"><ele>1627.0</ele><time>2026-04-26T09:42:35.794Z</time></trkpt><trkpt lat="38.1307683" lon="15.85962"><ele>1627.0000000000002</ele><time>2026-04-26T09:42:36.794Z</time></trkpt><trkpt lat="38.1307683" lon="15.8595033"><ele>1627.0</ele><time>2026-04-26T09:42:37.795Z</time></trkpt><trkpt lat="38.1307983" lon="15.85939"><ele>1627.0</ele><time>2026-04-26T09:42:38.795Z</time></trkpt><trkpt lat="38.1308383" lon="15.859285"><ele>1627.0</ele><time>2026-04-26T09:42:39.794Z</time></trkpt><trkpt lat="38.1308617" lon="15.8591817"><ele>1627.0000000000002</ele><time>2026-04-26T09:42:40.794Z</time></trkpt><trkpt lat="38.1308633" lon="15.85908"><ele>1627.0</ele><time>2026-04-26T09:42:41.795Z</time></trkpt><trkpt lat="38.1308267" lon="15.8589833"><ele>1627.8</ele><time>2026-04-26T09:42:42.795Z</time></trkpt><trkpt lat="38.130755" lon="15.8589017"><ele>1628.6</ele><time>2026-04-26T09:42:43.794Z</time></trkpt><trkpt lat="38.1306783" lon="15.8588517"><ele>1629.3999999999999</ele><time>2026-04-26T09:42:44.794Z</time></trkpt><trkpt lat="38.1305833" lon="15.858835"><ele>1630.1999999999998</ele><time>2026-04-26T09:42:45.794Z</time></trkpt><trkpt lat="38.1304817" lon="15.858845"><ele>1631.0</ele><time>2026-04-26T09:42:46.794Z</time></trkpt><trkpt lat="38.1303833" lon="15.8588467"><ele>1633.4</ele><time>2026-04-26T09:42:47.794Z</time></trkpt><trkpt lat="38.130285" lon="15.85886"><ele>1635.8</ele><time>2026-04-26T09:42:48.794Z</time></trkpt><trkpt lat="38.1301867" lon="15.85885"><ele>1638.2</ele><time>2026-04-26T09:42:49.795Z</time></trkpt><trkpt lat="38.1300933" lon="15.858825"><ele>1640.6000000000001</ele><time>2026-04-26T09:42:50.794Z</time></trkpt><trkpt lat="38.1299983" lon="15.8587883"><ele>1643.0</ele><time>2026-04-26T09:42:51.794Z</time></trkpt><trkpt lat="38.1299" lon="15.858735"><ele>1645.75</ele><time>2026-04-26T09:42:52.794Z</time></trkpt><trkpt lat="38.1297817" lon="15.8586883"><ele>1648.5</ele><time>2026-04-26T09:42:53.794Z</time></trkpt><trkpt lat="38.12965" lon="15.85867"><ele>1651.25</ele><time>2026-04-26T09:42:54.795Z</time></trkpt><trkpt lat="38.129505" lon="15.8586783"><ele>1654.0</ele><time>2026-04-26T09:42:55.795Z</time></trkpt><trkpt lat="38.1293617" lon="15.8587167"><ele>1654.0</ele><time>2026-04-26T09:42:56.795Z</time></trkpt><trkpt lat="38.1292133" lon="15.85878"><ele>1654.0</ele><time>2026-04-26T09:42:57.794Z</time></trkpt><trkpt lat="38.1290783" lon="15.858865"><ele>1654.0</ele><time>2026-04-26T09:42:58.795Z</time></trkpt><trkpt lat="38.1289467" lon="15.858955"><ele>1654.6</ele><time>2026-04-26T09:42:59.795Z</time></trkpt><trkpt lat="38.1288333" lon="15.8590317"><ele>1655.2</ele><time>2026-04-26T09:43:00.794Z</time></trkpt><trkpt lat="38.1287333" lon="15.8590917"><ele>1655.8</ele><time>2026-04-26T09:43:01.794Z</time></trkpt><trkpt lat="38.1286433" lon="15.8591583"><ele>1656.3999999999999</ele><time>2026-04-26T09:43:02.794Z</time></trkpt><trkpt lat="38.1285733" lon="15.8592467"><ele>1657.0</ele><time>2026-04-26T09:43:03.795Z</time></trkpt><trkpt lat="38.1285133" lon="15.8593717"><ele>1657.0</ele><time>2026-04-26T09:43:04.795Z</time></trkpt><trkpt lat="38.1284583" lon="15.8594733"><ele>1657.0</ele><time>2026-04-26T09:43:05.795Z</time></trkpt><trkpt lat="38.1284083" lon="15.8595783"><ele>1657.0</ele><time>2026-04-26T09:43:06.795Z</time></trkpt><trkpt lat="38.128355" lon="15.8596733"><ele>1657.0</ele><time>2026-04-26T09:43:07.794Z</time></trkpt><trkpt lat="38.1282983" lon="15.8597633"><ele>1657.0</ele><time>2026-04-26T09:43:08.795Z</time></trkpt><trkpt lat="38.1282383" lon="15.859855"><ele>1655.6</ele><time>2026-04-26T09:43:09.794Z</time></trkpt><trkpt lat="38.128175" lon="15.8599517"><ele>1654.1999999999998</ele><time>2026-04-26T09:43:10.794Z</time></trkpt><trkpt lat="38.128115" lon="15.86006"><ele>1652.8</ele><time>2026-04-26T09:43:11.795Z</time></trkpt><trkpt lat="38.1280583" lon="15.8601717"><ele>1651.4</ele><time>2026-04-26T09:43:12.794Z</time></trkpt><trkpt lat="38.128005" lon="15.860285"><ele>1650.0</ele><time>2026-04-26T09:43:13.795Z</time></trkpt><trkpt lat="38.1279517" lon="15.8604033"><ele>1650.0</ele><time>2026-04-26T09:43:14.795Z</time></trkpt><trkpt lat="38.127915" lon="15.8605217"><ele>1650.0</ele><time>2026-04-26T09:43:15.795Z</time></trkpt><trkpt lat="38.1278717" lon="15.86063"><ele>1650.0</ele><time>2026-04-26T09:43:16.795Z</time></trkpt><trkpt lat="38.1278383" lon="15.86074"><ele>1650.0</ele><time>2026-04-26T09:43:17.795Z</time></trkpt><trkpt lat="38.1278" lon="15.8608517"><ele>1650.0</ele><time>2026-04-26T09:43:18.794Z</time></trkpt><trkpt lat="38.1277667" lon="15.86097"><ele>1651.4</ele><time>2026-04-26T09:43:19.794Z</time></trkpt><trkpt lat="38.1277383" lon="15.8610917"><ele>1652.8</ele><time>2026-04-26T09:43:20.794Z</time></trkpt><trkpt lat="38.1277117" lon="15.861225"><ele>1654.1999999999998</ele><time>2026-04-26T09:43:21.794Z</time></trkpt><trkpt lat="38.1276717" lon="15.8613467"><ele>1655.6</ele><time>2026-04-26T09:43:22.794Z</time></trkpt><trkpt lat="38.1276383" lon="15.8614733"><ele>1657.0</ele><time>2026-04-26T09:43:23.795Z</time></trkpt><trkpt lat="38.1275967" lon="15.8615833"><ele>1657.0</ele><time>2026-04-26T09:43:24.795Z</time></trkpt><trkpt lat="38.1275433" lon="15.8616967"><ele>1657.0</ele><time>2026-04-26T09:43:25.794Z</time></trkpt><trkpt lat="38.1274783" lon="15.8617833"><ele>1657.0</ele><time>2026-04-26T09:43:26.794Z</time></trkpt><trkpt lat="38.1274033" lon="15.8618483"><ele>1657.0</ele><time>2026-04-26T09:43:27.794Z</time></trkpt><trkpt lat="38.1273133" lon="15.861895"><ele>1657.0</ele><time>2026-04-26T09:43:28.795Z</time></trkpt><trkpt lat="38.127215" lon="15.8619467"><ele>1657.8</ele><time>2026-04-26T09:43:29.794Z</time></trkpt><trkpt lat="38.1271183" lon="15.8619983"><ele>1658.6</ele><time>2026-04-26T09:43:30.795Z</time></trkpt><trkpt lat="38.1270217" lon="15.862055"><ele>1659.3999999999999</ele><time>2026-04-26T09:43:31.794Z</time></trkpt><trkpt lat="38.1269167" lon="15.8621167"><ele>1660.1999999999998</ele><time>2026-04-26T09:43:32.794Z</time></trkpt><trkpt lat="38.1268083" lon="15.8621883"><ele>1661.0</ele><time>2026-04-26T09:43:33.795Z</time></trkpt><trkpt lat="38.1267133" lon="15.8622833"><ele>1661.0</ele><time>2026-04-26T09:43:34.794Z</time></trkpt><trkpt lat="38.1266283" lon="15.8623817"><ele>1661.0</ele><time>2026-04-26T09:43:35.794Z</time></trkpt><trkpt lat="38.1265667" lon="15.8624933"><ele>1661.0</ele><time>2026-04-26T09:43:36.794Z</time></trkpt><trkpt lat="38.1265117" lon="15.8626067"><ele>1661.0</ele><time>2026-04-26T09:43:37.795Z</time></trkpt><trkpt lat="38.1264683" lon="15.862725"><ele>1661.0</ele><time>2026-04-26T09:43:38.794Z</time></trkpt><trkpt lat="38.1264367" lon="15.8628417"><ele>1664.0</ele><time>2026-04-26T09:43:39.795Z</time></trkpt><trkpt lat="38.12642" lon="15.8629583"><ele>1667.0</ele><time>2026-04-26T09:43:40.794Z</time></trkpt><trkpt lat="38.12643" lon="15.8630867"><ele>1670.0</ele><time>2026-04-26T09:43:41.794Z</time></trkpt><trkpt lat="38.1264483" lon="15.8632217"><ele>1673.0</ele><time>2026-04-26T09:43:42.795Z</time></trkpt><trkpt lat="38.12646" lon="15.8633517"><ele>1676.0</ele><time>2026-04-26T09:43:43.794Z</time></trkpt><trkpt lat="38.1264517" lon="15.8634833"><ele>1676.0</ele><time>2026-04-26T09:43:44.795Z</time></trkpt><trkpt lat="38.1264383" lon="15.86363"><ele>1676.0</ele><time>2026-04-26T09:43:45.795Z</time></trkpt><trkpt lat="38.1264017" lon="15.8637583"><ele>1676.0</ele><time>2026-04-26T09:43:46.794Z</time></trkpt><trkpt lat="38.1263367" lon="15.86388"><ele>1676.0</ele><time>2026-04-26T09:43:47.794Z</time></trkpt><trkpt lat="38.1262617" lon="15.863985"><ele>1676.0</ele><time>2026-04-26T09:43:48.795Z</time></trkpt><trkpt lat="38.12615" lon="15.8640717"><ele>1676.0</ele><time>2026-04-26T09:43:49.794Z</time></trkpt><trkpt lat="38.1260333" lon="15.8641367"><ele>1676.0</ele><time>2026-04-26T09:43:50.795Z</time></trkpt><trkpt lat="38.12592" lon="15.8642033"><ele>1676.0</ele><time>2026-04-26T09:43:51.794Z</time></trkpt><trkpt lat="38.1258067" lon="15.8642933"><ele>1675.75</ele><time>2026-04-26T09:43:52.795Z</time></trkpt><trkpt lat="38.1257117" lon="15.864385"><ele>1675.5</ele><time>2026-04-26T09:43:53.795Z</time></trkpt><trkpt lat="38.1256417" lon="15.8645033"><ele>1675.25</ele><time>2026-04-26T09:43:54.794Z</time></trkpt><trkpt lat="38.12558" lon="15.864625"><ele>1675.0</ele><time>2026-04-26T09:43:55.795Z</time></trkpt><trkpt lat="38.1255183" lon="15.8647283"><ele>1675.0</ele><time>2026-04-26T09:43:56.794Z</time></trkpt><trkpt lat="38.1254333" lon="15.8648117"><ele>1675.0</ele><time>2026-04-26T09:43:57.794Z</time></trkpt><trkpt lat="38.1253283" lon="15.86487"><ele>1675.0</ele><time>2026-04-26T09:43:58.795Z</time></trkpt><trkpt lat="38.1252133" lon="15.86491"><ele>1675.0</ele><time>2026-04-26T09:43:59.794Z</time></trkpt><trkpt lat="38.12509" lon="15.8649367"><ele>1675.0</ele><time>2026-04-26T09:44:00.795Z</time></trkpt><trkpt lat="38.1249633" lon="15.8649467"><ele>1675.0</ele><time>2026-04-26T09:44:01.794Z</time></trkpt><trkpt lat="38.1248517" lon="15.8649517"><ele>1675.0</ele><time>2026-04-26T09:44:02.794Z</time></trkpt><trkpt lat="38.124745" lon="15.8649517"><ele>1675.0</ele><time>2026-04-26T09:44:03.794Z</time></trkpt><trkpt lat="38.12464" lon="15.8649517"><ele>1674.2</ele><time>2026-04-26T09:44:04.795Z</time></trkpt><trkpt lat="38.1245417" lon="15.8649517"><ele>1673.4</ele><time>2026-04-26T09:44:05.795Z</time></trkpt><trkpt lat="38.1244467" lon="15.8649833"><ele>1672.6</ele><time>2026-04-26T09:44:06.795Z</time></trkpt><trkpt lat="38.1243617" lon="15.8650433"><ele>1671.8</ele><time>2026-04-26T09:44:07.795Z</time></trkpt><trkpt lat="38.1242833" lon="15.8651217"><ele>1671.0</ele><time>2026-04-26T09:44:08.794Z</time></trkpt><trkpt lat="38.1242033" lon="15.8652"><ele>1671.0</ele><time>2026-04-26T09:44:09.794Z</time></trkpt><trkpt lat="38.1241" lon="15.8652683"><ele>1671.0</ele><time>2026-04-26T09:44:10.794Z</time></trkpt><trkpt lat="38.1239967" lon="15.86531"><ele>1671.0</ele><time>2026-04-26T09:44:11.794Z</time></trkpt><trkpt lat="38.1238933" lon="15.8653317"><ele>1671.0</ele><time>2026-04-26T09:44:12.795Z</time></trkpt><trkpt lat="38.123795" lon="15.8653433"><ele>1671.0</ele><time>2026-04-26T09:44:13.794Z</time></trkpt><trkpt lat="38.123695" lon="15.86536"><ele>1666.0</ele><time>2026-04-26T09:44:14.795Z</time></trkpt><trkpt lat="38.1235917" lon="15.8653817"><ele>1661.0</ele><time>2026-04-26T09:44:15.794Z</time></trkpt><trkpt lat="38.1234883" lon="15.865425"><ele>1656.0</ele><time>2026-04-26T09:44:16.794Z</time></trkpt><trkpt lat="38.123385" lon="15.8654967"><ele>1651.0</ele><time>2026-04-26T09:44:17.794Z</time></trkpt><trkpt lat="38.12328" lon="15.8655867"><ele>1649.5</ele><time>2026-04-26T09:44:18.795Z</time></trkpt><trkpt lat="38.1231817" lon="15.8656867"><ele>1648.0</ele><time>2026-04-26T09:44:19.795Z</time></trkpt><trkpt lat="38.1230833" lon="15.8657917"><ele>1646.5</ele><time>2026-04-26T09:44:20.795Z</time></trkpt><trkpt lat="38.122975" lon="15.8659033"><ele>1645.0</ele><time>2026-04-26T09:44:21.794Z</time></trkpt><trkpt lat="38.1228683" lon="15.866005"><ele>1643.5</ele><time>2026-04-26T09:44:22.794Z</time></trkpt><trkpt lat="38.1227583" lon="15.8660933"><ele>1642.0</ele><time>2026-04-26T09:44:23.794Z</time></trkpt><trkpt lat="38.122645" lon="15.8661617"><ele>1640.5</ele><time>2026-04-26T09:44:24.794Z</time></trkpt><trkpt lat="38.1225233" lon="15.8662033"><ele>1639.0</ele><time>2026-04-26T09:44:25.794Z</time></trkpt><trkpt lat="38.1224067" lon="15.8662733"><ele>1639.75</ele><time>2026-04-26T09:44:26.794Z</time></trkpt><trkpt lat="38.122295" lon="15.8663267"><ele>1640.5</ele><time>2026-04-26T09:44:27.794Z</time></trkpt><trkpt lat="38.1221817" lon="15.8663833"><ele>1641.25</ele><time>2026-04-26T09:44:28.795Z</time></trkpt><trkpt lat="38.1220717" lon="15.86644"><ele>1642.0</ele><time>2026-04-26T09:44:29.794Z</time></trkpt><trkpt lat="38.1219633" lon="15.8664933"><ele>1642.0</ele><time>2026-04-26T09:44:30.795Z</time></trkpt><trkpt lat="38.1218633" lon="15.8665417"><ele>1642.0</ele><time>2026-04-26T09:44:31.794Z</time></trkpt><trkpt lat="38.1217633" lon="15.866585"><ele>1642.0</ele><time>2026-04-26T09:44:32.794Z</time></trkpt><trkpt lat="38.121665" lon="15.8666283"><ele>1642.0</ele><time>2026-04-26T09:44:33.794Z</time></trkpt><trkpt lat="38.1215633" lon="15.866695"><ele>1642.0</ele><time>2026-04-26T09:44:34.794Z</time></trkpt><trkpt lat="38.121465" lon="15.8667583"><ele>1641.75</ele><time>2026-04-26T09:44:35.795Z</time></trkpt><trkpt lat="38.1213667" lon="15.8668183"><ele>1641.5</ele><time>2026-04-26T09:44:36.794Z</time></trkpt><trkpt lat="38.1212717" lon="15.86689"><ele>1641.25</ele><time>2026-04-26T09:44:37.794Z</time></trkpt><trkpt lat="38.1211733" lon="15.86698"><ele>1641.0</ele><time>2026-04-26T09:44:38.794Z</time></trkpt><trkpt lat="38.1210767" lon="15.8670783"><ele>1641.0</ele><time>2026-04-26T09:44:39.794Z</time></trkpt><trkpt lat="38.1209883" lon="15.86718"><ele>1641.0</ele><time>2026-04-26T09:44:40.794Z</time></trkpt><trkpt lat="38.1209017" lon="15.8672717"><ele>1641.0</ele><time>2026-04-26T09:44:41.794Z</time></trkpt><trkpt lat="38.1208067" lon="15.8673417"><ele>1641.0</ele><time>2026-04-26T09:44:42.795Z</time></trkpt><trkpt lat="38.1207183" lon="15.8673833"><ele>1641.0</ele><time>2026-04-26T09:44:43.795Z</time></trkpt><trkpt lat="38.1206283" lon="15.867395"><ele>1642.4</ele><time>2026-04-26T09:44:44.794Z</time></trkpt><trkpt lat="38.1205367" lon="15.8673867"><ele>1643.8</ele><time>2026-04-26T09:44:45.795Z</time></trkpt><trkpt lat="38.1204433" lon="15.8673633"><ele>1645.2</ele><time>2026-04-26T09:44:46.794Z</time></trkpt><trkpt lat="38.1203517" lon="15.8673367"><ele>1646.6000000000001</ele><time>2026-04-26T09:44:47.794Z</time></trkpt><trkpt lat="38.1202367" lon="15.8673233"><ele>1648.0</ele><time>2026-04-26T09:44:48.794Z</time></trkpt><trkpt lat="38.1201233" lon="15.8673417"><ele>1648.0</ele><time>2026-04-26T09:44:49.794Z</time></trkpt><trkpt lat="38.12001" lon="15.8673683"><ele>1648.0</ele><time>2026-04-26T09:44:50.794Z</time></trkpt><trkpt lat="38.1199133" lon="15.867385"><ele>1648.0</ele><time>2026-04-26T09:44:51.794Z</time></trkpt><trkpt lat="38.11982" lon="15.86736"><ele>1648.0</ele><time>2026-04-26T09:44:52.795Z</time></trkpt><trkpt lat="38.1197283" lon="15.8673317"><ele>1648.0</ele><time>2026-04-26T09:44:53.794Z</time></trkpt><trkpt lat="38.1196533" lon="15.86728"><ele>1650.4</ele><time>2026-04-26T09:44:54.794Z</time></trkpt><trkpt lat="38.119565" lon="15.8672167"><ele>1652.8000000000002</ele><time>2026-04-26T09:44:55.794Z</time></trkpt><trkpt lat="38.1194683" lon="15.8671517"><ele>1655.2</ele><time>2026-04-26T09:44:56.794Z</time></trkpt><trkpt lat="38.119365" lon="15.8670917"><ele>1657.6</ele><time>2026-04-26T09:44:57.795Z</time></trkpt><trkpt lat="38.119255" lon="15.8670317"><ele>1660.0</ele><time>2026-04-26T09:44:58.794Z</time></trkpt><trkpt lat="38.1191533" lon="15.8669817"><ele>1663.2</ele><time>2026-04-26T09:44:59.795Z</time></trkpt><trkpt lat="38.1190467" lon="15.8669183"><ele>1666.4</ele><time>2026-04-26T09:45:00.794Z</time></trkpt><trkpt lat="38.11896" lon="15.8668483"><ele>1669.6</ele><time>2026-04-26T09:45:01.794Z</time></trkpt><trkpt lat="38.1188867" lon="15.8667717"><ele>1672.8</ele><time>2026-04-26T09:45:02.794Z</time></trkpt><trkpt lat="38.1188217" lon="15.8666917"><ele>1676.0</ele><time>2026-04-26T09:45:03.794Z</time></trkpt><trkpt lat="38.1187783" lon="15.866605"><ele>1675.9999999999998</ele><time>2026-04-26T09:45:04.795Z</time></trkpt><trkpt lat="38.118735" lon="15.866515"><ele>1676.0</ele><time>2026-04-26T09:45:05.794Z</time></trkpt><trkpt lat="38.1186983" lon="15.8664183"><ele>1676.0</ele><time>2026-04-26T09:45:06.795Z</time></trkpt><trkpt lat="38.11866" lon="15.8663167"><ele>1676.0</ele><time>2026-04-26T09:45:07.795Z</time></trkpt><trkpt lat="38.11862" lon="15.8662083"><ele>1675.9999999999998</ele><time>2026-04-26T09:45:08.794Z</time></trkpt><trkpt lat="38.1185783" lon="15.866095"><ele>1676.0</ele><time>2026-04-26T09:45:09.794Z</time></trkpt><trkpt lat="38.1185383" lon="15.8659833"><ele>1675.1999999999998</ele><time>2026-04-26T09:45:10.795Z</time></trkpt><trkpt lat="38.1185" lon="15.8658683"><ele>1674.3999999999999</ele><time>2026-04-26T09:45:11.794Z</time></trkpt><trkpt lat="38.1184667" lon="15.8657433"><ele>1673.6</ele><time>2026-04-26T09:45:12.794Z</time></trkpt><trkpt lat="38.118425" lon="15.86562"><ele>1672.8</ele><time>2026-04-26T09:45:13.794Z</time></trkpt><trkpt lat="38.118395" lon="15.8654833"><ele>1672.0</ele><time>2026-04-26T09:45:14.795Z</time></trkpt><trkpt lat="38.118355" lon="15.86535"><ele>1672.0</ele><time>2026-04-26T09:45:15.795Z</time></trkpt><trkpt lat="38.1183083" lon="15.865225"><ele>1672.0</ele><time>2026-04-26T09:45:16.795Z</time></trkpt><trkpt lat="38.1182483" lon="15.865115"><ele>1672.0</ele><time>2026-04-26T09:45:17.795Z</time></trkpt><trkpt lat="38.11818" lon="15.8650183"><ele>1672.0</ele><time>2026-04-26T09:45:18.794Z</time></trkpt><trkpt lat="38.1181067" lon="15.8649417"><ele>1672.0</ele><time>2026-04-26T09:45:19.794Z</time></trkpt><trkpt lat="38.1180283" lon="15.8649033"><ele>1672.0</ele><time>2026-04-26T09:45:20.795Z</time></trkpt><trkpt lat="38.1179383" lon="15.8648967"><ele>1672.0</ele><time>2026-04-26T09:45:21.795Z</time></trkpt><trkpt lat="38.11787" lon="15.8649217"><ele>1672.0</ele><time>2026-04-26T09:45:22.795Z</time></trkpt><trkpt lat="38.1177933" lon="15.8649933"><ele>1672.0</ele><time>2026-04-26T09:45:23.795Z</time></trkpt><trkpt lat="38.1177083" lon="15.86508"><ele>1672.0</ele><time>2026-04-26T09:45:24.794Z</time></trkpt><trkpt lat="38.1176217" lon="15.8651833"><ele>1672.6</ele><time>2026-04-26T09:45:25.794Z</time></trkpt><trkpt lat="38.1175583" lon="15.865275"><ele>1673.1999999999998</ele><time>2026-04-26T09:45:26.795Z</time></trkpt><trkpt lat="38.1175" lon="15.8653567"><ele>1673.8</ele><time>2026-04-26T09:45:27.795Z</time></trkpt><trkpt lat="38.1174383" lon="15.86545"><ele>1674.4</ele><time>2026-04-26T09:45:28.795Z</time></trkpt><trkpt lat="38.1173833" lon="15.8655533"><ele>1675.0</ele><time>2026-04-26T09:45:29.794Z</time></trkpt><trkpt lat="38.117335" lon="15.8656717"><ele>1672.2</ele><time>2026-04-26T09:45:30.795Z</time></trkpt><trkpt lat="38.1173017" lon="15.8657933"><ele>1669.4</ele><time>2026-04-26T09:45:31.794Z</time></trkpt><trkpt lat="38.1172783" lon="15.865925"><ele>1666.6</ele><time>2026-04-26T09:45:32.795Z</time></trkpt><trkpt lat="38.1172617" lon="15.86606"><ele>1663.8</ele><time>2026-04-26T09:45:33.795Z</time></trkpt><trkpt lat="38.1172617" lon="15.8661967"><ele>1661.0</ele><time>2026-04-26T09:45:34.794Z</time></trkpt><trkpt lat="38.1172767" lon="15.86634"><ele>1661.0</ele><time>2026-04-26T09:45:35.794Z</time></trkpt><trkpt lat="38.1172917" lon="15.866475"><ele>1661.0</ele><time>2026-04-26T09:45:36.795Z</time></trkpt><trkpt lat="38.1173117" lon="15.8666117"><ele>1661.0</ele><time>2026-04-26T09:45:37.795Z</time></trkpt><trkpt lat="38.11733" lon="15.8667433"><ele>1661.0</ele><time>2026-04-26T09:45:38.794Z</time></trkpt><trkpt lat="38.1173267" lon="15.86687"><ele>1661.0</ele><time>2026-04-26T09:45:39.794Z</time></trkpt><trkpt lat="38.1172983" lon="15.8669917"><ele>1661.6</ele><time>2026-04-26T09:45:40.795Z</time></trkpt><trkpt lat="38.1172583" lon="15.8671117"><ele>1662.1999999999998</ele><time>2026-04-26T09:45:41.795Z</time></trkpt><trkpt lat="38.1172167" lon="15.86724"><ele>1662.8000000000002</ele><time>2026-04-26T09:45:42.794Z</time></trkpt><trkpt lat="38.11719" lon="15.867375"><ele>1663.4</ele><time>2026-04-26T09:45:43.795Z</time></trkpt><trkpt lat="38.11717" lon="15.8674983"><ele>1664.0</ele><time>2026-04-26T09:45:44.794Z</time></trkpt><trkpt lat="38.1171717" lon="15.867625"><ele>1664.0</ele><time>2026-04-26T09:45:45.794Z</time></trkpt><trkpt lat="38.11718" lon="15.86776"><ele>1664.0</ele><time>2026-04-26T09:45:46.794Z</time></trkpt><trkpt lat="38.11719" lon="15.8678833"><ele>1664.0</ele><time>2026-04-26T09:45:47.794Z</time></trkpt><trkpt lat="38.11721" lon="15.8680017"><ele>1664.0</ele><time>2026-04-26T09:45:48.795Z</time></trkpt><trkpt lat="38.1172217" lon="15.8681217"><ele>1664.0</ele><time>2026-04-26T09:45:49.794Z</time></trkpt><trkpt lat="38.117235" lon="15.8682283"><ele>1663.9999999999998</ele><time>2026-04-26T09:45:50.795Z</time></trkpt><trkpt lat="38.1172467" lon="15.8683267"><ele>1664.0</ele><time>2026-04-26T09:45:51.795Z</time></trkpt><trkpt lat="38.117265" lon="15.8684167"><ele>1664.0</ele><time>2026-04-26T09:45:52.795Z</time></trkpt><trkpt lat="38.11728" lon="15.8685"><ele>1664.0</ele><time>2026-04-26T09:45:53.794Z</time></trkpt><trkpt lat="38.1172883" lon="15.868585"><ele>1663.9999999999998</ele><time>2026-04-26T09:45:54.795Z</time></trkpt><trkpt lat="38.117285" lon="15.8686717"><ele>1664.0</ele><time>2026-04-26T09:45:55.794Z</time></trkpt><trkpt lat="38.1172633" lon="15.8688217"><ele>1664.6</ele><time>2026-04-26T09:45:57.794Z</time></trkpt><trkpt lat="38.1172183" lon="15.868955"><ele>1665.2</ele><time>2026-04-26T09:45:59.794Z</time></trkpt><trkpt lat="38.117165" lon="15.8690383"><ele>1665.8</ele><time>2026-04-26T09:46:00.794Z</time></trkpt><trkpt lat="38.1171183" lon="15.869125"><ele>1666.3999999999999</ele><time>2026-04-26T09:46:01.794Z</time></trkpt><trkpt lat="38.117055" lon="15.8692283"><ele>1667.0</ele><time>2026-04-26T09:46:02.795Z</time></trkpt><trkpt lat="38.1169683" lon="15.8693383"><ele>1668.0</ele><time>2026-04-26T09:46:03.795Z</time></trkpt><trkpt lat="38.1168867" lon="15.869455"><ele>1669.0</ele><time>2026-04-26T09:46:04.794Z</time></trkpt><trkpt lat="38.1168167" lon="15.8695667"><ele>1670.0</ele><time>2026-04-26T09:46:05.794Z</time></trkpt><trkpt lat="38.1167517" lon="15.8696783"><ele>1671.0</ele><time>2026-04-26T09:46:06.795Z</time></trkpt><trkpt lat="38.1166933" lon="15.8697967"><ele>1671.0</ele><time>2026-04-26T09:46:07.795Z</time></trkpt><trkpt lat="38.1166333" lon="15.86992"><ele>1671.0</ele><time>2026-04-26T09:46:08.794Z</time></trkpt><trkpt lat="38.11658" lon="15.870045"><ele>1671.0</ele><time>2026-04-26T09:46:09.794Z</time></trkpt><trkpt lat="38.1165333" lon="15.87017"><ele>1671.0</ele><time>2026-04-26T09:46:10.794Z</time></trkpt><trkpt lat="38.11649" lon="15.8703"><ele>1671.0</ele><time>2026-04-26T09:46:11.794Z</time></trkpt><trkpt lat="38.11644" lon="15.8704367"><ele>1671.4</ele><time>2026-04-26T09:46:12.794Z</time></trkpt><trkpt lat="38.116385" lon="15.8705667"><ele>1671.8</ele><time>2026-04-26T09:46:13.794Z</time></trkpt><trkpt lat="38.1163233" lon="15.87069"><ele>1672.2</ele><time>2026-04-26T09:46:14.794Z</time></trkpt><trkpt lat="38.11626" lon="15.8708033"><ele>1672.6000000000001</ele><time>2026-04-26T09:46:15.794Z</time></trkpt><trkpt lat="38.1161883" lon="15.8709067"><ele>1673.0</ele><time>2026-04-26T09:46:16.795Z</time></trkpt><trkpt lat="38.116115" lon="15.871"><ele>1673.0</ele><time>2026-04-26T09:46:17.794Z</time></trkpt><trkpt lat="38.1160483" lon="15.8710717"><ele>1673.0</ele><time>2026-04-26T09:46:18.795Z</time></trkpt><trkpt lat="38.11599" lon="15.8711367"><ele>1673.0</ele><time>2026-04-26T09:46:19.794Z</time></trkpt><trkpt lat="38.1159" lon="15.8712283"><ele>1673.0</ele><time>2026-04-26T09:46:21.794Z</time></trkpt><trkpt lat="38.1158033" lon="15.8713333"><ele>1673.0</ele><time>2026-04-26T09:46:23.794Z</time></trkpt><trkpt lat="38.1157483" lon="15.8714117"><ele>1673.0</ele><time>2026-04-26T09:46:24.795Z</time></trkpt><trkpt lat="38.1156917" lon="15.871495"><ele>1673.0</ele><time>2026-04-26T09:46:25.794Z</time></trkpt><trkpt lat="38.1156383" lon="15.8715883"><ele>1673.0</ele><time>2026-04-26T09:46:26.795Z</time></trkpt><trkpt lat="38.1155733" lon="15.8716833"><ele>1673.0</ele><time>2026-04-26T09:46:27.794Z</time></trkpt><trkpt lat="38.1155183" lon="15.8717767"><ele>1673.0</ele><time>2026-04-26T09:46:28.794Z</time></trkpt><trkpt lat="38.1154617" lon="15.8718633"><ele>1672.6666666666665</ele><time>2026-04-26T09:46:29.795Z</time></trkpt><trkpt lat="38.115405" lon="15.871945"><ele>1672.3333333333333</ele><time>2026-04-26T09:46:30.795Z</time></trkpt><trkpt lat="38.115345" lon="15.872025"><ele>1672.0</ele><time>2026-04-26T09:46:31.794Z</time></trkpt><trkpt lat="38.1152867" lon="15.8721033"><ele>1671.6666666666665</ele><time>2026-04-26T09:46:32.795Z</time></trkpt><trkpt lat="38.1152233" lon="15.8721733"><ele>1671.3333333333333</ele><time>2026-04-26T09:46:33.795Z</time></trkpt><trkpt lat="38.1151567" lon="15.872235"><ele>1671.0</ele><time>2026-04-26T09:46:34.794Z</time></trkpt><trkpt lat="38.1150833" lon="15.872295"><ele>1671.0</ele><time>2026-04-26T09:46:35.795Z</time></trkpt><trkpt lat="38.115" lon="15.8723617"><ele>1671.0</ele><time>2026-04-26T09:46:36.794Z</time></trkpt><trkpt lat="38.1149183" lon="15.872425"><ele>1671.0</ele><time>2026-04-26T09:46:37.795Z</time></trkpt><trkpt lat="38.1148367" lon="15.8724983"><ele>1671.0</ele><time>2026-04-26T09:46:38.794Z</time></trkpt><trkpt lat="38.11477" lon="15.8725933"><ele>1671.0</ele><time>2026-04-26T09:46:39.794Z</time></trkpt><trkpt lat="38.1147083" lon="15.87269"><ele>1668.6</ele><time>2026-04-26T09:46:40.794Z</time></trkpt><trkpt lat="38.1146533" lon="15.8727883"><ele>1666.1999999999998</ele><time>2026-04-26T09:46:41.794Z</time></trkpt><trkpt lat="38.11462" lon="15.8728917"><ele>1663.8000000000002</ele><time>2026-04-26T09:46:42.795Z</time></trkpt><trkpt lat="38.1146167" lon="15.87302"><ele>1661.4</ele><time>2026-04-26T09:46:43.794Z</time></trkpt><trkpt lat="38.11466" lon="15.8731717"><ele>1659.0</ele><time>2026-04-26T09:46:44.794Z</time></trkpt><trkpt lat="38.1146867" lon="15.8732783"><ele>1659.0</ele><time>2026-04-26T09:46:45.794Z</time></trkpt><trkpt lat="38.1147233" lon="15.873395"><ele>1659.0</ele><time>2026-04-26T09:46:46.795Z</time></trkpt><trkpt lat="38.1147767" lon="15.873545"><ele>1659.0</ele><time>2026-04-26T09:46:47.795Z</time></trkpt><trkpt lat="38.11482" lon="15.8736767"><ele>1659.0</ele><time>2026-04-26T09:46:48.795Z</time></trkpt><trkpt lat="38.1148583" lon="15.87382"><ele>1656.75</ele><time>2026-04-26T09:46:49.794Z</time></trkpt><trkpt lat="38.11486" lon="15.8739583"><ele>1654.5</ele><time>2026-04-26T09:46:50.795Z</time></trkpt><trkpt lat="38.1148367" lon="15.8741067"><ele>1652.25</ele><time>2026-04-26T09:46:51.794Z</time></trkpt><trkpt lat="38.1147933" lon="15.8742433"><ele>1650.0</ele><time>2026-04-26T09:46:52.794Z</time></trkpt><trkpt lat="38.114745" lon="15.874395"><ele>1649.5</ele><time>2026-04-26T09:46:53.794Z</time></trkpt><trkpt lat="38.1146983" lon="15.8745417"><ele>1649.0</ele><time>2026-04-26T09:46:54.795Z</time></trkpt><trkpt lat="38.1146483" lon="15.8747"><ele>1648.5</ele><time>2026-04-26T09:46:55.795Z</time></trkpt><trkpt lat="38.1146" lon="15.8748483"><ele>1648.0</ele><time>2026-04-26T09:46:56.794Z</time></trkpt><trkpt lat="38.11455" lon="15.875015"><ele>1650.25</ele><time>2026-04-26T09:46:57.794Z</time></trkpt><trkpt lat="38.11448" lon="15.875155"><ele>1652.5</ele><time>2026-04-26T09:46:58.794Z</time></trkpt><trkpt lat="38.11441" lon="15.8753"><ele>1654.75</ele><time>2026-04-26T09:46:59.794Z</time></trkpt><trkpt lat="38.1143267" lon="15.8754117"><ele>1657.0</ele><time>2026-04-26T09:47:00.794Z</time></trkpt><trkpt lat="38.1142383" lon="15.8755383"><ele>1657.0</ele><time>2026-04-26T09:47:01.794Z</time></trkpt><trkpt lat="38.1141483" lon="15.8756533"><ele>1657.0</ele><time>2026-04-26T09:47:02.794Z</time></trkpt><trkpt lat="38.11407" lon="15.8757733"><ele>1657.0</ele><time>2026-04-26T09:47:03.794Z</time></trkpt><trkpt lat="38.1139967" lon="15.875895"><ele>1657.0</ele><time>2026-04-26T09:47:04.795Z</time></trkpt><trkpt lat="38.1139183" lon="15.876005"><ele>1655.1999999999998</ele><time>2026-04-26T09:47:05.794Z</time></trkpt><trkpt lat="38.113845" lon="15.8761067"><ele>1653.4</ele><time>2026-04-26T09:47:06.794Z</time></trkpt><trkpt lat="38.1137467" lon="15.8761733"><ele>1651.6</ele><time>2026-04-26T09:47:07.795Z</time></trkpt><trkpt lat="38.1136417" lon="15.8762283"><ele>1649.8000000000002</ele><time>2026-04-26T09:47:08.795Z</time></trkpt><trkpt lat="38.1135317" lon="15.87626"><ele>1648.0</ele><time>2026-04-26T09:47:09.794Z</time></trkpt><trkpt lat="38.1134217" lon="15.8762683"><ele>1648.0</ele><time>2026-04-26T09:47:10.794Z</time></trkpt><trkpt lat="38.11331" lon="15.876255"><ele>1648.0</ele><time>2026-04-26T09:47:11.794Z</time></trkpt><trkpt lat="38.1132033" lon="15.8762317"><ele>1648.0</ele><time>2026-04-26T09:47:12.794Z</time></trkpt><trkpt lat="38.1131" lon="15.8762"><ele>1648.0</ele><time>2026-04-26T09:47:13.794Z</time></trkpt><trkpt lat="38.1130017" lon="15.876155"><ele>1648.0</ele><time>2026-04-26T09:47:14.795Z</time></trkpt><trkpt lat="38.1128983" lon="15.87612"><ele>1645.5000000000002</ele><time>2026-04-26T09:47:15.794Z</time></trkpt><trkpt lat="38.112805" lon="15.87609"><ele>1643.0</ele><time>2026-04-26T09:47:16.794Z</time></trkpt><trkpt lat="38.1127067" lon="15.8760783"><ele>1640.5</ele><time>2026-04-26T09:47:17.794Z</time></trkpt><trkpt lat="38.112615" lon="15.8760867"><ele>1638.0</ele><time>2026-04-26T09:47:18.794Z</time></trkpt><trkpt lat="38.1125383" lon="15.8761017"><ele>1635.5000000000002</ele><time>2026-04-26T09:47:19.795Z</time></trkpt><trkpt lat="38.1124583" lon="15.8761017"><ele>1633.0</ele><time>2026-04-26T09:47:20.794Z</time></trkpt><trkpt lat="38.11239" lon="15.87611"><ele>1631.3333333333335</ele><time>2026-04-26T09:47:21.795Z</time></trkpt><trkpt lat="38.1123183" lon="15.87611"><ele>1629.6666666666667</ele><time>2026-04-26T09:47:22.794Z</time></trkpt><trkpt lat="38.1122433" lon="15.8761017"><ele>1628.0</ele><time>2026-04-26T09:47:23.795Z</time></trkpt><trkpt lat="38.1121733" lon="15.8760917"><ele>1626.3333333333335</ele><time>2026-04-26T09:47:24.794Z</time></trkpt><trkpt lat="38.11211" lon="15.876075"><ele>1624.6666666666667</ele><time>2026-04-26T09:47:25.794Z</time></trkpt><trkpt lat="38.1120017" lon="15.87611"><ele>1623.0</ele><time>2026-04-26T09:47:27.794Z</time></trkpt><trkpt lat="38.111945" lon="15.8761533"><ele>1623.0</ele><time>2026-04-26T09:47:28.795Z</time></trkpt><trkpt lat="38.1118867" lon="15.8762183"><ele>1623.0</ele><time>2026-04-26T09:47:29.795Z</time></trkpt><trkpt lat="38.1118317" lon="15.8762917"><ele>1623.0</ele><time>2026-04-26T09:47:30.795Z</time></trkpt><trkpt lat="38.111785" lon="15.8763667"><ele>1623.0</ele><time>2026-04-26T09:47:31.795Z</time></trkpt><trkpt lat="38.1117467" lon="15.8764383"><ele>1623.0</ele><time>2026-04-26T09:47:32.794Z</time></trkpt><trkpt lat="38.1116633" lon="15.876515"><ele>1623.0</ele><time>2026-04-26T09:47:34.794Z</time></trkpt><trkpt lat="38.11158" lon="15.876485"><ele>1622.2</ele><time>2026-04-26T09:47:36.794Z</time></trkpt><trkpt lat="38.111475" lon="15.8764017"><ele>1621.4</ele><time>2026-04-26T09:47:38.794Z</time></trkpt><trkpt lat="38.1113717" lon="15.87637"><ele>1620.6000000000001</ele><time>2026-04-26T09:47:40.794Z</time></trkpt><trkpt lat="38.1112583" lon="15.876365"><ele>1619.8000000000002</ele><time>2026-04-26T09:47:42.795Z</time></trkpt><trkpt lat="38.111195" lon="15.8763767"><ele>1619.0</ele><time>2026-04-26T09:47:43.794Z</time></trkpt><trkpt lat="38.1111333" lon="15.876395"><ele>1618.9999999999998</ele><time>2026-04-26T09:47:44.795Z</time></trkpt><trkpt lat="38.1110667" lon="15.876425"><ele>1619.0</ele><time>2026-04-26T09:47:45.794Z</time></trkpt><trkpt lat="38.1110033" lon="15.8764633"><ele>1619.0</ele><time>2026-04-26T09:47:46.794Z</time></trkpt><trkpt lat="38.11094" lon="15.876515"><ele>1619.0</ele><time>2026-04-26T09:47:47.794Z</time></trkpt><trkpt lat="38.11088" lon="15.8765683"><ele>1618.9999999999998</ele><time>2026-04-26T09:47:48.795Z</time></trkpt><trkpt lat="38.110785" lon="15.8766683"><ele>1619.0</ele><time>2026-04-26T09:47:50.795Z</time></trkpt><trkpt lat="38.1106883" lon="15.876785"><ele>1618.0</ele><time>2026-04-26T09:47:52.795Z</time></trkpt><trkpt lat="38.11063" lon="15.8768517"><ele>1617.0</ele><time>2026-04-26T09:47:53.794Z</time></trkpt><trkpt lat="38.1105717" lon="15.8769183"><ele>1616.0</ele><time>2026-04-26T09:47:54.795Z</time></trkpt><trkpt lat="38.1105083" lon="15.8769717"><ele>1615.0</ele><time>2026-04-26T09:47:55.794Z</time></trkpt><trkpt lat="38.1104483" lon="15.8770133"><ele>1614.0</ele><time>2026-04-26T09:47:56.795Z</time></trkpt><trkpt lat="38.1103867" lon="15.8770467"><ele>1613.0</ele><time>2026-04-26T09:47:57.794Z</time></trkpt><trkpt lat="38.1103267" lon="15.8770783"><ele>1612.0</ele><time>2026-04-26T09:47:58.795Z</time></trkpt><trkpt lat="38.1102433" lon="15.877115"><ele>1612.0</ele><time>2026-04-26T09:48:00.795Z</time></trkpt><trkpt lat="38.1101583" lon="15.8771683"><ele>1612.0</ele><time>2026-04-26T09:48:02.795Z</time></trkpt><trkpt lat="38.11006" lon="15.8772517"><ele>1612.0</ele><time>2026-04-26T09:48:04.794Z</time></trkpt><trkpt lat="38.1099533" lon="15.8773117"><ele>1612.0</ele><time>2026-04-26T09:48:06.795Z</time></trkpt><trkpt lat="38.10982" lon="15.8773483"><ele>1611.5000000000002</ele><time>2026-04-26T09:48:08.794Z</time></trkpt><trkpt lat="38.1097433" lon="15.8773667"><ele>1611.0</ele><time>2026-04-26T09:48:09.794Z</time></trkpt><trkpt lat="38.10966" lon="15.8773867"><ele>1610.5</ele><time>2026-04-26T09:48:10.794Z</time></trkpt><trkpt lat="38.10958" lon="15.877405"><ele>1610.0</ele><time>2026-04-26T09:48:11.795Z</time></trkpt><trkpt lat="38.1095033" lon="15.877425"><ele>1609.5000000000002</ele><time>2026-04-26T09:48:12.794Z</time></trkpt><trkpt lat="38.1094267" lon="15.8774467"><ele>1609.0</ele><time>2026-04-26T09:48:13.794Z</time></trkpt><trkpt lat="38.1093483" lon="15.87747"><ele>1609.0000000000002</ele><time>2026-04-26T09:48:14.795Z</time></trkpt><trkpt lat="38.1092817" lon="15.8774883"><ele>1609.0</ele><time>2026-04-26T09:48:15.795Z</time></trkpt><trkpt lat="38.1092183" lon="15.87751"><ele>1609.0</ele><time>2026-04-26T09:48:16.794Z</time></trkpt><trkpt lat="38.109155" lon="15.8775317"><ele>1609.0</ele><time>2026-04-26T09:48:17.794Z</time></trkpt><trkpt lat="38.1090383" lon="15.8775633"><ele>1609.0000000000002</ele><time>2026-04-26T09:48:19.794Z</time></trkpt><trkpt lat="38.108935" lon="15.8775667"><ele>1609.0</ele><time>2026-04-26T09:48:21.795Z</time></trkpt><trkpt lat="38.10884" lon="15.8775417"><ele>1608.0</ele><time>2026-04-26T09:48:23.795Z</time></trkpt><trkpt lat="38.1087583" lon="15.8775267"><ele>1607.0</ele><time>2026-04-26T09:48:25.795Z</time></trkpt><trkpt lat="38.10865" lon="15.87751"><ele>1606.0</ele><time>2026-04-26T09:48:27.794Z</time></trkpt><trkpt lat="38.1085433" lon="15.87746"><ele>1605.0</ele><time>2026-04-26T09:48:29.794Z</time></trkpt><trkpt lat="38.108455" lon="15.8773817"><ele>1604.0</ele><time>2026-04-26T09:48:31.795Z</time></trkpt><trkpt lat="38.108355" lon="15.8772967"><ele>1603.9999999999998</ele><time>2026-04-26T09:48:33.794Z</time></trkpt><trkpt lat="38.108295" lon="15.87725"><ele>1604.0</ele><time>2026-04-26T09:48:34.794Z</time></trkpt><trkpt lat="38.1082283" lon="15.8772033"><ele>1604.0</ele><time>2026-04-26T09:48:35.795Z</time></trkpt><trkpt lat="38.1081633" lon="15.8771667"><ele>1604.0</ele><time>2026-04-26T09:48:36.794Z</time></trkpt><trkpt lat="38.1080833" lon="15.877135"><ele>1603.9999999999998</ele><time>2026-04-26T09:48:37.795Z</time></trkpt><trkpt lat="38.1079983" lon="15.8771183"><ele>1604.0</ele><time>2026-04-26T09:48:38.794Z</time></trkpt><trkpt lat="38.1079067" lon="15.87711"><ele>1603.3333333333333</ele><time>2026-04-26T09:48:39.795Z</time></trkpt><trkpt lat="38.107805" lon="15.87711"><ele>1602.6666666666665</ele><time>2026-04-26T09:48:40.794Z</time></trkpt><trkpt lat="38.1077167" lon="15.8770933"><ele>1602.0</ele><time>2026-04-26T09:48:41.794Z</time></trkpt><trkpt lat="38.1076317" lon="15.8770633"><ele>1601.3333333333335</ele><time>2026-04-26T09:48:42.794Z</time></trkpt><trkpt lat="38.107555" lon="15.877025"><ele>1600.6666666666667</ele><time>2026-04-26T09:48:43.794Z</time></trkpt><trkpt lat="38.1074867" lon="15.8769883"><ele>1600.0</ele><time>2026-04-26T09:48:44.794Z</time></trkpt><trkpt lat="38.1074167" lon="15.8769517"><ele>1599.3333333333335</ele><time>2026-04-26T09:48:45.794Z</time></trkpt><trkpt lat="38.1073483" lon="15.8769167"><ele>1598.6666666666667</ele><time>2026-04-26T09:48:46.795Z</time></trkpt><trkpt lat="38.1072783" lon="15.87688"><ele>1598.0</ele><time>2026-04-26T09:48:47.794Z</time></trkpt><trkpt lat="38.1072017" lon="15.8768467"><ele>1597.3333333333335</ele><time>2026-04-26T09:48:48.795Z</time></trkpt><trkpt lat="38.1071217" lon="15.87682"><ele>1596.6666666666667</ele><time>2026-04-26T09:48:49.794Z</time></trkpt><trkpt lat="38.107035" lon="15.8767883"><ele>1596.0</ele><time>2026-04-26T09:48:50.795Z</time></trkpt><trkpt lat="38.1069467" lon="15.8767467"><ele>1596.0</ele><time>2026-04-26T09:48:51.795Z</time></trkpt><trkpt lat="38.106855" lon="15.8767017"><ele>1596.0</ele><time>2026-04-26T09:48:52.794Z</time></trkpt><trkpt lat="38.1067617" lon="15.876655"><ele>1596.0</ele><time>2026-04-26T09:48:53.794Z</time></trkpt><trkpt lat="38.1066883" lon="15.8766183"><ele>1596.0</ele><time>2026-04-26T09:48:54.795Z</time></trkpt><trkpt lat="38.1066117" lon="15.876595"><ele>1596.0</ele><time>2026-04-26T09:48:55.794Z</time></trkpt><trkpt lat="38.1065333" lon="15.8765767"><ele>1596.0</ele><time>2026-04-26T09:48:56.795Z</time></trkpt><trkpt lat="38.1064583" lon="15.8765733"><ele>1595.8333333333333</ele><time>2026-04-26T09:48:57.794Z</time></trkpt><trkpt lat="38.106385" lon="15.8765917"><ele>1595.6666666666665</ele><time>2026-04-26T09:48:58.794Z</time></trkpt><trkpt lat="38.1063133" lon="15.8766183"><ele>1595.5</ele><time>2026-04-26T09:48:59.795Z</time></trkpt><trkpt lat="38.1062533" lon="15.8766517"><ele>1595.3333333333333</ele><time>2026-04-26T09:49:00.794Z</time></trkpt><trkpt lat="38.1061417" lon="15.8767267"><ele>1595.1666666666665</ele><time>2026-04-26T09:49:02.795Z</time></trkpt><trkpt lat="38.1060767" lon="15.8767567"><ele>1595.0</ele><time>2026-04-26T09:49:03.794Z</time></trkpt><trkpt lat="38.1060133" lon="15.8767833"><ele>1594.9999999999998</ele><time>2026-04-26T09:49:04.794Z</time></trkpt><trkpt lat="38.1059467" lon="15.8768017"><ele>1595.0</ele><time>2026-04-26T09:49:05.794Z</time></trkpt><trkpt lat="38.1058817" lon="15.876815"><ele>1595.0</ele><time>2026-04-26T09:49:06.796Z</time></trkpt><trkpt lat="38.1058133" lon="15.8768217"><ele>1595.0</ele><time>2026-04-26T09:49:07.795Z</time></trkpt><trkpt lat="38.1057317" lon="15.8768183"><ele>1594.9999999999998</ele><time>2026-04-26T09:49:08.795Z</time></trkpt><trkpt lat="38.1056467" lon="15.87681"><ele>1595.0</ele><time>2026-04-26T09:49:09.795Z</time></trkpt><trkpt lat="38.10556" lon="15.8768033"><ele>1595.6</ele><time>2026-04-26T09:49:10.795Z</time></trkpt><trkpt lat="38.1054567" lon="15.8768"><ele>1596.2</ele><time>2026-04-26T09:49:11.796Z</time></trkpt><trkpt lat="38.10535" lon="15.876805"><ele>1596.8000000000002</ele><time>2026-04-26T09:49:12.795Z</time></trkpt><trkpt lat="38.1052383" lon="15.8768117"><ele>1597.4</ele><time>2026-04-26T09:49:13.796Z</time></trkpt><trkpt lat="38.10513" lon="15.87681"><ele>1598.0</ele><time>2026-04-26T09:49:14.795Z</time></trkpt><trkpt lat="38.105025" lon="15.8768133"><ele>1597.9999999999998</ele><time>2026-04-26T09:49:15.795Z</time></trkpt><trkpt lat="38.1049483" lon="15.8768067"><ele>1598.0</ele><time>2026-04-26T09:49:16.795Z</time></trkpt><trkpt lat="38.10487" lon="15.876785"><ele>1598.0</ele><time>2026-04-26T09:49:17.795Z</time></trkpt><trkpt lat="38.1048167" lon="15.8767383"><ele>1598.0</ele><time>2026-04-26T09:49:18.796Z</time></trkpt><trkpt lat="38.1048067" lon="15.8766083"><ele>1597.9999999999998</ele><time>2026-04-26T09:49:20.795Z</time></trkpt><trkpt lat="38.1048267" lon="15.87653"><ele>1598.0</ele><time>2026-04-26T09:49:21.795Z</time></trkpt><trkpt lat="38.104835" lon="15.87645"><ele>1595.8333333333333</ele><time>2026-04-26T09:49:22.795Z</time></trkpt><trkpt lat="38.1047867" lon="15.8763583"><ele>1593.6666666666665</ele><time>2026-04-26T09:49:24.796Z</time></trkpt><trkpt lat="38.104715" lon="15.876385"><ele>1591.5</ele><time>2026-04-26T09:49:26.796Z</time></trkpt><trkpt lat="38.1046067" lon="15.8764483"><ele>1589.3333333333335</ele><time>2026-04-26T09:49:28.795Z</time></trkpt><trkpt lat="38.1045417" lon="15.8764917"><ele>1587.1666666666667</ele><time>2026-04-26T09:49:29.796Z</time></trkpt><trkpt lat="38.1044633" lon="15.8765367"><ele>1585.0</ele><time>2026-04-26T09:49:30.795Z</time></trkpt><trkpt lat="38.1043833" lon="15.876595"><ele>1585.0</ele><time>2026-04-26T09:49:31.795Z</time></trkpt><trkpt lat="38.104305" lon="15.8766567"><ele>1585.0</ele><time>2026-04-26T09:49:32.795Z</time></trkpt><trkpt lat="38.1042183" lon="15.8767317"><ele>1585.0</ele><time>2026-04-26T09:49:33.796Z</time></trkpt><trkpt lat="38.1041383" lon="15.8768083"><ele>1585.0</ele><time>2026-04-26T09:49:34.795Z</time></trkpt><trkpt lat="38.1040583" lon="15.87688"><ele>1585.0</ele><time>2026-04-26T09:49:35.795Z</time></trkpt><trkpt lat="38.10398" lon="15.8769517"><ele>1584.2</ele><time>2026-04-26T09:49:36.795Z</time></trkpt><trkpt lat="38.1039" lon="15.877015"><ele>1583.4</ele><time>2026-04-26T09:49:37.796Z</time></trkpt><trkpt lat="38.10382" lon="15.8770733"><ele>1582.6</ele><time>2026-04-26T09:49:38.795Z</time></trkpt><trkpt lat="38.1037433" lon="15.8771267"><ele>1581.8</ele><time>2026-04-26T09:49:39.796Z</time></trkpt><trkpt lat="38.1036633" lon="15.87717"><ele>1581.0</ele><time>2026-04-26T09:49:40.795Z</time></trkpt><trkpt lat="38.1035767" lon="15.8772017"><ele>1581.0</ele><time>2026-04-26T09:49:41.795Z</time></trkpt><trkpt lat="38.1034967" lon="15.8772133"><ele>1581.0</ele><time>2026-04-26T09:49:42.795Z</time></trkpt><trkpt lat="38.1034083" lon="15.8772217"><ele>1581.0</ele><time>2026-04-26T09:49:43.795Z</time></trkpt><trkpt lat="38.1033267" lon="15.8772183"><ele>1581.0</ele><time>2026-04-26T09:49:44.796Z</time></trkpt><trkpt lat="38.1032533" lon="15.8771967"><ele>1581.0</ele><time>2026-04-26T09:49:45.796Z</time></trkpt><trkpt lat="38.1031783" lon="15.8771633"><ele>1581.0</ele><time>2026-04-26T09:49:46.796Z</time></trkpt><trkpt lat="38.1031067" lon="15.877135"><ele>1579.6666666666667</ele><time>2026-04-26T09:49:47.795Z</time></trkpt><trkpt lat="38.1030283" lon="15.8771117"><ele>1578.3333333333335</ele><time>2026-04-26T09:49:48.795Z</time></trkpt><trkpt lat="38.10295" lon="15.8771033"><ele>1577.0</ele><time>2026-04-26T09:49:49.795Z</time></trkpt><trkpt lat="38.10287" lon="15.8771117"><ele>1575.6666666666667</ele><time>2026-04-26T09:49:50.795Z</time></trkpt><trkpt lat="38.102795" lon="15.87714"><ele>1574.3333333333335</ele><time>2026-04-26T09:49:51.795Z</time></trkpt><trkpt lat="38.1027267" lon="15.877175"><ele>1573.0</ele><time>2026-04-26T09:49:52.796Z</time></trkpt><trkpt lat="38.1026667" lon="15.877225"><ele>1573.0</ele><time>2026-04-26T09:49:53.795Z</time></trkpt><trkpt lat="38.10261" lon="15.8772867"><ele>1573.0</ele><time>2026-04-26T09:49:54.796Z</time></trkpt><trkpt lat="38.1025483" lon="15.8773417"><ele>1573.0</ele><time>2026-04-26T09:49:55.796Z</time></trkpt><trkpt lat="38.1024983" lon="15.877395"><ele>1573.0</ele><time>2026-04-26T09:49:56.795Z</time></trkpt><trkpt lat="38.1024383" lon="15.8774583"><ele>1573.0</ele><time>2026-04-26T09:49:57.796Z</time></trkpt><trkpt lat="38.1023833" lon="15.8775167"><ele>1573.0</ele><time>2026-04-26T09:49:58.795Z</time></trkpt><trkpt lat="38.1023233" lon="15.8775817"><ele>1573.0</ele><time>2026-04-26T09:49:59.795Z</time></trkpt><trkpt lat="38.1022733" lon="15.8776533"><ele>1572.0</ele><time>2026-04-26T09:50:00.795Z</time></trkpt><trkpt lat="38.1022267" lon="15.8777217"><ele>1571.0</ele><time>2026-04-26T09:50:01.796Z</time></trkpt><trkpt lat="38.1021833" lon="15.8777967"><ele>1570.0</ele><time>2026-04-26T09:50:02.795Z</time></trkpt><trkpt lat="38.1021367" lon="15.8778767"><ele>1569.0</ele><time>2026-04-26T09:50:03.795Z</time></trkpt><trkpt lat="38.1021033" lon="15.877945"><ele>1568.0</ele><time>2026-04-26T09:50:04.795Z</time></trkpt><trkpt lat="38.1020717" lon="15.8780167"><ele>1567.0</ele><time>2026-04-26T09:50:05.795Z</time></trkpt><trkpt lat="38.1020467" lon="15.8780917"><ele>1566.0</ele><time>2026-04-26T09:50:06.795Z</time></trkpt><trkpt lat="38.1019983" lon="15.87823"><ele>1566.0</ele><time>2026-04-26T09:50:08.796Z</time></trkpt><trkpt lat="38.1019667" lon="15.8783083"><ele>1566.0</ele><time>2026-04-26T09:50:10.795Z</time></trkpt><trkpt lat="38.1018817" lon="15.8782683"><ele>1566.0</ele><time>2026-04-26T09:50:13.795Z</time></trkpt><trkpt lat="38.10179" lon="15.8781733"><ele>1566.0</ele><time>2026-04-26T09:50:15.796Z</time></trkpt><trkpt lat="38.1017283" lon="15.87811"><ele>1566.0</ele><time>2026-04-26T09:50:16.796Z</time></trkpt><trkpt lat="38.10166" lon="15.8780417"><ele>1566.0</ele><time>2026-04-26T09:50:17.796Z</time></trkpt><trkpt lat="38.1016" lon="15.8779817"><ele>1562.5</ele><time>2026-04-26T09:50:18.796Z</time></trkpt><trkpt lat="38.1015467" lon="15.8779233"><ele>1559.0</ele><time>2026-04-26T09:50:19.795Z</time></trkpt><trkpt lat="38.1014967" lon="15.87785"><ele>1555.5</ele><time>2026-04-26T09:50:20.795Z</time></trkpt><trkpt lat="38.101455" lon="15.8777733"><ele>1552.0</ele><time>2026-04-26T09:50:21.795Z</time></trkpt><trkpt lat="38.1014367" lon="15.8776867"><ele>1548.5</ele><time>2026-04-26T09:50:22.795Z</time></trkpt><trkpt lat="38.1014283" lon="15.8776033"><ele>1545.0</ele><time>2026-04-26T09:50:23.795Z</time></trkpt><trkpt lat="38.101455" lon="15.8774733"><ele>1544.6666666666667</ele><time>2026-04-26T09:50:25.796Z</time></trkpt><trkpt lat="38.101485" lon="15.8773467"><ele>1544.3333333333335</ele><time>2026-04-26T09:50:27.796Z</time></trkpt><trkpt lat="38.1015033" lon="15.8772367"><ele>1544.0</ele><time>2026-04-26T09:50:29.796Z</time></trkpt><trkpt lat="38.1014517" lon="15.87718"><ele>1543.6666666666667</ele><time>2026-04-26T09:50:34.795Z</time></trkpt><trkpt lat="38.101385" lon="15.8772267"><ele>1543.3333333333335</ele><time>2026-04-26T09:50:36.795Z</time></trkpt><trkpt lat="38.101315" lon="15.877295"><ele>1543.0</ele><time>2026-04-26T09:50:38.795Z</time></trkpt><trkpt lat="38.1012567" lon="15.8773383"><ele>1543.0000000000002</ele><time>2026-04-26T09:50:40.795Z</time></trkpt><trkpt lat="38.1011633" lon="15.8772767"><ele>1543.0</ele><time>2026-04-26T09:50:43.796Z</time></trkpt><trkpt lat="38.1011367" lon="15.87718"><ele>1543.0</ele><time>2026-04-26T09:50:45.795Z</time></trkpt><trkpt lat="38.101155" lon="15.87703"><ele>1543.0</ele><time>2026-04-26T09:50:47.795Z</time></trkpt><trkpt lat="38.1011683" lon="15.87694"><ele>1543.0000000000002</ele><time>2026-04-26T09:50:48.795Z</time></trkpt><trkpt lat="38.101195" lon="15.8768567"><ele>1543.0</ele><time>2026-04-26T09:50:49.796Z</time></trkpt><trkpt lat="38.101225" lon="15.8767733"><ele>1541.9999999999998</ele><time>2026-04-26T09:50:50.796Z</time></trkpt><trkpt lat="38.1012567" lon="15.8766933"><ele>1541.0</ele><time>2026-04-26T09:50:51.795Z</time></trkpt><trkpt lat="38.1012917" lon="15.8766117"><ele>1540.0</ele><time>2026-04-26T09:50:52.795Z</time></trkpt><trkpt lat="38.10132" lon="15.8765367"><ele>1539.0</ele><time>2026-04-26T09:50:53.796Z</time></trkpt><trkpt lat="38.1013383" lon="15.876455"><ele>1538.0</ele><time>2026-04-26T09:50:54.796Z</time></trkpt><trkpt lat="38.1013417" lon="15.8763517"><ele>1536.9999999999998</ele><time>2026-04-26T09:50:55.796Z</time></trkpt><trkpt lat="38.10134" lon="15.87625"><ele>1536.0</ele><time>2026-04-26T09:50:56.796Z</time></trkpt><trkpt lat="38.1013283" lon="15.8761367"><ele>1535.9999999999998</ele><time>2026-04-26T09:50:57.795Z</time></trkpt><trkpt lat="38.1013117" lon="15.876055"><ele>1536.0</ele><time>2026-04-26T09:50:58.796Z</time></trkpt><trkpt lat="38.1012933" lon="15.875975"><ele>1536.0</ele><time>2026-04-26T09:50:59.795Z</time></trkpt><trkpt lat="38.1012483" lon="15.8758883"><ele>1536.0</ele><time>2026-04-26T09:51:00.796Z</time></trkpt><trkpt lat="38.1012033" lon="15.8758233"><ele>1536.0</ele><time>2026-04-26T09:51:01.796Z</time></trkpt><trkpt lat="38.1011583" lon="15.8757567"><ele>1535.9999999999998</ele><time>2026-04-26T09:51:02.795Z</time></trkpt><trkpt lat="38.101105" lon="15.8756933"><ele>1536.0</ele><time>2026-04-26T09:51:03.795Z</time></trkpt><trkpt lat="38.101045" lon="15.8756283"><ele>1535.3333333333333</ele><time>2026-04-26T09:51:04.795Z</time></trkpt><trkpt lat="38.1009767" lon="15.8755633"><ele>1534.6666666666667</ele><time>2026-04-26T09:51:05.795Z</time></trkpt><trkpt lat="38.100905" lon="15.875505"><ele>1534.0</ele><time>2026-04-26T09:51:06.796Z</time></trkpt><trkpt lat="38.10083" lon="15.8754533"><ele>1533.3333333333335</ele><time>2026-04-26T09:51:07.795Z</time></trkpt><trkpt lat="38.1007483" lon="15.8753967"><ele>1532.6666666666667</ele><time>2026-04-26T09:51:08.795Z</time></trkpt><trkpt lat="38.1006633" lon="15.8753383"><ele>1532.0</ele><time>2026-04-26T09:51:09.795Z</time></trkpt><trkpt lat="38.1005767" lon="15.8752817"><ele>1532.0</ele><time>2026-04-26T09:51:10.795Z</time></trkpt><trkpt lat="38.1004867" lon="15.87523"><ele>1532.0</ele><time>2026-04-26T09:51:11.796Z</time></trkpt><trkpt lat="38.1003967" lon="15.8751817"><ele>1532.0</ele><time>2026-04-26T09:51:12.795Z</time></trkpt><trkpt lat="38.10031" lon="15.8751267"><ele>1532.0</ele><time>2026-04-26T09:51:13.795Z</time></trkpt><trkpt lat="38.1002233" lon="15.8750717"><ele>1532.0</ele><time>2026-04-26T09:51:14.796Z</time></trkpt><trkpt lat="38.100135" lon="15.87502"><ele>1532.5</ele><time>2026-04-26T09:51:15.795Z</time></trkpt><trkpt lat="38.1000483" lon="15.874965"><ele>1533.0</ele><time>2026-04-26T09:51:16.795Z</time></trkpt><trkpt lat="38.0999683" lon="15.87491"><ele>1533.5</ele><time>2026-04-26T09:51:17.795Z</time></trkpt><trkpt lat="38.099895" lon="15.8748567"><ele>1534.0</ele><time>2026-04-26T09:51:18.796Z</time></trkpt><trkpt lat="38.0998267" lon="15.8748"><ele>1534.5</ele><time>2026-04-26T09:51:19.795Z</time></trkpt><trkpt lat="38.09976" lon="15.8747333"><ele>1535.0</ele><time>2026-04-26T09:51:20.796Z</time></trkpt><trkpt lat="38.0996917" lon="15.8746633"><ele>1535.6666666666667</ele><time>2026-04-26T09:51:21.796Z</time></trkpt><trkpt lat="38.0996283" lon="15.8745967"><ele>1536.3333333333335</ele><time>2026-04-26T09:51:22.795Z</time></trkpt><trkpt lat="38.099575" lon="15.8745267"><ele>1537.0</ele><time>2026-04-26T09:51:23.796Z</time></trkpt><trkpt lat="38.0995233" lon="15.8744567"><ele>1537.6666666666667</ele><time>2026-04-26T09:51:24.796Z</time></trkpt><trkpt lat="38.0994717" lon="15.8743883"><ele>1538.3333333333333</ele><time>2026-04-26T09:51:25.796Z</time></trkpt><trkpt lat="38.099415" lon="15.8743067"><ele>1539.0</ele><time>2026-04-26T09:51:26.795Z</time></trkpt><trkpt lat="38.09936" lon="15.87425"><ele>1539.0</ele><time>2026-04-26T09:51:27.796Z</time></trkpt><trkpt lat="38.0993133" lon="15.8741883"><ele>1539.0</ele><time>2026-04-26T09:51:28.795Z</time></trkpt><trkpt lat="38.0992567" lon="15.8741383"><ele>1539.0</ele><time>2026-04-26T09:51:29.796Z</time></trkpt><trkpt lat="38.099135" lon="15.8740683"><ele>1539.0</ele><time>2026-04-26T09:51:31.795Z</time></trkpt><trkpt lat="38.099065" lon="15.87405"><ele>1539.0</ele><time>2026-04-26T09:51:32.795Z</time></trkpt><trkpt lat="38.0989917" lon="15.8740383"><ele>1539.0</ele><time>2026-04-26T09:51:33.795Z</time></trkpt><trkpt lat="38.098915" lon="15.8740483"><ele>1538.7142857142858</ele><time>2026-04-26T09:51:34.796Z</time></trkpt><trkpt lat="38.09884" lon="15.874075"><ele>1538.4285714285713</ele><time>2026-04-26T09:51:35.795Z</time></trkpt><trkpt lat="38.0987683" lon="15.8741017"><ele>1538.1428571428573</ele><time>2026-04-26T09:51:36.796Z</time></trkpt><trkpt lat="38.0986983" lon="15.8741083"><ele>1537.857142857143</ele><time>2026-04-26T09:51:37.796Z</time></trkpt><trkpt lat="38.0986283" lon="15.874095"><ele>1537.5714285714287</ele><time>2026-04-26T09:51:38.795Z</time></trkpt><trkpt lat="38.0985633" lon="15.8740633"><ele>1537.2857142857144</ele><time>2026-04-26T09:51:39.795Z</time></trkpt><trkpt lat="38.0984967" lon="15.8740117"><ele>1537.0</ele><time>2026-04-26T09:51:40.795Z</time></trkpt><trkpt lat="38.0984233" lon="15.873965"><ele>1537.0</ele><time>2026-04-26T09:51:41.795Z</time></trkpt><trkpt lat="38.0983467" lon="15.87392"><ele>1537.0</ele><time>2026-04-26T09:51:42.796Z</time></trkpt><trkpt lat="38.0982583" lon="15.8738883"><ele>1537.0</ele><time>2026-04-26T09:51:43.795Z</time></trkpt><trkpt lat="38.0981533" lon="15.873865"><ele>1537.0</ele><time>2026-04-26T09:51:44.796Z</time></trkpt><trkpt lat="38.098045" lon="15.87384"><ele>1537.0</ele><time>2026-04-26T09:51:45.795Z</time></trkpt><trkpt lat="38.0979333" lon="15.8738217"><ele>1536.0</ele><time>2026-04-26T09:51:46.796Z</time></trkpt><trkpt lat="38.097825" lon="15.8738"><ele>1535.0</ele><time>2026-04-26T09:51:47.795Z</time></trkpt><trkpt lat="38.09772" lon="15.87377"><ele>1534.0</ele><time>2026-04-26T09:51:48.795Z</time></trkpt><trkpt lat="38.0976167" lon="15.8737417"><ele>1533.0</ele><time>2026-04-26T09:51:49.796Z</time></trkpt><trkpt lat="38.0975083" lon="15.873735"><ele>1532.0</ele><time>2026-04-26T09:51:50.796Z</time></trkpt><trkpt lat="38.0973933" lon="15.8737367"><ele>1531.0</ele><time>2026-04-26T09:51:51.796Z</time></trkpt><trkpt lat="38.0972867" lon="15.8737433"><ele>1530.0</ele><time>2026-04-26T09:51:52.795Z</time></trkpt><trkpt lat="38.0971867" lon="15.87375"><ele>1529.0</ele><time>2026-04-26T09:51:53.795Z</time></trkpt><trkpt lat="38.0970883" lon="15.8737367"><ele>1528.0</ele><time>2026-04-26T09:51:54.795Z</time></trkpt><trkpt lat="38.0969933" lon="15.8737067"><ele>1527.0</ele><time>2026-04-26T09:51:55.795Z</time></trkpt><trkpt lat="38.0969" lon="15.8736533"><ele>1527.0</ele><time>2026-04-26T09:51:56.796Z</time></trkpt><trkpt lat="38.0968167" lon="15.8735833"><ele>1527.0</ele><time>2026-04-26T09:51:57.795Z</time></trkpt><trkpt lat="38.0967617" lon="15.8734883"><ele>1527.0</ele><time>2026-04-26T09:51:58.795Z</time></trkpt><trkpt lat="38.0967083" lon="15.8733683"><ele>1527.0</ele><time>2026-04-26T09:51:59.796Z</time></trkpt><trkpt lat="38.09665" lon="15.8732517"><ele>1527.0</ele><time>2026-04-26T09:52:00.795Z</time></trkpt><trkpt lat="38.09658" lon="15.87314"><ele>1526.5</ele><time>2026-04-26T09:52:01.796Z</time></trkpt><trkpt lat="38.0965" lon="15.87303"><ele>1526.0</ele><time>2026-04-26T09:52:02.795Z</time></trkpt><trkpt lat="38.09642" lon="15.8729283"><ele>1525.5</ele><time>2026-04-26T09:52:03.796Z</time></trkpt><trkpt lat="38.0963383" lon="15.8728267"><ele>1525.0</ele><time>2026-04-26T09:52:04.796Z</time></trkpt><trkpt lat="38.0962633" lon="15.8727133"><ele>1523.5</ele><time>2026-04-26T09:52:05.795Z</time></trkpt><trkpt lat="38.0961867" lon="15.8725817"><ele>1522.0</ele><time>2026-04-26T09:52:06.796Z</time></trkpt><trkpt lat="38.09611" lon="15.8724517"><ele>1520.5</ele><time>2026-04-26T09:52:07.796Z</time></trkpt><trkpt lat="38.0960367" lon="15.8723267"><ele>1519.0</ele><time>2026-04-26T09:52:08.795Z</time></trkpt><trkpt lat="38.0959617" lon="15.8722183"><ele>1519.0</ele><time>2026-04-26T09:52:09.795Z</time></trkpt><trkpt lat="38.0958783" lon="15.8721133"><ele>1519.0</ele><time>2026-04-26T09:52:10.796Z</time></trkpt><trkpt lat="38.0957933" lon="15.8720183"><ele>1519.0</ele><time>2026-04-26T09:52:11.796Z</time></trkpt><trkpt lat="38.0957083" lon="15.8719383"><ele>1519.0</ele><time>2026-04-26T09:52:12.796Z</time></trkpt><trkpt lat="38.0956267" lon="15.8718683"><ele>1519.0</ele><time>2026-04-26T09:52:13.795Z</time></trkpt><trkpt lat="38.095545" lon="15.8717867"><ele>1515.8333333333333</ele><time>2026-04-26T09:52:14.795Z</time></trkpt><trkpt lat="38.0954867" lon="15.871695"><ele>1512.6666666666665</ele><time>2026-04-26T09:52:15.795Z</time></trkpt><trkpt lat="38.095455" lon="15.8716183"><ele>1509.5</ele><time>2026-04-26T09:52:16.795Z</time></trkpt><trkpt lat="38.0954867" lon="15.8714733"><ele>1506.3333333333333</ele><time>2026-04-26T09:52:18.795Z</time></trkpt><trkpt lat="38.0955417" lon="15.871425"><ele>1503.1666666666667</ele><time>2026-04-26T09:52:19.795Z</time></trkpt><trkpt lat="38.09562" lon="15.8714033"><ele>1500.0</ele><time>2026-04-26T09:52:20.795Z</time></trkpt><trkpt lat="38.0956983" lon="15.8713667"><ele>1500.1666666666667</ele><time>2026-04-26T09:52:21.795Z</time></trkpt><trkpt lat="38.0957683" lon="15.8713167"><ele>1500.3333333333333</ele><time>2026-04-26T09:52:22.795Z</time></trkpt><trkpt lat="38.0958033" lon="15.8712317"><ele>1500.5</ele><time>2026-04-26T09:52:23.796Z</time></trkpt><trkpt lat="38.0958167" lon="15.8711267"><ele>1500.6666666666665</ele><time>2026-04-26T09:52:24.796Z</time></trkpt><trkpt lat="38.0958233" lon="15.8710217"><ele>1500.8333333333333</ele><time>2026-04-26T09:52:25.795Z</time></trkpt><trkpt lat="38.0958367" lon="15.8709167"><ele>1501.0</ele><time>2026-04-26T09:52:26.795Z</time></trkpt><trkpt lat="38.0958483" lon="15.8708117"><ele>1501.0</ele><time>2026-04-26T09:52:27.795Z</time></trkpt><trkpt lat="38.0958533" lon="15.8707067"><ele>1501.0</ele><time>2026-04-26T09:52:28.796Z</time></trkpt><trkpt lat="38.0958583" lon="15.87061"><ele>1501.0</ele><time>2026-04-26T09:52:29.795Z</time></trkpt><trkpt lat="38.0958617" lon="15.8705167"><ele>1501.0</ele><time>2026-04-26T09:52:30.796Z</time></trkpt><trkpt lat="38.0958667" lon="15.8704267"><ele>1501.0</ele><time>2026-04-26T09:52:31.796Z</time></trkpt><trkpt lat="38.0958617" lon="15.8703433"><ele>1501.0</ele><time>2026-04-26T09:52:32.796Z</time></trkpt><trkpt lat="38.0958433" lon="15.870205"><ele>1501.0</ele><time>2026-04-26T09:52:34.796Z</time></trkpt><trkpt lat="38.0957633" lon="15.8701167"><ele>1501.0</ele><time>2026-04-26T09:52:36.796Z</time></trkpt><trkpt lat="38.0956383" lon="15.87013"><ele>1501.0</ele><time>2026-04-26T09:52:38.796Z</time></trkpt><trkpt lat="38.0955583" lon="15.870155"><ele>1501.0</ele><time>2026-04-26T09:52:39.796Z</time></trkpt><trkpt lat="38.0954783" lon="15.8701917"><ele>1501.0</ele><time>2026-04-26T09:52:40.795Z</time></trkpt><trkpt lat="38.0954033" lon="15.870225"><ele>1498.4</ele><time>2026-04-26T09:52:41.795Z</time></trkpt><trkpt lat="38.0953" lon="15.8702233"><ele>1495.8</ele><time>2026-04-26T09:52:43.795Z</time></trkpt><trkpt lat="38.0952717" lon="15.8701417"><ele>1493.2</ele><time>2026-04-26T09:52:45.795Z</time></trkpt><trkpt lat="38.0953233" lon="15.87"><ele>1490.6000000000001</ele><time>2026-04-26T09:52:47.796Z</time></trkpt><trkpt lat="38.0953567" lon="15.8699083"><ele>1488.0</ele><time>2026-04-26T09:52:48.795Z</time></trkpt><trkpt lat="38.0953933" lon="15.8698117"><ele>1486.8000000000002</ele><time>2026-04-26T09:52:49.795Z</time></trkpt><trkpt lat="38.09542" lon="15.869725"><ele>1485.6</ele><time>2026-04-26T09:52:50.795Z</time></trkpt><trkpt lat="38.0954333" lon="15.8696017"><ele>1484.4</ele><time>2026-04-26T09:52:52.796Z</time></trkpt><trkpt lat="38.0953667" lon="15.8695233"><ele>1483.1999999999998</ele><time>2026-04-26T09:52:54.795Z</time></trkpt><trkpt lat="38.095225" lon="15.8695167"><ele>1482.0</ele><time>2026-04-26T09:52:56.795Z</time></trkpt><trkpt lat="38.0951283" lon="15.86953"><ele>1482.0</ele><time>2026-04-26T09:52:57.796Z</time></trkpt><trkpt lat="38.0950283" lon="15.8695367"><ele>1482.0</ele><time>2026-04-26T09:52:58.796Z</time></trkpt><trkpt lat="38.09494" lon="15.8695583"><ele>1482.0</ele><time>2026-04-26T09:52:59.795Z</time></trkpt><trkpt lat="38.0948283" lon="15.86956"><ele>1482.0</ele><time>2026-04-26T09:53:00.795Z</time></trkpt><trkpt lat="38.094705" lon="15.869535"><ele>1482.0</ele><time>2026-04-26T09:53:01.796Z</time></trkpt><trkpt lat="38.094595" lon="15.8694917"><ele>1480.1999999999998</ele><time>2026-04-26T09:53:02.795Z</time></trkpt><trkpt lat="38.0944883" lon="15.869435"><ele>1478.4</ele><time>2026-04-26T09:53:03.796Z</time></trkpt><trkpt lat="38.0943983" lon="15.8693717"><ele>1476.6</ele><time>2026-04-26T09:53:04.796Z</time></trkpt><trkpt lat="38.0943233" lon="15.869315"><ele>1474.8000000000002</ele><time>2026-04-26T09:53:05.795Z</time></trkpt><trkpt lat="38.0942467" lon="15.869265"><ele>1473.0</ele><time>2026-04-26T09:53:06.795Z</time></trkpt><trkpt lat="38.0941683" lon="15.8692317"><ele>1471.6666666666667</ele><time>2026-04-26T09:53:07.795Z</time></trkpt><trkpt lat="38.0940867" lon="15.8692083"><ele>1470.3333333333333</ele><time>2026-04-26T09:53:08.796Z</time></trkpt><trkpt lat="38.09401" lon="15.86919"><ele>1469.0</ele><time>2026-04-26T09:53:09.795Z</time></trkpt><trkpt lat="38.09393" lon="15.8691783"><ele>1467.6666666666665</ele><time>2026-04-26T09:53:10.795Z</time></trkpt><trkpt lat="38.09384" lon="15.8691667"><ele>1466.3333333333333</ele><time>2026-04-26T09:53:11.795Z</time></trkpt><trkpt lat="38.093755" lon="15.8691583"><ele>1465.0</ele><time>2026-04-26T09:53:12.795Z</time></trkpt><trkpt lat="38.0936717" lon="15.8691667"><ele>1465.0</ele><time>2026-04-26T09:53:13.795Z</time></trkpt><trkpt lat="38.0935933" lon="15.8691817"><ele>1465.0</ele><time>2026-04-26T09:53:14.795Z</time></trkpt><trkpt lat="38.0935133" lon="15.8692117"><ele>1465.0</ele><time>2026-04-26T09:53:15.796Z</time></trkpt><trkpt lat="38.093435" lon="15.8692483"><ele>1465.0</ele><time>2026-04-26T09:53:16.795Z</time></trkpt><trkpt lat="38.0933683" lon="15.8692817"><ele>1465.0</ele><time>2026-04-26T09:53:17.795Z</time></trkpt><trkpt lat="38.0932983" lon="15.8693033"><ele>1465.0</ele><time>2026-04-26T09:53:18.796Z</time></trkpt><trkpt lat="38.0932267" lon="15.86931"><ele>1463.5</ele><time>2026-04-26T09:53:19.796Z</time></trkpt><trkpt lat="38.09313" lon="15.8692733"><ele>1462.0</ele><time>2026-04-26T09:53:21.796Z</time></trkpt><trkpt lat="38.0930633" lon="15.8691917"><ele>1460.5</ele><time>2026-04-26T09:53:23.796Z</time></trkpt><trkpt lat="38.0929933" lon="15.8691417"><ele>1459.0</ele><time>2026-04-26T09:53:25.795Z</time></trkpt><trkpt lat="38.0929017" lon="15.86917"><ele>1457.5</ele><time>2026-04-26T09:53:27.795Z</time></trkpt><trkpt lat="38.0928333" lon="15.8692167"><ele>1456.0</ele><time>2026-04-26T09:53:28.795Z</time></trkpt><trkpt lat="38.0927683" lon="15.8692883"><ele>1454.8333333333333</ele><time>2026-04-26T09:53:29.795Z</time></trkpt><trkpt lat="38.0926933" lon="15.8693633"><ele>1453.6666666666665</ele><time>2026-04-26T09:53:30.796Z</time></trkpt><trkpt lat="38.0926283" lon="15.8694433"><ele>1452.5</ele><time>2026-04-26T09:53:31.796Z</time></trkpt><trkpt lat="38.0925683" lon="15.8695183"><ele>1451.3333333333333</ele><time>2026-04-26T09:53:32.795Z</time></trkpt><trkpt lat="38.092515" lon="15.8695967"><ele>1450.1666666666667</ele><time>2026-04-26T09:53:33.795Z</time></trkpt><trkpt lat="38.0924633" lon="15.8696683"><ele>1449.0</ele><time>2026-04-26T09:53:34.795Z</time></trkpt><trkpt lat="38.092425" lon="15.8697383"><ele>1446.5</ele><time>2026-04-26T09:53:35.795Z</time></trkpt><trkpt lat="38.0923783" lon="15.8698083"><ele>1444.0</ele><time>2026-04-26T09:53:36.795Z</time></trkpt><trkpt lat="38.0923017" lon="15.86991"><ele>1441.5</ele><time>2026-04-26T09:53:38.795Z</time></trkpt><trkpt lat="38.09226" lon="15.86997"><ele>1439.0</ele><time>2026-04-26T09:53:39.796Z</time></trkpt><trkpt lat="38.0922067" lon="15.8700333"><ele>1436.5</ele><time>2026-04-26T09:53:40.795Z</time></trkpt><trkpt lat="38.0921517" lon="15.8700883"><ele>1434.0</ele><time>2026-04-26T09:53:41.796Z</time></trkpt><trkpt lat="38.092095" lon="15.87013"><ele>1431.8000000000002</ele><time>2026-04-26T09:53:42.795Z</time></trkpt><trkpt lat="38.091995" lon="15.8702117"><ele>1429.6000000000001</ele><time>2026-04-26T09:53:44.795Z</time></trkpt><trkpt lat="38.0919183" lon="15.87031"><ele>1427.4</ele><time>2026-04-26T09:53:46.795Z</time></trkpt><trkpt lat="38.0918417" lon="15.8704067"><ele>1425.2</ele><time>2026-04-26T09:53:48.795Z</time></trkpt><trkpt lat="38.0917683" lon="15.870435"><ele>1423.0</ele><time>2026-04-26T09:53:50.795Z</time></trkpt><trkpt lat="38.091705" lon="15.870375"><ele>1423.0</ele><time>2026-04-26T09:53:52.796Z</time></trkpt><trkpt lat="38.091645" lon="15.8702717"><ele>1423.0</ele><time>2026-04-26T09:53:54.796Z</time></trkpt><trkpt lat="38.0916067" lon="15.8702067"><ele>1423.0</ele><time>2026-04-26T09:53:55.796Z</time></trkpt><trkpt lat="38.091545" lon="15.8701167"><ele>1423.0</ele><time>2026-04-26T09:53:57.796Z</time></trkpt><trkpt lat="38.0914833" lon="15.8700717"><ele>1423.0</ele><time>2026-04-26T09:53:59.795Z</time></trkpt><trkpt lat="38.091415" lon="15.870045"><ele>1423.0</ele><time>2026-04-26T09:54:01.796Z</time></trkpt><trkpt lat="38.0912967" lon="15.87006"><ele>1421.1666666666665</ele><time>2026-04-26T09:54:03.795Z</time></trkpt><trkpt lat="38.0912317" lon="15.87008"><ele>1419.3333333333333</ele><time>2026-04-26T09:54:04.796Z</time></trkpt><trkpt lat="38.0911533" lon="15.87011"><ele>1417.5</ele><time>2026-04-26T09:54:05.795Z</time></trkpt><trkpt lat="38.0910683" lon="15.8701517"><ele>1415.6666666666667</ele><time>2026-04-26T09:54:06.795Z</time></trkpt><trkpt lat="38.0909983" lon="15.8702367"><ele>1413.8333333333335</ele><time>2026-04-26T09:54:07.795Z</time></trkpt><trkpt lat="38.0909333" lon="15.8703433"><ele>1412.0</ele><time>2026-04-26T09:54:08.795Z</time></trkpt><trkpt lat="38.0908683" lon="15.8704383"><ele>1411.1666666666667</ele><time>2026-04-26T09:54:09.796Z</time></trkpt><trkpt lat="38.090815" lon="15.87052"><ele>1410.3333333333335</ele><time>2026-04-26T09:54:10.796Z</time></trkpt><trkpt lat="38.090765" lon="15.8705933"><ele>1409.5</ele><time>2026-04-26T09:54:11.795Z</time></trkpt><trkpt lat="38.0907133" lon="15.8706567"><ele>1408.6666666666667</ele><time>2026-04-26T09:54:12.795Z</time></trkpt><trkpt lat="38.0906217" lon="15.8707367"><ele>1407.8333333333333</ele><time>2026-04-26T09:54:14.796Z</time></trkpt><trkpt lat="38.0905467" lon="15.8707267"><ele>1407.0</ele><time>2026-04-26T09:54:16.795Z</time></trkpt><trkpt lat="38.0905017" lon="15.8706167"><ele>1406.0</ele><time>2026-04-26T09:54:19.796Z</time></trkpt><trkpt lat="38.0904983" lon="15.8704833"><ele>1405.0</ele><time>2026-04-26T09:54:21.795Z</time></trkpt><trkpt lat="38.0904967" lon="15.8703967"><ele>1404.0</ele><time>2026-04-26T09:54:22.796Z</time></trkpt><trkpt lat="38.09049" lon="15.8702983"><ele>1403.0</ele><time>2026-04-26T09:54:23.795Z</time></trkpt><trkpt lat="38.090485" lon="15.8701917"><ele>1402.0</ele><time>2026-04-26T09:54:24.795Z</time></trkpt><trkpt lat="38.0904683" lon="15.8700883"><ele>1401.0</ele><time>2026-04-26T09:54:25.795Z</time></trkpt><trkpt lat="38.0904533" lon="15.869985"><ele>1400.1666666666667</ele><time>2026-04-26T09:54:26.796Z</time></trkpt><trkpt lat="38.09044" lon="15.8698917"><ele>1399.3333333333333</ele><time>2026-04-26T09:54:27.796Z</time></trkpt><trkpt lat="38.09043" lon="15.8697833"><ele>1398.5</ele><time>2026-04-26T09:54:28.796Z</time></trkpt><trkpt lat="38.0904067" lon="15.8696817"><ele>1397.6666666666665</ele><time>2026-04-26T09:54:29.796Z</time></trkpt><trkpt lat="38.09039" lon="15.8695817"><ele>1396.8333333333333</ele><time>2026-04-26T09:54:30.795Z</time></trkpt><trkpt lat="38.0903933" lon="15.869485"><ele>1396.0</ele><time>2026-04-26T09:54:31.796Z</time></trkpt><trkpt lat="38.0904" lon="15.86939"><ele>1396.0</ele><time>2026-04-26T09:54:32.795Z</time></trkpt><trkpt lat="38.0904133" lon="15.86929"><ele>1396.0</ele><time>2026-04-26T09:54:33.796Z</time></trkpt><trkpt lat="38.0904317" lon="15.8691867"><ele>1396.0</ele><time>2026-04-26T09:54:34.796Z</time></trkpt><trkpt lat="38.0904483" lon="15.8690783"><ele>1396.0</ele><time>2026-04-26T09:54:35.795Z</time></trkpt><trkpt lat="38.0904617" lon="15.8689883"><ele>1396.0</ele><time>2026-04-26T09:54:36.796Z</time></trkpt><trkpt lat="38.0904867" lon="15.868895"><ele>1396.0</ele><time>2026-04-26T09:54:37.795Z</time></trkpt><trkpt lat="38.090505" lon="15.8687633"><ele>1395.4</ele><time>2026-04-26T09:54:39.795Z</time></trkpt><trkpt lat="38.0904833" lon="15.8686533"><ele>1394.8</ele><time>2026-04-26T09:54:41.795Z</time></trkpt><trkpt lat="38.0904317" lon="15.8685383"><ele>1394.2</ele><time>2026-04-26T09:54:43.796Z</time></trkpt><trkpt lat="38.09035" lon="15.8684367"><ele>1393.6000000000001</ele><time>2026-04-26T09:54:45.795Z</time></trkpt><trkpt lat="38.0902967" lon="15.8683817"><ele>1393.0</ele><time>2026-04-26T09:54:46.796Z</time></trkpt><trkpt lat="38.0902217" lon="15.868325"><ele>1393.0</ele><time>2026-04-26T09:54:47.796Z</time></trkpt><trkpt lat="38.0901567" lon="15.868265"><ele>1393.0</ele><time>2026-04-26T09:54:48.795Z</time></trkpt><trkpt lat="38.090085" lon="15.8681983"><ele>1393.0</ele><time>2026-04-26T09:54:49.796Z</time></trkpt><trkpt lat="38.0900117" lon="15.8681317"><ele>1393.0</ele><time>2026-04-26T09:54:50.796Z</time></trkpt><trkpt lat="38.0899367" lon="15.8680683"><ele>1393.0</ele><time>2026-04-26T09:54:51.796Z</time></trkpt><trkpt lat="38.0898583" lon="15.8680067"><ele>1393.0</ele><time>2026-04-26T09:54:52.795Z</time></trkpt><trkpt lat="38.0897867" lon="15.8679483"><ele>1392.0</ele><time>2026-04-26T09:54:53.795Z</time></trkpt><trkpt lat="38.08973" lon="15.86789"><ele>1391.0</ele><time>2026-04-26T09:54:54.796Z</time></trkpt><trkpt lat="38.089645" lon="15.867815"><ele>1390.0</ele><time>2026-04-26T09:54:56.796Z</time></trkpt><trkpt lat="38.08959" lon="15.8677683"><ele>1389.0</ele><time>2026-04-26T09:54:59.796Z</time></trkpt><trkpt lat="38.08953" lon="15.8676967"><ele>1388.0</ele><time>2026-04-26T09:55:02.796Z</time></trkpt><trkpt lat="38.0894617" lon="15.867635"><ele>1387.0</ele><time>2026-04-26T09:55:05.795Z</time></trkpt><trkpt lat="38.08939" lon="15.8675767"><ele>1387.0</ele><time>2026-04-26T09:55:08.795Z</time></trkpt><trkpt lat="38.0893133" lon="15.867515"><ele>1387.0</ele><time>2026-04-26T09:55:10.795Z</time></trkpt><trkpt lat="38.089215" lon="15.8674467"><ele>1387.0</ele><time>2026-04-26T09:55:12.795Z</time></trkpt><trkpt lat="38.089115" lon="15.867385"><ele>1387.0</ele><time>2026-04-26T09:55:14.795Z</time></trkpt><trkpt lat="38.0890083" lon="15.86732"><ele>1387.0</ele><time>2026-04-26T09:55:16.796Z</time></trkpt><trkpt lat="38.0889383" lon="15.8672883"><ele>1387.1666666666665</ele><time>2026-04-26T09:55:17.796Z</time></trkpt><trkpt lat="38.08887" lon="15.8672583"><ele>1387.3333333333333</ele><time>2026-04-26T09:55:18.795Z</time></trkpt><trkpt lat="38.0887917" lon="15.8672233"><ele>1387.5</ele><time>2026-04-26T09:55:19.796Z</time></trkpt><trkpt lat="38.088705" lon="15.8671933"><ele>1387.6666666666667</ele><time>2026-04-26T09:55:20.796Z</time></trkpt><trkpt lat="38.0886167" lon="15.86717"><ele>1387.8333333333335</ele><time>2026-04-26T09:55:21.796Z</time></trkpt><trkpt lat="38.0885333" lon="15.8671533"><ele>1388.0</ele><time>2026-04-26T09:55:22.796Z</time></trkpt><trkpt lat="38.0884417" lon="15.8671233"><ele>1388.0</ele><time>2026-04-26T09:55:23.796Z</time></trkpt><trkpt lat="38.0883517" lon="15.8670917"><ele>1388.0</ele><time>2026-04-26T09:55:24.796Z</time></trkpt><trkpt lat="38.088255" lon="15.867055"><ele>1388.0</ele><time>2026-04-26T09:55:25.795Z</time></trkpt><trkpt lat="38.0881517" lon="15.8670067"><ele>1388.0</ele><time>2026-04-26T09:55:26.795Z</time></trkpt><trkpt lat="38.0880767" lon="15.8669483"><ele>1388.0</ele><time>2026-04-26T09:55:27.795Z</time></trkpt><trkpt lat="38.087995" lon="15.8668883"><ele>1388.0</ele><time>2026-04-26T09:55:28.796Z</time></trkpt><trkpt lat="38.0879333" lon="15.8668233"><ele>1388.0</ele><time>2026-04-26T09:55:29.795Z</time></trkpt><trkpt lat="38.0878817" lon="15.8667567"><ele>1388.0</ele><time>2026-04-26T09:55:30.795Z</time></trkpt><trkpt lat="38.0878483" lon="15.86667"><ele>1388.0</ele><time>2026-04-26T09:55:31.795Z</time></trkpt><trkpt lat="38.08784" lon="15.8665517"><ele>1388.0</ele><time>2026-04-26T09:55:32.795Z</time></trkpt><trkpt lat="38.087845" lon="15.86643"><ele>1388.0</ele><time>2026-04-26T09:55:33.795Z</time></trkpt><trkpt lat="38.0878617" lon="15.8663083"><ele>1388.0</ele><time>2026-04-26T09:55:34.796Z</time></trkpt><trkpt lat="38.0878733" lon="15.8661967"><ele>1388.0</ele><time>2026-04-26T09:55:35.795Z</time></trkpt><trkpt lat="38.0878767" lon="15.8660917"><ele>1388.0</ele><time>2026-04-26T09:55:36.796Z</time></trkpt><trkpt lat="38.0878617" lon="15.8659867"><ele>1388.0</ele><time>2026-04-26T09:55:37.795Z</time></trkpt><trkpt lat="38.0878367" lon="15.8658783"><ele>1388.0</ele><time>2026-04-26T09:55:38.795Z</time></trkpt><trkpt lat="38.087795" lon="15.865775"><ele>1388.0</ele><time>2026-04-26T09:55:39.795Z</time></trkpt><trkpt lat="38.0877583" lon="15.8656783"><ele>1388.0</ele><time>2026-04-26T09:55:40.796Z</time></trkpt><trkpt lat="38.087725" lon="15.8655833"><ele>1388.0</ele><time>2026-04-26T09:55:41.796Z</time></trkpt><trkpt lat="38.0877" lon="15.8654883"><ele>1388.0</ele><time>2026-04-26T09:55:42.796Z</time></trkpt><trkpt lat="38.0877" lon="15.865385"><ele>1388.0</ele><time>2026-04-26T09:55:43.795Z</time></trkpt><trkpt lat="38.0877083" lon="15.8652833"><ele>1388.0</ele><time>2026-04-26T09:55:44.795Z</time></trkpt><trkpt lat="38.0877217" lon="15.8651783"><ele>1388.0</ele><time>2026-04-26T09:55:45.795Z</time></trkpt><trkpt lat="38.087735" lon="15.8650617"><ele>1389.0</ele><time>2026-04-26T09:55:46.796Z</time></trkpt><trkpt lat="38.0877533" lon="15.8649417"><ele>1390.0</ele><time>2026-04-26T09:55:47.795Z</time></trkpt><trkpt lat="38.0877717" lon="15.8648233"><ele>1391.0</ele><time>2026-04-26T09:55:48.795Z</time></trkpt><trkpt lat="38.087805" lon="15.8647183"><ele>1392.0</ele><time>2026-04-26T09:55:49.795Z</time></trkpt><trkpt lat="38.087845" lon="15.8646167"><ele>1393.0</ele><time>2026-04-26T09:55:50.795Z</time></trkpt><trkpt lat="38.0878833" lon="15.864525"><ele>1393.0</ele><time>2026-04-26T09:55:51.795Z</time></trkpt><trkpt lat="38.08792" lon="15.864425"><ele>1393.0</ele><time>2026-04-26T09:55:52.795Z</time></trkpt><trkpt lat="38.087945" lon="15.86433"><ele>1393.0</ele><time>2026-04-26T09:55:53.796Z</time></trkpt><trkpt lat="38.0879517" lon="15.8642383"><ele>1393.0</ele><time>2026-04-26T09:55:54.796Z</time></trkpt><trkpt lat="38.0879383" lon="15.8641467"><ele>1393.0</ele><time>2026-04-26T09:55:55.795Z</time></trkpt><trkpt lat="38.0879167" lon="15.86406"><ele>1393.0</ele><time>2026-04-26T09:55:56.795Z</time></trkpt><trkpt lat="38.0878867" lon="15.86396"><ele>1394.4</ele><time>2026-04-26T09:55:57.796Z</time></trkpt><trkpt lat="38.087845" lon="15.8638583"><ele>1395.8000000000002</ele><time>2026-04-26T09:55:58.796Z</time></trkpt><trkpt lat="38.0877967" lon="15.8637633"><ele>1397.2</ele><time>2026-04-26T09:55:59.795Z</time></trkpt><trkpt lat="38.0877333" lon="15.86367"><ele>1398.6</ele><time>2026-04-26T09:56:00.795Z</time></trkpt><trkpt lat="38.0876667" lon="15.8635733"><ele>1400.0</ele><time>2026-04-26T09:56:01.796Z</time></trkpt><trkpt lat="38.087605" lon="15.86348"><ele>1401.8</ele><time>2026-04-26T09:56:02.795Z</time></trkpt><trkpt lat="38.08754" lon="15.8633933"><ele>1403.6</ele><time>2026-04-26T09:56:03.796Z</time></trkpt><trkpt lat="38.0874617" lon="15.8633067"><ele>1405.4</ele><time>2026-04-26T09:56:04.795Z</time></trkpt><trkpt lat="38.0873867" lon="15.8632167"><ele>1407.2</ele><time>2026-04-26T09:56:05.796Z</time></trkpt><trkpt lat="38.0873167" lon="15.8631483"><ele>1409.0</ele><time>2026-04-26T09:56:06.795Z</time></trkpt><trkpt lat="38.0872417" lon="15.8630867"><ele>1409.0</ele><time>2026-04-26T09:56:07.795Z</time></trkpt><trkpt lat="38.0871733" lon="15.8630267"><ele>1409.0</ele><time>2026-04-26T09:56:08.795Z</time></trkpt><trkpt lat="38.0871033" lon="15.86297"><ele>1409.0</ele><time>2026-04-26T09:56:09.795Z</time></trkpt><trkpt lat="38.0870317" lon="15.8629167"><ele>1409.0</ele><time>2026-04-26T09:56:10.796Z</time></trkpt><trkpt lat="38.08696" lon="15.8628733"><ele>1409.0</ele><time>2026-04-26T09:56:11.796Z</time></trkpt><trkpt lat="38.0868767" lon="15.8628383"><ele>1409.0</ele><time>2026-04-26T09:56:12.795Z</time></trkpt><trkpt lat="38.0867967" lon="15.86279"><ele>1409.0</ele><time>2026-04-26T09:56:13.795Z</time></trkpt><trkpt lat="38.08671" lon="15.862755"><ele>1409.0</ele><time>2026-04-26T09:56:14.795Z</time></trkpt><trkpt lat="38.0866233" lon="15.8627217"><ele>1409.0</ele><time>2026-04-26T09:56:15.796Z</time></trkpt><trkpt lat="38.086535" lon="15.86267"><ele>1409.0</ele><time>2026-04-26T09:56:16.795Z</time></trkpt><trkpt lat="38.0864483" lon="15.8626167"><ele>1409.0</ele><time>2026-04-26T09:56:17.795Z</time></trkpt><trkpt lat="38.0863567" lon="15.8625667"><ele>1409.6</ele><time>2026-04-26T09:56:18.795Z</time></trkpt><trkpt lat="38.086265" lon="15.862515"><ele>1410.2</ele><time>2026-04-26T09:56:19.796Z</time></trkpt><trkpt lat="38.086175" lon="15.8624533"><ele>1410.8</ele><time>2026-04-26T09:56:20.795Z</time></trkpt><trkpt lat="38.0860833" lon="15.8623833"><ele>1411.3999999999999</ele><time>2026-04-26T09:56:21.795Z</time></trkpt><trkpt lat="38.0859967" lon="15.8623083"><ele>1412.0</ele><time>2026-04-26T09:56:22.796Z</time></trkpt><trkpt lat="38.0859133" lon="15.8622267"><ele>1412.0</ele><time>2026-04-26T09:56:23.796Z</time></trkpt><trkpt lat="38.0858367" lon="15.8621317"><ele>1412.0</ele><time>2026-04-26T09:56:24.795Z</time></trkpt><trkpt lat="38.08576" lon="15.86203"><ele>1412.0</ele><time>2026-04-26T09:56:25.796Z</time></trkpt><trkpt lat="38.085685" lon="15.8619267"><ele>1412.0</ele><time>2026-04-26T09:56:26.795Z</time></trkpt><trkpt lat="38.0856117" lon="15.86182"><ele>1412.0</ele><time>2026-04-26T09:56:27.796Z</time></trkpt><trkpt lat="38.0855533" lon="15.8617083"><ele>1411.8</ele><time>2026-04-26T09:56:28.795Z</time></trkpt><trkpt lat="38.0855067" lon="15.8615883"><ele>1411.6</ele><time>2026-04-26T09:56:29.796Z</time></trkpt><trkpt lat="38.08549" lon="15.86147"><ele>1411.3999999999999</ele><time>2026-04-26T09:56:30.795Z</time></trkpt><trkpt lat="38.08548" lon="15.8613467"><ele>1411.1999999999998</ele><time>2026-04-26T09:56:31.795Z</time></trkpt><trkpt lat="38.08548" lon="15.8612167"><ele>1411.0</ele><time>2026-04-26T09:56:32.795Z</time></trkpt><trkpt lat="38.0854733" lon="15.8610883"><ele>1411.0</ele><time>2026-04-26T09:56:33.795Z</time></trkpt><trkpt lat="38.0854583" lon="15.86096"><ele>1411.0</ele><time>2026-04-26T09:56:34.796Z</time></trkpt><trkpt lat="38.0854283" lon="15.860835"><ele>1411.0</ele><time>2026-04-26T09:56:35.795Z</time></trkpt><trkpt lat="38.0853917" lon="15.8607183"><ele>1411.0</ele><time>2026-04-26T09:56:36.796Z</time></trkpt><trkpt lat="38.0853483" lon="15.8606133"><ele>1411.0</ele><time>2026-04-26T09:56:37.795Z</time></trkpt><trkpt lat="38.0853017" lon="15.860515"><ele>1411.7142857142858</ele><time>2026-04-26T09:56:38.796Z</time></trkpt><trkpt lat="38.0852533" lon="15.8604317"><ele>1412.4285714285716</ele><time>2026-04-26T09:56:39.796Z</time></trkpt><trkpt lat="38.0852" lon="15.8603567"><ele>1413.1428571428573</ele><time>2026-04-26T09:56:40.796Z</time></trkpt><trkpt lat="38.0851433" lon="15.86029"><ele>1413.857142857143</ele><time>2026-04-26T09:56:41.795Z</time></trkpt><trkpt lat="38.0850967" lon="15.8602233"><ele>1414.5714285714284</ele><time>2026-04-26T09:56:42.796Z</time></trkpt><trkpt lat="38.0850467" lon="15.86017"><ele>1415.2857142857144</ele><time>2026-04-26T09:56:43.795Z</time></trkpt><trkpt lat="38.0849867" lon="15.860125"><ele>1416.0</ele><time>2026-04-26T09:56:44.796Z</time></trkpt><trkpt lat="38.0848917" lon="15.8600317"><ele>1416.3333333333333</ele><time>2026-04-26T09:56:46.796Z</time></trkpt><trkpt lat="38.084845" lon="15.8599717"><ele>1416.6666666666667</ele><time>2026-04-26T09:56:47.795Z</time></trkpt><trkpt lat="38.084775" lon="15.85986"><ele>1417.0</ele><time>2026-04-26T09:56:49.796Z</time></trkpt><trkpt lat="38.0847217" lon="15.8597833"><ele>1417.3333333333335</ele><time>2026-04-26T09:56:52.796Z</time></trkpt><trkpt lat="38.0846383" lon="15.8597633"><ele>1417.6666666666667</ele><time>2026-04-26T09:56:55.795Z</time></trkpt><trkpt lat="38.0845683" lon="15.8598167"><ele>1418.0</ele><time>2026-04-26T09:56:57.795Z</time></trkpt><trkpt lat="38.0844883" lon="15.859905"><ele>1418.0</ele><time>2026-04-26T09:56:59.795Z</time></trkpt><trkpt lat="38.0844" lon="15.8599867"><ele>1418.0</ele><time>2026-04-26T09:57:01.796Z</time></trkpt><trkpt lat="38.0843033" lon="15.8600517"><ele>1418.0</ele><time>2026-04-26T09:57:03.796Z</time></trkpt><trkpt lat="38.0842433" lon="15.8600867"><ele>1418.0</ele><time>2026-04-26T09:57:04.795Z</time></trkpt><trkpt lat="38.0841833" lon="15.8601283"><ele>1418.0</ele><time>2026-04-26T09:57:05.795Z</time></trkpt><trkpt lat="38.08412" lon="15.86017"><ele>1418.0</ele><time>2026-04-26T09:57:06.796Z</time></trkpt><trkpt lat="38.08405" lon="15.860205"><ele>1418.0</ele><time>2026-04-26T09:57:07.795Z</time></trkpt><trkpt lat="38.0839867" lon="15.8602267"><ele>1418.0</ele><time>2026-04-26T09:57:08.796Z</time></trkpt><trkpt lat="38.0838683" lon="15.8602383"><ele>1418.0</ele><time>2026-04-26T09:57:10.796Z</time></trkpt><trkpt lat="38.0837367" lon="15.8601833"><ele>1418.0</ele><time>2026-04-26T09:57:12.795Z</time></trkpt><trkpt lat="38.0836733" lon="15.8601283"><ele>1418.0</ele><time>2026-04-26T09:57:13.795Z</time></trkpt><trkpt lat="38.083605" lon="15.8600667"><ele>1418.0</ele><time>2026-04-26T09:57:14.796Z</time></trkpt><trkpt lat="38.0835467" lon="15.86"><ele>1418.0</ele><time>2026-04-26T09:57:15.795Z</time></trkpt><trkpt lat="38.0834933" lon="15.859945"><ele>1418.0</ele><time>2026-04-26T09:57:16.795Z</time></trkpt><trkpt lat="38.083415" lon="15.859875"><ele>1418.0</ele><time>2026-04-26T09:57:18.795Z</time></trkpt><trkpt lat="38.0833267" lon="15.8598867"><ele>1418.0</ele><time>2026-04-26T09:57:20.795Z</time></trkpt><trkpt lat="38.0832217" lon="15.8599633"><ele>1416.6666666666667</ele><time>2026-04-26T09:57:22.796Z</time></trkpt><trkpt lat="38.0831533" lon="15.8600017"><ele>1415.3333333333335</ele><time>2026-04-26T09:57:23.795Z</time></trkpt><trkpt lat="38.0830817" lon="15.8600317"><ele>1414.0</ele><time>2026-04-26T09:57:24.795Z</time></trkpt><trkpt lat="38.0830067" lon="15.8600633"><ele>1412.6666666666667</ele><time>2026-04-26T09:57:25.795Z</time></trkpt><trkpt lat="38.082935" lon="15.8601017"><ele>1411.3333333333333</ele><time>2026-04-26T09:57:26.795Z</time></trkpt><trkpt lat="38.08286" lon="15.8601433"><ele>1410.0</ele><time>2026-04-26T09:57:27.795Z</time></trkpt><trkpt lat="38.0827933" lon="15.8601833"><ele>1408.8571428571427</ele><time>2026-04-26T09:57:28.795Z</time></trkpt><trkpt lat="38.0827217" lon="15.8602183"><ele>1407.7142857142858</ele><time>2026-04-26T09:57:29.795Z</time></trkpt><trkpt lat="38.0826517" lon="15.860255"><ele>1406.5714285714284</ele><time>2026-04-26T09:57:30.795Z</time></trkpt><trkpt lat="38.082585" lon="15.8602867"><ele>1405.4285714285713</ele><time>2026-04-26T09:57:31.796Z</time></trkpt><trkpt lat="38.082525" lon="15.8603167"><ele>1404.2857142857142</ele><time>2026-04-26T09:57:32.795Z</time></trkpt><trkpt lat="38.0824617" lon="15.8603533"><ele>1403.142857142857</ele><time>2026-04-26T09:57:33.795Z</time></trkpt><trkpt lat="38.08241" lon="15.8604033"><ele>1402.0</ele><time>2026-04-26T09:57:34.796Z</time></trkpt><trkpt lat="38.0823417" lon="15.86045"><ele>1402.0</ele><time>2026-04-26T09:57:35.796Z</time></trkpt><trkpt lat="38.0822633" lon="15.8604933"><ele>1402.0</ele><time>2026-04-26T09:57:36.795Z</time></trkpt><trkpt lat="38.0821867" lon="15.8605433"><ele>1402.0</ele><time>2026-04-26T09:57:37.795Z</time></trkpt><trkpt lat="38.0821067" lon="15.8605833"><ele>1402.0</ele><time>2026-04-26T09:57:38.796Z</time></trkpt><trkpt lat="38.0820217" lon="15.8606183"><ele>1402.0</ele><time>2026-04-26T09:57:39.795Z</time></trkpt><trkpt lat="38.0819417" lon="15.8606483"><ele>1402.0</ele><time>2026-04-26T09:57:40.795Z</time></trkpt><trkpt lat="38.0818683" lon="15.860685"><ele>1402.0</ele><time>2026-04-26T09:57:41.795Z</time></trkpt><trkpt lat="38.0817933" lon="15.8607233"><ele>1402.0</ele><time>2026-04-26T09:57:42.795Z</time></trkpt><trkpt lat="38.0817033" lon="15.8607767"><ele>1402.0</ele><time>2026-04-26T09:57:43.795Z</time></trkpt><trkpt lat="38.0816233" lon="15.86083"><ele>1402.0</ele><time>2026-04-26T09:57:44.795Z</time></trkpt><trkpt lat="38.0815517" lon="15.86089"><ele>1402.0</ele><time>2026-04-26T09:57:45.796Z</time></trkpt><trkpt lat="38.0814933" lon="15.8609583"><ele>1402.0</ele><time>2026-04-26T09:57:46.795Z</time></trkpt><trkpt lat="38.0814233" lon="15.8610217"><ele>1402.0</ele><time>2026-04-26T09:57:47.796Z</time></trkpt><trkpt lat="38.081345" lon="15.8610717"><ele>1402.0</ele><time>2026-04-26T09:57:48.796Z</time></trkpt><trkpt lat="38.0812567" lon="15.8611067"><ele>1402.0</ele><time>2026-04-26T09:57:49.795Z</time></trkpt><trkpt lat="38.0811683" lon="15.8611333"><ele>1402.0</ele><time>2026-04-26T09:57:50.795Z</time></trkpt><trkpt lat="38.0810733" lon="15.86117"><ele>1402.0</ele><time>2026-04-26T09:57:51.795Z</time></trkpt><trkpt lat="38.08098" lon="15.8611817"><ele>1402.0</ele><time>2026-04-26T09:57:52.796Z</time></trkpt><trkpt lat="38.0808983" lon="15.8612017"><ele>1402.0</ele><time>2026-04-26T09:57:53.795Z</time></trkpt><trkpt lat="38.0808183" lon="15.86122"><ele>1402.0</ele><time>2026-04-26T09:57:54.795Z</time></trkpt><trkpt lat="38.0807317" lon="15.8612217"><ele>1402.0</ele><time>2026-04-26T09:57:55.795Z</time></trkpt><trkpt lat="38.0806467" lon="15.861205"><ele>1402.0</ele><time>2026-04-26T09:57:56.795Z</time></trkpt><trkpt lat="38.080565" lon="15.861175"><ele>1402.0</ele><time>2026-04-26T09:57:57.795Z</time></trkpt><trkpt lat="38.0804867" lon="15.8611267"><ele>1403.857142857143</ele><time>2026-04-26T09:57:58.795Z</time></trkpt><trkpt lat="38.080405" lon="15.8610883"><ele>1405.7142857142856</ele><time>2026-04-26T09:57:59.795Z</time></trkpt><trkpt lat="38.0803267" lon="15.8610583"><ele>1407.5714285714284</ele><time>2026-04-26T09:58:00.796Z</time></trkpt><trkpt lat="38.080245" lon="15.861045"><ele>1409.4285714285716</ele><time>2026-04-26T09:58:01.796Z</time></trkpt><trkpt lat="38.0801783" lon="15.86105"><ele>1411.2857142857142</ele><time>2026-04-26T09:58:02.795Z</time></trkpt><trkpt lat="38.080115" lon="15.8610733"><ele>1413.142857142857</ele><time>2026-04-26T09:58:03.795Z</time></trkpt><trkpt lat="38.0800583" lon="15.861115"><ele>1415.0</ele><time>2026-04-26T09:58:04.795Z</time></trkpt><trkpt lat="38.0800067" lon="15.8611633"><ele>1415.0</ele><time>2026-04-26T09:58:05.795Z</time></trkpt><trkpt lat="38.0798733" lon="15.8611683"><ele>1415.0</ele><time>2026-04-26T09:58:07.795Z</time></trkpt><trkpt lat="38.0798067" lon="15.8611533"><ele>1415.0</ele><time>2026-04-26T09:58:08.796Z</time></trkpt><trkpt lat="38.079735" lon="15.86113"><ele>1415.0</ele><time>2026-04-26T09:58:09.795Z</time></trkpt><trkpt lat="38.0796683" lon="15.8611383"><ele>1415.0</ele><time>2026-04-26T09:58:10.795Z</time></trkpt><trkpt lat="38.0795383" lon="15.86121"><ele>1415.0</ele><time>2026-04-26T09:58:12.796Z</time></trkpt><trkpt lat="38.0794633" lon="15.8612683"><ele>1415.0</ele><time>2026-04-26T09:58:13.795Z</time></trkpt><trkpt lat="38.0793817" lon="15.86132"><ele>1415.0</ele><time>2026-04-26T09:58:14.795Z</time></trkpt><trkpt lat="38.07931" lon="15.8613567"><ele>1415.0</ele><time>2026-04-26T09:58:15.796Z</time></trkpt><trkpt lat="38.079235" lon="15.861375"><ele>1415.0</ele><time>2026-04-26T09:58:16.795Z</time></trkpt><trkpt lat="38.0791617" lon="15.8613667"><ele>1415.0</ele><time>2026-04-26T09:58:17.795Z</time></trkpt><trkpt lat="38.0790883" lon="15.861335"><ele>1415.6666666666667</ele><time>2026-04-26T09:58:18.795Z</time></trkpt><trkpt lat="38.0790017" lon="15.8613167"><ele>1416.3333333333335</ele><time>2026-04-26T09:58:19.795Z</time></trkpt><trkpt lat="38.0789167" lon="15.8612983"><ele>1417.0</ele><time>2026-04-26T09:58:20.795Z</time></trkpt><trkpt lat="38.0788367" lon="15.8612817"><ele>1417.6666666666667</ele><time>2026-04-26T09:58:21.795Z</time></trkpt><trkpt lat="38.0787517" lon="15.8612833"><ele>1418.3333333333333</ele><time>2026-04-26T09:58:22.795Z</time></trkpt><trkpt lat="38.0786633" lon="15.861285"><ele>1419.0</ele><time>2026-04-26T09:58:23.796Z</time></trkpt><trkpt lat="38.0785783" lon="15.86128"><ele>1419.0</ele><time>2026-04-26T09:58:24.795Z</time></trkpt><trkpt lat="38.07849" lon="15.8612767"><ele>1419.0</ele><time>2026-04-26T09:58:25.795Z</time></trkpt><trkpt lat="38.078415" lon="15.8612717"><ele>1419.0</ele><time>2026-04-26T09:58:26.796Z</time></trkpt><trkpt lat="38.0783367" lon="15.8612667"><ele>1419.0</ele><time>2026-04-26T09:58:27.796Z</time></trkpt><trkpt lat="38.0782683" lon="15.8612633"><ele>1419.0</ele><time>2026-04-26T09:58:28.796Z</time></trkpt><trkpt lat="38.0781917" lon="15.8612717"><ele>1419.0</ele><time>2026-04-26T09:58:29.796Z</time></trkpt><trkpt lat="38.0781117" lon="15.8612967"><ele>1416.4</ele><time>2026-04-26T09:58:30.796Z</time></trkpt><trkpt lat="38.0780317" lon="15.86133"><ele>1413.8000000000002</ele><time>2026-04-26T09:58:31.795Z</time></trkpt><trkpt lat="38.077945" lon="15.86137"><ele>1411.1999999999998</ele><time>2026-04-26T09:58:32.796Z</time></trkpt><trkpt lat="38.0778617" lon="15.8614183"><ele>1408.6</ele><time>2026-04-26T09:58:33.796Z</time></trkpt><trkpt lat="38.0777783" lon="15.86148"><ele>1406.0</ele><time>2026-04-26T09:58:34.795Z</time></trkpt><trkpt lat="38.077705" lon="15.8615517"><ele>1406.0</ele><time>2026-04-26T09:58:35.795Z</time></trkpt><trkpt lat="38.077625" lon="15.861625"><ele>1406.0</ele><time>2026-04-26T09:58:36.795Z</time></trkpt><trkpt lat="38.07755" lon="15.8617067"><ele>1406.0</ele><time>2026-04-26T09:58:37.796Z</time></trkpt><trkpt lat="38.0774883" lon="15.861775"><ele>1406.0</ele><time>2026-04-26T09:58:38.795Z</time></trkpt><trkpt lat="38.077435" lon="15.861835"><ele>1406.0</ele><time>2026-04-26T09:58:39.795Z</time></trkpt><trkpt lat="38.077405" lon="15.861925"><ele>1406.0</ele><time>2026-04-26T09:58:40.795Z</time></trkpt><trkpt lat="38.0773967" lon="15.8620333"><ele>1403.8333333333335</ele><time>2026-04-26T09:58:41.796Z</time></trkpt><trkpt lat="38.077405" lon="15.86215"><ele>1401.6666666666667</ele><time>2026-04-26T09:58:42.796Z</time></trkpt><trkpt lat="38.0774217" lon="15.86224"><ele>1399.5</ele><time>2026-04-26T09:58:43.796Z</time></trkpt><trkpt lat="38.0774067" lon="15.86237"><ele>1397.3333333333333</ele><time>2026-04-26T09:58:45.795Z</time></trkpt><trkpt lat="38.07735" lon="15.8624333"><ele>1395.1666666666665</ele><time>2026-04-26T09:58:47.796Z</time></trkpt><trkpt lat="38.0772633" lon="15.8624017"><ele>1393.0</ele><time>2026-04-26T09:58:49.796Z</time></trkpt><trkpt lat="38.0771517" lon="15.8624033"><ele>1393.0</ele><time>2026-04-26T09:58:51.795Z</time></trkpt><trkpt lat="38.077095" lon="15.86245"><ele>1393.0</ele><time>2026-04-26T09:58:52.796Z</time></trkpt><trkpt lat="38.0770383" lon="15.862505"><ele>1393.0</ele><time>2026-04-26T09:58:53.796Z</time></trkpt><trkpt lat="38.076975" lon="15.86256"><ele>1393.0</ele><time>2026-04-26T09:58:54.796Z</time></trkpt><trkpt lat="38.076915" lon="15.8626067"><ele>1393.0</ele><time>2026-04-26T09:58:55.795Z</time></trkpt><trkpt lat="38.07681" lon="15.8626267"><ele>1393.0</ele><time>2026-04-26T09:58:57.796Z</time></trkpt><trkpt lat="38.076735" lon="15.862565"><ele>1393.0</ele><time>2026-04-26T09:58:59.796Z</time></trkpt><trkpt lat="38.0766717" lon="15.86246"><ele>1393.0</ele><time>2026-04-26T09:59:01.795Z</time></trkpt><trkpt lat="38.0765833" lon="15.8623733"><ele>1393.0</ele><time>2026-04-26T09:59:03.795Z</time></trkpt><trkpt lat="38.0765183" lon="15.8623433"><ele>1393.0</ele><time>2026-04-26T09:59:04.796Z</time></trkpt><trkpt lat="38.07644" lon="15.8623133"><ele>1393.0</ele><time>2026-04-26T09:59:05.796Z</time></trkpt><trkpt lat="38.0763683" lon="15.8622867"><ele>1393.0</ele><time>2026-04-26T09:59:06.796Z</time></trkpt><trkpt lat="38.0762933" lon="15.8622633"><ele>1392.0</ele><time>2026-04-26T09:59:07.796Z</time></trkpt><trkpt lat="38.0762217" lon="15.8622383"><ele>1391.0</ele><time>2026-04-26T09:59:08.795Z</time></trkpt><trkpt lat="38.0761483" lon="15.8622083"><ele>1390.0</ele><time>2026-04-26T09:59:09.795Z</time></trkpt><trkpt lat="38.0760783" lon="15.8621767"><ele>1389.0</ele><time>2026-04-26T09:59:10.796Z</time></trkpt><trkpt lat="38.07601" lon="15.8621467"><ele>1388.0</ele><time>2026-04-26T09:59:11.795Z</time></trkpt><trkpt lat="38.0759383" lon="15.8621117"><ele>1387.0</ele><time>2026-04-26T09:59:12.796Z</time></trkpt><trkpt lat="38.0758667" lon="15.8620917"><ele>1386.0</ele><time>2026-04-26T09:59:13.795Z</time></trkpt><trkpt lat="38.075795" lon="15.8620733"><ele>1383.1666666666667</ele><time>2026-04-26T09:59:14.795Z</time></trkpt><trkpt lat="38.0757167" lon="15.86208"><ele>1380.3333333333333</ele><time>2026-04-26T09:59:15.795Z</time></trkpt><trkpt lat="38.0756367" lon="15.8621133"><ele>1377.5</ele><time>2026-04-26T09:59:16.795Z</time></trkpt><trkpt lat="38.0755633" lon="15.8621567"><ele>1374.6666666666665</ele><time>2026-04-26T09:59:17.795Z</time></trkpt><trkpt lat="38.075505" lon="15.86221"><ele>1371.8333333333333</ele><time>2026-04-26T09:59:18.795Z</time></trkpt><trkpt lat="38.075455" lon="15.862265"><ele>1369.0</ele><time>2026-04-26T09:59:19.795Z</time></trkpt><trkpt lat="38.0753833" lon="15.8623917"><ele>1369.0000000000002</ele><time>2026-04-26T09:59:21.796Z</time></trkpt><trkpt lat="38.0753683" lon="15.862485"><ele>1369.0</ele><time>2026-04-26T09:59:22.795Z</time></trkpt><trkpt lat="38.075355" lon="15.86257"><ele>1369.0</ele><time>2026-04-26T09:59:23.796Z</time></trkpt><trkpt lat="38.0753183" lon="15.8626467"><ele>1369.0</ele><time>2026-04-26T09:59:24.796Z</time></trkpt><trkpt lat="38.07527" lon="15.862705"><ele>1369.0</ele><time>2026-04-26T09:59:25.795Z</time></trkpt><trkpt lat="38.0752183" lon="15.8627517"><ele>1369.0000000000002</ele><time>2026-04-26T09:59:26.795Z</time></trkpt><trkpt lat="38.075155" lon="15.862775"><ele>1369.0</ele><time>2026-04-26T09:59:27.795Z</time></trkpt><trkpt lat="38.0750783" lon="15.8627767"><ele>1369.0</ele><time>2026-04-26T09:59:28.795Z</time></trkpt><trkpt lat="38.0749833" lon="15.8627533"><ele>1369.0</ele><time>2026-04-26T09:59:29.796Z</time></trkpt><trkpt lat="38.0748833" lon="15.86272"><ele>1369.0</ele><time>2026-04-26T09:59:30.795Z</time></trkpt><trkpt lat="38.0747883" lon="15.862715"><ele>1369.0</ele><time>2026-04-26T09:59:31.795Z</time></trkpt><trkpt lat="38.074685" lon="15.862725"><ele>1369.0</ele><time>2026-04-26T09:59:32.795Z</time></trkpt><trkpt lat="38.074585" lon="15.862755"><ele>1369.0</ele><time>2026-04-26T09:59:33.796Z</time></trkpt><trkpt lat="38.0744917" lon="15.8627967"><ele>1369.0</ele><time>2026-04-26T09:59:34.796Z</time></trkpt><trkpt lat="38.0744117" lon="15.8628417"><ele>1369.0</ele><time>2026-04-26T09:59:35.796Z</time></trkpt><trkpt lat="38.0743533" lon="15.8628767"><ele>1369.0</ele><time>2026-04-26T09:59:36.796Z</time></trkpt><trkpt lat="38.0742667" lon="15.862925"><ele>1369.0</ele><time>2026-04-26T09:59:38.796Z</time></trkpt><trkpt lat="38.0741883" lon="15.8629533"><ele>1369.0</ele><time>2026-04-26T09:59:41.795Z</time></trkpt><trkpt lat="38.0741317" lon="15.8628967"><ele>1369.0</ele><time>2026-04-26T09:59:43.795Z</time></trkpt><trkpt lat="38.0741383" lon="15.8627983"><ele>1369.0</ele><time>2026-04-26T09:59:45.795Z</time></trkpt><trkpt lat="38.0742017" lon="15.8627167"><ele>1369.0</ele><time>2026-04-26T09:59:47.795Z</time></trkpt><trkpt lat="38.0742467" lon="15.8626517"><ele>1369.0</ele><time>2026-04-26T09:59:49.795Z</time></trkpt><trkpt lat="38.0742" lon="15.8625967"><ele>1369.0</ele><time>2026-04-26T09:59:51.795Z</time></trkpt><trkpt lat="38.0741167" lon="15.8626417"><ele>1369.0</ele><time>2026-04-26T09:59:53.796Z</time></trkpt><trkpt lat="38.0740617" lon="15.8626867"><ele>1366.857142857143</ele><time>2026-04-26T09:59:54.795Z</time></trkpt><trkpt lat="38.0740067" lon="15.8627333"><ele>1364.7142857142858</ele><time>2026-04-26T09:59:55.796Z</time></trkpt><trkpt lat="38.07395" lon="15.8627817"><ele>1362.5714285714284</ele><time>2026-04-26T09:59:56.796Z</time></trkpt><trkpt lat="38.0738933" lon="15.8628233"><ele>1360.4285714285716</ele><time>2026-04-26T09:59:57.795Z</time></trkpt><trkpt lat="38.0738367" lon="15.8628717"><ele>1358.2857142857142</ele><time>2026-04-26T09:59:58.795Z</time></trkpt><trkpt lat="38.0737867" lon="15.8629233"><ele>1356.142857142857</ele><time>2026-04-26T09:59:59.796Z</time></trkpt><trkpt lat="38.0737317" lon="15.862975"><ele>1354.0</ele><time>2026-04-26T10:00:00.795Z</time></trkpt><trkpt lat="38.0736783" lon="15.8630183"><ele>1354.0</ele><time>2026-04-26T10:00:01.795Z</time></trkpt><trkpt lat="38.0736167" lon="15.8630467"><ele>1354.0</ele><time>2026-04-26T10:00:02.795Z</time></trkpt><trkpt lat="38.0735067" lon="15.863025"><ele>1354.0</ele><time>2026-04-26T10:00:04.795Z</time></trkpt><trkpt lat="38.07345" lon="15.8629167"><ele>1354.0</ele><time>2026-04-26T10:00:06.795Z</time></trkpt><trkpt lat="38.0734833" lon="15.862785"><ele>1354.0</ele><time>2026-04-26T10:00:08.795Z</time></trkpt><trkpt lat="38.07353" lon="15.862645"><ele>1353.5</ele><time>2026-04-26T10:00:10.796Z</time></trkpt><trkpt lat="38.07349" lon="15.8625167"><ele>1353.0</ele><time>2026-04-26T10:00:12.795Z</time></trkpt><trkpt lat="38.0733917" lon="15.8624633"><ele>1352.5</ele><time>2026-04-26T10:00:14.796Z</time></trkpt><trkpt lat="38.073325" lon="15.8624583"><ele>1352.0</ele><time>2026-04-26T10:00:15.796Z</time></trkpt><trkpt lat="38.073255" lon="15.8624517"><ele>1351.5</ele><time>2026-04-26T10:00:16.795Z</time></trkpt><trkpt lat="38.07318" lon="15.8624433"><ele>1351.0</ele><time>2026-04-26T10:00:17.796Z</time></trkpt><trkpt lat="38.0731067" lon="15.8624317"><ele>1349.3333333333333</ele><time>2026-04-26T10:00:18.795Z</time></trkpt><trkpt lat="38.0730317" lon="15.86242"><ele>1347.6666666666665</ele><time>2026-04-26T10:00:19.795Z</time></trkpt><trkpt lat="38.07296" lon="15.8624083"><ele>1346.0</ele><time>2026-04-26T10:00:20.796Z</time></trkpt><trkpt lat="38.072895" lon="15.8624067"><ele>1344.3333333333333</ele><time>2026-04-26T10:00:21.796Z</time></trkpt><trkpt lat="38.0728317" lon="15.86242"><ele>1342.6666666666667</ele><time>2026-04-26T10:00:22.795Z</time></trkpt><trkpt lat="38.0727167" lon="15.86246"><ele>1341.0</ele><time>2026-04-26T10:00:24.796Z</time></trkpt><trkpt lat="38.0726033" lon="15.8624967"><ele>1341.0</ele><time>2026-04-26T10:00:26.796Z</time></trkpt><trkpt lat="38.0725433" lon="15.862525"><ele>1341.0</ele><time>2026-04-26T10:00:27.796Z</time></trkpt><trkpt lat="38.072435" lon="15.862595"><ele>1341.0</ele><time>2026-04-26T10:00:29.795Z</time></trkpt><trkpt lat="38.0723567" lon="15.8627167"><ele>1341.0</ele><time>2026-04-26T10:00:31.796Z</time></trkpt><trkpt lat="38.0723283" lon="15.8627933"><ele>1341.0</ele><time>2026-04-26T10:00:32.796Z</time></trkpt><trkpt lat="38.0723033" lon="15.8628767"><ele>1341.0</ele><time>2026-04-26T10:00:33.795Z</time></trkpt><trkpt lat="38.07227" lon="15.862955"><ele>1339.1999999999998</ele><time>2026-04-26T10:00:34.796Z</time></trkpt><trkpt lat="38.0722433" lon="15.8630317"><ele>1337.3999999999999</ele><time>2026-04-26T10:00:35.795Z</time></trkpt><trkpt lat="38.0722267" lon="15.86317"><ele>1335.6</ele><time>2026-04-26T10:00:37.796Z</time></trkpt><trkpt lat="38.072245" lon="15.8632983"><ele>1333.8</ele><time>2026-04-26T10:00:39.796Z</time></trkpt><trkpt lat="38.07228" lon="15.8634167"><ele>1332.0</ele><time>2026-04-26T10:00:41.795Z</time></trkpt><trkpt lat="38.0723133" lon="15.8635233"><ele>1332.0</ele><time>2026-04-26T10:00:43.796Z</time></trkpt><trkpt lat="38.07235" lon="15.8636233"><ele>1332.0</ele><time>2026-04-26T10:00:45.796Z</time></trkpt><trkpt lat="38.0724183" lon="15.863715"><ele>1332.0</ele><time>2026-04-26T10:00:47.796Z</time></trkpt><trkpt lat="38.07251" lon="15.8638017"><ele>1332.0</ele><time>2026-04-26T10:00:49.795Z</time></trkpt><trkpt lat="38.07253" lon="15.8639317"><ele>1332.0</ele><time>2026-04-26T10:00:51.796Z</time></trkpt><trkpt lat="38.0724967" lon="15.86405"><ele>1332.5</ele><time>2026-04-26T10:00:53.795Z</time></trkpt><trkpt lat="38.072515" lon="15.8641683"><ele>1333.0</ele><time>2026-04-26T10:00:55.795Z</time></trkpt><trkpt lat="38.0725683" lon="15.864265"><ele>1333.5</ele><time>2026-04-26T10:00:57.796Z</time></trkpt><trkpt lat="38.0726233" lon="15.86435"><ele>1334.0</ele><time>2026-04-26T10:00:59.796Z</time></trkpt><trkpt lat="38.07263" lon="15.8644617"><ele>1334.5</ele><time>2026-04-26T10:01:01.796Z</time></trkpt><trkpt lat="38.0725883" lon="15.8645233"><ele>1335.0</ele><time>2026-04-26T10:01:03.796Z</time></trkpt><trkpt lat="38.0724983" lon="15.8644967"><ele>1332.5</ele><time>2026-04-26T10:01:06.795Z</time></trkpt><trkpt lat="38.0724317" lon="15.8644633"><ele>1330.0</ele><time>2026-04-26T10:01:08.795Z</time></trkpt><trkpt lat="38.07236" lon="15.864435"><ele>1327.5</ele><time>2026-04-26T10:01:10.795Z</time></trkpt><trkpt lat="38.07228" lon="15.864425"><ele>1325.0</ele><time>2026-04-26T10:01:12.796Z</time></trkpt><trkpt lat="38.0721933" lon="15.86442"><ele>1322.5</ele><time>2026-04-26T10:01:14.795Z</time></trkpt><trkpt lat="38.072095" lon="15.8644"><ele>1320.0</ele><time>2026-04-26T10:01:16.795Z</time></trkpt><trkpt lat="38.072" lon="15.864355"><ele>1320.0</ele><time>2026-04-26T10:01:18.795Z</time></trkpt><trkpt lat="38.0719017" lon="15.8643183"><ele>1320.0</ele><time>2026-04-26T10:01:20.795Z</time></trkpt><trkpt lat="38.0718067" lon="15.864295"><ele>1320.0</ele><time>2026-04-26T10:01:22.795Z</time></trkpt><trkpt lat="38.071715" lon="15.86427"><ele>1320.0</ele><time>2026-04-26T10:01:24.795Z</time></trkpt><trkpt lat="38.0716233" lon="15.8642533"><ele>1320.0</ele><time>2026-04-26T10:01:26.796Z</time></trkpt><trkpt lat="38.07153" lon="15.8642367"><ele>1319.6</ele><time>2026-04-26T10:01:28.795Z</time></trkpt><trkpt lat="38.0714333" lon="15.864275"><ele>1319.2</ele><time>2026-04-26T10:01:30.795Z</time></trkpt><trkpt lat="38.0713483" lon="15.8643567"><ele>1318.8000000000002</ele><time>2026-04-26T10:01:32.796Z</time></trkpt><trkpt lat="38.07127" lon="15.8644283"><ele>1318.4</ele><time>2026-04-26T10:01:34.796Z</time></trkpt><trkpt lat="38.0712167" lon="15.8645033"><ele>1318.0</ele><time>2026-04-26T10:01:36.796Z</time></trkpt><trkpt lat="38.07117" lon="15.864575"><ele>1319.142857142857</ele><time>2026-04-26T10:01:38.796Z</time></trkpt><trkpt lat="38.0711233" lon="15.86465"><ele>1320.2857142857142</ele><time>2026-04-26T10:01:41.796Z</time></trkpt><trkpt lat="38.0710633" lon="15.8647317"><ele>1321.4285714285713</ele><time>2026-04-26T10:01:44.795Z</time></trkpt><trkpt lat="38.0710033" lon="15.8647717"><ele>1322.5714285714284</ele><time>2026-04-26T10:01:46.796Z</time></trkpt><trkpt lat="38.0709433" lon="15.86482"><ele>1323.7142857142858</ele><time>2026-04-26T10:01:48.796Z</time></trkpt><trkpt lat="38.07088" lon="15.8648733"><ele>1324.8571428571427</ele><time>2026-04-26T10:01:50.795Z</time></trkpt><trkpt lat="38.07082" lon="15.86492"><ele>1326.0</ele><time>2026-04-26T10:01:52.795Z</time></trkpt><trkpt lat="38.07076" lon="15.8649533"><ele>1326.0</ele><time>2026-04-26T10:01:54.795Z</time></trkpt><trkpt lat="38.0706633" lon="15.8649433"><ele>1326.0</ele><time>2026-04-26T10:01:57.796Z</time></trkpt><trkpt lat="38.0705783" lon="15.8649567"><ele>1326.0</ele><time>2026-04-26T10:01:59.796Z</time></trkpt><trkpt lat="38.0704917" lon="15.8650283"><ele>1326.0</ele><time>2026-04-26T10:02:01.795Z</time></trkpt><trkpt lat="38.0703983" lon="15.865095"><ele>1326.0</ele><time>2026-04-26T10:02:03.795Z</time></trkpt><trkpt lat="38.0703067" lon="15.86513"><ele>1328.6</ele><time>2026-04-26T10:02:05.795Z</time></trkpt><trkpt lat="38.0702283" lon="15.8651583"><ele>1331.1999999999998</ele><time>2026-04-26T10:02:08.796Z</time></trkpt><trkpt lat="38.0701433" lon="15.8651667"><ele>1333.8000000000002</ele><time>2026-04-26T10:02:23.796Z</time></trkpt><trkpt lat="38.0700567" lon="15.8651767"><ele>1336.4</ele><time>2026-04-26T10:02:25.795Z</time></trkpt><trkpt lat="38.0699517" lon="15.8652067"><ele>1339.0</ele><time>2026-04-26T10:02:27.796Z</time></trkpt><trkpt lat="38.0698417" lon="15.8652567"><ele>1339.0</ele><time>2026-04-26T10:02:29.796Z</time></trkpt><trkpt lat="38.0697733" lon="15.8652833"><ele>1339.0</ele><time>2026-04-26T10:02:30.796Z</time></trkpt><trkpt lat="38.0696983" lon="15.8653017"><ele>1339.0</ele><time>2026-04-26T10:02:31.795Z</time></trkpt><trkpt lat="38.0696167" lon="15.86532"><ele>1339.0</ele><time>2026-04-26T10:02:32.795Z</time></trkpt><trkpt lat="38.0695333" lon="15.86534"><ele>1339.0</ele><time>2026-04-26T10:02:33.795Z</time></trkpt><trkpt lat="38.0694583" lon="15.8653683"><ele>1339.0</ele><time>2026-04-26T10:02:34.795Z</time></trkpt><trkpt lat="38.06939" lon="15.8654083"><ele>1339.0</ele><time>2026-04-26T10:02:35.796Z</time></trkpt><trkpt lat="38.06934" lon="15.8654733"><ele>1339.0</ele><time>2026-04-26T10:02:36.795Z</time></trkpt><trkpt lat="38.0693083" lon="15.86555"><ele>1339.0</ele><time>2026-04-26T10:02:37.795Z</time></trkpt><trkpt lat="38.0692867" lon="15.8656267"><ele>1339.0</ele><time>2026-04-26T10:02:38.795Z</time></trkpt><trkpt lat="38.0692217" lon="15.8657533"><ele>1339.0</ele><time>2026-04-26T10:02:40.796Z</time></trkpt><trkpt lat="38.0691683" lon="15.8658083"><ele>1339.0</ele><time>2026-04-26T10:02:41.795Z</time></trkpt><trkpt lat="38.0691" lon="15.865855"><ele>1337.6666666666665</ele><time>2026-04-26T10:02:42.795Z</time></trkpt><trkpt lat="38.069035" lon="15.86589"><ele>1336.3333333333333</ele><time>2026-04-26T10:02:43.796Z</time></trkpt><trkpt lat="38.068965" lon="15.8659117"><ele>1335.0</ele><time>2026-04-26T10:02:44.796Z</time></trkpt><trkpt lat="38.0688933" lon="15.8659333"><ele>1333.6666666666667</ele><time>2026-04-26T10:02:45.796Z</time></trkpt><trkpt lat="38.0688283" lon="15.86595"><ele>1332.3333333333335</ele><time>2026-04-26T10:02:46.795Z</time></trkpt><trkpt lat="38.0687667" lon="15.8659667"><ele>1331.0</ele><time>2026-04-26T10:02:47.795Z</time></trkpt><trkpt lat="38.0686517" lon="15.86599"><ele>1331.0</ele><time>2026-04-26T10:02:49.795Z</time></trkpt><trkpt lat="38.0685433" lon="15.8660267"><ele>1331.0</ele><time>2026-04-26T10:02:51.796Z</time></trkpt><trkpt lat="38.0684467" lon="15.8660833"><ele>1331.0</ele><time>2026-04-26T10:02:53.795Z</time></trkpt><trkpt lat="38.0683683" lon="15.8661717"><ele>1331.0</ele><time>2026-04-26T10:02:55.796Z</time></trkpt><trkpt lat="38.0682983" lon="15.8662917"><ele>1331.0</ele><time>2026-04-26T10:02:57.795Z</time></trkpt><trkpt lat="38.0682583" lon="15.8664333"><ele>1331.0</ele><time>2026-04-26T10:02:59.796Z</time></trkpt><trkpt lat="38.0682717" lon="15.8665617"><ele>1331.0</ele><time>2026-04-26T10:03:01.796Z</time></trkpt><trkpt lat="38.0682783" lon="15.8666817"><ele>1331.0</ele><time>2026-04-26T10:03:03.795Z</time></trkpt><trkpt lat="38.0682217" lon="15.8667733"><ele>1331.0</ele><time>2026-04-26T10:03:05.796Z</time></trkpt><trkpt lat="38.0681333" lon="15.8667933"><ele>1331.0</ele><time>2026-04-26T10:03:07.795Z</time></trkpt><trkpt lat="38.0680533" lon="15.8668583"><ele>1331.0</ele><time>2026-04-26T10:03:09.796Z</time></trkpt><trkpt lat="38.06799" lon="15.8669483"><ele>1331.0</ele><time>2026-04-26T10:03:11.796Z</time></trkpt><trkpt lat="38.0678967" lon="15.867005"><ele>1331.0</ele><time>2026-04-26T10:03:13.795Z</time></trkpt><trkpt lat="38.067795" lon="15.8670167"><ele>1331.0</ele><time>2026-04-26T10:03:15.795Z</time></trkpt><trkpt lat="38.0677083" lon="15.86706"><ele>1331.0</ele><time>2026-04-26T10:03:17.796Z</time></trkpt><trkpt lat="38.06763" lon="15.86714"><ele>1331.0</ele><time>2026-04-26T10:03:19.795Z</time></trkpt><trkpt lat="38.0675567" lon="15.8672367"><ele>1331.0</ele><time>2026-04-26T10:03:21.796Z</time></trkpt><trkpt lat="38.0674883" lon="15.867325"><ele>1331.0</ele><time>2026-04-26T10:03:23.795Z</time></trkpt><trkpt lat="38.0674183" lon="15.8674"><ele>1331.0</ele><time>2026-04-26T10:03:25.795Z</time></trkpt><trkpt lat="38.0673417" lon="15.8674567"><ele>1331.0</ele><time>2026-04-26T10:03:27.796Z</time></trkpt><trkpt lat="38.067255" lon="15.8674833"><ele>1330.8333333333335</ele><time>2026-04-26T10:03:29.795Z</time></trkpt><trkpt lat="38.06717" lon="15.8675"><ele>1330.6666666666667</ele><time>2026-04-26T10:03:31.796Z</time></trkpt><trkpt lat="38.06709" lon="15.8675217"><ele>1330.5</ele><time>2026-04-26T10:03:33.796Z</time></trkpt><trkpt lat="38.0670133" lon="15.8675467"><ele>1330.3333333333333</ele><time>2026-04-26T10:03:35.796Z</time></trkpt><trkpt lat="38.0669417" lon="15.8675567"><ele>1330.1666666666665</ele><time>2026-04-26T10:03:37.795Z</time></trkpt><trkpt lat="38.0668633" lon="15.86758"><ele>1330.0</ele><time>2026-04-26T10:03:40.795Z</time></trkpt><trkpt lat="38.0667983" lon="15.8676167"><ele>1330.0</ele><time>2026-04-26T10:03:43.795Z</time></trkpt><trkpt lat="38.066735" lon="15.8676583"><ele>1330.0</ele><time>2026-04-26T10:03:46.796Z</time></trkpt><trkpt lat="38.0666783" lon="15.8677067"><ele>1330.0</ele><time>2026-04-26T10:03:49.795Z</time></trkpt><trkpt lat="38.0666117" lon="15.8676917"><ele>1330.0</ele><time>2026-04-26T10:05:07.796Z</time></trkpt><trkpt lat="38.06666" lon="15.86763"><ele>1330.0</ele><time>2026-04-26T10:05:13.795Z</time></trkpt><trkpt lat="38.066725" lon="15.8676433"><ele>1330.0</ele><time>2026-04-26T10:05:16.796Z</time></trkpt><trkpt lat="38.0668217" lon="15.867625"><ele>1330.0</ele><time>2026-04-26T10:05:19.795Z</time></trkpt><trkpt lat="38.0669033" lon="15.8675933"><ele>1330.0</ele><time>2026-04-26T10:05:21.796Z</time></trkpt></trkseg></trk></gpx>